<?xml version="1.0" encoding="UTF-8" standalone="no" ?>
<gpx xmlns="http://www.topografix.com/GPX/1/1" xmlns:xsi="http://www.w3.org/2001/XMLSchema-instance" xsi:schemaLocation="http://www.topografix.com/GPX/1/1 http://www.topografix.com/GPX/1/1/gpx.xsd" version="1.1" creator="VisuGPX - https://www.visugpx.com">
  <metadata>
    <name>trail combe benite 2012</name>
    <desc><![CDATA[trail combe benite
]]></desc>
  </metadata>
  <trk>
    <name><![CDATA[trail combe ben]]></name>
    <trkseg>
      <trkpt lat="45.57431" lon="6.65339">
        <ele>1270.4000244141</ele>
        <time>2012-09-09T06:29:58Z</time>
      </trkpt>
      <trkpt lat="45.57427" lon="6.65332">
        <ele>1270.4000244141</ele>
        <time>2012-09-09T06:30:03Z</time>
      </trkpt>
      <trkpt lat="45.57424" lon="6.65325">
        <ele>1270.4000244141</ele>
        <time>2012-09-09T06:30:06Z</time>
      </trkpt>
      <trkpt lat="45.5742" lon="6.65316">
        <ele>1270.4000244141</ele>
        <time>2012-09-09T06:30:09Z</time>
      </trkpt>
      <trkpt lat="45.57413" lon="6.65303">
        <ele>1270.4000244141</ele>
        <time>2012-09-09T06:30:13Z</time>
      </trkpt>
      <trkpt lat="45.57409" lon="6.65291">
        <ele>1270.4000244141</ele>
        <time>2012-09-09T06:30:16Z</time>
      </trkpt>
      <trkpt lat="45.57401" lon="6.65275">
        <ele>1270.4000244141</ele>
        <time>2012-09-09T06:30:21Z</time>
      </trkpt>
      <trkpt lat="45.5739" lon="6.65248">
        <ele>1270.4000244141</ele>
        <time>2012-09-09T06:30:28Z</time>
      </trkpt>
      <trkpt lat="45.57378" lon="6.65221">
        <ele>1270.4000244141</ele>
        <time>2012-09-09T06:30:35Z</time>
      </trkpt>
      <trkpt lat="45.57366" lon="6.65199">
        <ele>1270.4000244141</ele>
        <time>2012-09-09T06:30:41Z</time>
      </trkpt>
      <trkpt lat="45.57352" lon="6.65164">
        <ele>1270.4000244141</ele>
        <time>2012-09-09T06:30:51Z</time>
      </trkpt>
      <trkpt lat="45.57347" lon="6.65148">
        <ele>1272.5999755859</ele>
        <time>2012-09-09T06:30:56Z</time>
      </trkpt>
      <trkpt lat="45.57344" lon="6.6513">
        <ele>1273.5999755859</ele>
        <time>2012-09-09T06:31:02Z</time>
      </trkpt>
      <trkpt lat="45.57339" lon="6.65109">
        <ele>1275.8000488281</ele>
        <time>2012-09-09T06:31:09Z</time>
      </trkpt>
      <trkpt lat="45.57334" lon="6.65094">
        <ele>1275.8000488281</ele>
        <time>2012-09-09T06:31:14Z</time>
      </trkpt>
      <trkpt lat="45.5733" lon="6.65077">
        <ele>1276.8000488281</ele>
        <time>2012-09-09T06:31:19Z</time>
      </trkpt>
      <trkpt lat="45.57327" lon="6.65052">
        <ele>1279</ele>
        <time>2012-09-09T06:31:26Z</time>
      </trkpt>
      <trkpt lat="45.57325" lon="6.6503">
        <ele>1280</ele>
        <time>2012-09-09T06:31:32Z</time>
      </trkpt>
      <trkpt lat="45.57326" lon="6.65014">
        <ele>1281.1999511719</ele>
        <time>2012-09-09T06:31:37Z</time>
      </trkpt>
      <trkpt lat="45.5733" lon="6.65011">
        <ele>1282.1999511719</ele>
        <time>2012-09-09T06:31:39Z</time>
      </trkpt>
      <trkpt lat="45.57336" lon="6.65023">
        <ele>1282.1999511719</ele>
        <time>2012-09-09T06:31:44Z</time>
      </trkpt>
      <trkpt lat="45.57338" lon="6.65028">
        <ele>1283.1999511719</ele>
        <time>2012-09-09T06:31:46Z</time>
      </trkpt>
      <trkpt lat="45.57342" lon="6.65042">
        <ele>1284.4000244141</ele>
        <time>2012-09-09T06:31:51Z</time>
      </trkpt>
      <trkpt lat="45.57347" lon="6.65056">
        <ele>1285.4000244141</ele>
        <time>2012-09-09T06:31:56Z</time>
      </trkpt>
      <trkpt lat="45.57352" lon="6.65069">
        <ele>1287.5999755859</ele>
        <time>2012-09-09T06:32:01Z</time>
      </trkpt>
      <trkpt lat="45.57354" lon="6.65073">
        <ele>1288.5999755859</ele>
        <time>2012-09-09T06:32:03Z</time>
      </trkpt>
      <trkpt lat="45.57365" lon="6.65085">
        <ele>1291</ele>
        <time>2012-09-09T06:32:10Z</time>
      </trkpt>
      <trkpt lat="45.57371" lon="6.65091">
        <ele>1292.1999511719</ele>
        <time>2012-09-09T06:32:14Z</time>
      </trkpt>
      <trkpt lat="45.57376" lon="6.65097">
        <ele>1293.1999511719</ele>
        <time>2012-09-09T06:32:18Z</time>
      </trkpt>
      <trkpt lat="45.57384" lon="6.65105">
        <ele>1294.4000244141</ele>
        <time>2012-09-09T06:32:23Z</time>
      </trkpt>
      <trkpt lat="45.57393" lon="6.65114">
        <ele>1296.5999755859</ele>
        <time>2012-09-09T06:32:30Z</time>
      </trkpt>
      <trkpt lat="45.57398" lon="6.65119">
        <ele>1297.5999755859</ele>
        <time>2012-09-09T06:32:34Z</time>
      </trkpt>
      <trkpt lat="45.57406" lon="6.65126">
        <ele>1298.5999755859</ele>
        <time>2012-09-09T06:32:40Z</time>
      </trkpt>
      <trkpt lat="45.57417" lon="6.65132">
        <ele>1300.8000488281</ele>
        <time>2012-09-09T06:32:48Z</time>
      </trkpt>
      <trkpt lat="45.57422" lon="6.65137">
        <ele>1302.8000488281</ele>
        <time>2012-09-09T06:32:53Z</time>
      </trkpt>
      <trkpt lat="45.5743" lon="6.65143">
        <ele>1303.8000488281</ele>
        <time>2012-09-09T06:32:59Z</time>
      </trkpt>
      <trkpt lat="45.57435" lon="6.6515">
        <ele>1304.8000488281</ele>
        <time>2012-09-09T06:33:03Z</time>
      </trkpt>
      <trkpt lat="45.57442" lon="6.65162">
        <ele>1306</ele>
        <time>2012-09-09T06:33:10Z</time>
      </trkpt>
      <trkpt lat="45.57445" lon="6.65173">
        <ele>1307.1999511719</ele>
        <time>2012-09-09T06:33:15Z</time>
      </trkpt>
      <trkpt lat="45.57451" lon="6.65186">
        <ele>1308.4000244141</ele>
        <time>2012-09-09T06:33:21Z</time>
      </trkpt>
      <trkpt lat="45.57456" lon="6.65195">
        <ele>1309.4000244141</ele>
        <time>2012-09-09T06:33:25Z</time>
      </trkpt>
      <trkpt lat="45.57462" lon="6.65202">
        <ele>1310.5999755859</ele>
        <time>2012-09-09T06:33:29Z</time>
      </trkpt>
      <trkpt lat="45.57471" lon="6.65208">
        <ele>1311.5999755859</ele>
        <time>2012-09-09T06:33:34Z</time>
      </trkpt>
      <trkpt lat="45.57475" lon="6.65222">
        <ele>1312.5999755859</ele>
        <time>2012-09-09T06:33:40Z</time>
      </trkpt>
      <trkpt lat="45.57481" lon="6.6524">
        <ele>1313.8000488281</ele>
        <time>2012-09-09T06:33:47Z</time>
      </trkpt>
      <trkpt lat="45.57487" lon="6.65254">
        <ele>1314.8000488281</ele>
        <time>2012-09-09T06:33:53Z</time>
      </trkpt>
      <trkpt lat="45.57492" lon="6.6526">
        <ele>1314.8000488281</ele>
        <time>2012-09-09T06:33:56Z</time>
      </trkpt>
      <trkpt lat="45.57496" lon="6.65266">
        <ele>1316</ele>
        <time>2012-09-09T06:33:59Z</time>
      </trkpt>
      <trkpt lat="45.57505" lon="6.65277">
        <ele>1317.1999511719</ele>
        <time>2012-09-09T06:34:05Z</time>
      </trkpt>
      <trkpt lat="45.57514" lon="6.65289">
        <ele>1319.4000244141</ele>
        <time>2012-09-09T06:34:11Z</time>
      </trkpt>
      <trkpt lat="45.5752" lon="6.65295">
        <ele>1320.5999755859</ele>
        <time>2012-09-09T06:34:15Z</time>
      </trkpt>
      <trkpt lat="45.57527" lon="6.65301">
        <ele>1321.5999755859</ele>
        <time>2012-09-09T06:34:20Z</time>
      </trkpt>
      <trkpt lat="45.57537" lon="6.6531">
        <ele>1322.5999755859</ele>
        <time>2012-09-09T06:34:28Z</time>
      </trkpt>
      <trkpt lat="45.57543" lon="6.65314">
        <ele>1323.8000488281</ele>
        <time>2012-09-09T06:34:32Z</time>
      </trkpt>
      <trkpt lat="45.57549" lon="6.6532">
        <ele>1325</ele>
        <time>2012-09-09T06:34:37Z</time>
      </trkpt>
      <trkpt lat="45.57559" lon="6.6533">
        <ele>1327</ele>
        <time>2012-09-09T06:34:45Z</time>
      </trkpt>
      <trkpt lat="45.5757" lon="6.65336">
        <ele>1328</ele>
        <time>2012-09-09T06:34:53Z</time>
      </trkpt>
      <trkpt lat="45.57575" lon="6.65339">
        <ele>1329.1999511719</ele>
        <time>2012-09-09T06:34:57Z</time>
      </trkpt>
      <trkpt lat="45.57581" lon="6.65338">
        <ele>1330.1999511719</ele>
        <time>2012-09-09T06:35:02Z</time>
      </trkpt>
      <trkpt lat="45.57583" lon="6.65336">
        <ele>1331.1999511719</ele>
        <time>2012-09-09T06:35:05Z</time>
      </trkpt>
      <trkpt lat="45.57591" lon="6.65331">
        <ele>1332.4000244141</ele>
        <time>2012-09-09T06:35:13Z</time>
      </trkpt>
      <trkpt lat="45.57593" lon="6.6533">
        <ele>1333.4000244141</ele>
        <time>2012-09-09T06:35:16Z</time>
      </trkpt>
      <trkpt lat="45.57597" lon="6.65328">
        <ele>1334.4000244141</ele>
        <time>2012-09-09T06:35:20Z</time>
      </trkpt>
      <trkpt lat="45.57602" lon="6.65324">
        <ele>1335.5999755859</ele>
        <time>2012-09-09T06:35:26Z</time>
      </trkpt>
      <trkpt lat="45.57606" lon="6.6532">
        <ele>1336.5999755859</ele>
        <time>2012-09-09T06:35:31Z</time>
      </trkpt>
      <trkpt lat="45.57607" lon="6.65318">
        <ele>1337.5999755859</ele>
        <time>2012-09-09T06:35:33Z</time>
      </trkpt>
      <trkpt lat="45.57611" lon="6.65315">
        <ele>1339.8000488281</ele>
        <time>2012-09-09T06:35:40Z</time>
      </trkpt>
      <trkpt lat="45.57613" lon="6.65313">
        <ele>1340.8000488281</ele>
        <time>2012-09-09T06:35:43Z</time>
      </trkpt>
      <trkpt lat="45.57617" lon="6.6531">
        <ele>1341.8000488281</ele>
        <time>2012-09-09T06:35:48Z</time>
      </trkpt>
      <trkpt lat="45.57622" lon="6.65306">
        <ele>1342.8000488281</ele>
        <time>2012-09-09T06:35:54Z</time>
      </trkpt>
      <trkpt lat="45.57627" lon="6.65303">
        <ele>1345.1999511719</ele>
        <time>2012-09-09T06:35:58Z</time>
      </trkpt>
      <trkpt lat="45.57632" lon="6.65301">
        <ele>1346.1999511719</ele>
        <time>2012-09-09T06:36:02Z</time>
      </trkpt>
      <trkpt lat="45.57635" lon="6.65299">
        <ele>1346.1999511719</ele>
        <time>2012-09-09T06:36:05Z</time>
      </trkpt>
      <trkpt lat="45.57638" lon="6.65299">
        <ele>1347.4000244141</ele>
        <time>2012-09-09T06:36:08Z</time>
      </trkpt>
      <trkpt lat="45.57642" lon="6.65297">
        <ele>1348.4000244141</ele>
        <time>2012-09-09T06:36:11Z</time>
      </trkpt>
      <trkpt lat="45.57648" lon="6.65295">
        <ele>1349.5999755859</ele>
        <time>2012-09-09T06:36:16Z</time>
      </trkpt>
      <trkpt lat="45.57654" lon="6.65294">
        <ele>1350.5999755859</ele>
        <time>2012-09-09T06:36:22Z</time>
      </trkpt>
      <trkpt lat="45.57662" lon="6.65292">
        <ele>1352.8000488281</ele>
        <time>2012-09-09T06:36:30Z</time>
      </trkpt>
      <trkpt lat="45.57666" lon="6.6529">
        <ele>1354</ele>
        <time>2012-09-09T06:36:33Z</time>
      </trkpt>
      <trkpt lat="45.57673" lon="6.65286">
        <ele>1355</ele>
        <time>2012-09-09T06:36:40Z</time>
      </trkpt>
      <trkpt lat="45.57678" lon="6.65283">
        <ele>1356</ele>
        <time>2012-09-09T06:36:44Z</time>
      </trkpt>
      <trkpt lat="45.57688" lon="6.6528">
        <ele>1358</ele>
        <time>2012-09-09T06:36:53Z</time>
      </trkpt>
      <trkpt lat="45.57696" lon="6.65279">
        <ele>1359.1999511719</ele>
        <time>2012-09-09T06:36:59Z</time>
      </trkpt>
      <trkpt lat="45.57702" lon="6.65279">
        <ele>1360.1999511719</ele>
        <time>2012-09-09T06:37:03Z</time>
      </trkpt>
      <trkpt lat="45.57708" lon="6.65281">
        <ele>1361.1999511719</ele>
        <time>2012-09-09T06:37:07Z</time>
      </trkpt>
      <trkpt lat="45.57719" lon="6.65281">
        <ele>1363.1999511719</ele>
        <time>2012-09-09T06:37:16Z</time>
      </trkpt>
      <trkpt lat="45.57725" lon="6.6528">
        <ele>1364.1999511719</ele>
        <time>2012-09-09T06:37:20Z</time>
      </trkpt>
      <trkpt lat="45.57736" lon="6.65277">
        <ele>1365.4000244141</ele>
        <time>2012-09-09T06:37:29Z</time>
      </trkpt>
      <trkpt lat="45.57743" lon="6.65278">
        <ele>1366.4000244141</ele>
        <time>2012-09-09T06:37:34Z</time>
      </trkpt>
      <trkpt lat="45.57747" lon="6.6528">
        <ele>1367.4000244141</ele>
        <time>2012-09-09T06:37:37Z</time>
      </trkpt>
      <trkpt lat="45.57752" lon="6.65279">
        <ele>1368.5999755859</ele>
        <time>2012-09-09T06:37:41Z</time>
      </trkpt>
      <trkpt lat="45.57755" lon="6.65276">
        <ele>1369.5999755859</ele>
        <time>2012-09-09T06:37:44Z</time>
      </trkpt>
      <trkpt lat="45.57757" lon="6.65275">
        <ele>1370.8000488281</ele>
        <time>2012-09-09T06:37:46Z</time>
      </trkpt>
      <trkpt lat="45.57762" lon="6.65273">
        <ele>1372</ele>
        <time>2012-09-09T06:37:51Z</time>
      </trkpt>
      <trkpt lat="45.57771" lon="6.6527">
        <ele>1374.5999755859</ele>
        <time>2012-09-09T06:38:00Z</time>
      </trkpt>
      <trkpt lat="45.57775" lon="6.6527">
        <ele>1375.5999755859</ele>
        <time>2012-09-09T06:38:03Z</time>
      </trkpt>
      <trkpt lat="45.57779" lon="6.65271">
        <ele>1376.5999755859</ele>
        <time>2012-09-09T06:38:08Z</time>
      </trkpt>
      <trkpt lat="45.57783" lon="6.65271">
        <ele>1377.8000488281</ele>
        <time>2012-09-09T06:38:12Z</time>
      </trkpt>
      <trkpt lat="45.57785" lon="6.65271">
        <ele>1378.8000488281</ele>
        <time>2012-09-09T06:38:15Z</time>
      </trkpt>
      <trkpt lat="45.57788" lon="6.6527">
        <ele>1379.8000488281</ele>
        <time>2012-09-09T06:38:18Z</time>
      </trkpt>
      <trkpt lat="45.57795" lon="6.65268">
        <ele>1382</ele>
        <time>2012-09-09T06:38:23Z</time>
      </trkpt>
      <trkpt lat="45.578" lon="6.65263">
        <ele>1383</ele>
        <time>2012-09-09T06:38:29Z</time>
      </trkpt>
      <trkpt lat="45.57805" lon="6.65258">
        <ele>1384.1999511719</ele>
        <time>2012-09-09T06:38:35Z</time>
      </trkpt>
      <trkpt lat="45.57809" lon="6.65252">
        <ele>1386.4000244141</ele>
        <time>2012-09-09T06:38:42Z</time>
      </trkpt>
      <trkpt lat="45.57811" lon="6.65247">
        <ele>1387.4000244141</ele>
        <time>2012-09-09T06:38:48Z</time>
      </trkpt>
      <trkpt lat="45.57813" lon="6.65243">
        <ele>1388.4000244141</ele>
        <time>2012-09-09T06:38:53Z</time>
      </trkpt>
      <trkpt lat="45.57818" lon="6.6524">
        <ele>1389.5999755859</ele>
        <time>2012-09-09T06:38:59Z</time>
      </trkpt>
      <trkpt lat="45.57823" lon="6.65238">
        <ele>1390.8000488281</ele>
        <time>2012-09-09T06:39:05Z</time>
      </trkpt>
      <trkpt lat="45.57827" lon="6.65238">
        <ele>1391.8000488281</ele>
        <time>2012-09-09T06:39:09Z</time>
      </trkpt>
      <trkpt lat="45.5783" lon="6.65238">
        <ele>1393</ele>
        <time>2012-09-09T06:39:12Z</time>
      </trkpt>
      <trkpt lat="45.57836" lon="6.65238">
        <ele>1394</ele>
        <time>2012-09-09T06:39:17Z</time>
      </trkpt>
      <trkpt lat="45.57843" lon="6.65237">
        <ele>1395</ele>
        <time>2012-09-09T06:39:22Z</time>
      </trkpt>
      <trkpt lat="45.57859" lon="6.65237">
        <ele>1395</ele>
        <time>2012-09-09T06:39:30Z</time>
      </trkpt>
      <trkpt lat="45.5787" lon="6.6524">
        <ele>1396.1999511719</ele>
        <time>2012-09-09T06:39:35Z</time>
      </trkpt>
      <trkpt lat="45.57894" lon="6.65248">
        <ele>1397.4000244141</ele>
        <time>2012-09-09T06:39:46Z</time>
      </trkpt>
      <trkpt lat="45.57905" lon="6.65251">
        <ele>1398.4000244141</ele>
        <time>2012-09-09T06:39:51Z</time>
      </trkpt>
      <trkpt lat="45.57929" lon="6.65254">
        <ele>1399.4000244141</ele>
        <time>2012-09-09T06:40:02Z</time>
      </trkpt>
      <trkpt lat="45.57939" lon="6.65255">
        <ele>1401.5999755859</ele>
        <time>2012-09-09T06:40:07Z</time>
      </trkpt>
      <trkpt lat="45.57949" lon="6.65255">
        <ele>1402.5999755859</ele>
        <time>2012-09-09T06:40:12Z</time>
      </trkpt>
      <trkpt lat="45.57958" lon="6.65255">
        <ele>1403.8000488281</ele>
        <time>2012-09-09T06:40:17Z</time>
      </trkpt>
      <trkpt lat="45.57966" lon="6.65255">
        <ele>1404.8000488281</ele>
        <time>2012-09-09T06:40:22Z</time>
      </trkpt>
      <trkpt lat="45.57969" lon="6.65255">
        <ele>1406</ele>
        <time>2012-09-09T06:40:24Z</time>
      </trkpt>
      <trkpt lat="45.57978" lon="6.65254">
        <ele>1406</ele>
        <time>2012-09-09T06:40:28Z</time>
      </trkpt>
      <trkpt lat="45.57987" lon="6.65252">
        <ele>1407</ele>
        <time>2012-09-09T06:40:32Z</time>
      </trkpt>
      <trkpt lat="45.57997" lon="6.65252">
        <ele>1408.1999511719</ele>
        <time>2012-09-09T06:40:37Z</time>
      </trkpt>
      <trkpt lat="45.5801" lon="6.65248">
        <ele>1409.1999511719</ele>
        <time>2012-09-09T06:40:43Z</time>
      </trkpt>
      <trkpt lat="45.58024" lon="6.65243">
        <ele>1411.5999755859</ele>
        <time>2012-09-09T06:40:50Z</time>
      </trkpt>
      <trkpt lat="45.58045" lon="6.65236">
        <ele>1413.5999755859</ele>
        <time>2012-09-09T06:41:00Z</time>
      </trkpt>
      <trkpt lat="45.58053" lon="6.65233">
        <ele>1414.5999755859</ele>
        <time>2012-09-09T06:41:04Z</time>
      </trkpt>
      <trkpt lat="45.58062" lon="6.65228">
        <ele>1415.5999755859</ele>
        <time>2012-09-09T06:41:08Z</time>
      </trkpt>
      <trkpt lat="45.5807" lon="6.65223">
        <ele>1416.8000488281</ele>
        <time>2012-09-09T06:41:13Z</time>
      </trkpt>
      <trkpt lat="45.58082" lon="6.65216">
        <ele>1417.8000488281</ele>
        <time>2012-09-09T06:41:21Z</time>
      </trkpt>
      <trkpt lat="45.58089" lon="6.65212">
        <ele>1418.8000488281</ele>
        <time>2012-09-09T06:41:26Z</time>
      </trkpt>
      <trkpt lat="45.58101" lon="6.65205">
        <ele>1421</ele>
        <time>2012-09-09T06:41:35Z</time>
      </trkpt>
      <trkpt lat="45.58107" lon="6.652">
        <ele>1422</ele>
        <time>2012-09-09T06:41:40Z</time>
      </trkpt>
      <trkpt lat="45.58113" lon="6.65196">
        <ele>1423</ele>
        <time>2012-09-09T06:41:45Z</time>
      </trkpt>
      <trkpt lat="45.58119" lon="6.65191">
        <ele>1424</ele>
        <time>2012-09-09T06:41:50Z</time>
      </trkpt>
      <trkpt lat="45.58127" lon="6.65185">
        <ele>1425.1999511719</ele>
        <time>2012-09-09T06:41:57Z</time>
      </trkpt>
      <trkpt lat="45.58132" lon="6.65182">
        <ele>1426.1999511719</ele>
        <time>2012-09-09T06:42:02Z</time>
      </trkpt>
      <trkpt lat="45.58137" lon="6.65179">
        <ele>1427.4000244141</ele>
        <time>2012-09-09T06:42:06Z</time>
      </trkpt>
      <trkpt lat="45.58143" lon="6.65175">
        <ele>1428.4000244141</ele>
        <time>2012-09-09T06:42:11Z</time>
      </trkpt>
      <trkpt lat="45.5815" lon="6.6517">
        <ele>1429.4000244141</ele>
        <time>2012-09-09T06:42:17Z</time>
      </trkpt>
      <trkpt lat="45.58155" lon="6.65167">
        <ele>1431.5999755859</ele>
        <time>2012-09-09T06:42:22Z</time>
      </trkpt>
      <trkpt lat="45.5816" lon="6.65164">
        <ele>1432.8000488281</ele>
        <time>2012-09-09T06:42:27Z</time>
      </trkpt>
      <trkpt lat="45.58165" lon="6.65162">
        <ele>1434</ele>
        <time>2012-09-09T06:42:31Z</time>
      </trkpt>
      <trkpt lat="45.58172" lon="6.65157">
        <ele>1435</ele>
        <time>2012-09-09T06:42:37Z</time>
      </trkpt>
      <trkpt lat="45.58177" lon="6.65156">
        <ele>1436.1999511719</ele>
        <time>2012-09-09T06:42:42Z</time>
      </trkpt>
      <trkpt lat="45.5818" lon="6.65156">
        <ele>1437.1999511719</ele>
        <time>2012-09-09T06:42:45Z</time>
      </trkpt>
      <trkpt lat="45.58187" lon="6.65152">
        <ele>1438.4000244141</ele>
        <time>2012-09-09T06:42:51Z</time>
      </trkpt>
      <trkpt lat="45.58191" lon="6.65151">
        <ele>1439.4000244141</ele>
        <time>2012-09-09T06:42:54Z</time>
      </trkpt>
      <trkpt lat="45.58198" lon="6.65148">
        <ele>1440.4000244141</ele>
        <time>2012-09-09T06:43:00Z</time>
      </trkpt>
      <trkpt lat="45.58207" lon="6.65145">
        <ele>1441.5999755859</ele>
        <time>2012-09-09T06:43:06Z</time>
      </trkpt>
      <trkpt lat="45.58209" lon="6.65145">
        <ele>1441.5999755859</ele>
        <time>2012-09-09T06:43:08Z</time>
      </trkpt>
      <trkpt lat="45.58214" lon="6.65145">
        <ele>1442.5999755859</ele>
        <time>2012-09-09T06:43:12Z</time>
      </trkpt>
      <trkpt lat="45.58222" lon="6.65144">
        <ele>1443.5999755859</ele>
        <time>2012-09-09T06:43:18Z</time>
      </trkpt>
      <trkpt lat="45.58228" lon="6.65146">
        <ele>1444.8000488281</ele>
        <time>2012-09-09T06:43:23Z</time>
      </trkpt>
      <trkpt lat="45.58235" lon="6.65148">
        <ele>1445.8000488281</ele>
        <time>2012-09-09T06:43:28Z</time>
      </trkpt>
      <trkpt lat="45.58239" lon="6.65148">
        <ele>1445.8000488281</ele>
        <time>2012-09-09T06:43:31Z</time>
      </trkpt>
      <trkpt lat="45.58244" lon="6.65149">
        <ele>1446.8000488281</ele>
        <time>2012-09-09T06:43:35Z</time>
      </trkpt>
      <trkpt lat="45.58251" lon="6.65149">
        <ele>1448</ele>
        <time>2012-09-09T06:43:39Z</time>
      </trkpt>
      <trkpt lat="45.58257" lon="6.65149">
        <ele>1449</ele>
        <time>2012-09-09T06:43:43Z</time>
      </trkpt>
      <trkpt lat="45.58265" lon="6.6515">
        <ele>1450</ele>
        <time>2012-09-09T06:43:48Z</time>
      </trkpt>
      <trkpt lat="45.58272" lon="6.65148">
        <ele>1451.1999511719</ele>
        <time>2012-09-09T06:43:53Z</time>
      </trkpt>
      <trkpt lat="45.58279" lon="6.65147">
        <ele>1452.1999511719</ele>
        <time>2012-09-09T06:43:58Z</time>
      </trkpt>
      <trkpt lat="45.58287" lon="6.65146">
        <ele>1453.1999511719</ele>
        <time>2012-09-09T06:44:04Z</time>
      </trkpt>
      <trkpt lat="45.58293" lon="6.65146">
        <ele>1454.4000244141</ele>
        <time>2012-09-09T06:44:09Z</time>
      </trkpt>
      <trkpt lat="45.583" lon="6.65147">
        <ele>1455.4000244141</ele>
        <time>2012-09-09T06:44:14Z</time>
      </trkpt>
      <trkpt lat="45.58306" lon="6.65147">
        <ele>1456.5999755859</ele>
        <time>2012-09-09T06:44:19Z</time>
      </trkpt>
      <trkpt lat="45.5831" lon="6.65147">
        <ele>1456.5999755859</ele>
        <time>2012-09-09T06:44:22Z</time>
      </trkpt>
      <trkpt lat="45.58313" lon="6.65148">
        <ele>1457.5999755859</ele>
        <time>2012-09-09T06:44:25Z</time>
      </trkpt>
      <trkpt lat="45.5832" lon="6.65145">
        <ele>1458.8000488281</ele>
        <time>2012-09-09T06:44:30Z</time>
      </trkpt>
      <trkpt lat="45.58327" lon="6.65145">
        <ele>1459.8000488281</ele>
        <time>2012-09-09T06:44:34Z</time>
      </trkpt>
      <trkpt lat="45.5833" lon="6.65147">
        <ele>1459.8000488281</ele>
        <time>2012-09-09T06:44:37Z</time>
      </trkpt>
      <trkpt lat="45.58333" lon="6.65147">
        <ele>1461</ele>
        <time>2012-09-09T06:44:40Z</time>
      </trkpt>
      <trkpt lat="45.58337" lon="6.65148">
        <ele>1461</ele>
        <time>2012-09-09T06:44:43Z</time>
      </trkpt>
      <trkpt lat="45.58346" lon="6.65148">
        <ele>1462</ele>
        <time>2012-09-09T06:44:49Z</time>
      </trkpt>
      <trkpt lat="45.58349" lon="6.65149">
        <ele>1463</ele>
        <time>2012-09-09T06:44:51Z</time>
      </trkpt>
      <trkpt lat="45.58355" lon="6.65148">
        <ele>1464.1999511719</ele>
        <time>2012-09-09T06:44:55Z</time>
      </trkpt>
      <trkpt lat="45.58358" lon="6.65149">
        <ele>1464.1999511719</ele>
        <time>2012-09-09T06:44:58Z</time>
      </trkpt>
      <trkpt lat="45.58363" lon="6.65147">
        <ele>1465.1999511719</ele>
        <time>2012-09-09T06:45:02Z</time>
      </trkpt>
      <trkpt lat="45.5837" lon="6.65146">
        <ele>1466.4000244141</ele>
        <time>2012-09-09T06:45:07Z</time>
      </trkpt>
      <trkpt lat="45.58377" lon="6.65147">
        <ele>1468.4000244141</ele>
        <time>2012-09-09T06:45:12Z</time>
      </trkpt>
      <trkpt lat="45.58384" lon="6.65151">
        <ele>1469.4000244141</ele>
        <time>2012-09-09T06:45:18Z</time>
      </trkpt>
      <trkpt lat="45.58387" lon="6.65152">
        <ele>1470.5999755859</ele>
        <time>2012-09-09T06:45:21Z</time>
      </trkpt>
      <trkpt lat="45.58391" lon="6.65155">
        <ele>1470.5999755859</ele>
        <time>2012-09-09T06:45:24Z</time>
      </trkpt>
      <trkpt lat="45.58395" lon="6.65158">
        <ele>1471.5999755859</ele>
        <time>2012-09-09T06:45:28Z</time>
      </trkpt>
      <trkpt lat="45.58402" lon="6.65158">
        <ele>1472.8000488281</ele>
        <time>2012-09-09T06:45:32Z</time>
      </trkpt>
      <trkpt lat="45.58405" lon="6.6516">
        <ele>1473.8000488281</ele>
        <time>2012-09-09T06:45:35Z</time>
      </trkpt>
      <trkpt lat="45.58413" lon="6.65163">
        <ele>1474.8000488281</ele>
        <time>2012-09-09T06:45:41Z</time>
      </trkpt>
      <trkpt lat="45.58418" lon="6.65165">
        <ele>1475.8000488281</ele>
        <time>2012-09-09T06:45:45Z</time>
      </trkpt>
      <trkpt lat="45.58422" lon="6.65166">
        <ele>1475.8000488281</ele>
        <time>2012-09-09T06:45:48Z</time>
      </trkpt>
      <trkpt lat="45.58424" lon="6.65166">
        <ele>1477</ele>
        <time>2012-09-09T06:45:50Z</time>
      </trkpt>
      <trkpt lat="45.58431" lon="6.65166">
        <ele>1478</ele>
        <time>2012-09-09T06:45:55Z</time>
      </trkpt>
      <trkpt lat="45.58436" lon="6.65168">
        <ele>1479</ele>
        <time>2012-09-09T06:46:00Z</time>
      </trkpt>
      <trkpt lat="45.58442" lon="6.65167">
        <ele>1480.1999511719</ele>
        <time>2012-09-09T06:46:05Z</time>
      </trkpt>
      <trkpt lat="45.58445" lon="6.65165">
        <ele>1480.1999511719</ele>
        <time>2012-09-09T06:46:08Z</time>
      </trkpt>
      <trkpt lat="45.58449" lon="6.65163">
        <ele>1481.1999511719</ele>
        <time>2012-09-09T06:46:10Z</time>
      </trkpt>
      <trkpt lat="45.58452" lon="6.65163">
        <ele>1481.1999511719</ele>
        <time>2012-09-09T06:46:13Z</time>
      </trkpt>
      <trkpt lat="45.58456" lon="6.65161">
        <ele>1482.1999511719</ele>
        <time>2012-09-09T06:46:16Z</time>
      </trkpt>
      <trkpt lat="45.58458" lon="6.6516">
        <ele>1483.4000244141</ele>
        <time>2012-09-09T06:46:18Z</time>
      </trkpt>
      <trkpt lat="45.58463" lon="6.6516">
        <ele>1484.4000244141</ele>
        <time>2012-09-09T06:46:22Z</time>
      </trkpt>
      <trkpt lat="45.58468" lon="6.65158">
        <ele>1485.4000244141</ele>
        <time>2012-09-09T06:46:26Z</time>
      </trkpt>
      <trkpt lat="45.58473" lon="6.65155">
        <ele>1486.5999755859</ele>
        <time>2012-09-09T06:46:30Z</time>
      </trkpt>
      <trkpt lat="45.5848" lon="6.65151">
        <ele>1487.5999755859</ele>
        <time>2012-09-09T06:46:36Z</time>
      </trkpt>
      <trkpt lat="45.58487" lon="6.6515">
        <ele>1488.5999755859</ele>
        <time>2012-09-09T06:46:40Z</time>
      </trkpt>
      <trkpt lat="45.58489" lon="6.65148">
        <ele>1488.5999755859</ele>
        <time>2012-09-09T06:46:42Z</time>
      </trkpt>
      <trkpt lat="45.58495" lon="6.65144">
        <ele>1489.5999755859</ele>
        <time>2012-09-09T06:46:47Z</time>
      </trkpt>
      <trkpt lat="45.58505" lon="6.65137">
        <ele>1491.8000488281</ele>
        <time>2012-09-09T06:46:53Z</time>
      </trkpt>
      <trkpt lat="45.5851" lon="6.65134">
        <ele>1492.8000488281</ele>
        <time>2012-09-09T06:46:57Z</time>
      </trkpt>
      <trkpt lat="45.5852" lon="6.65129">
        <ele>1493.8000488281</ele>
        <time>2012-09-09T06:47:03Z</time>
      </trkpt>
      <trkpt lat="45.58527" lon="6.65126">
        <ele>1494.8000488281</ele>
        <time>2012-09-09T06:47:07Z</time>
      </trkpt>
      <trkpt lat="45.58532" lon="6.65124">
        <ele>1495.8000488281</ele>
        <time>2012-09-09T06:47:11Z</time>
      </trkpt>
      <trkpt lat="45.58537" lon="6.65118">
        <ele>1497</ele>
        <time>2012-09-09T06:47:16Z</time>
      </trkpt>
      <trkpt lat="45.58533" lon="6.65115">
        <ele>1498</ele>
        <time>2012-09-09T06:47:20Z</time>
      </trkpt>
      <trkpt lat="45.58525" lon="6.65118">
        <ele>1499</ele>
        <time>2012-09-09T06:47:24Z</time>
      </trkpt>
      <trkpt lat="45.58517" lon="6.65121">
        <ele>1499</ele>
        <time>2012-09-09T06:47:28Z</time>
      </trkpt>
      <trkpt lat="45.58509" lon="6.65121">
        <ele>1500</ele>
        <time>2012-09-09T06:47:32Z</time>
      </trkpt>
      <trkpt lat="45.58504" lon="6.6512">
        <ele>1501.1999511719</ele>
        <time>2012-09-09T06:47:34Z</time>
      </trkpt>
      <trkpt lat="45.58491" lon="6.65119">
        <ele>1502.1999511719</ele>
        <time>2012-09-09T06:47:41Z</time>
      </trkpt>
      <trkpt lat="45.58487" lon="6.65118">
        <ele>1503.1999511719</ele>
        <time>2012-09-09T06:47:43Z</time>
      </trkpt>
      <trkpt lat="45.58475" lon="6.65113">
        <ele>1504.4000244141</ele>
        <time>2012-09-09T06:47:49Z</time>
      </trkpt>
      <trkpt lat="45.58465" lon="6.65111">
        <ele>1505.4000244141</ele>
        <time>2012-09-09T06:47:54Z</time>
      </trkpt>
      <trkpt lat="45.58454" lon="6.65109">
        <ele>1506.5999755859</ele>
        <time>2012-09-09T06:47:59Z</time>
      </trkpt>
      <trkpt lat="45.58444" lon="6.65106">
        <ele>1507.8000488281</ele>
        <time>2012-09-09T06:48:04Z</time>
      </trkpt>
      <trkpt lat="45.58442" lon="6.65103">
        <ele>1508.8000488281</ele>
        <time>2012-09-09T06:48:06Z</time>
      </trkpt>
      <trkpt lat="45.58437" lon="6.65097">
        <ele>1509.8000488281</ele>
        <time>2012-09-09T06:48:10Z</time>
      </trkpt>
      <trkpt lat="45.58432" lon="6.65089">
        <ele>1510.8000488281</ele>
        <time>2012-09-09T06:48:14Z</time>
      </trkpt>
      <trkpt lat="45.58425" lon="6.65079">
        <ele>1512</ele>
        <time>2012-09-09T06:48:20Z</time>
      </trkpt>
      <trkpt lat="45.58423" lon="6.65074">
        <ele>1512</ele>
        <time>2012-09-09T06:48:23Z</time>
      </trkpt>
      <trkpt lat="45.5842" lon="6.65067">
        <ele>1513</ele>
        <time>2012-09-09T06:48:27Z</time>
      </trkpt>
      <trkpt lat="45.58417" lon="6.65058">
        <ele>1514</ele>
        <time>2012-09-09T06:48:31Z</time>
      </trkpt>
      <trkpt lat="45.58413" lon="6.65046">
        <ele>1515</ele>
        <time>2012-09-09T06:48:37Z</time>
      </trkpt>
      <trkpt lat="45.58406" lon="6.65032">
        <ele>1515</ele>
        <time>2012-09-09T06:48:45Z</time>
      </trkpt>
      <trkpt lat="45.58401" lon="6.65029">
        <ele>1516.1999511719</ele>
        <time>2012-09-09T06:48:49Z</time>
      </trkpt>
      <trkpt lat="45.58397" lon="6.65026">
        <ele>1517.1999511719</ele>
        <time>2012-09-09T06:48:52Z</time>
      </trkpt>
      <trkpt lat="45.5839" lon="6.65025">
        <ele>1517.1999511719</ele>
        <time>2012-09-09T06:48:57Z</time>
      </trkpt>
      <trkpt lat="45.58386" lon="6.65022">
        <ele>1518.1999511719</ele>
        <time>2012-09-09T06:49:00Z</time>
      </trkpt>
      <trkpt lat="45.58379" lon="6.65019">
        <ele>1518.1999511719</ele>
        <time>2012-09-09T06:49:05Z</time>
      </trkpt>
      <trkpt lat="45.58373" lon="6.65013">
        <ele>1519.4000244141</ele>
        <time>2012-09-09T06:49:10Z</time>
      </trkpt>
      <trkpt lat="45.58369" lon="6.65007">
        <ele>1520.4000244141</ele>
        <time>2012-09-09T06:49:14Z</time>
      </trkpt>
      <trkpt lat="45.58364" lon="6.64997">
        <ele>1521.4000244141</ele>
        <time>2012-09-09T06:49:19Z</time>
      </trkpt>
      <trkpt lat="45.58362" lon="6.64995">
        <ele>1521.4000244141</ele>
        <time>2012-09-09T06:49:21Z</time>
      </trkpt>
      <trkpt lat="45.58355" lon="6.64987">
        <ele>1522.4000244141</ele>
        <time>2012-09-09T06:49:27Z</time>
      </trkpt>
      <trkpt lat="45.58349" lon="6.64985">
        <ele>1522.4000244141</ele>
        <time>2012-09-09T06:49:31Z</time>
      </trkpt>
      <trkpt lat="45.58339" lon="6.64981">
        <ele>1523.5999755859</ele>
        <time>2012-09-09T06:49:38Z</time>
      </trkpt>
      <trkpt lat="45.58334" lon="6.64979">
        <ele>1524.5999755859</ele>
        <time>2012-09-09T06:49:41Z</time>
      </trkpt>
      <trkpt lat="45.58322" lon="6.64978">
        <ele>1524.5999755859</ele>
        <time>2012-09-09T06:49:48Z</time>
      </trkpt>
      <trkpt lat="45.58313" lon="6.64977">
        <ele>1525.5999755859</ele>
        <time>2012-09-09T06:49:53Z</time>
      </trkpt>
      <trkpt lat="45.58306" lon="6.64969">
        <ele>1526.5999755859</ele>
        <time>2012-09-09T06:49:59Z</time>
      </trkpt>
      <trkpt lat="45.58301" lon="6.64962">
        <ele>1527.8000488281</ele>
        <time>2012-09-09T06:50:04Z</time>
      </trkpt>
      <trkpt lat="45.58298" lon="6.64958">
        <ele>1528.8000488281</ele>
        <time>2012-09-09T06:50:06Z</time>
      </trkpt>
      <trkpt lat="45.58292" lon="6.64952">
        <ele>1529.8000488281</ele>
        <time>2012-09-09T06:50:10Z</time>
      </trkpt>
      <trkpt lat="45.58288" lon="6.64946">
        <ele>1529.8000488281</ele>
        <time>2012-09-09T06:50:13Z</time>
      </trkpt>
      <trkpt lat="45.58283" lon="6.64939">
        <ele>1532</ele>
        <time>2012-09-09T06:50:17Z</time>
      </trkpt>
      <trkpt lat="45.58279" lon="6.64934">
        <ele>1532</ele>
        <time>2012-09-09T06:50:21Z</time>
      </trkpt>
      <trkpt lat="45.58269" lon="6.64927">
        <ele>1534</ele>
        <time>2012-09-09T06:50:27Z</time>
      </trkpt>
      <trkpt lat="45.58257" lon="6.64919">
        <ele>1535.1999511719</ele>
        <time>2012-09-09T06:50:33Z</time>
      </trkpt>
      <trkpt lat="45.58246" lon="6.64909">
        <ele>1536.1999511719</ele>
        <time>2012-09-09T06:50:39Z</time>
      </trkpt>
      <trkpt lat="45.58234" lon="6.649">
        <ele>1537.4000244141</ele>
        <time>2012-09-09T06:50:45Z</time>
      </trkpt>
      <trkpt lat="45.58229" lon="6.64896">
        <ele>1537.4000244141</ele>
        <time>2012-09-09T06:50:48Z</time>
      </trkpt>
      <trkpt lat="45.58223" lon="6.64895">
        <ele>1538.4000244141</ele>
        <time>2012-09-09T06:50:51Z</time>
      </trkpt>
      <trkpt lat="45.58215" lon="6.64893">
        <ele>1539.5999755859</ele>
        <time>2012-09-09T06:50:55Z</time>
      </trkpt>
      <trkpt lat="45.58202" lon="6.64887">
        <ele>1540.5999755859</ele>
        <time>2012-09-09T06:51:01Z</time>
      </trkpt>
      <trkpt lat="45.58193" lon="6.64881">
        <ele>1543.1999511719</ele>
        <time>2012-09-09T06:51:06Z</time>
      </trkpt>
      <trkpt lat="45.58184" lon="6.64876">
        <ele>1543.1999511719</ele>
        <time>2012-09-09T06:51:11Z</time>
      </trkpt>
      <trkpt lat="45.58178" lon="6.64869">
        <ele>1544.1999511719</ele>
        <time>2012-09-09T06:51:16Z</time>
      </trkpt>
      <trkpt lat="45.58171" lon="6.64863">
        <ele>1544.1999511719</ele>
        <time>2012-09-09T06:51:22Z</time>
      </trkpt>
      <trkpt lat="45.58164" lon="6.64858">
        <ele>1545.1999511719</ele>
        <time>2012-09-09T06:51:27Z</time>
      </trkpt>
      <trkpt lat="45.58155" lon="6.64854">
        <ele>1546.1999511719</ele>
        <time>2012-09-09T06:51:33Z</time>
      </trkpt>
      <trkpt lat="45.5815" lon="6.64852">
        <ele>1547.4000244141</ele>
        <time>2012-09-09T06:51:36Z</time>
      </trkpt>
      <trkpt lat="45.58143" lon="6.64848">
        <ele>1548.4000244141</ele>
        <time>2012-09-09T06:51:41Z</time>
      </trkpt>
      <trkpt lat="45.58132" lon="6.64837">
        <ele>1550.5999755859</ele>
        <time>2012-09-09T06:51:50Z</time>
      </trkpt>
      <trkpt lat="45.58125" lon="6.64828">
        <ele>1551.5999755859</ele>
        <time>2012-09-09T06:51:56Z</time>
      </trkpt>
      <trkpt lat="45.58123" lon="6.64825">
        <ele>1551.5999755859</ele>
        <time>2012-09-09T06:51:58Z</time>
      </trkpt>
      <trkpt lat="45.58117" lon="6.64819">
        <ele>1552.5999755859</ele>
        <time>2012-09-09T06:52:03Z</time>
      </trkpt>
      <trkpt lat="45.58113" lon="6.64813">
        <ele>1552.5999755859</ele>
        <time>2012-09-09T06:52:07Z</time>
      </trkpt>
      <trkpt lat="45.58108" lon="6.64806">
        <ele>1553.5999755859</ele>
        <time>2012-09-09T06:52:11Z</time>
      </trkpt>
      <trkpt lat="45.58105" lon="6.64801">
        <ele>1554.8000488281</ele>
        <time>2012-09-09T06:52:14Z</time>
      </trkpt>
      <trkpt lat="45.58103" lon="6.64798">
        <ele>1554.8000488281</ele>
        <time>2012-09-09T06:52:16Z</time>
      </trkpt>
      <trkpt lat="45.58098" lon="6.64791">
        <ele>1555.8000488281</ele>
        <time>2012-09-09T06:52:20Z</time>
      </trkpt>
      <trkpt lat="45.58095" lon="6.64788">
        <ele>1556.8000488281</ele>
        <time>2012-09-09T06:52:23Z</time>
      </trkpt>
      <trkpt lat="45.58088" lon="6.64778">
        <ele>1558</ele>
        <time>2012-09-09T06:52:29Z</time>
      </trkpt>
      <trkpt lat="45.58082" lon="6.64768">
        <ele>1559</ele>
        <time>2012-09-09T06:52:35Z</time>
      </trkpt>
      <trkpt lat="45.58078" lon="6.64761">
        <ele>1560</ele>
        <time>2012-09-09T06:52:39Z</time>
      </trkpt>
      <trkpt lat="45.58072" lon="6.64746">
        <ele>1561</ele>
        <time>2012-09-09T06:52:48Z</time>
      </trkpt>
      <trkpt lat="45.58069" lon="6.64737">
        <ele>1562</ele>
        <time>2012-09-09T06:52:53Z</time>
      </trkpt>
      <trkpt lat="45.58069" lon="6.64726">
        <ele>1563</ele>
        <time>2012-09-09T06:53:00Z</time>
      </trkpt>
      <trkpt lat="45.5807" lon="6.6472">
        <ele>1564.1999511719</ele>
        <time>2012-09-09T06:53:04Z</time>
      </trkpt>
      <trkpt lat="45.5807" lon="6.64714">
        <ele>1565.1999511719</ele>
        <time>2012-09-09T06:53:08Z</time>
      </trkpt>
      <trkpt lat="45.58071" lon="6.64711">
        <ele>1566.1999511719</ele>
        <time>2012-09-09T06:53:10Z</time>
      </trkpt>
      <trkpt lat="45.5807" lon="6.64706">
        <ele>1567.1999511719</ele>
        <time>2012-09-09T06:53:13Z</time>
      </trkpt>
      <trkpt lat="45.58069" lon="6.64698">
        <ele>1568.4000244141</ele>
        <time>2012-09-09T06:53:18Z</time>
      </trkpt>
      <trkpt lat="45.58066" lon="6.64691">
        <ele>1569.4000244141</ele>
        <time>2012-09-09T06:53:23Z</time>
      </trkpt>
      <trkpt lat="45.58063" lon="6.64678">
        <ele>1571.4000244141</ele>
        <time>2012-09-09T06:53:30Z</time>
      </trkpt>
      <trkpt lat="45.58061" lon="6.64669">
        <ele>1572.5999755859</ele>
        <time>2012-09-09T06:53:37Z</time>
      </trkpt>
      <trkpt lat="45.58061" lon="6.64665">
        <ele>1573.5999755859</ele>
        <time>2012-09-09T06:53:40Z</time>
      </trkpt>
      <trkpt lat="45.5806" lon="6.64659">
        <ele>1575.8000488281</ele>
        <time>2012-09-09T06:53:44Z</time>
      </trkpt>
      <trkpt lat="45.58056" lon="6.64652">
        <ele>1575.8000488281</ele>
        <time>2012-09-09T06:53:49Z</time>
      </trkpt>
      <trkpt lat="45.58053" lon="6.64643">
        <ele>1578</ele>
        <time>2012-09-09T06:53:55Z</time>
      </trkpt>
      <trkpt lat="45.58051" lon="6.64638">
        <ele>1579.1999511719</ele>
        <time>2012-09-09T06:53:59Z</time>
      </trkpt>
      <trkpt lat="45.58049" lon="6.6463">
        <ele>1580.1999511719</ele>
        <time>2012-09-09T06:54:05Z</time>
      </trkpt>
      <trkpt lat="45.58047" lon="6.64623">
        <ele>1581.4000244141</ele>
        <time>2012-09-09T06:54:10Z</time>
      </trkpt>
      <trkpt lat="45.58047" lon="6.6462">
        <ele>1582.4000244141</ele>
        <time>2012-09-09T06:54:12Z</time>
      </trkpt>
      <trkpt lat="45.58046" lon="6.64616">
        <ele>1583.4000244141</ele>
        <time>2012-09-09T06:54:16Z</time>
      </trkpt>
      <trkpt lat="45.58045" lon="6.6461">
        <ele>1584.4000244141</ele>
        <time>2012-09-09T06:54:20Z</time>
      </trkpt>
      <trkpt lat="45.58044" lon="6.64608">
        <ele>1585.4000244141</ele>
        <time>2012-09-09T06:54:23Z</time>
      </trkpt>
      <trkpt lat="45.58042" lon="6.64601">
        <ele>1586.4000244141</ele>
        <time>2012-09-09T06:54:28Z</time>
      </trkpt>
      <trkpt lat="45.58041" lon="6.64593">
        <ele>1587.5999755859</ele>
        <time>2012-09-09T06:54:34Z</time>
      </trkpt>
      <trkpt lat="45.58038" lon="6.64585">
        <ele>1589.8000488281</ele>
        <time>2012-09-09T06:54:39Z</time>
      </trkpt>
      <trkpt lat="45.58036" lon="6.6458">
        <ele>1589.8000488281</ele>
        <time>2012-09-09T06:54:43Z</time>
      </trkpt>
      <trkpt lat="45.58034" lon="6.64574">
        <ele>1590.8000488281</ele>
        <time>2012-09-09T06:54:47Z</time>
      </trkpt>
      <trkpt lat="45.5803" lon="6.64567">
        <ele>1592.8000488281</ele>
        <time>2012-09-09T06:54:52Z</time>
      </trkpt>
      <trkpt lat="45.58024" lon="6.64562">
        <ele>1592.8000488281</ele>
        <time>2012-09-09T06:54:58Z</time>
      </trkpt>
      <trkpt lat="45.58019" lon="6.6456">
        <ele>1594</ele>
        <time>2012-09-09T06:55:01Z</time>
      </trkpt>
      <trkpt lat="45.58016" lon="6.64551">
        <ele>1595</ele>
        <time>2012-09-09T06:55:07Z</time>
      </trkpt>
      <trkpt lat="45.58019" lon="6.64548">
        <ele>1596.1999511719</ele>
        <time>2012-09-09T06:55:10Z</time>
      </trkpt>
      <trkpt lat="45.58022" lon="6.6455">
        <ele>1596.1999511719</ele>
        <time>2012-09-09T06:55:13Z</time>
      </trkpt>
      <trkpt lat="45.58028" lon="6.64554">
        <ele>1597.1999511719</ele>
        <time>2012-09-09T06:55:18Z</time>
      </trkpt>
      <trkpt lat="45.58034" lon="6.64557">
        <ele>1598.1999511719</ele>
        <time>2012-09-09T06:55:22Z</time>
      </trkpt>
      <trkpt lat="45.58036" lon="6.6456">
        <ele>1599.5999755859</ele>
        <time>2012-09-09T06:55:25Z</time>
      </trkpt>
      <trkpt lat="45.58042" lon="6.64564">
        <ele>1599.5999755859</ele>
        <time>2012-09-09T06:55:31Z</time>
      </trkpt>
      <trkpt lat="45.58048" lon="6.64569">
        <ele>1600.5999755859</ele>
        <time>2012-09-09T06:55:36Z</time>
      </trkpt>
      <trkpt lat="45.58054" lon="6.64572">
        <ele>1601.8000488281</ele>
        <time>2012-09-09T06:55:41Z</time>
      </trkpt>
      <trkpt lat="45.58059" lon="6.64577">
        <ele>1602.8000488281</ele>
        <time>2012-09-09T06:55:47Z</time>
      </trkpt>
      <trkpt lat="45.58065" lon="6.6458">
        <ele>1603.8000488281</ele>
        <time>2012-09-09T06:55:52Z</time>
      </trkpt>
      <trkpt lat="45.58067" lon="6.64581">
        <ele>1604.8000488281</ele>
        <time>2012-09-09T06:55:54Z</time>
      </trkpt>
      <trkpt lat="45.58073" lon="6.64584">
        <ele>1605.8000488281</ele>
        <time>2012-09-09T06:55:59Z</time>
      </trkpt>
      <trkpt lat="45.5808" lon="6.64583">
        <ele>1607</ele>
        <time>2012-09-09T06:56:04Z</time>
      </trkpt>
      <trkpt lat="45.58083" lon="6.64585">
        <ele>1608</ele>
        <time>2012-09-09T06:56:07Z</time>
      </trkpt>
      <trkpt lat="45.58089" lon="6.64586">
        <ele>1608</ele>
        <time>2012-09-09T06:56:11Z</time>
      </trkpt>
      <trkpt lat="45.58092" lon="6.64586">
        <ele>1609.4000244141</ele>
        <time>2012-09-09T06:56:14Z</time>
      </trkpt>
      <trkpt lat="45.58098" lon="6.64587">
        <ele>1609.4000244141</ele>
        <time>2012-09-09T06:56:19Z</time>
      </trkpt>
      <trkpt lat="45.58104" lon="6.64589">
        <ele>1610.4000244141</ele>
        <time>2012-09-09T06:56:24Z</time>
      </trkpt>
      <trkpt lat="45.5811" lon="6.64591">
        <ele>1611.4000244141</ele>
        <time>2012-09-09T06:56:28Z</time>
      </trkpt>
      <trkpt lat="45.58114" lon="6.64593">
        <ele>1612.5999755859</ele>
        <time>2012-09-09T06:56:31Z</time>
      </trkpt>
      <trkpt lat="45.5812" lon="6.64596">
        <ele>1613.5999755859</ele>
        <time>2012-09-09T06:56:36Z</time>
      </trkpt>
      <trkpt lat="45.58125" lon="6.64599">
        <ele>1614.5999755859</ele>
        <time>2012-09-09T06:56:40Z</time>
      </trkpt>
      <trkpt lat="45.58131" lon="6.64604">
        <ele>1615.8000488281</ele>
        <time>2012-09-09T06:56:45Z</time>
      </trkpt>
      <trkpt lat="45.58137" lon="6.64609">
        <ele>1616.8000488281</ele>
        <time>2012-09-09T06:56:50Z</time>
      </trkpt>
      <trkpt lat="45.5814" lon="6.6461">
        <ele>1616.8000488281</ele>
        <time>2012-09-09T06:56:52Z</time>
      </trkpt>
      <trkpt lat="45.58143" lon="6.64613">
        <ele>1618</ele>
        <time>2012-09-09T06:56:55Z</time>
      </trkpt>
      <trkpt lat="45.58147" lon="6.64614">
        <ele>1618</ele>
        <time>2012-09-09T06:56:58Z</time>
      </trkpt>
      <trkpt lat="45.58152" lon="6.64616">
        <ele>1619</ele>
        <time>2012-09-09T06:57:02Z</time>
      </trkpt>
      <trkpt lat="45.5816" lon="6.6462">
        <ele>1621</ele>
        <time>2012-09-09T06:57:08Z</time>
      </trkpt>
      <trkpt lat="45.58166" lon="6.64623">
        <ele>1622.1999511719</ele>
        <time>2012-09-09T06:57:13Z</time>
      </trkpt>
      <trkpt lat="45.58178" lon="6.6463">
        <ele>1623.5999755859</ele>
        <time>2012-09-09T06:57:23Z</time>
      </trkpt>
      <trkpt lat="45.58185" lon="6.64635">
        <ele>1625.8000488281</ele>
        <time>2012-09-09T06:57:29Z</time>
      </trkpt>
      <trkpt lat="45.58191" lon="6.64639">
        <ele>1625.8000488281</ele>
        <time>2012-09-09T06:57:34Z</time>
      </trkpt>
      <trkpt lat="45.58193" lon="6.64641">
        <ele>1626.8000488281</ele>
        <time>2012-09-09T06:57:36Z</time>
      </trkpt>
      <trkpt lat="45.58202" lon="6.64645">
        <ele>1629</ele>
        <time>2012-09-09T06:57:43Z</time>
      </trkpt>
      <trkpt lat="45.58206" lon="6.64648">
        <ele>1630</ele>
        <time>2012-09-09T06:57:47Z</time>
      </trkpt>
      <trkpt lat="45.58214" lon="6.64651">
        <ele>1631</ele>
        <time>2012-09-09T06:57:54Z</time>
      </trkpt>
      <trkpt lat="45.58223" lon="6.64656">
        <ele>1633</ele>
        <time>2012-09-09T06:58:02Z</time>
      </trkpt>
      <trkpt lat="45.58226" lon="6.64658">
        <ele>1633</ele>
        <time>2012-09-09T06:58:05Z</time>
      </trkpt>
      <trkpt lat="45.58232" lon="6.64664">
        <ele>1634</ele>
        <time>2012-09-09T06:58:11Z</time>
      </trkpt>
      <trkpt lat="45.58236" lon="6.64668">
        <ele>1635</ele>
        <time>2012-09-09T06:58:15Z</time>
      </trkpt>
      <trkpt lat="45.58242" lon="6.6467">
        <ele>1636.4000244141</ele>
        <time>2012-09-09T06:58:19Z</time>
      </trkpt>
      <trkpt lat="45.58246" lon="6.64672">
        <ele>1637.4000244141</ele>
        <time>2012-09-09T06:58:22Z</time>
      </trkpt>
      <trkpt lat="45.58254" lon="6.64676">
        <ele>1638.4000244141</ele>
        <time>2012-09-09T06:58:28Z</time>
      </trkpt>
      <trkpt lat="45.58258" lon="6.64679">
        <ele>1639.4000244141</ele>
        <time>2012-09-09T06:58:32Z</time>
      </trkpt>
      <trkpt lat="45.58262" lon="6.64682">
        <ele>1640.5999755859</ele>
        <time>2012-09-09T06:58:37Z</time>
      </trkpt>
      <trkpt lat="45.58271" lon="6.64687">
        <ele>1642.8000488281</ele>
        <time>2012-09-09T06:58:45Z</time>
      </trkpt>
      <trkpt lat="45.58274" lon="6.64691">
        <ele>1643.8000488281</ele>
        <time>2012-09-09T06:58:49Z</time>
      </trkpt>
      <trkpt lat="45.58278" lon="6.64693">
        <ele>1645</ele>
        <time>2012-09-09T06:58:54Z</time>
      </trkpt>
      <trkpt lat="45.58283" lon="6.64694">
        <ele>1646</ele>
        <time>2012-09-09T06:58:58Z</time>
      </trkpt>
      <trkpt lat="45.5829" lon="6.64692">
        <ele>1647.1999511719</ele>
        <time>2012-09-09T06:59:04Z</time>
      </trkpt>
      <trkpt lat="45.58295" lon="6.64691">
        <ele>1648.1999511719</ele>
        <time>2012-09-09T06:59:09Z</time>
      </trkpt>
      <trkpt lat="45.583" lon="6.64691">
        <ele>1649.1999511719</ele>
        <time>2012-09-09T06:59:13Z</time>
      </trkpt>
      <trkpt lat="45.58306" lon="6.64692">
        <ele>1650.4000244141</ele>
        <time>2012-09-09T06:59:18Z</time>
      </trkpt>
      <trkpt lat="45.58313" lon="6.6469">
        <ele>1651.4000244141</ele>
        <time>2012-09-09T06:59:23Z</time>
      </trkpt>
      <trkpt lat="45.58316" lon="6.64691">
        <ele>1652.5999755859</ele>
        <time>2012-09-09T06:59:25Z</time>
      </trkpt>
      <trkpt lat="45.58321" lon="6.6469">
        <ele>1653.8000488281</ele>
        <time>2012-09-09T06:59:29Z</time>
      </trkpt>
      <trkpt lat="45.58327" lon="6.64691">
        <ele>1654.8000488281</ele>
        <time>2012-09-09T06:59:34Z</time>
      </trkpt>
      <trkpt lat="45.58331" lon="6.6469">
        <ele>1654.8000488281</ele>
        <time>2012-09-09T06:59:37Z</time>
      </trkpt>
      <trkpt lat="45.58339" lon="6.64688">
        <ele>1656.8000488281</ele>
        <time>2012-09-09T06:59:43Z</time>
      </trkpt>
      <trkpt lat="45.58347" lon="6.64684">
        <ele>1658</ele>
        <time>2012-09-09T06:59:49Z</time>
      </trkpt>
      <trkpt lat="45.5835" lon="6.64682">
        <ele>1659</ele>
        <time>2012-09-09T06:59:52Z</time>
      </trkpt>
      <trkpt lat="45.58355" lon="6.64681">
        <ele>1660</ele>
        <time>2012-09-09T06:59:56Z</time>
      </trkpt>
      <trkpt lat="45.58367" lon="6.64675">
        <ele>1661</ele>
        <time>2012-09-09T07:00:05Z</time>
      </trkpt>
      <trkpt lat="45.58371" lon="6.64672">
        <ele>1662</ele>
        <time>2012-09-09T07:00:09Z</time>
      </trkpt>
      <trkpt lat="45.58377" lon="6.64668">
        <ele>1663</ele>
        <time>2012-09-09T07:00:13Z</time>
      </trkpt>
      <trkpt lat="45.58382" lon="6.64663">
        <ele>1664</ele>
        <time>2012-09-09T07:00:18Z</time>
      </trkpt>
      <trkpt lat="45.5839" lon="6.64658">
        <ele>1665.1999511719</ele>
        <time>2012-09-09T07:00:25Z</time>
      </trkpt>
      <trkpt lat="45.584" lon="6.64652">
        <ele>1666.5999755859</ele>
        <time>2012-09-09T07:00:33Z</time>
      </trkpt>
      <trkpt lat="45.5841" lon="6.64647">
        <ele>1668.8000488281</ele>
        <time>2012-09-09T07:00:40Z</time>
      </trkpt>
      <trkpt lat="45.58415" lon="6.64646">
        <ele>1669.8000488281</ele>
        <time>2012-09-09T07:00:44Z</time>
      </trkpt>
      <trkpt lat="45.58421" lon="6.64645">
        <ele>1670.8000488281</ele>
        <time>2012-09-09T07:00:49Z</time>
      </trkpt>
      <trkpt lat="45.58428" lon="6.64642">
        <ele>1671.8000488281</ele>
        <time>2012-09-09T07:00:54Z</time>
      </trkpt>
      <trkpt lat="45.5843" lon="6.64638">
        <ele>1673</ele>
        <time>2012-09-09T07:00:57Z</time>
      </trkpt>
      <trkpt lat="45.58426" lon="6.64634">
        <ele>1673</ele>
        <time>2012-09-09T07:01:00Z</time>
      </trkpt>
      <trkpt lat="45.58421" lon="6.64634">
        <ele>1673</ele>
        <time>2012-09-09T07:01:04Z</time>
      </trkpt>
      <trkpt lat="45.58411" lon="6.6463">
        <ele>1675.1999511719</ele>
        <time>2012-09-09T07:01:12Z</time>
      </trkpt>
      <trkpt lat="45.58403" lon="6.64624">
        <ele>1676.1999511719</ele>
        <time>2012-09-09T07:01:18Z</time>
      </trkpt>
      <trkpt lat="45.58395" lon="6.64619">
        <ele>1678.4000244141</ele>
        <time>2012-09-09T07:01:25Z</time>
      </trkpt>
      <trkpt lat="45.58389" lon="6.64616">
        <ele>1679.4000244141</ele>
        <time>2012-09-09T07:01:30Z</time>
      </trkpt>
      <trkpt lat="45.58388" lon="6.64611">
        <ele>1680.4000244141</ele>
        <time>2012-09-09T07:01:34Z</time>
      </trkpt>
      <trkpt lat="45.58393" lon="6.64605">
        <ele>1682.5999755859</ele>
        <time>2012-09-09T07:01:39Z</time>
      </trkpt>
      <trkpt lat="45.58397" lon="6.64601">
        <ele>1683.5999755859</ele>
        <time>2012-09-09T07:01:43Z</time>
      </trkpt>
      <trkpt lat="45.58399" lon="6.64599">
        <ele>1684.8000488281</ele>
        <time>2012-09-09T07:01:46Z</time>
      </trkpt>
      <trkpt lat="45.58403" lon="6.64595">
        <ele>1686</ele>
        <time>2012-09-09T07:01:51Z</time>
      </trkpt>
      <trkpt lat="45.58406" lon="6.64592">
        <ele>1687</ele>
        <time>2012-09-09T07:01:54Z</time>
      </trkpt>
      <trkpt lat="45.58407" lon="6.64591">
        <ele>1688.4000244141</ele>
        <time>2012-09-09T07:01:57Z</time>
      </trkpt>
      <trkpt lat="45.58409" lon="6.64589">
        <ele>1689.8000488281</ele>
        <time>2012-09-09T07:01:59Z</time>
      </trkpt>
      <trkpt lat="45.58414" lon="6.64583">
        <ele>1691</ele>
        <time>2012-09-09T07:02:07Z</time>
      </trkpt>
      <trkpt lat="45.58419" lon="6.64579">
        <ele>1692.1999511719</ele>
        <time>2012-09-09T07:02:13Z</time>
      </trkpt>
      <trkpt lat="45.58421" lon="6.64578">
        <ele>1693.1999511719</ele>
        <time>2012-09-09T07:02:15Z</time>
      </trkpt>
      <trkpt lat="45.58424" lon="6.64577">
        <ele>1693.1999511719</ele>
        <time>2012-09-09T07:02:19Z</time>
      </trkpt>
      <trkpt lat="45.58425" lon="6.64575">
        <ele>1694.1999511719</ele>
        <time>2012-09-09T07:02:22Z</time>
      </trkpt>
      <trkpt lat="45.58424" lon="6.64569">
        <ele>1695.1999511719</ele>
        <time>2012-09-09T07:02:27Z</time>
      </trkpt>
      <trkpt lat="45.58425" lon="6.64564">
        <ele>1696.1999511719</ele>
        <time>2012-09-09T07:02:31Z</time>
      </trkpt>
      <trkpt lat="45.58428" lon="6.64566">
        <ele>1697.4000244141</ele>
        <time>2012-09-09T07:02:37Z</time>
      </trkpt>
      <trkpt lat="45.58431" lon="6.64563">
        <ele>1698.4000244141</ele>
        <time>2012-09-09T07:02:40Z</time>
      </trkpt>
      <trkpt lat="45.58431" lon="6.64562">
        <ele>1698.4000244141</ele>
        <time>2012-09-09T07:02:42Z</time>
      </trkpt>
      <trkpt lat="45.58432" lon="6.64559">
        <ele>1699.4000244141</ele>
        <time>2012-09-09T07:02:44Z</time>
      </trkpt>
      <trkpt lat="45.58433" lon="6.64556">
        <ele>1700.4000244141</ele>
        <time>2012-09-09T07:02:47Z</time>
      </trkpt>
      <trkpt lat="45.5844" lon="6.64553">
        <ele>1702.5999755859</ele>
        <time>2012-09-09T07:02:58Z</time>
      </trkpt>
      <trkpt lat="45.58447" lon="6.64557">
        <ele>1703.8000488281</ele>
        <time>2012-09-09T07:03:04Z</time>
      </trkpt>
      <trkpt lat="45.58454" lon="6.64555">
        <ele>1704.8000488281</ele>
        <time>2012-09-09T07:03:10Z</time>
      </trkpt>
      <trkpt lat="45.58465" lon="6.6455">
        <ele>1707.1999511719</ele>
        <time>2012-09-09T07:03:20Z</time>
      </trkpt>
      <trkpt lat="45.58471" lon="6.6455">
        <ele>1707.1999511719</ele>
        <time>2012-09-09T07:03:25Z</time>
      </trkpt>
      <trkpt lat="45.58475" lon="6.6455">
        <ele>1708.1999511719</ele>
        <time>2012-09-09T07:03:29Z</time>
      </trkpt>
      <trkpt lat="45.58479" lon="6.64548">
        <ele>1709.1999511719</ele>
        <time>2012-09-09T07:03:34Z</time>
      </trkpt>
      <trkpt lat="45.5848" lon="6.64544">
        <ele>1710.1999511719</ele>
        <time>2012-09-09T07:03:38Z</time>
      </trkpt>
      <trkpt lat="45.58478" lon="6.6454">
        <ele>1711.4000244141</ele>
        <time>2012-09-09T07:03:41Z</time>
      </trkpt>
      <trkpt lat="45.58477" lon="6.64536">
        <ele>1711.4000244141</ele>
        <time>2012-09-09T07:03:44Z</time>
      </trkpt>
      <trkpt lat="45.5848" lon="6.64533">
        <ele>1713.5999755859</ele>
        <time>2012-09-09T07:03:48Z</time>
      </trkpt>
      <trkpt lat="45.58481" lon="6.6453">
        <ele>1713.5999755859</ele>
        <time>2012-09-09T07:03:51Z</time>
      </trkpt>
      <trkpt lat="45.5848" lon="6.64524">
        <ele>1715.5999755859</ele>
        <time>2012-09-09T07:03:58Z</time>
      </trkpt>
      <trkpt lat="45.58478" lon="6.64519">
        <ele>1716.5999755859</ele>
        <time>2012-09-09T07:04:03Z</time>
      </trkpt>
      <trkpt lat="45.58477" lon="6.64515">
        <ele>1717.8000488281</ele>
        <time>2012-09-09T07:04:07Z</time>
      </trkpt>
      <trkpt lat="45.58474" lon="6.64513">
        <ele>1718.8000488281</ele>
        <time>2012-09-09T07:04:10Z</time>
      </trkpt>
      <trkpt lat="45.58469" lon="6.6451">
        <ele>1720</ele>
        <time>2012-09-09T07:04:15Z</time>
      </trkpt>
      <trkpt lat="45.58465" lon="6.64506">
        <ele>1721.1999511719</ele>
        <time>2012-09-09T07:04:20Z</time>
      </trkpt>
      <trkpt lat="45.58463" lon="6.64501">
        <ele>1722.4000244141</ele>
        <time>2012-09-09T07:04:25Z</time>
      </trkpt>
      <trkpt lat="45.58461" lon="6.64496">
        <ele>1723.5999755859</ele>
        <time>2012-09-09T07:04:30Z</time>
      </trkpt>
      <trkpt lat="45.58459" lon="6.64493">
        <ele>1723.5999755859</ele>
        <time>2012-09-09T07:04:34Z</time>
      </trkpt>
      <trkpt lat="45.58457" lon="6.64491">
        <ele>1724.5999755859</ele>
        <time>2012-09-09T07:04:36Z</time>
      </trkpt>
      <trkpt lat="45.58455" lon="6.64488">
        <ele>1725.5999755859</ele>
        <time>2012-09-09T07:04:41Z</time>
      </trkpt>
      <trkpt lat="45.58453" lon="6.64484">
        <ele>1726.8000488281</ele>
        <time>2012-09-09T07:04:46Z</time>
      </trkpt>
      <trkpt lat="45.58454" lon="6.6448">
        <ele>1728.1999511719</ele>
        <time>2012-09-09T07:04:51Z</time>
      </trkpt>
      <trkpt lat="45.58458" lon="6.64478">
        <ele>1729.1999511719</ele>
        <time>2012-09-09T07:04:55Z</time>
      </trkpt>
      <trkpt lat="45.5846" lon="6.64475">
        <ele>1730.4000244141</ele>
        <time>2012-09-09T07:04:59Z</time>
      </trkpt>
      <trkpt lat="45.58461" lon="6.64471">
        <ele>1731.4000244141</ele>
        <time>2012-09-09T07:05:02Z</time>
      </trkpt>
      <trkpt lat="45.58459" lon="6.64467">
        <ele>1732.4000244141</ele>
        <time>2012-09-09T07:05:06Z</time>
      </trkpt>
      <trkpt lat="45.58454" lon="6.64465">
        <ele>1732.4000244141</ele>
        <time>2012-09-09T07:05:11Z</time>
      </trkpt>
      <trkpt lat="45.58453" lon="6.64462">
        <ele>1733.5999755859</ele>
        <time>2012-09-09T07:05:13Z</time>
      </trkpt>
      <trkpt lat="45.58452" lon="6.64458">
        <ele>1734.5999755859</ele>
        <time>2012-09-09T07:05:16Z</time>
      </trkpt>
      <trkpt lat="45.58452" lon="6.64455">
        <ele>1734.5999755859</ele>
        <time>2012-09-09T07:05:18Z</time>
      </trkpt>
      <trkpt lat="45.58455" lon="6.64454">
        <ele>1735.5999755859</ele>
        <time>2012-09-09T07:05:22Z</time>
      </trkpt>
      <trkpt lat="45.5846" lon="6.64453">
        <ele>1737.8000488281</ele>
        <time>2012-09-09T07:05:27Z</time>
      </trkpt>
      <trkpt lat="45.58461" lon="6.64452">
        <ele>1737.8000488281</ele>
        <time>2012-09-09T07:05:29Z</time>
      </trkpt>
      <trkpt lat="45.58469" lon="6.64451">
        <ele>1737.8000488281</ele>
        <time>2012-09-09T07:05:34Z</time>
      </trkpt>
      <trkpt lat="45.58498" lon="6.64454">
        <ele>1737.8000488281</ele>
        <time>2012-09-09T07:05:43Z</time>
      </trkpt>
      <trkpt lat="45.58523" lon="6.64458">
        <ele>1737.8000488281</ele>
        <time>2012-09-09T07:05:51Z</time>
      </trkpt>
      <trkpt lat="45.5855" lon="6.64456">
        <ele>1737.8000488281</ele>
        <time>2012-09-09T07:06:01Z</time>
      </trkpt>
      <trkpt lat="45.58564" lon="6.64453">
        <ele>1734.8000488281</ele>
        <time>2012-09-09T07:06:06Z</time>
      </trkpt>
      <trkpt lat="45.58573" lon="6.64451">
        <ele>1733.8000488281</ele>
        <time>2012-09-09T07:06:09Z</time>
      </trkpt>
      <trkpt lat="45.58585" lon="6.64445">
        <ele>1732.8000488281</ele>
        <time>2012-09-09T07:06:13Z</time>
      </trkpt>
      <trkpt lat="45.58594" lon="6.64442">
        <ele>1731.4000244141</ele>
        <time>2012-09-09T07:06:16Z</time>
      </trkpt>
      <trkpt lat="45.58606" lon="6.64439">
        <ele>1729</ele>
        <time>2012-09-09T07:06:20Z</time>
      </trkpt>
      <trkpt lat="45.58615" lon="6.64435">
        <ele>1729</ele>
        <time>2012-09-09T07:06:23Z</time>
      </trkpt>
      <trkpt lat="45.58625" lon="6.64427">
        <ele>1729</ele>
        <time>2012-09-09T07:06:28Z</time>
      </trkpt>
      <trkpt lat="45.58644" lon="6.64422">
        <ele>1732</ele>
        <time>2012-09-09T07:06:36Z</time>
      </trkpt>
      <trkpt lat="45.58654" lon="6.64417">
        <ele>1733</ele>
        <time>2012-09-09T07:06:40Z</time>
      </trkpt>
      <trkpt lat="45.58662" lon="6.64416">
        <ele>1733</ele>
        <time>2012-09-09T07:06:49Z</time>
      </trkpt>
      <trkpt lat="45.58671" lon="6.64405">
        <ele>1734</ele>
        <time>2012-09-09T07:06:59Z</time>
      </trkpt>
      <trkpt lat="45.58678" lon="6.644">
        <ele>1735.1999511719</ele>
        <time>2012-09-09T07:07:04Z</time>
      </trkpt>
      <trkpt lat="45.58684" lon="6.64396">
        <ele>1736.4000244141</ele>
        <time>2012-09-09T07:07:10Z</time>
      </trkpt>
      <trkpt lat="45.58691" lon="6.64391">
        <ele>1737.4000244141</ele>
        <time>2012-09-09T07:07:15Z</time>
      </trkpt>
      <trkpt lat="45.58699" lon="6.64387">
        <ele>1737.4000244141</ele>
        <time>2012-09-09T07:07:21Z</time>
      </trkpt>
      <trkpt lat="45.5871" lon="6.64381">
        <ele>1738.5999755859</ele>
        <time>2012-09-09T07:07:29Z</time>
      </trkpt>
      <trkpt lat="45.58719" lon="6.64376">
        <ele>1739.8000488281</ele>
        <time>2012-09-09T07:07:36Z</time>
      </trkpt>
      <trkpt lat="45.58728" lon="6.64371">
        <ele>1740.8000488281</ele>
        <time>2012-09-09T07:07:42Z</time>
      </trkpt>
      <trkpt lat="45.58733" lon="6.64369">
        <ele>1741.8000488281</ele>
        <time>2012-09-09T07:07:46Z</time>
      </trkpt>
      <trkpt lat="45.58739" lon="6.64367">
        <ele>1741.8000488281</ele>
        <time>2012-09-09T07:07:50Z</time>
      </trkpt>
      <trkpt lat="45.58743" lon="6.64366">
        <ele>1743</ele>
        <time>2012-09-09T07:07:53Z</time>
      </trkpt>
      <trkpt lat="45.58751" lon="6.64364">
        <ele>1744</ele>
        <time>2012-09-09T07:07:59Z</time>
      </trkpt>
      <trkpt lat="45.58759" lon="6.6436">
        <ele>1744</ele>
        <time>2012-09-09T07:08:05Z</time>
      </trkpt>
      <trkpt lat="45.58764" lon="6.64357">
        <ele>1745.1999511719</ele>
        <time>2012-09-09T07:08:09Z</time>
      </trkpt>
      <trkpt lat="45.5877" lon="6.64354">
        <ele>1745.1999511719</ele>
        <time>2012-09-09T07:08:13Z</time>
      </trkpt>
      <trkpt lat="45.58773" lon="6.64352">
        <ele>1746.4000244141</ele>
        <time>2012-09-09T07:08:15Z</time>
      </trkpt>
      <trkpt lat="45.58784" lon="6.64351">
        <ele>1747.4000244141</ele>
        <time>2012-09-09T07:08:24Z</time>
      </trkpt>
      <trkpt lat="45.58787" lon="6.64351">
        <ele>1747.4000244141</ele>
        <time>2012-09-09T07:08:27Z</time>
      </trkpt>
      <trkpt lat="45.58794" lon="6.6435">
        <ele>1748.5999755859</ele>
        <time>2012-09-09T07:08:33Z</time>
      </trkpt>
      <trkpt lat="45.58803" lon="6.64348">
        <ele>1749.5999755859</ele>
        <time>2012-09-09T07:08:39Z</time>
      </trkpt>
      <trkpt lat="45.58811" lon="6.64345">
        <ele>1750.8000488281</ele>
        <time>2012-09-09T07:08:44Z</time>
      </trkpt>
      <trkpt lat="45.58819" lon="6.64345">
        <ele>1751.8000488281</ele>
        <time>2012-09-09T07:08:49Z</time>
      </trkpt>
      <trkpt lat="45.58829" lon="6.64341">
        <ele>1753.1999511719</ele>
        <time>2012-09-09T07:08:55Z</time>
      </trkpt>
      <trkpt lat="45.58839" lon="6.64338">
        <ele>1754.1999511719</ele>
        <time>2012-09-09T07:09:03Z</time>
      </trkpt>
      <trkpt lat="45.58844" lon="6.64339">
        <ele>1755.1999511719</ele>
        <time>2012-09-09T07:09:07Z</time>
      </trkpt>
      <trkpt lat="45.58852" lon="6.64338">
        <ele>1756.1999511719</ele>
        <time>2012-09-09T07:09:13Z</time>
      </trkpt>
      <trkpt lat="45.58861" lon="6.64339">
        <ele>1756.1999511719</ele>
        <time>2012-09-09T07:09:19Z</time>
      </trkpt>
      <trkpt lat="45.58864" lon="6.64339">
        <ele>1757.1999511719</ele>
        <time>2012-09-09T07:09:21Z</time>
      </trkpt>
      <trkpt lat="45.58868" lon="6.64338">
        <ele>1757.1999511719</ele>
        <time>2012-09-09T07:09:24Z</time>
      </trkpt>
      <trkpt lat="45.58878" lon="6.64336">
        <ele>1759.4000244141</ele>
        <time>2012-09-09T07:09:30Z</time>
      </trkpt>
      <trkpt lat="45.58883" lon="6.64336">
        <ele>1759.4000244141</ele>
        <time>2012-09-09T07:09:35Z</time>
      </trkpt>
      <trkpt lat="45.58889" lon="6.64331">
        <ele>1761.5999755859</ele>
        <time>2012-09-09T07:09:41Z</time>
      </trkpt>
      <trkpt lat="45.58891" lon="6.64327">
        <ele>1762.8000488281</ele>
        <time>2012-09-09T07:09:45Z</time>
      </trkpt>
      <trkpt lat="45.58894" lon="6.64322">
        <ele>1764</ele>
        <time>2012-09-09T07:09:52Z</time>
      </trkpt>
      <trkpt lat="45.58897" lon="6.64316">
        <ele>1765</ele>
        <time>2012-09-09T07:09:57Z</time>
      </trkpt>
      <trkpt lat="45.58901" lon="6.64309">
        <ele>1767.1999511719</ele>
        <time>2012-09-09T07:10:03Z</time>
      </trkpt>
      <trkpt lat="45.58903" lon="6.64303">
        <ele>1768.4000244141</ele>
        <time>2012-09-09T07:10:07Z</time>
      </trkpt>
      <trkpt lat="45.58909" lon="6.64293">
        <ele>1770.5999755859</ele>
        <time>2012-09-09T07:10:14Z</time>
      </trkpt>
      <trkpt lat="45.58914" lon="6.64281">
        <ele>1771.5999755859</ele>
        <time>2012-09-09T07:10:21Z</time>
      </trkpt>
      <trkpt lat="45.58917" lon="6.64272">
        <ele>1772.5999755859</ele>
        <time>2012-09-09T07:10:27Z</time>
      </trkpt>
      <trkpt lat="45.58921" lon="6.64257">
        <ele>1774.8000488281</ele>
        <time>2012-09-09T07:10:36Z</time>
      </trkpt>
      <trkpt lat="45.58923" lon="6.64246">
        <ele>1776</ele>
        <time>2012-09-09T07:10:43Z</time>
      </trkpt>
      <trkpt lat="45.58924" lon="6.64234">
        <ele>1778.1999511719</ele>
        <time>2012-09-09T07:10:50Z</time>
      </trkpt>
      <trkpt lat="45.58924" lon="6.64231">
        <ele>1778.1999511719</ele>
        <time>2012-09-09T07:10:52Z</time>
      </trkpt>
      <trkpt lat="45.58925" lon="6.64225">
        <ele>1779.4000244141</ele>
        <time>2012-09-09T07:10:56Z</time>
      </trkpt>
      <trkpt lat="45.58926" lon="6.64215">
        <ele>1781.4000244141</ele>
        <time>2012-09-09T07:11:02Z</time>
      </trkpt>
      <trkpt lat="45.58926" lon="6.64211">
        <ele>1781.4000244141</ele>
        <time>2012-09-09T07:11:04Z</time>
      </trkpt>
      <trkpt lat="45.58926" lon="6.64199">
        <ele>1783</ele>
        <time>2012-09-09T07:11:11Z</time>
      </trkpt>
      <trkpt lat="45.58926" lon="6.64195">
        <ele>1784</ele>
        <time>2012-09-09T07:11:14Z</time>
      </trkpt>
      <trkpt lat="45.58925" lon="6.6419">
        <ele>1784</ele>
        <time>2012-09-09T07:11:17Z</time>
      </trkpt>
      <trkpt lat="45.58923" lon="6.64179">
        <ele>1786</ele>
        <time>2012-09-09T07:11:23Z</time>
      </trkpt>
      <trkpt lat="45.5892" lon="6.64166">
        <ele>1787</ele>
        <time>2012-09-09T07:11:29Z</time>
      </trkpt>
      <trkpt lat="45.58918" lon="6.64156">
        <ele>1788.1999511719</ele>
        <time>2012-09-09T07:11:35Z</time>
      </trkpt>
      <trkpt lat="45.58916" lon="6.64146">
        <ele>1790.4000244141</ele>
        <time>2012-09-09T07:11:41Z</time>
      </trkpt>
      <trkpt lat="45.58915" lon="6.6414">
        <ele>1791.5999755859</ele>
        <time>2012-09-09T07:11:45Z</time>
      </trkpt>
      <trkpt lat="45.58914" lon="6.64132">
        <ele>1792.5999755859</ele>
        <time>2012-09-09T07:11:49Z</time>
      </trkpt>
      <trkpt lat="45.58912" lon="6.64117">
        <ele>1794.8000488281</ele>
        <time>2012-09-09T07:11:58Z</time>
      </trkpt>
      <trkpt lat="45.58909" lon="6.64104">
        <ele>1797</ele>
        <time>2012-09-09T07:12:07Z</time>
      </trkpt>
      <trkpt lat="45.58907" lon="6.64101">
        <ele>1798.1999511719</ele>
        <time>2012-09-09T07:12:10Z</time>
      </trkpt>
      <trkpt lat="45.58902" lon="6.64106">
        <ele>1799.1999511719</ele>
        <time>2012-09-09T07:12:15Z</time>
      </trkpt>
      <trkpt lat="45.58897" lon="6.64115">
        <ele>1799.1999511719</ele>
        <time>2012-09-09T07:12:20Z</time>
      </trkpt>
      <trkpt lat="45.58891" lon="6.64127">
        <ele>1800.4000244141</ele>
        <time>2012-09-09T07:12:27Z</time>
      </trkpt>
      <trkpt lat="45.58883" lon="6.64141">
        <ele>1802.5999755859</ele>
        <time>2012-09-09T07:12:35Z</time>
      </trkpt>
      <trkpt lat="45.5888" lon="6.64149">
        <ele>1803.5999755859</ele>
        <time>2012-09-09T07:12:39Z</time>
      </trkpt>
      <trkpt lat="45.58875" lon="6.64151">
        <ele>1803.5999755859</ele>
        <time>2012-09-09T07:12:43Z</time>
      </trkpt>
      <trkpt lat="45.58874" lon="6.64146">
        <ele>1804.5999755859</ele>
        <time>2012-09-09T07:12:46Z</time>
      </trkpt>
      <trkpt lat="45.58875" lon="6.64132">
        <ele>1807</ele>
        <time>2012-09-09T07:12:54Z</time>
      </trkpt>
      <trkpt lat="45.58875" lon="6.64119">
        <ele>1808.1999511719</ele>
        <time>2012-09-09T07:13:02Z</time>
      </trkpt>
      <trkpt lat="45.58876" lon="6.64108">
        <ele>1810.5999755859</ele>
        <time>2012-09-09T07:13:07Z</time>
      </trkpt>
      <trkpt lat="45.58877" lon="6.64085">
        <ele>1811.5999755859</ele>
        <time>2012-09-09T07:13:15Z</time>
      </trkpt>
      <trkpt lat="45.58877" lon="6.64073">
        <ele>1812.8000488281</ele>
        <time>2012-09-09T07:13:20Z</time>
      </trkpt>
      <trkpt lat="45.58877" lon="6.64064">
        <ele>1814</ele>
        <time>2012-09-09T07:13:24Z</time>
      </trkpt>
      <trkpt lat="45.58876" lon="6.64052">
        <ele>1815</ele>
        <time>2012-09-09T07:13:30Z</time>
      </trkpt>
      <trkpt lat="45.58876" lon="6.64034">
        <ele>1816</ele>
        <time>2012-09-09T07:13:39Z</time>
      </trkpt>
      <trkpt lat="45.58878" lon="6.64019">
        <ele>1818.1999511719</ele>
        <time>2012-09-09T07:13:47Z</time>
      </trkpt>
      <trkpt lat="45.58877" lon="6.64013">
        <ele>1819.1999511719</ele>
        <time>2012-09-09T07:13:51Z</time>
      </trkpt>
      <trkpt lat="45.58878" lon="6.64005">
        <ele>1820.1999511719</ele>
        <time>2012-09-09T07:13:56Z</time>
      </trkpt>
      <trkpt lat="45.58878" lon="6.63998">
        <ele>1821.1999511719</ele>
        <time>2012-09-09T07:14:01Z</time>
      </trkpt>
      <trkpt lat="45.5888" lon="6.6398">
        <ele>1823.5999755859</ele>
        <time>2012-09-09T07:14:11Z</time>
      </trkpt>
      <trkpt lat="45.58879" lon="6.63968">
        <ele>1825</ele>
        <time>2012-09-09T07:14:18Z</time>
      </trkpt>
      <trkpt lat="45.58878" lon="6.6396">
        <ele>1826.1999511719</ele>
        <time>2012-09-09T07:14:24Z</time>
      </trkpt>
      <trkpt lat="45.58876" lon="6.63952">
        <ele>1827.1999511719</ele>
        <time>2012-09-09T07:14:30Z</time>
      </trkpt>
      <trkpt lat="45.58872" lon="6.6395">
        <ele>1829.1999511719</ele>
        <time>2012-09-09T07:14:35Z</time>
      </trkpt>
      <trkpt lat="45.5887" lon="6.63951">
        <ele>1829.1999511719</ele>
        <time>2012-09-09T07:14:38Z</time>
      </trkpt>
      <trkpt lat="45.58867" lon="6.63956">
        <ele>1830.4000244141</ele>
        <time>2012-09-09T07:14:42Z</time>
      </trkpt>
      <trkpt lat="45.58864" lon="6.63955">
        <ele>1830.4000244141</ele>
        <time>2012-09-09T07:14:45Z</time>
      </trkpt>
      <trkpt lat="45.58859" lon="6.63954">
        <ele>1831.5999755859</ele>
        <time>2012-09-09T07:14:50Z</time>
      </trkpt>
      <trkpt lat="45.58855" lon="6.63957">
        <ele>1832.5999755859</ele>
        <time>2012-09-09T07:14:54Z</time>
      </trkpt>
      <trkpt lat="45.58853" lon="6.63963">
        <ele>1833.8000488281</ele>
        <time>2012-09-09T07:14:58Z</time>
      </trkpt>
      <trkpt lat="45.58849" lon="6.63979">
        <ele>1835</ele>
        <time>2012-09-09T07:15:07Z</time>
      </trkpt>
      <trkpt lat="45.5884" lon="6.63998">
        <ele>1836</ele>
        <time>2012-09-09T07:15:18Z</time>
      </trkpt>
      <trkpt lat="45.58834" lon="6.64011">
        <ele>1836</ele>
        <time>2012-09-09T07:15:26Z</time>
      </trkpt>
      <trkpt lat="45.58827" lon="6.6402">
        <ele>1837</ele>
        <time>2012-09-09T07:15:33Z</time>
      </trkpt>
      <trkpt lat="45.58826" lon="6.64018">
        <ele>1838</ele>
        <time>2012-09-09T07:15:35Z</time>
      </trkpt>
      <trkpt lat="45.58826" lon="6.64013">
        <ele>1839.1999511719</ele>
        <time>2012-09-09T07:15:39Z</time>
      </trkpt>
      <trkpt lat="45.58824" lon="6.64008">
        <ele>1841.1999511719</ele>
        <time>2012-09-09T07:15:43Z</time>
      </trkpt>
      <trkpt lat="45.5882" lon="6.63997">
        <ele>1843.1999511719</ele>
        <time>2012-09-09T07:15:51Z</time>
      </trkpt>
      <trkpt lat="45.58819" lon="6.63993">
        <ele>1844.4000244141</ele>
        <time>2012-09-09T07:15:54Z</time>
      </trkpt>
      <trkpt lat="45.58819" lon="6.63986">
        <ele>1845.4000244141</ele>
        <time>2012-09-09T07:15:59Z</time>
      </trkpt>
      <trkpt lat="45.58818" lon="6.63977">
        <ele>1847.5999755859</ele>
        <time>2012-09-09T07:16:05Z</time>
      </trkpt>
      <trkpt lat="45.58816" lon="6.63972">
        <ele>1848.5999755859</ele>
        <time>2012-09-09T07:16:09Z</time>
      </trkpt>
      <trkpt lat="45.58815" lon="6.63966">
        <ele>1849.5999755859</ele>
        <time>2012-09-09T07:16:13Z</time>
      </trkpt>
      <trkpt lat="45.58813" lon="6.6396">
        <ele>1850.5999755859</ele>
        <time>2012-09-09T07:16:18Z</time>
      </trkpt>
      <trkpt lat="45.58809" lon="6.63951">
        <ele>1851.8000488281</ele>
        <time>2012-09-09T07:16:25Z</time>
      </trkpt>
      <trkpt lat="45.58807" lon="6.63943">
        <ele>1854</ele>
        <time>2012-09-09T07:16:31Z</time>
      </trkpt>
      <trkpt lat="45.58807" lon="6.63937">
        <ele>1855</ele>
        <time>2012-09-09T07:16:35Z</time>
      </trkpt>
      <trkpt lat="45.58807" lon="6.6393">
        <ele>1856.1999511719</ele>
        <time>2012-09-09T07:16:39Z</time>
      </trkpt>
      <trkpt lat="45.58806" lon="6.63918">
        <ele>1858.1999511719</ele>
        <time>2012-09-09T07:16:48Z</time>
      </trkpt>
      <trkpt lat="45.58806" lon="6.63912">
        <ele>1859.5999755859</ele>
        <time>2012-09-09T07:16:52Z</time>
      </trkpt>
      <trkpt lat="45.58803" lon="6.63903">
        <ele>1860.5999755859</ele>
        <time>2012-09-09T07:16:59Z</time>
      </trkpt>
      <trkpt lat="45.588" lon="6.63907">
        <ele>1861.8000488281</ele>
        <time>2012-09-09T07:17:05Z</time>
      </trkpt>
      <trkpt lat="45.58796" lon="6.63912">
        <ele>1862.8000488281</ele>
        <time>2012-09-09T07:17:09Z</time>
      </trkpt>
      <trkpt lat="45.58793" lon="6.63918">
        <ele>1864</ele>
        <time>2012-09-09T07:17:13Z</time>
      </trkpt>
      <trkpt lat="45.5879" lon="6.63924">
        <ele>1865</ele>
        <time>2012-09-09T07:17:18Z</time>
      </trkpt>
      <trkpt lat="45.58784" lon="6.63934">
        <ele>1866</ele>
        <time>2012-09-09T07:17:26Z</time>
      </trkpt>
      <trkpt lat="45.58778" lon="6.6394">
        <ele>1867</ele>
        <time>2012-09-09T07:17:31Z</time>
      </trkpt>
      <trkpt lat="45.58774" lon="6.63946">
        <ele>1868</ele>
        <time>2012-09-09T07:17:36Z</time>
      </trkpt>
      <trkpt lat="45.58769" lon="6.63952">
        <ele>1869.1999511719</ele>
        <time>2012-09-09T07:17:41Z</time>
      </trkpt>
      <trkpt lat="45.58766" lon="6.63956">
        <ele>1870.1999511719</ele>
        <time>2012-09-09T07:17:45Z</time>
      </trkpt>
      <trkpt lat="45.58762" lon="6.63963">
        <ele>1871.1999511719</ele>
        <time>2012-09-09T07:17:50Z</time>
      </trkpt>
      <trkpt lat="45.58757" lon="6.63968">
        <ele>1872.5999755859</ele>
        <time>2012-09-09T07:17:54Z</time>
      </trkpt>
      <trkpt lat="45.58754" lon="6.63972">
        <ele>1873.5999755859</ele>
        <time>2012-09-09T07:17:58Z</time>
      </trkpt>
      <trkpt lat="45.58748" lon="6.63977">
        <ele>1874.5999755859</ele>
        <time>2012-09-09T07:18:05Z</time>
      </trkpt>
      <trkpt lat="45.58743" lon="6.63979">
        <ele>1875.8000488281</ele>
        <time>2012-09-09T07:18:10Z</time>
      </trkpt>
      <trkpt lat="45.58743" lon="6.63975">
        <ele>1877</ele>
        <time>2012-09-09T07:18:14Z</time>
      </trkpt>
      <trkpt lat="45.58743" lon="6.63971">
        <ele>1878.1999511719</ele>
        <time>2012-09-09T07:18:18Z</time>
      </trkpt>
      <trkpt lat="45.58743" lon="6.63966">
        <ele>1879.4000244141</ele>
        <time>2012-09-09T07:18:22Z</time>
      </trkpt>
      <trkpt lat="45.58743" lon="6.63962">
        <ele>1879.4000244141</ele>
        <time>2012-09-09T07:18:25Z</time>
      </trkpt>
      <trkpt lat="45.58743" lon="6.63959">
        <ele>1881.5999755859</ele>
        <time>2012-09-09T07:18:28Z</time>
      </trkpt>
      <trkpt lat="45.58743" lon="6.63956">
        <ele>1881.5999755859</ele>
        <time>2012-09-09T07:18:31Z</time>
      </trkpt>
      <trkpt lat="45.58743" lon="6.63949">
        <ele>1882.5999755859</ele>
        <time>2012-09-09T07:18:35Z</time>
      </trkpt>
      <trkpt lat="45.58742" lon="6.63946">
        <ele>1883.8000488281</ele>
        <time>2012-09-09T07:18:37Z</time>
      </trkpt>
      <trkpt lat="45.58741" lon="6.63942">
        <ele>1884.8000488281</ele>
        <time>2012-09-09T07:18:40Z</time>
      </trkpt>
      <trkpt lat="45.58739" lon="6.6394">
        <ele>1885.8000488281</ele>
        <time>2012-09-09T07:18:45Z</time>
      </trkpt>
      <trkpt lat="45.58735" lon="6.63943">
        <ele>1886.8000488281</ele>
        <time>2012-09-09T07:18:50Z</time>
      </trkpt>
      <trkpt lat="45.58733" lon="6.63943">
        <ele>1887.8000488281</ele>
        <time>2012-09-09T07:18:52Z</time>
      </trkpt>
      <trkpt lat="45.58729" lon="6.63944">
        <ele>1889</ele>
        <time>2012-09-09T07:18:56Z</time>
      </trkpt>
      <trkpt lat="45.58727" lon="6.63946">
        <ele>1889</ele>
        <time>2012-09-09T07:18:59Z</time>
      </trkpt>
      <trkpt lat="45.58722" lon="6.6395">
        <ele>1891.1999511719</ele>
        <time>2012-09-09T07:19:05Z</time>
      </trkpt>
      <trkpt lat="45.58718" lon="6.63953">
        <ele>1891.1999511719</ele>
        <time>2012-09-09T07:19:09Z</time>
      </trkpt>
      <trkpt lat="45.58717" lon="6.63954">
        <ele>1892.4000244141</ele>
        <time>2012-09-09T07:19:11Z</time>
      </trkpt>
      <trkpt lat="45.58712" lon="6.63954">
        <ele>1894.5999755859</ele>
        <time>2012-09-09T07:19:16Z</time>
      </trkpt>
      <trkpt lat="45.5871" lon="6.63953">
        <ele>1895.5999755859</ele>
        <time>2012-09-09T07:19:19Z</time>
      </trkpt>
      <trkpt lat="45.58707" lon="6.63953">
        <ele>1896.5999755859</ele>
        <time>2012-09-09T07:19:23Z</time>
      </trkpt>
      <trkpt lat="45.58703" lon="6.63954">
        <ele>1898.8000488281</ele>
        <time>2012-09-09T07:19:29Z</time>
      </trkpt>
      <trkpt lat="45.58699" lon="6.63955">
        <ele>1900</ele>
        <time>2012-09-09T07:19:33Z</time>
      </trkpt>
      <trkpt lat="45.58697" lon="6.63955">
        <ele>1901</ele>
        <time>2012-09-09T07:19:37Z</time>
      </trkpt>
      <trkpt lat="45.58694" lon="6.63958">
        <ele>1902.1999511719</ele>
        <time>2012-09-09T07:19:41Z</time>
      </trkpt>
      <trkpt lat="45.58691" lon="6.63961">
        <ele>1903.1999511719</ele>
        <time>2012-09-09T07:19:45Z</time>
      </trkpt>
      <trkpt lat="45.58687" lon="6.63958">
        <ele>1904.1999511719</ele>
        <time>2012-09-09T07:19:50Z</time>
      </trkpt>
      <trkpt lat="45.58684" lon="6.63953">
        <ele>1905.4000244141</ele>
        <time>2012-09-09T07:19:55Z</time>
      </trkpt>
      <trkpt lat="45.58686" lon="6.63942">
        <ele>1907.4000244141</ele>
        <time>2012-09-09T07:20:02Z</time>
      </trkpt>
      <trkpt lat="45.58688" lon="6.63933">
        <ele>1908.4000244141</ele>
        <time>2012-09-09T07:20:08Z</time>
      </trkpt>
      <trkpt lat="45.58689" lon="6.63925">
        <ele>1909.5999755859</ele>
        <time>2012-09-09T07:20:14Z</time>
      </trkpt>
      <trkpt lat="45.5869" lon="6.63918">
        <ele>1910.5999755859</ele>
        <time>2012-09-09T07:20:18Z</time>
      </trkpt>
      <trkpt lat="45.58693" lon="6.63904">
        <ele>1911.8000488281</ele>
        <time>2012-09-09T07:20:28Z</time>
      </trkpt>
      <trkpt lat="45.58695" lon="6.63899">
        <ele>1912.8000488281</ele>
        <time>2012-09-09T07:20:32Z</time>
      </trkpt>
      <trkpt lat="45.5869" lon="6.63898">
        <ele>1913.8000488281</ele>
        <time>2012-09-09T07:20:39Z</time>
      </trkpt>
      <trkpt lat="45.58686" lon="6.63899">
        <ele>1916</ele>
        <time>2012-09-09T07:20:43Z</time>
      </trkpt>
      <trkpt lat="45.58682" lon="6.63907">
        <ele>1917.4000244141</ele>
        <time>2012-09-09T07:20:49Z</time>
      </trkpt>
      <trkpt lat="45.58677" lon="6.63909">
        <ele>1917.4000244141</ele>
        <time>2012-09-09T07:20:53Z</time>
      </trkpt>
      <trkpt lat="45.58675" lon="6.6391">
        <ele>1918.4000244141</ele>
        <time>2012-09-09T07:20:56Z</time>
      </trkpt>
      <trkpt lat="45.5867" lon="6.63913">
        <ele>1919.4000244141</ele>
        <time>2012-09-09T07:21:01Z</time>
      </trkpt>
      <trkpt lat="45.58665" lon="6.63917">
        <ele>1921.5999755859</ele>
        <time>2012-09-09T07:21:06Z</time>
      </trkpt>
      <trkpt lat="45.58664" lon="6.63912">
        <ele>1921.5999755859</ele>
        <time>2012-09-09T07:21:09Z</time>
      </trkpt>
      <trkpt lat="45.58666" lon="6.63904">
        <ele>1922.5999755859</ele>
        <time>2012-09-09T07:21:14Z</time>
      </trkpt>
      <trkpt lat="45.58668" lon="6.63897">
        <ele>1923.8000488281</ele>
        <time>2012-09-09T07:21:19Z</time>
      </trkpt>
      <trkpt lat="45.58667" lon="6.63891">
        <ele>1924.8000488281</ele>
        <time>2012-09-09T07:21:23Z</time>
      </trkpt>
      <trkpt lat="45.58667" lon="6.63884">
        <ele>1926</ele>
        <time>2012-09-09T07:21:29Z</time>
      </trkpt>
      <trkpt lat="45.58667" lon="6.63878">
        <ele>1928</ele>
        <time>2012-09-09T07:21:35Z</time>
      </trkpt>
      <trkpt lat="45.58666" lon="6.63874">
        <ele>1929.1999511719</ele>
        <time>2012-09-09T07:21:38Z</time>
      </trkpt>
      <trkpt lat="45.58665" lon="6.63865">
        <ele>1930.1999511719</ele>
        <time>2012-09-09T07:21:45Z</time>
      </trkpt>
      <trkpt lat="45.58665" lon="6.63858">
        <ele>1931.1999511719</ele>
        <time>2012-09-09T07:21:51Z</time>
      </trkpt>
      <trkpt lat="45.58665" lon="6.63852">
        <ele>1933.5999755859</ele>
        <time>2012-09-09T07:21:55Z</time>
      </trkpt>
      <trkpt lat="45.58665" lon="6.63846">
        <ele>1934.5999755859</ele>
        <time>2012-09-09T07:22:00Z</time>
      </trkpt>
      <trkpt lat="45.58664" lon="6.63838">
        <ele>1935.5999755859</ele>
        <time>2012-09-09T07:22:05Z</time>
      </trkpt>
      <trkpt lat="45.58663" lon="6.63829">
        <ele>1936.8000488281</ele>
        <time>2012-09-09T07:22:10Z</time>
      </trkpt>
      <trkpt lat="45.5866" lon="6.63823">
        <ele>1939</ele>
        <time>2012-09-09T07:22:16Z</time>
      </trkpt>
      <trkpt lat="45.58658" lon="6.63815">
        <ele>1941</ele>
        <time>2012-09-09T07:22:22Z</time>
      </trkpt>
      <trkpt lat="45.58656" lon="6.63809">
        <ele>1942.1999511719</ele>
        <time>2012-09-09T07:22:27Z</time>
      </trkpt>
      <trkpt lat="45.58654" lon="6.63805">
        <ele>1944.1999511719</ele>
        <time>2012-09-09T07:22:31Z</time>
      </trkpt>
      <trkpt lat="45.58655" lon="6.63796">
        <ele>1944.1999511719</ele>
        <time>2012-09-09T07:22:36Z</time>
      </trkpt>
      <trkpt lat="45.58662" lon="6.63781">
        <ele>1944.1999511719</ele>
        <time>2012-09-09T07:22:45Z</time>
      </trkpt>
      <trkpt lat="45.58666" lon="6.63775">
        <ele>1946.4000244141</ele>
        <time>2012-09-09T07:22:50Z</time>
      </trkpt>
      <trkpt lat="45.58663" lon="6.63773">
        <ele>1946.4000244141</ele>
        <time>2012-09-09T07:22:57Z</time>
      </trkpt>
      <trkpt lat="45.58663" lon="6.63772">
        <ele>1947.4000244141</ele>
        <time>2012-09-09T07:23:02Z</time>
      </trkpt>
      <trkpt lat="45.58652" lon="6.63783">
        <ele>1947.4000244141</ele>
        <time>2012-09-09T07:23:13Z</time>
      </trkpt>
      <trkpt lat="45.58643" lon="6.63792">
        <ele>1949.5999755859</ele>
        <time>2012-09-09T07:23:18Z</time>
      </trkpt>
      <trkpt lat="45.58638" lon="6.63797">
        <ele>1950.5999755859</ele>
        <time>2012-09-09T07:23:21Z</time>
      </trkpt>
      <trkpt lat="45.58632" lon="6.63798">
        <ele>1951.8000488281</ele>
        <time>2012-09-09T07:23:25Z</time>
      </trkpt>
      <trkpt lat="45.58632" lon="6.63792">
        <ele>1953.8000488281</ele>
        <time>2012-09-09T07:23:30Z</time>
      </trkpt>
      <trkpt lat="45.58631" lon="6.6379">
        <ele>1953.8000488281</ele>
        <time>2012-09-09T07:23:32Z</time>
      </trkpt>
      <trkpt lat="45.58629" lon="6.63787">
        <ele>1956</ele>
        <time>2012-09-09T07:23:35Z</time>
      </trkpt>
      <trkpt lat="45.58629" lon="6.63778">
        <ele>1957.1999511719</ele>
        <time>2012-09-09T07:23:42Z</time>
      </trkpt>
      <trkpt lat="45.58625" lon="6.63774">
        <ele>1958.4000244141</ele>
        <time>2012-09-09T07:23:46Z</time>
      </trkpt>
      <trkpt lat="45.58621" lon="6.63774">
        <ele>1959.4000244141</ele>
        <time>2012-09-09T07:23:50Z</time>
      </trkpt>
      <trkpt lat="45.58617" lon="6.63772">
        <ele>1960.5999755859</ele>
        <time>2012-09-09T07:23:54Z</time>
      </trkpt>
      <trkpt lat="45.58612" lon="6.63766">
        <ele>1961.8000488281</ele>
        <time>2012-09-09T07:23:59Z</time>
      </trkpt>
      <trkpt lat="45.58612" lon="6.63763">
        <ele>1961.8000488281</ele>
        <time>2012-09-09T07:24:01Z</time>
      </trkpt>
      <trkpt lat="45.5861" lon="6.63753">
        <ele>1962.8000488281</ele>
        <time>2012-09-09T07:24:08Z</time>
      </trkpt>
      <trkpt lat="45.58611" lon="6.63748">
        <ele>1965</ele>
        <time>2012-09-09T07:24:12Z</time>
      </trkpt>
      <trkpt lat="45.58611" lon="6.63745">
        <ele>1966</ele>
        <time>2012-09-09T07:24:14Z</time>
      </trkpt>
      <trkpt lat="45.58608" lon="6.63739">
        <ele>1966</ele>
        <time>2012-09-09T07:24:19Z</time>
      </trkpt>
      <trkpt lat="45.58601" lon="6.63736">
        <ele>1967</ele>
        <time>2012-09-09T07:24:25Z</time>
      </trkpt>
      <trkpt lat="45.58592" lon="6.63733">
        <ele>1968</ele>
        <time>2012-09-09T07:24:32Z</time>
      </trkpt>
      <trkpt lat="45.58585" lon="6.63729">
        <ele>1969.1999511719</ele>
        <time>2012-09-09T07:24:37Z</time>
      </trkpt>
      <trkpt lat="45.5858" lon="6.63724">
        <ele>1970.1999511719</ele>
        <time>2012-09-09T07:24:42Z</time>
      </trkpt>
      <trkpt lat="45.58575" lon="6.63719">
        <ele>1971.1999511719</ele>
        <time>2012-09-09T07:24:47Z</time>
      </trkpt>
      <trkpt lat="45.58569" lon="6.63714">
        <ele>1972.4000244141</ele>
        <time>2012-09-09T07:24:52Z</time>
      </trkpt>
      <trkpt lat="45.58564" lon="6.63711">
        <ele>1973.4000244141</ele>
        <time>2012-09-09T07:24:57Z</time>
      </trkpt>
      <trkpt lat="45.58559" lon="6.63706">
        <ele>1974.4000244141</ele>
        <time>2012-09-09T07:25:02Z</time>
      </trkpt>
      <trkpt lat="45.58552" lon="6.637">
        <ele>1975.5999755859</ele>
        <time>2012-09-09T07:25:08Z</time>
      </trkpt>
      <trkpt lat="45.58544" lon="6.63695">
        <ele>1976.5999755859</ele>
        <time>2012-09-09T07:25:15Z</time>
      </trkpt>
      <trkpt lat="45.58537" lon="6.63691">
        <ele>1977.5999755859</ele>
        <time>2012-09-09T07:25:21Z</time>
      </trkpt>
      <trkpt lat="45.58532" lon="6.63688">
        <ele>1979.8000488281</ele>
        <time>2012-09-09T07:25:26Z</time>
      </trkpt>
      <trkpt lat="45.58527" lon="6.63686">
        <ele>1980.8000488281</ele>
        <time>2012-09-09T07:25:30Z</time>
      </trkpt>
      <trkpt lat="45.58517" lon="6.6368">
        <ele>1982</ele>
        <time>2012-09-09T07:25:38Z</time>
      </trkpt>
      <trkpt lat="45.58512" lon="6.63672">
        <ele>1984</ele>
        <time>2012-09-09T07:25:44Z</time>
      </trkpt>
      <trkpt lat="45.58509" lon="6.63668">
        <ele>1985.1999511719</ele>
        <time>2012-09-09T07:25:47Z</time>
      </trkpt>
      <trkpt lat="45.58505" lon="6.63663">
        <ele>1986.4000244141</ele>
        <time>2012-09-09T07:25:51Z</time>
      </trkpt>
      <trkpt lat="45.58503" lon="6.6366">
        <ele>1987.5999755859</ele>
        <time>2012-09-09T07:25:53Z</time>
      </trkpt>
      <trkpt lat="45.58502" lon="6.63655">
        <ele>1988.5999755859</ele>
        <time>2012-09-09T07:25:56Z</time>
      </trkpt>
      <trkpt lat="45.58496" lon="6.63648">
        <ele>1989.8000488281</ele>
        <time>2012-09-09T07:26:02Z</time>
      </trkpt>
      <trkpt lat="45.58489" lon="6.63641">
        <ele>1992</ele>
        <time>2012-09-09T07:26:08Z</time>
      </trkpt>
      <trkpt lat="45.58485" lon="6.63638">
        <ele>1993</ele>
        <time>2012-09-09T07:26:12Z</time>
      </trkpt>
      <trkpt lat="45.58476" lon="6.63631">
        <ele>1994</ele>
        <time>2012-09-09T07:26:19Z</time>
      </trkpt>
      <trkpt lat="45.58473" lon="6.63627">
        <ele>1994</ele>
        <time>2012-09-09T07:26:23Z</time>
      </trkpt>
      <trkpt lat="45.58468" lon="6.63623">
        <ele>1995.1999511719</ele>
        <time>2012-09-09T07:26:28Z</time>
      </trkpt>
      <trkpt lat="45.58465" lon="6.63617">
        <ele>1996.1999511719</ele>
        <time>2012-09-09T07:26:32Z</time>
      </trkpt>
      <trkpt lat="45.58463" lon="6.63606">
        <ele>1998.1999511719</ele>
        <time>2012-09-09T07:26:39Z</time>
      </trkpt>
      <trkpt lat="45.58463" lon="6.636">
        <ele>1999.1999511719</ele>
        <time>2012-09-09T07:26:43Z</time>
      </trkpt>
      <trkpt lat="45.58463" lon="6.63597">
        <ele>2000.1999511719</ele>
        <time>2012-09-09T07:26:46Z</time>
      </trkpt>
      <trkpt lat="45.58458" lon="6.6359">
        <ele>2000.1999511719</ele>
        <time>2012-09-09T07:26:52Z</time>
      </trkpt>
      <trkpt lat="45.58455" lon="6.63587">
        <ele>2001.1999511719</ele>
        <time>2012-09-09T07:26:55Z</time>
      </trkpt>
      <trkpt lat="45.58447" lon="6.63576">
        <ele>2002.1999511719</ele>
        <time>2012-09-09T07:27:03Z</time>
      </trkpt>
      <trkpt lat="45.58444" lon="6.63571">
        <ele>2003.4000244141</ele>
        <time>2012-09-09T07:27:06Z</time>
      </trkpt>
      <trkpt lat="45.58437" lon="6.63563">
        <ele>2003.4000244141</ele>
        <time>2012-09-09T07:27:12Z</time>
      </trkpt>
      <trkpt lat="45.58429" lon="6.63552">
        <ele>2004.4000244141</ele>
        <time>2012-09-09T07:27:20Z</time>
      </trkpt>
      <trkpt lat="45.58425" lon="6.63544">
        <ele>2005.4000244141</ele>
        <time>2012-09-09T07:27:25Z</time>
      </trkpt>
      <trkpt lat="45.58422" lon="6.63537">
        <ele>2006.4000244141</ele>
        <time>2012-09-09T07:27:30Z</time>
      </trkpt>
      <trkpt lat="45.58418" lon="6.6353">
        <ele>2007.5999755859</ele>
        <time>2012-09-09T07:27:35Z</time>
      </trkpt>
      <trkpt lat="45.58415" lon="6.6352">
        <ele>2010</ele>
        <time>2012-09-09T07:27:42Z</time>
      </trkpt>
      <trkpt lat="45.58414" lon="6.63515">
        <ele>2011</ele>
        <time>2012-09-09T07:27:46Z</time>
      </trkpt>
      <trkpt lat="45.58415" lon="6.63508">
        <ele>2013</ele>
        <time>2012-09-09T07:27:52Z</time>
      </trkpt>
      <trkpt lat="45.58418" lon="6.63503">
        <ele>2014</ele>
        <time>2012-09-09T07:27:55Z</time>
      </trkpt>
      <trkpt lat="45.58421" lon="6.63498">
        <ele>2015.1999511719</ele>
        <time>2012-09-09T07:28:00Z</time>
      </trkpt>
      <trkpt lat="45.58422" lon="6.63492">
        <ele>2016.1999511719</ele>
        <time>2012-09-09T07:28:05Z</time>
      </trkpt>
      <trkpt lat="45.58423" lon="6.63481">
        <ele>2017.1999511719</ele>
        <time>2012-09-09T07:28:13Z</time>
      </trkpt>
      <trkpt lat="45.5842" lon="6.63467">
        <ele>2018.4000244141</ele>
        <time>2012-09-09T07:28:22Z</time>
      </trkpt>
      <trkpt lat="45.58417" lon="6.63444">
        <ele>2019.5999755859</ele>
        <time>2012-09-09T07:28:36Z</time>
      </trkpt>
      <trkpt lat="45.58417" lon="6.63432">
        <ele>2021.8000488281</ele>
        <time>2012-09-09T07:28:44Z</time>
      </trkpt>
      <trkpt lat="45.58415" lon="6.63416">
        <ele>2022.8000488281</ele>
        <time>2012-09-09T07:28:53Z</time>
      </trkpt>
      <trkpt lat="45.5841" lon="6.63404">
        <ele>2022.8000488281</ele>
        <time>2012-09-09T07:29:00Z</time>
      </trkpt>
      <trkpt lat="45.58405" lon="6.63393">
        <ele>2024</ele>
        <time>2012-09-09T07:29:04Z</time>
      </trkpt>
      <trkpt lat="45.58402" lon="6.63383">
        <ele>2025</ele>
        <time>2012-09-09T07:29:08Z</time>
      </trkpt>
      <trkpt lat="45.58398" lon="6.63374">
        <ele>2026</ele>
        <time>2012-09-09T07:29:14Z</time>
      </trkpt>
      <trkpt lat="45.58393" lon="6.63367">
        <ele>2027.5999755859</ele>
        <time>2012-09-09T07:29:20Z</time>
      </trkpt>
      <trkpt lat="45.58388" lon="6.63359">
        <ele>2027.5999755859</ele>
        <time>2012-09-09T07:29:26Z</time>
      </trkpt>
      <trkpt lat="45.58387" lon="6.63352">
        <ele>2029.5999755859</ele>
        <time>2012-09-09T07:29:30Z</time>
      </trkpt>
      <trkpt lat="45.58383" lon="6.63349">
        <ele>2029.5999755859</ele>
        <time>2012-09-09T07:29:34Z</time>
      </trkpt>
      <trkpt lat="45.5838" lon="6.63346">
        <ele>2030.5999755859</ele>
        <time>2012-09-09T07:29:38Z</time>
      </trkpt>
      <trkpt lat="45.58375" lon="6.63343">
        <ele>2031.5999755859</ele>
        <time>2012-09-09T07:29:42Z</time>
      </trkpt>
      <trkpt lat="45.58368" lon="6.63335">
        <ele>2033.8000488281</ele>
        <time>2012-09-09T07:29:49Z</time>
      </trkpt>
      <trkpt lat="45.58362" lon="6.63329">
        <ele>2036</ele>
        <time>2012-09-09T07:29:56Z</time>
      </trkpt>
      <trkpt lat="45.58355" lon="6.63325">
        <ele>2038.5999755859</ele>
        <time>2012-09-09T07:30:02Z</time>
      </trkpt>
      <trkpt lat="45.58351" lon="6.63319">
        <ele>2038.5999755859</ele>
        <time>2012-09-09T07:30:07Z</time>
      </trkpt>
      <trkpt lat="45.58346" lon="6.63313">
        <ele>2039.5999755859</ele>
        <time>2012-09-09T07:30:13Z</time>
      </trkpt>
      <trkpt lat="45.58342" lon="6.63307">
        <ele>2041.8000488281</ele>
        <time>2012-09-09T07:30:19Z</time>
      </trkpt>
      <trkpt lat="45.58338" lon="6.63303">
        <ele>2042.8000488281</ele>
        <time>2012-09-09T07:30:24Z</time>
      </trkpt>
      <trkpt lat="45.58335" lon="6.63299">
        <ele>2044</ele>
        <time>2012-09-09T07:30:28Z</time>
      </trkpt>
      <trkpt lat="45.58328" lon="6.63292">
        <ele>2046.4000244141</ele>
        <time>2012-09-09T07:30:36Z</time>
      </trkpt>
      <trkpt lat="45.58322" lon="6.63287">
        <ele>2047.4000244141</ele>
        <time>2012-09-09T07:30:43Z</time>
      </trkpt>
      <trkpt lat="45.58317" lon="6.63282">
        <ele>2048.3999023438</ele>
        <time>2012-09-09T07:30:50Z</time>
      </trkpt>
      <trkpt lat="45.58312" lon="6.63277">
        <ele>2050.6000976562</ele>
        <time>2012-09-09T07:30:56Z</time>
      </trkpt>
      <trkpt lat="45.58311" lon="6.63275">
        <ele>2051.6000976562</ele>
        <time>2012-09-09T07:30:58Z</time>
      </trkpt>
      <trkpt lat="45.58308" lon="6.63271">
        <ele>2052.8000488281</ele>
        <time>2012-09-09T07:31:03Z</time>
      </trkpt>
      <trkpt lat="45.58303" lon="6.63265">
        <ele>2053.8000488281</ele>
        <time>2012-09-09T07:31:09Z</time>
      </trkpt>
      <trkpt lat="45.58302" lon="6.63261">
        <ele>2055</ele>
        <time>2012-09-09T07:31:12Z</time>
      </trkpt>
      <trkpt lat="45.583" lon="6.63256">
        <ele>2056.1999511719</ele>
        <time>2012-09-09T07:31:16Z</time>
      </trkpt>
      <trkpt lat="45.58297" lon="6.63248">
        <ele>2057.1999511719</ele>
        <time>2012-09-09T07:31:22Z</time>
      </trkpt>
      <trkpt lat="45.58297" lon="6.63245">
        <ele>2058.1999511719</ele>
        <time>2012-09-09T07:31:24Z</time>
      </trkpt>
      <trkpt lat="45.58297" lon="6.63239">
        <ele>2059.1999511719</ele>
        <time>2012-09-09T07:31:29Z</time>
      </trkpt>
      <trkpt lat="45.58295" lon="6.63231">
        <ele>2061.3999023438</ele>
        <time>2012-09-09T07:31:35Z</time>
      </trkpt>
      <trkpt lat="45.58292" lon="6.63225">
        <ele>2061.3999023438</ele>
        <time>2012-09-09T07:31:40Z</time>
      </trkpt>
      <trkpt lat="45.58289" lon="6.63215">
        <ele>2063.3999023438</ele>
        <time>2012-09-09T07:31:47Z</time>
      </trkpt>
      <trkpt lat="45.58287" lon="6.6321">
        <ele>2064.6000976562</ele>
        <time>2012-09-09T07:31:51Z</time>
      </trkpt>
      <trkpt lat="45.58277" lon="6.63197">
        <ele>2066.8000488281</ele>
        <time>2012-09-09T07:32:02Z</time>
      </trkpt>
      <trkpt lat="45.58273" lon="6.63193">
        <ele>2067.8000488281</ele>
        <time>2012-09-09T07:32:07Z</time>
      </trkpt>
      <trkpt lat="45.5827" lon="6.63183">
        <ele>2070</ele>
        <time>2012-09-09T07:32:14Z</time>
      </trkpt>
      <trkpt lat="45.58268" lon="6.63178">
        <ele>2071</ele>
        <time>2012-09-09T07:32:18Z</time>
      </trkpt>
      <trkpt lat="45.58263" lon="6.63168">
        <ele>2072.1999511719</ele>
        <time>2012-09-09T07:32:25Z</time>
      </trkpt>
      <trkpt lat="45.58262" lon="6.63163">
        <ele>2074.3999023438</ele>
        <time>2012-09-09T07:32:29Z</time>
      </trkpt>
      <trkpt lat="45.58257" lon="6.63156">
        <ele>2074.3999023438</ele>
        <time>2012-09-09T07:32:35Z</time>
      </trkpt>
      <trkpt lat="45.58246" lon="6.63144">
        <ele>2075.3999023438</ele>
        <time>2012-09-09T07:32:43Z</time>
      </trkpt>
      <trkpt lat="45.58236" lon="6.63135">
        <ele>2076.3999023438</ele>
        <time>2012-09-09T07:32:49Z</time>
      </trkpt>
      <trkpt lat="45.58222" lon="6.63124">
        <ele>2077.3999023438</ele>
        <time>2012-09-09T07:32:57Z</time>
      </trkpt>
      <trkpt lat="45.58215" lon="6.63113">
        <ele>2078.6000976562</ele>
        <time>2012-09-09T07:33:05Z</time>
      </trkpt>
      <trkpt lat="45.5821" lon="6.63104">
        <ele>2078.6000976562</ele>
        <time>2012-09-09T07:33:11Z</time>
      </trkpt>
      <trkpt lat="45.58204" lon="6.631">
        <ele>2079.8000488281</ele>
        <time>2012-09-09T07:33:16Z</time>
      </trkpt>
      <trkpt lat="45.58196" lon="6.63096">
        <ele>2080.8000488281</ele>
        <time>2012-09-09T07:33:22Z</time>
      </trkpt>
      <trkpt lat="45.58188" lon="6.63093">
        <ele>2082.8000488281</ele>
        <time>2012-09-09T07:33:28Z</time>
      </trkpt>
      <trkpt lat="45.58184" lon="6.6309">
        <ele>2082.8000488281</ele>
        <time>2012-09-09T07:33:32Z</time>
      </trkpt>
      <trkpt lat="45.58181" lon="6.63086">
        <ele>2083.8000488281</ele>
        <time>2012-09-09T07:33:35Z</time>
      </trkpt>
      <trkpt lat="45.58173" lon="6.63081">
        <ele>2086</ele>
        <time>2012-09-09T07:33:42Z</time>
      </trkpt>
      <trkpt lat="45.58171" lon="6.63075">
        <ele>2086</ele>
        <time>2012-09-09T07:33:48Z</time>
      </trkpt>
      <trkpt lat="45.5817" lon="6.63075">
        <ele>2086</ele>
        <time>2012-09-09T07:34:00Z</time>
      </trkpt>
      <trkpt lat="45.5817" lon="6.63074">
        <ele>2086</ele>
        <time>2012-09-09T07:34:15Z</time>
      </trkpt>
      <trkpt lat="45.58175" lon="6.63059">
        <ele>2087</ele>
        <time>2012-09-09T07:34:23Z</time>
      </trkpt>
      <trkpt lat="45.5818" lon="6.63051">
        <ele>2088.1999511719</ele>
        <time>2012-09-09T07:34:28Z</time>
      </trkpt>
      <trkpt lat="45.5818" lon="6.63046">
        <ele>2088.1999511719</ele>
        <time>2012-09-09T07:34:31Z</time>
      </trkpt>
      <trkpt lat="45.58182" lon="6.63041">
        <ele>2089.1999511719</ele>
        <time>2012-09-09T07:34:35Z</time>
      </trkpt>
      <trkpt lat="45.58181" lon="6.63037">
        <ele>2090.3999023438</ele>
        <time>2012-09-09T07:34:38Z</time>
      </trkpt>
      <trkpt lat="45.58179" lon="6.63026">
        <ele>2091.6000976562</ele>
        <time>2012-09-09T07:34:44Z</time>
      </trkpt>
      <trkpt lat="45.58178" lon="6.6302">
        <ele>2094.3999023438</ele>
        <time>2012-09-09T07:34:48Z</time>
      </trkpt>
      <trkpt lat="45.58175" lon="6.63015">
        <ele>2094.3999023438</ele>
        <time>2012-09-09T07:34:51Z</time>
      </trkpt>
      <trkpt lat="45.58174" lon="6.63009">
        <ele>2095.3999023438</ele>
        <time>2012-09-09T07:34:56Z</time>
      </trkpt>
      <trkpt lat="45.58174" lon="6.63006">
        <ele>2097.6000976562</ele>
        <time>2012-09-09T07:34:58Z</time>
      </trkpt>
      <trkpt lat="45.58174" lon="6.63003">
        <ele>2097.6000976562</ele>
        <time>2012-09-09T07:35:00Z</time>
      </trkpt>
      <trkpt lat="45.58171" lon="6.62998">
        <ele>2098.6000976562</ele>
        <time>2012-09-09T07:35:04Z</time>
      </trkpt>
      <trkpt lat="45.58169" lon="6.62994">
        <ele>2100</ele>
        <time>2012-09-09T07:35:07Z</time>
      </trkpt>
      <trkpt lat="45.58167" lon="6.62987">
        <ele>2100</ele>
        <time>2012-09-09T07:35:12Z</time>
      </trkpt>
      <trkpt lat="45.58166" lon="6.62982">
        <ele>2102.1999511719</ele>
        <time>2012-09-09T07:35:16Z</time>
      </trkpt>
      <trkpt lat="45.58165" lon="6.62979">
        <ele>2102.1999511719</ele>
        <time>2012-09-09T07:35:18Z</time>
      </trkpt>
      <trkpt lat="45.58164" lon="6.62974">
        <ele>2104.6000976562</ele>
        <time>2012-09-09T07:35:22Z</time>
      </trkpt>
      <trkpt lat="45.58157" lon="6.62966">
        <ele>2105.6000976562</ele>
        <time>2012-09-09T07:35:29Z</time>
      </trkpt>
      <trkpt lat="45.58152" lon="6.6296">
        <ele>2105.6000976562</ele>
        <time>2012-09-09T07:35:34Z</time>
      </trkpt>
      <trkpt lat="45.58148" lon="6.62952">
        <ele>2107.8000488281</ele>
        <time>2012-09-09T07:35:40Z</time>
      </trkpt>
      <trkpt lat="45.58146" lon="6.62945">
        <ele>2110</ele>
        <time>2012-09-09T07:35:47Z</time>
      </trkpt>
      <trkpt lat="45.58146" lon="6.62941">
        <ele>2111</ele>
        <time>2012-09-09T07:35:51Z</time>
      </trkpt>
      <trkpt lat="45.58147" lon="6.62934">
        <ele>2112</ele>
        <time>2012-09-09T07:35:56Z</time>
      </trkpt>
      <trkpt lat="45.58148" lon="6.62931">
        <ele>2113</ele>
        <time>2012-09-09T07:36:00Z</time>
      </trkpt>
      <trkpt lat="45.58149" lon="6.62928">
        <ele>2114.1999511719</ele>
        <time>2012-09-09T07:36:02Z</time>
      </trkpt>
      <trkpt lat="45.58147" lon="6.62921">
        <ele>2115.1999511719</ele>
        <time>2012-09-09T07:36:08Z</time>
      </trkpt>
      <trkpt lat="45.58147" lon="6.62916">
        <ele>2117.8000488281</ele>
        <time>2012-09-09T07:36:12Z</time>
      </trkpt>
      <trkpt lat="45.58146" lon="6.62912">
        <ele>2119</ele>
        <time>2012-09-09T07:36:15Z</time>
      </trkpt>
      <trkpt lat="45.58145" lon="6.62905">
        <ele>2119</ele>
        <time>2012-09-09T07:36:22Z</time>
      </trkpt>
      <trkpt lat="45.58147" lon="6.62903">
        <ele>2120</ele>
        <time>2012-09-09T07:36:24Z</time>
      </trkpt>
      <trkpt lat="45.58151" lon="6.62905">
        <ele>2121</ele>
        <time>2012-09-09T07:36:29Z</time>
      </trkpt>
      <trkpt lat="45.58155" lon="6.62909">
        <ele>2122</ele>
        <time>2012-09-09T07:36:34Z</time>
      </trkpt>
      <trkpt lat="45.5816" lon="6.62914">
        <ele>2124</ele>
        <time>2012-09-09T07:36:41Z</time>
      </trkpt>
      <trkpt lat="45.58161" lon="6.62912">
        <ele>2125.1999511719</ele>
        <time>2012-09-09T07:36:45Z</time>
      </trkpt>
      <trkpt lat="45.58159" lon="6.62903">
        <ele>2126.1999511719</ele>
        <time>2012-09-09T07:36:51Z</time>
      </trkpt>
      <trkpt lat="45.58155" lon="6.62891">
        <ele>2127.1999511719</ele>
        <time>2012-09-09T07:36:59Z</time>
      </trkpt>
      <trkpt lat="45.58154" lon="6.62883">
        <ele>2129.6000976562</ele>
        <time>2012-09-09T07:37:04Z</time>
      </trkpt>
      <trkpt lat="45.58153" lon="6.62876">
        <ele>2130.8000488281</ele>
        <time>2012-09-09T07:37:09Z</time>
      </trkpt>
      <trkpt lat="45.58153" lon="6.62869">
        <ele>2131.8000488281</ele>
        <time>2012-09-09T07:37:14Z</time>
      </trkpt>
      <trkpt lat="45.58155" lon="6.6286">
        <ele>2134</ele>
        <time>2012-09-09T07:37:21Z</time>
      </trkpt>
      <trkpt lat="45.58155" lon="6.62859">
        <ele>2134</ele>
        <time>2012-09-09T07:37:30Z</time>
      </trkpt>
      <trkpt lat="45.58159" lon="6.62865">
        <ele>2136.3999023438</ele>
        <time>2012-09-09T07:37:42Z</time>
      </trkpt>
      <trkpt lat="45.58165" lon="6.62869">
        <ele>2138.3999023438</ele>
        <time>2012-09-09T07:37:49Z</time>
      </trkpt>
      <trkpt lat="45.58168" lon="6.62872">
        <ele>2139.6000976562</ele>
        <time>2012-09-09T07:37:54Z</time>
      </trkpt>
      <trkpt lat="45.58172" lon="6.62877">
        <ele>2141.8000488281</ele>
        <time>2012-09-09T07:38:00Z</time>
      </trkpt>
      <trkpt lat="45.58175" lon="6.62877">
        <ele>2142.8000488281</ele>
        <time>2012-09-09T07:38:04Z</time>
      </trkpt>
      <trkpt lat="45.58177" lon="6.62881">
        <ele>2142.8000488281</ele>
        <time>2012-09-09T07:38:08Z</time>
      </trkpt>
      <trkpt lat="45.58179" lon="6.62884">
        <ele>2144.1999511719</ele>
        <time>2012-09-09T07:38:12Z</time>
      </trkpt>
      <trkpt lat="45.58183" lon="6.62888">
        <ele>2145.3999023438</ele>
        <time>2012-09-09T07:38:23Z</time>
      </trkpt>
      <trkpt lat="45.58187" lon="6.6289">
        <ele>2146.6000976562</ele>
        <time>2012-09-09T07:38:28Z</time>
      </trkpt>
      <trkpt lat="45.58186" lon="6.62886">
        <ele>2147.6000976562</ele>
        <time>2012-09-09T07:38:31Z</time>
      </trkpt>
      <trkpt lat="45.58185" lon="6.62881">
        <ele>2148.6000976562</ele>
        <time>2012-09-09T07:38:34Z</time>
      </trkpt>
      <trkpt lat="45.58186" lon="6.62873">
        <ele>2148.6000976562</ele>
        <time>2012-09-09T07:38:39Z</time>
      </trkpt>
      <trkpt lat="45.58186" lon="6.62865">
        <ele>2149.8000488281</ele>
        <time>2012-09-09T07:38:44Z</time>
      </trkpt>
      <trkpt lat="45.58187" lon="6.62859">
        <ele>2152.1999511719</ele>
        <time>2012-09-09T07:38:48Z</time>
      </trkpt>
      <trkpt lat="45.58188" lon="6.6285">
        <ele>2154.1999511719</ele>
        <time>2012-09-09T07:38:54Z</time>
      </trkpt>
      <trkpt lat="45.58188" lon="6.62847">
        <ele>2154.1999511719</ele>
        <time>2012-09-09T07:38:57Z</time>
      </trkpt>
      <trkpt lat="45.58189" lon="6.6284">
        <ele>2155.3999023438</ele>
        <time>2012-09-09T07:39:01Z</time>
      </trkpt>
      <trkpt lat="45.5819" lon="6.62832">
        <ele>2156.3999023438</ele>
        <time>2012-09-09T07:39:06Z</time>
      </trkpt>
      <trkpt lat="45.58192" lon="6.6282">
        <ele>2158.6000976562</ele>
        <time>2012-09-09T07:39:13Z</time>
      </trkpt>
      <trkpt lat="45.58193" lon="6.62809">
        <ele>2159.6000976562</ele>
        <time>2012-09-09T07:39:19Z</time>
      </trkpt>
      <trkpt lat="45.58194" lon="6.62802">
        <ele>2160.6000976562</ele>
        <time>2012-09-09T07:39:23Z</time>
      </trkpt>
      <trkpt lat="45.58194" lon="6.62795">
        <ele>2161.8000488281</ele>
        <time>2012-09-09T07:39:27Z</time>
      </trkpt>
      <trkpt lat="45.58195" lon="6.62785">
        <ele>2162.8000488281</ele>
        <time>2012-09-09T07:39:33Z</time>
      </trkpt>
      <trkpt lat="45.58196" lon="6.62781">
        <ele>2164</ele>
        <time>2012-09-09T07:39:36Z</time>
      </trkpt>
      <trkpt lat="45.58198" lon="6.62765">
        <ele>2165.1999511719</ele>
        <time>2012-09-09T07:39:45Z</time>
      </trkpt>
      <trkpt lat="45.58198" lon="6.62755">
        <ele>2166.1999511719</ele>
        <time>2012-09-09T07:39:50Z</time>
      </trkpt>
      <trkpt lat="45.58199" lon="6.62745">
        <ele>2167.3999023438</ele>
        <time>2012-09-09T07:39:55Z</time>
      </trkpt>
      <trkpt lat="45.58199" lon="6.62739">
        <ele>2168.3999023438</ele>
        <time>2012-09-09T07:39:58Z</time>
      </trkpt>
      <trkpt lat="45.58197" lon="6.6272">
        <ele>2168.3999023438</ele>
        <time>2012-09-09T07:40:06Z</time>
      </trkpt>
      <trkpt lat="45.58199" lon="6.62697">
        <ele>2169.3999023438</ele>
        <time>2012-09-09T07:40:13Z</time>
      </trkpt>
      <trkpt lat="45.58202" lon="6.62679">
        <ele>2170.3999023438</ele>
        <time>2012-09-09T07:40:19Z</time>
      </trkpt>
      <trkpt lat="45.58205" lon="6.62664">
        <ele>2171.3999023438</ele>
        <time>2012-09-09T07:40:24Z</time>
      </trkpt>
      <trkpt lat="45.5821" lon="6.62636">
        <ele>2171.3999023438</ele>
        <time>2012-09-09T07:40:33Z</time>
      </trkpt>
      <trkpt lat="45.58214" lon="6.62602">
        <ele>2172.6000976562</ele>
        <time>2012-09-09T07:40:43Z</time>
      </trkpt>
      <trkpt lat="45.58217" lon="6.6257">
        <ele>2172.6000976562</ele>
        <time>2012-09-09T07:40:52Z</time>
      </trkpt>
      <trkpt lat="45.58217" lon="6.62538">
        <ele>2172.6000976562</ele>
        <time>2012-09-09T07:41:02Z</time>
      </trkpt>
      <trkpt lat="45.58218" lon="6.6253">
        <ele>2172.6000976562</ele>
        <time>2012-09-09T07:41:07Z</time>
      </trkpt>
      <trkpt lat="45.58218" lon="6.62522">
        <ele>2172.6000976562</ele>
        <time>2012-09-09T07:41:13Z</time>
      </trkpt>
      <trkpt lat="45.58217" lon="6.62502">
        <ele>2173.6000976562</ele>
        <time>2012-09-09T07:41:23Z</time>
      </trkpt>
      <trkpt lat="45.58218" lon="6.62499">
        <ele>2173.6000976562</ele>
        <time>2012-09-09T07:41:25Z</time>
      </trkpt>
      <trkpt lat="45.58219" lon="6.62495">
        <ele>2174.6000976562</ele>
        <time>2012-09-09T07:41:28Z</time>
      </trkpt>
      <trkpt lat="45.58221" lon="6.6249">
        <ele>2175.6000976562</ele>
        <time>2012-09-09T07:41:32Z</time>
      </trkpt>
      <trkpt lat="45.58222" lon="6.62488">
        <ele>2177.1999511719</ele>
        <time>2012-09-09T07:41:34Z</time>
      </trkpt>
      <trkpt lat="45.58222" lon="6.62484">
        <ele>2178.1999511719</ele>
        <time>2012-09-09T07:41:38Z</time>
      </trkpt>
      <trkpt lat="45.58223" lon="6.6248">
        <ele>2178.1999511719</ele>
        <time>2012-09-09T07:41:41Z</time>
      </trkpt>
      <trkpt lat="45.58225" lon="6.62476">
        <ele>2179.1999511719</ele>
        <time>2012-09-09T07:41:44Z</time>
      </trkpt>
      <trkpt lat="45.58226" lon="6.62471">
        <ele>2180.3999023438</ele>
        <time>2012-09-09T07:41:49Z</time>
      </trkpt>
      <trkpt lat="45.58228" lon="6.62464">
        <ele>2182.6000976562</ele>
        <time>2012-09-09T07:41:54Z</time>
      </trkpt>
      <trkpt lat="45.58231" lon="6.62458">
        <ele>2183.8000488281</ele>
        <time>2012-09-09T07:41:59Z</time>
      </trkpt>
      <trkpt lat="45.58232" lon="6.6245">
        <ele>2184.8000488281</ele>
        <time>2012-09-09T07:42:04Z</time>
      </trkpt>
      <trkpt lat="45.58234" lon="6.62443">
        <ele>2184.8000488281</ele>
        <time>2012-09-09T07:42:09Z</time>
      </trkpt>
      <trkpt lat="45.58239" lon="6.62432">
        <ele>2185.8000488281</ele>
        <time>2012-09-09T07:42:16Z</time>
      </trkpt>
      <trkpt lat="45.58242" lon="6.62414">
        <ele>2187</ele>
        <time>2012-09-09T07:42:26Z</time>
      </trkpt>
      <trkpt lat="45.58247" lon="6.62401">
        <ele>2188</ele>
        <time>2012-09-09T07:42:31Z</time>
      </trkpt>
      <trkpt lat="45.58254" lon="6.62383">
        <ele>2189</ele>
        <time>2012-09-09T07:42:38Z</time>
      </trkpt>
      <trkpt lat="45.58263" lon="6.62359">
        <ele>2189</ele>
        <time>2012-09-09T07:42:47Z</time>
      </trkpt>
      <trkpt lat="45.58269" lon="6.62333">
        <ele>2189</ele>
        <time>2012-09-09T07:42:57Z</time>
      </trkpt>
      <trkpt lat="45.5827" lon="6.62317">
        <ele>2191.1999511719</ele>
        <time>2012-09-09T07:43:07Z</time>
      </trkpt>
      <trkpt lat="45.58272" lon="6.62307">
        <ele>2192.1999511719</ele>
        <time>2012-09-09T07:43:13Z</time>
      </trkpt>
      <trkpt lat="45.58277" lon="6.623">
        <ele>2193.1999511719</ele>
        <time>2012-09-09T07:43:19Z</time>
      </trkpt>
      <trkpt lat="45.58277" lon="6.62304">
        <ele>2194.1999511719</ele>
        <time>2012-09-09T07:43:22Z</time>
      </trkpt>
      <trkpt lat="45.58278" lon="6.62311">
        <ele>2195.3999023438</ele>
        <time>2012-09-09T07:43:27Z</time>
      </trkpt>
      <trkpt lat="45.58279" lon="6.62319">
        <ele>2196.6000976562</ele>
        <time>2012-09-09T07:43:32Z</time>
      </trkpt>
      <trkpt lat="45.58279" lon="6.62322">
        <ele>2197.6000976562</ele>
        <time>2012-09-09T07:43:35Z</time>
      </trkpt>
      <trkpt lat="45.5828" lon="6.62324">
        <ele>2198.6000976562</ele>
        <time>2012-09-09T07:43:37Z</time>
      </trkpt>
      <trkpt lat="45.58282" lon="6.62328">
        <ele>2199.6000976562</ele>
        <time>2012-09-09T07:43:42Z</time>
      </trkpt>
      <trkpt lat="45.58282" lon="6.62327">
        <ele>2200.8000488281</ele>
        <time>2012-09-09T07:43:44Z</time>
      </trkpt>
      <trkpt lat="45.58284" lon="6.6232">
        <ele>2202</ele>
        <time>2012-09-09T07:43:49Z</time>
      </trkpt>
      <trkpt lat="45.58288" lon="6.62316">
        <ele>2203</ele>
        <time>2012-09-09T07:43:53Z</time>
      </trkpt>
      <trkpt lat="45.58292" lon="6.62307">
        <ele>2204.1999511719</ele>
        <time>2012-09-09T07:44:00Z</time>
      </trkpt>
      <trkpt lat="45.58294" lon="6.62301">
        <ele>2205.1999511719</ele>
        <time>2012-09-09T07:44:05Z</time>
      </trkpt>
      <trkpt lat="45.58297" lon="6.62295">
        <ele>2207.3999023438</ele>
        <time>2012-09-09T07:44:10Z</time>
      </trkpt>
      <trkpt lat="45.58299" lon="6.62291">
        <ele>2208.3999023438</ele>
        <time>2012-09-09T07:44:14Z</time>
      </trkpt>
      <trkpt lat="45.58304" lon="6.62282">
        <ele>2210.6000976562</ele>
        <time>2012-09-09T07:44:23Z</time>
      </trkpt>
      <trkpt lat="45.58305" lon="6.62276">
        <ele>2211.6000976562</ele>
        <time>2012-09-09T07:44:27Z</time>
      </trkpt>
      <trkpt lat="45.58308" lon="6.62269">
        <ele>2212.8000488281</ele>
        <time>2012-09-09T07:44:33Z</time>
      </trkpt>
      <trkpt lat="45.58312" lon="6.6226">
        <ele>2213.8000488281</ele>
        <time>2012-09-09T07:44:40Z</time>
      </trkpt>
      <trkpt lat="45.58314" lon="6.62258">
        <ele>2214.8000488281</ele>
        <time>2012-09-09T07:44:44Z</time>
      </trkpt>
      <trkpt lat="45.58319" lon="6.62255">
        <ele>2217</ele>
        <time>2012-09-09T07:44:50Z</time>
      </trkpt>
      <trkpt lat="45.58323" lon="6.62252">
        <ele>2219.3999023438</ele>
        <time>2012-09-09T07:44:57Z</time>
      </trkpt>
      <trkpt lat="45.58327" lon="6.62248">
        <ele>2220.6000976562</ele>
        <time>2012-09-09T07:45:03Z</time>
      </trkpt>
      <trkpt lat="45.5833" lon="6.62244">
        <ele>2221.6000976562</ele>
        <time>2012-09-09T07:45:08Z</time>
      </trkpt>
      <trkpt lat="45.58332" lon="6.6224">
        <ele>2222.6000976562</ele>
        <time>2012-09-09T07:45:12Z</time>
      </trkpt>
      <trkpt lat="45.58335" lon="6.62238">
        <ele>2223.6000976562</ele>
        <time>2012-09-09T07:45:17Z</time>
      </trkpt>
      <trkpt lat="45.58336" lon="6.62236">
        <ele>2225.8000488281</ele>
        <time>2012-09-09T07:45:21Z</time>
      </trkpt>
      <trkpt lat="45.58339" lon="6.62235">
        <ele>2226.8000488281</ele>
        <time>2012-09-09T07:45:25Z</time>
      </trkpt>
      <trkpt lat="45.58341" lon="6.62235">
        <ele>2227.8000488281</ele>
        <time>2012-09-09T07:45:29Z</time>
      </trkpt>
      <trkpt lat="45.58345" lon="6.62234">
        <ele>2228.8000488281</ele>
        <time>2012-09-09T07:45:34Z</time>
      </trkpt>
      <trkpt lat="45.58348" lon="6.62232">
        <ele>2230</ele>
        <time>2012-09-09T07:45:39Z</time>
      </trkpt>
      <trkpt lat="45.5835" lon="6.6223">
        <ele>2231</ele>
        <time>2012-09-09T07:45:43Z</time>
      </trkpt>
      <trkpt lat="45.58352" lon="6.62227">
        <ele>2232</ele>
        <time>2012-09-09T07:45:48Z</time>
      </trkpt>
      <trkpt lat="45.5836" lon="6.62218">
        <ele>2233</ele>
        <time>2012-09-09T07:45:57Z</time>
      </trkpt>
      <trkpt lat="45.58364" lon="6.62215">
        <ele>2235.1999511719</ele>
        <time>2012-09-09T07:46:02Z</time>
      </trkpt>
      <trkpt lat="45.58366" lon="6.62213">
        <ele>2236.8000488281</ele>
        <time>2012-09-09T07:46:06Z</time>
      </trkpt>
      <trkpt lat="45.58367" lon="6.62213">
        <ele>2236.8000488281</ele>
        <time>2012-09-09T07:46:08Z</time>
      </trkpt>
      <trkpt lat="45.58371" lon="6.62209">
        <ele>2237.8000488281</ele>
        <time>2012-09-09T07:46:13Z</time>
      </trkpt>
      <trkpt lat="45.58374" lon="6.62207">
        <ele>2239</ele>
        <time>2012-09-09T07:46:20Z</time>
      </trkpt>
      <trkpt lat="45.58376" lon="6.62207">
        <ele>2240</ele>
        <time>2012-09-09T07:46:25Z</time>
      </trkpt>
      <trkpt lat="45.58379" lon="6.62204">
        <ele>2241.1999511719</ele>
        <time>2012-09-09T07:46:29Z</time>
      </trkpt>
      <trkpt lat="45.58382" lon="6.62204">
        <ele>2243.3999023438</ele>
        <time>2012-09-09T07:46:34Z</time>
      </trkpt>
      <trkpt lat="45.58385" lon="6.62201">
        <ele>2245.6000976562</ele>
        <time>2012-09-09T07:46:39Z</time>
      </trkpt>
      <trkpt lat="45.58392" lon="6.62196">
        <ele>2247.6000976562</ele>
        <time>2012-09-09T07:46:49Z</time>
      </trkpt>
      <trkpt lat="45.58396" lon="6.62193">
        <ele>2248.8000488281</ele>
        <time>2012-09-09T07:46:55Z</time>
      </trkpt>
      <trkpt lat="45.58398" lon="6.62187">
        <ele>2249.8000488281</ele>
        <time>2012-09-09T07:47:00Z</time>
      </trkpt>
      <trkpt lat="45.58402" lon="6.62184">
        <ele>2251</ele>
        <time>2012-09-09T07:47:05Z</time>
      </trkpt>
      <trkpt lat="45.58402" lon="6.62177">
        <ele>2252</ele>
        <time>2012-09-09T07:47:10Z</time>
      </trkpt>
      <trkpt lat="45.58405" lon="6.62171">
        <ele>2253</ele>
        <time>2012-09-09T07:47:15Z</time>
      </trkpt>
      <trkpt lat="45.58408" lon="6.62168">
        <ele>2254</ele>
        <time>2012-09-09T07:47:18Z</time>
      </trkpt>
      <trkpt lat="45.58408" lon="6.62161">
        <ele>2254</ele>
        <time>2012-09-09T07:47:23Z</time>
      </trkpt>
      <trkpt lat="45.58404" lon="6.62146">
        <ele>2254</ele>
        <time>2012-09-09T07:47:31Z</time>
      </trkpt>
      <trkpt lat="45.58399" lon="6.62141">
        <ele>2255</ele>
        <time>2012-09-09T07:47:35Z</time>
      </trkpt>
      <trkpt lat="45.58388" lon="6.62118">
        <ele>2255</ele>
        <time>2012-09-09T07:47:45Z</time>
      </trkpt>
      <trkpt lat="45.58389" lon="6.62101">
        <ele>2255</ele>
        <time>2012-09-09T07:47:55Z</time>
      </trkpt>
      <trkpt lat="45.58389" lon="6.62098">
        <ele>2256.1999511719</ele>
        <time>2012-09-09T07:47:57Z</time>
      </trkpt>
      <trkpt lat="45.58391" lon="6.62086">
        <ele>2257.1999511719</ele>
        <time>2012-09-09T07:48:05Z</time>
      </trkpt>
      <trkpt lat="45.58392" lon="6.62081">
        <ele>2258.1999511719</ele>
        <time>2012-09-09T07:48:08Z</time>
      </trkpt>
      <trkpt lat="45.58392" lon="6.6207">
        <ele>2259.3999023438</ele>
        <time>2012-09-09T07:48:14Z</time>
      </trkpt>
      <trkpt lat="45.58385" lon="6.62045">
        <ele>2259.3999023438</ele>
        <time>2012-09-09T07:48:25Z</time>
      </trkpt>
      <trkpt lat="45.58382" lon="6.62026">
        <ele>2259.3999023438</ele>
        <time>2012-09-09T07:48:32Z</time>
      </trkpt>
      <trkpt lat="45.5838" lon="6.62009">
        <ele>2260.3999023438</ele>
        <time>2012-09-09T07:48:38Z</time>
      </trkpt>
      <trkpt lat="45.58381" lon="6.61998">
        <ele>2260.3999023438</ele>
        <time>2012-09-09T07:48:42Z</time>
      </trkpt>
      <trkpt lat="45.58384" lon="6.61989">
        <ele>2261.6000976562</ele>
        <time>2012-09-09T07:48:46Z</time>
      </trkpt>
      <trkpt lat="45.58391" lon="6.61977">
        <ele>2261.6000976562</ele>
        <time>2012-09-09T07:48:54Z</time>
      </trkpt>
      <trkpt lat="45.58394" lon="6.61969">
        <ele>2262.8000488281</ele>
        <time>2012-09-09T07:48:59Z</time>
      </trkpt>
      <trkpt lat="45.58397" lon="6.61959">
        <ele>2263.8000488281</ele>
        <time>2012-09-09T07:49:06Z</time>
      </trkpt>
      <trkpt lat="45.58401" lon="6.6195">
        <ele>2264.8000488281</ele>
        <time>2012-09-09T07:49:12Z</time>
      </trkpt>
      <trkpt lat="45.58398" lon="6.61942">
        <ele>2266</ele>
        <time>2012-09-09T07:49:18Z</time>
      </trkpt>
      <trkpt lat="45.58395" lon="6.61935">
        <ele>2267</ele>
        <time>2012-09-09T07:49:23Z</time>
      </trkpt>
      <trkpt lat="45.58394" lon="6.61932">
        <ele>2268.1999511719</ele>
        <time>2012-09-09T07:49:25Z</time>
      </trkpt>
      <trkpt lat="45.58392" lon="6.61929">
        <ele>2269.1999511719</ele>
        <time>2012-09-09T07:49:28Z</time>
      </trkpt>
      <trkpt lat="45.58386" lon="6.61918">
        <ele>2270.3999023438</ele>
        <time>2012-09-09T07:49:36Z</time>
      </trkpt>
      <trkpt lat="45.58385" lon="6.61903">
        <ele>2271.6000976562</ele>
        <time>2012-09-09T07:49:44Z</time>
      </trkpt>
      <trkpt lat="45.58382" lon="6.61892">
        <ele>2272.6000976562</ele>
        <time>2012-09-09T07:49:51Z</time>
      </trkpt>
      <trkpt lat="45.5838" lon="6.61876">
        <ele>2273.8000488281</ele>
        <time>2012-09-09T07:50:00Z</time>
      </trkpt>
      <trkpt lat="45.58381" lon="6.61864">
        <ele>2274.8000488281</ele>
        <time>2012-09-09T07:50:07Z</time>
      </trkpt>
      <trkpt lat="45.58383" lon="6.61855">
        <ele>2275.8000488281</ele>
        <time>2012-09-09T07:50:13Z</time>
      </trkpt>
      <trkpt lat="45.58385" lon="6.61847">
        <ele>2278</ele>
        <time>2012-09-09T07:50:19Z</time>
      </trkpt>
      <trkpt lat="45.58388" lon="6.61838">
        <ele>2279.1999511719</ele>
        <time>2012-09-09T07:50:26Z</time>
      </trkpt>
      <trkpt lat="45.5839" lon="6.61831">
        <ele>2280.1999511719</ele>
        <time>2012-09-09T07:50:32Z</time>
      </trkpt>
      <trkpt lat="45.58391" lon="6.61826">
        <ele>2281.3999023438</ele>
        <time>2012-09-09T07:50:35Z</time>
      </trkpt>
      <trkpt lat="45.58389" lon="6.61817">
        <ele>2282.3999023438</ele>
        <time>2012-09-09T07:50:41Z</time>
      </trkpt>
      <trkpt lat="45.58388" lon="6.61811">
        <ele>2283.3999023438</ele>
        <time>2012-09-09T07:50:46Z</time>
      </trkpt>
      <trkpt lat="45.58387" lon="6.61805">
        <ele>2285.6000976562</ele>
        <time>2012-09-09T07:50:51Z</time>
      </trkpt>
      <trkpt lat="45.58387" lon="6.61803">
        <ele>2285.6000976562</ele>
        <time>2012-09-09T07:50:53Z</time>
      </trkpt>
      <trkpt lat="45.58385" lon="6.61799">
        <ele>2286.6000976562</ele>
        <time>2012-09-09T07:50:57Z</time>
      </trkpt>
      <trkpt lat="45.58382" lon="6.61787">
        <ele>2287.6000976562</ele>
        <time>2012-09-09T07:51:06Z</time>
      </trkpt>
      <trkpt lat="45.5838" lon="6.61779">
        <ele>2289.1999511719</ele>
        <time>2012-09-09T07:51:12Z</time>
      </trkpt>
      <trkpt lat="45.58378" lon="6.6177">
        <ele>2291.3999023438</ele>
        <time>2012-09-09T07:51:20Z</time>
      </trkpt>
      <trkpt lat="45.58377" lon="6.61762">
        <ele>2292.3999023438</ele>
        <time>2012-09-09T07:51:26Z</time>
      </trkpt>
      <trkpt lat="45.58375" lon="6.61757">
        <ele>2293.6000976562</ele>
        <time>2012-09-09T07:51:31Z</time>
      </trkpt>
      <trkpt lat="45.58374" lon="6.61755">
        <ele>2293.6000976562</ele>
        <time>2012-09-09T07:51:33Z</time>
      </trkpt>
      <trkpt lat="45.58374" lon="6.61751">
        <ele>2294.8000488281</ele>
        <time>2012-09-09T07:51:36Z</time>
      </trkpt>
      <trkpt lat="45.58376" lon="6.61749">
        <ele>2295.8000488281</ele>
        <time>2012-09-09T07:51:39Z</time>
      </trkpt>
      <trkpt lat="45.58378" lon="6.61748">
        <ele>2295.8000488281</ele>
        <time>2012-09-09T07:51:43Z</time>
      </trkpt>
      <trkpt lat="45.58382" lon="6.61746">
        <ele>2296.8000488281</ele>
        <time>2012-09-09T07:51:48Z</time>
      </trkpt>
      <trkpt lat="45.58387" lon="6.61745">
        <ele>2299.1999511719</ele>
        <time>2012-09-09T07:51:54Z</time>
      </trkpt>
      <trkpt lat="45.58397" lon="6.61752">
        <ele>2301.3999023438</ele>
        <time>2012-09-09T07:52:04Z</time>
      </trkpt>
      <trkpt lat="45.58409" lon="6.6176">
        <ele>2302.3999023438</ele>
        <time>2012-09-09T07:52:15Z</time>
      </trkpt>
      <trkpt lat="45.58412" lon="6.61763">
        <ele>2303.6000976562</ele>
        <time>2012-09-09T07:52:18Z</time>
      </trkpt>
      <trkpt lat="45.58426" lon="6.61769">
        <ele>2305.6000976562</ele>
        <time>2012-09-09T07:52:30Z</time>
      </trkpt>
      <trkpt lat="45.58433" lon="6.61772">
        <ele>2306.6000976562</ele>
        <time>2012-09-09T07:52:36Z</time>
      </trkpt>
      <trkpt lat="45.58442" lon="6.61775">
        <ele>2307.8000488281</ele>
        <time>2012-09-09T07:52:44Z</time>
      </trkpt>
      <trkpt lat="45.58449" lon="6.6178">
        <ele>2308.8000488281</ele>
        <time>2012-09-09T07:52:50Z</time>
      </trkpt>
      <trkpt lat="45.58462" lon="6.61787">
        <ele>2310</ele>
        <time>2012-09-09T07:53:02Z</time>
      </trkpt>
      <trkpt lat="45.58469" lon="6.61791">
        <ele>2311</ele>
        <time>2012-09-09T07:53:09Z</time>
      </trkpt>
      <trkpt lat="45.58476" lon="6.61792">
        <ele>2312</ele>
        <time>2012-09-09T07:53:15Z</time>
      </trkpt>
      <trkpt lat="45.5848" lon="6.61795">
        <ele>2313.1999511719</ele>
        <time>2012-09-09T07:53:19Z</time>
      </trkpt>
      <trkpt lat="45.58486" lon="6.61796">
        <ele>2314.1999511719</ele>
        <time>2012-09-09T07:53:24Z</time>
      </trkpt>
      <trkpt lat="45.58492" lon="6.61795">
        <ele>2315.1999511719</ele>
        <time>2012-09-09T07:53:30Z</time>
      </trkpt>
      <trkpt lat="45.58496" lon="6.61794">
        <ele>2316.1999511719</ele>
        <time>2012-09-09T07:53:35Z</time>
      </trkpt>
      <trkpt lat="45.585" lon="6.61796">
        <ele>2317.3999023438</ele>
        <time>2012-09-09T07:53:39Z</time>
      </trkpt>
      <trkpt lat="45.58505" lon="6.61798">
        <ele>2318.3999023438</ele>
        <time>2012-09-09T07:53:43Z</time>
      </trkpt>
      <trkpt lat="45.58517" lon="6.61796">
        <ele>2320.6000976562</ele>
        <time>2012-09-09T07:53:54Z</time>
      </trkpt>
      <trkpt lat="45.58524" lon="6.61795">
        <ele>2321.6000976562</ele>
        <time>2012-09-09T07:54:01Z</time>
      </trkpt>
      <trkpt lat="45.5853" lon="6.61795">
        <ele>2322.8000488281</ele>
        <time>2012-09-09T07:54:06Z</time>
      </trkpt>
      <trkpt lat="45.58543" lon="6.61797">
        <ele>2323.8000488281</ele>
        <time>2012-09-09T07:54:16Z</time>
      </trkpt>
      <trkpt lat="45.58553" lon="6.61799">
        <ele>2325</ele>
        <time>2012-09-09T07:54:25Z</time>
      </trkpt>
      <trkpt lat="45.58562" lon="6.61802">
        <ele>2325</ele>
        <time>2012-09-09T07:54:35Z</time>
      </trkpt>
      <trkpt lat="45.58566" lon="6.61804">
        <ele>2327</ele>
        <time>2012-09-09T07:54:39Z</time>
      </trkpt>
      <trkpt lat="45.5857" lon="6.61809">
        <ele>2329</ele>
        <time>2012-09-09T07:54:45Z</time>
      </trkpt>
      <trkpt lat="45.58574" lon="6.61815">
        <ele>2330</ele>
        <time>2012-09-09T07:54:50Z</time>
      </trkpt>
      <trkpt lat="45.58575" lon="6.61818">
        <ele>2331.1999511719</ele>
        <time>2012-09-09T07:54:53Z</time>
      </trkpt>
      <trkpt lat="45.58577" lon="6.61821">
        <ele>2332.3999023438</ele>
        <time>2012-09-09T07:54:57Z</time>
      </trkpt>
      <trkpt lat="45.58583" lon="6.61829">
        <ele>2334.6000976562</ele>
        <time>2012-09-09T07:55:05Z</time>
      </trkpt>
      <trkpt lat="45.58586" lon="6.61833">
        <ele>2335.6000976562</ele>
        <time>2012-09-09T07:55:10Z</time>
      </trkpt>
      <trkpt lat="45.5859" lon="6.61838">
        <ele>2336.6000976562</ele>
        <time>2012-09-09T07:55:15Z</time>
      </trkpt>
      <trkpt lat="45.58595" lon="6.61842">
        <ele>2337.6000976562</ele>
        <time>2012-09-09T07:55:21Z</time>
      </trkpt>
      <trkpt lat="45.58598" lon="6.61845">
        <ele>2338.8000488281</ele>
        <time>2012-09-09T07:55:25Z</time>
      </trkpt>
      <trkpt lat="45.58602" lon="6.61847">
        <ele>2339.8000488281</ele>
        <time>2012-09-09T07:55:30Z</time>
      </trkpt>
      <trkpt lat="45.58607" lon="6.61849">
        <ele>2340.8000488281</ele>
        <time>2012-09-09T07:55:36Z</time>
      </trkpt>
      <trkpt lat="45.5861" lon="6.61851">
        <ele>2343</ele>
        <time>2012-09-09T07:55:40Z</time>
      </trkpt>
      <trkpt lat="45.58614" lon="6.61855">
        <ele>2344.1999511719</ele>
        <time>2012-09-09T07:55:47Z</time>
      </trkpt>
      <trkpt lat="45.58618" lon="6.61855">
        <ele>2345.1999511719</ele>
        <time>2012-09-09T07:55:52Z</time>
      </trkpt>
      <trkpt lat="45.58621" lon="6.61857">
        <ele>2347.3999023438</ele>
        <time>2012-09-09T07:55:56Z</time>
      </trkpt>
      <trkpt lat="45.58622" lon="6.61858">
        <ele>2348.3999023438</ele>
        <time>2012-09-09T07:55:59Z</time>
      </trkpt>
      <trkpt lat="45.58629" lon="6.61861">
        <ele>2350.6000976562</ele>
        <time>2012-09-09T07:56:08Z</time>
      </trkpt>
      <trkpt lat="45.58633" lon="6.61865">
        <ele>2351.6000976562</ele>
        <time>2012-09-09T07:56:14Z</time>
      </trkpt>
      <trkpt lat="45.58639" lon="6.61867">
        <ele>2352.8000488281</ele>
        <time>2012-09-09T07:56:19Z</time>
      </trkpt>
      <trkpt lat="45.58643" lon="6.6187">
        <ele>2354</ele>
        <time>2012-09-09T07:56:24Z</time>
      </trkpt>
      <trkpt lat="45.58649" lon="6.61873">
        <ele>2355</ele>
        <time>2012-09-09T07:56:29Z</time>
      </trkpt>
      <trkpt lat="45.58654" lon="6.61876">
        <ele>2356</ele>
        <time>2012-09-09T07:56:34Z</time>
      </trkpt>
      <trkpt lat="45.58661" lon="6.6188">
        <ele>2357.1999511719</ele>
        <time>2012-09-09T07:56:41Z</time>
      </trkpt>
      <trkpt lat="45.58666" lon="6.61885">
        <ele>2358.1999511719</ele>
        <time>2012-09-09T07:56:47Z</time>
      </trkpt>
      <trkpt lat="45.58671" lon="6.61893">
        <ele>2359.3999023438</ele>
        <time>2012-09-09T07:56:54Z</time>
      </trkpt>
      <trkpt lat="45.58674" lon="6.61898">
        <ele>2361.6000976562</ele>
        <time>2012-09-09T07:56:59Z</time>
      </trkpt>
      <trkpt lat="45.58677" lon="6.61903">
        <ele>2362.8000488281</ele>
        <time>2012-09-09T07:57:04Z</time>
      </trkpt>
      <trkpt lat="45.58679" lon="6.61908">
        <ele>2364</ele>
        <time>2012-09-09T07:57:10Z</time>
      </trkpt>
      <trkpt lat="45.58682" lon="6.61911">
        <ele>2365</ele>
        <time>2012-09-09T07:57:14Z</time>
      </trkpt>
      <trkpt lat="45.58686" lon="6.61914">
        <ele>2366.1999511719</ele>
        <time>2012-09-09T07:57:18Z</time>
      </trkpt>
      <trkpt lat="45.5869" lon="6.61919">
        <ele>2367.1999511719</ele>
        <time>2012-09-09T07:57:23Z</time>
      </trkpt>
      <trkpt lat="45.58695" lon="6.61925">
        <ele>2368.3999023438</ele>
        <time>2012-09-09T07:57:29Z</time>
      </trkpt>
      <trkpt lat="45.587" lon="6.61933">
        <ele>2370.6000976562</ele>
        <time>2012-09-09T07:57:37Z</time>
      </trkpt>
      <trkpt lat="45.58705" lon="6.61939">
        <ele>2371.6000976562</ele>
        <time>2012-09-09T07:57:43Z</time>
      </trkpt>
      <trkpt lat="45.58705" lon="6.61944">
        <ele>2372.8000488281</ele>
        <time>2012-09-09T07:57:48Z</time>
      </trkpt>
      <trkpt lat="45.58706" lon="6.61945">
        <ele>2373.8000488281</ele>
        <time>2012-09-09T07:57:50Z</time>
      </trkpt>
      <trkpt lat="45.58708" lon="6.61951">
        <ele>2374.8000488281</ele>
        <time>2012-09-09T07:57:56Z</time>
      </trkpt>
      <trkpt lat="45.58712" lon="6.61956">
        <ele>2377</ele>
        <time>2012-09-09T07:58:03Z</time>
      </trkpt>
      <trkpt lat="45.58716" lon="6.61958">
        <ele>2378.1999511719</ele>
        <time>2012-09-09T07:58:09Z</time>
      </trkpt>
      <trkpt lat="45.5872" lon="6.61961">
        <ele>2379.1999511719</ele>
        <time>2012-09-09T07:58:13Z</time>
      </trkpt>
      <trkpt lat="45.58724" lon="6.61966">
        <ele>2381.1999511719</ele>
        <time>2012-09-09T07:58:19Z</time>
      </trkpt>
      <trkpt lat="45.58728" lon="6.61973">
        <ele>2382.3999023438</ele>
        <time>2012-09-09T07:58:25Z</time>
      </trkpt>
      <trkpt lat="45.58732" lon="6.61978">
        <ele>2383.3999023438</ele>
        <time>2012-09-09T07:58:30Z</time>
      </trkpt>
      <trkpt lat="45.58736" lon="6.61983">
        <ele>2384.3999023438</ele>
        <time>2012-09-09T07:58:35Z</time>
      </trkpt>
      <trkpt lat="45.58741" lon="6.61988">
        <ele>2386.3999023438</ele>
        <time>2012-09-09T07:58:41Z</time>
      </trkpt>
      <trkpt lat="45.58744" lon="6.61995">
        <ele>2387.3999023438</ele>
        <time>2012-09-09T07:58:47Z</time>
      </trkpt>
      <trkpt lat="45.58748" lon="6.62002">
        <ele>2388.3999023438</ele>
        <time>2012-09-09T07:58:57Z</time>
      </trkpt>
      <trkpt lat="45.58752" lon="6.61997">
        <ele>2389.6000976562</ele>
        <time>2012-09-09T07:59:05Z</time>
      </trkpt>
      <trkpt lat="45.58754" lon="6.61994">
        <ele>2390.6000976562</ele>
        <time>2012-09-09T07:59:09Z</time>
      </trkpt>
      <trkpt lat="45.58756" lon="6.61992">
        <ele>2391.8000488281</ele>
        <time>2012-09-09T07:59:14Z</time>
      </trkpt>
      <trkpt lat="45.58758" lon="6.6199">
        <ele>2392.8000488281</ele>
        <time>2012-09-09T07:59:19Z</time>
      </trkpt>
      <trkpt lat="45.58761" lon="6.61985">
        <ele>2395</ele>
        <time>2012-09-09T07:59:23Z</time>
      </trkpt>
      <trkpt lat="45.58762" lon="6.6198">
        <ele>2396</ele>
        <time>2012-09-09T07:59:28Z</time>
      </trkpt>
      <trkpt lat="45.58763" lon="6.61977">
        <ele>2397.1999511719</ele>
        <time>2012-09-09T07:59:32Z</time>
      </trkpt>
      <trkpt lat="45.58765" lon="6.61973">
        <ele>2398.1999511719</ele>
        <time>2012-09-09T07:59:37Z</time>
      </trkpt>
      <trkpt lat="45.58766" lon="6.6197">
        <ele>2399.6000976562</ele>
        <time>2012-09-09T07:59:42Z</time>
      </trkpt>
      <trkpt lat="45.58767" lon="6.61965">
        <ele>2400.6000976562</ele>
        <time>2012-09-09T07:59:47Z</time>
      </trkpt>
      <trkpt lat="45.58767" lon="6.6196">
        <ele>2401.6000976562</ele>
        <time>2012-09-09T07:59:51Z</time>
      </trkpt>
      <trkpt lat="45.58769" lon="6.61957">
        <ele>2402.8000488281</ele>
        <time>2012-09-09T07:59:56Z</time>
      </trkpt>
      <trkpt lat="45.58772" lon="6.61951">
        <ele>2403.8000488281</ele>
        <time>2012-09-09T08:00:01Z</time>
      </trkpt>
      <trkpt lat="45.58779" lon="6.61941">
        <ele>2404.8000488281</ele>
        <time>2012-09-09T08:00:10Z</time>
      </trkpt>
      <trkpt lat="45.58782" lon="6.61932">
        <ele>2406</ele>
        <time>2012-09-09T08:00:16Z</time>
      </trkpt>
      <trkpt lat="45.58785" lon="6.61925">
        <ele>2407</ele>
        <time>2012-09-09T08:00:21Z</time>
      </trkpt>
      <trkpt lat="45.58786" lon="6.61922">
        <ele>2408</ele>
        <time>2012-09-09T08:00:24Z</time>
      </trkpt>
      <trkpt lat="45.58788" lon="6.6192">
        <ele>2409.1999511719</ele>
        <time>2012-09-09T08:00:26Z</time>
      </trkpt>
      <trkpt lat="45.58789" lon="6.61914">
        <ele>2410.1999511719</ele>
        <time>2012-09-09T08:00:31Z</time>
      </trkpt>
      <trkpt lat="45.58791" lon="6.61909">
        <ele>2412.3999023438</ele>
        <time>2012-09-09T08:00:37Z</time>
      </trkpt>
      <trkpt lat="45.58793" lon="6.61904">
        <ele>2413.3999023438</ele>
        <time>2012-09-09T08:00:41Z</time>
      </trkpt>
      <trkpt lat="45.58795" lon="6.61899">
        <ele>2413.3999023438</ele>
        <time>2012-09-09T08:00:45Z</time>
      </trkpt>
      <trkpt lat="45.58795" lon="6.61896">
        <ele>2414.6000976562</ele>
        <time>2012-09-09T08:00:48Z</time>
      </trkpt>
      <trkpt lat="45.58796" lon="6.61895">
        <ele>2415.6000976562</ele>
        <time>2012-09-09T08:00:50Z</time>
      </trkpt>
      <trkpt lat="45.58801" lon="6.61887">
        <ele>2417.8000488281</ele>
        <time>2012-09-09T08:00:58Z</time>
      </trkpt>
      <trkpt lat="45.58802" lon="6.61885">
        <ele>2417.8000488281</ele>
        <time>2012-09-09T08:01:00Z</time>
      </trkpt>
      <trkpt lat="45.58804" lon="6.61882">
        <ele>2419</ele>
        <time>2012-09-09T08:01:04Z</time>
      </trkpt>
      <trkpt lat="45.58806" lon="6.61878">
        <ele>2420</ele>
        <time>2012-09-09T08:01:10Z</time>
      </trkpt>
      <trkpt lat="45.58808" lon="6.61873">
        <ele>2421.1999511719</ele>
        <time>2012-09-09T08:01:15Z</time>
      </trkpt>
      <trkpt lat="45.58809" lon="6.6187">
        <ele>2423.3999023438</ele>
        <time>2012-09-09T08:01:18Z</time>
      </trkpt>
      <trkpt lat="45.58811" lon="6.61866">
        <ele>2424.3999023438</ele>
        <time>2012-09-09T08:01:23Z</time>
      </trkpt>
      <trkpt lat="45.58812" lon="6.6186">
        <ele>2424.3999023438</ele>
        <time>2012-09-09T08:01:28Z</time>
      </trkpt>
      <trkpt lat="45.58813" lon="6.61856">
        <ele>2426.6000976562</ele>
        <time>2012-09-09T08:01:33Z</time>
      </trkpt>
      <trkpt lat="45.58814" lon="6.6185">
        <ele>2427.6000976562</ele>
        <time>2012-09-09T08:01:39Z</time>
      </trkpt>
      <trkpt lat="45.58815" lon="6.61846">
        <ele>2429.8000488281</ele>
        <time>2012-09-09T08:01:44Z</time>
      </trkpt>
      <trkpt lat="45.58815" lon="6.61842">
        <ele>2431</ele>
        <time>2012-09-09T08:01:49Z</time>
      </trkpt>
      <trkpt lat="45.58817" lon="6.61838">
        <ele>2432</ele>
        <time>2012-09-09T08:01:54Z</time>
      </trkpt>
      <trkpt lat="45.58819" lon="6.61835">
        <ele>2433.1999511719</ele>
        <time>2012-09-09T08:01:58Z</time>
      </trkpt>
      <trkpt lat="45.5882" lon="6.61831">
        <ele>2434.1999511719</ele>
        <time>2012-09-09T08:02:02Z</time>
      </trkpt>
      <trkpt lat="45.58823" lon="6.61821">
        <ele>2435.1999511719</ele>
        <time>2012-09-09T08:02:12Z</time>
      </trkpt>
      <trkpt lat="45.58824" lon="6.61816">
        <ele>2436.6000976562</ele>
        <time>2012-09-09T08:02:18Z</time>
      </trkpt>
      <trkpt lat="45.58828" lon="6.61812">
        <ele>2437.8000488281</ele>
        <time>2012-09-09T08:02:23Z</time>
      </trkpt>
      <trkpt lat="45.58831" lon="6.61809">
        <ele>2438.8000488281</ele>
        <time>2012-09-09T08:02:28Z</time>
      </trkpt>
      <trkpt lat="45.58835" lon="6.61805">
        <ele>2440</ele>
        <time>2012-09-09T08:02:33Z</time>
      </trkpt>
      <trkpt lat="45.58838" lon="6.61803">
        <ele>2441</ele>
        <time>2012-09-09T08:02:37Z</time>
      </trkpt>
      <trkpt lat="45.58843" lon="6.61798">
        <ele>2442</ele>
        <time>2012-09-09T08:02:42Z</time>
      </trkpt>
      <trkpt lat="45.58844" lon="6.61797">
        <ele>2442</ele>
        <time>2012-09-09T08:02:44Z</time>
      </trkpt>
      <trkpt lat="45.58846" lon="6.61795">
        <ele>2443</ele>
        <time>2012-09-09T08:02:46Z</time>
      </trkpt>
      <trkpt lat="45.58849" lon="6.61792">
        <ele>2444.1999511719</ele>
        <time>2012-09-09T08:02:50Z</time>
      </trkpt>
      <trkpt lat="45.5885" lon="6.6179">
        <ele>2444.1999511719</ele>
        <time>2012-09-09T08:02:52Z</time>
      </trkpt>
      <trkpt lat="45.58853" lon="6.61783">
        <ele>2445.1999511719</ele>
        <time>2012-09-09T08:02:57Z</time>
      </trkpt>
      <trkpt lat="45.58856" lon="6.61779">
        <ele>2446.1999511719</ele>
        <time>2012-09-09T08:03:02Z</time>
      </trkpt>
      <trkpt lat="45.5886" lon="6.61775">
        <ele>2447.3999023438</ele>
        <time>2012-09-09T08:03:07Z</time>
      </trkpt>
      <trkpt lat="45.58863" lon="6.61771">
        <ele>2448.3999023438</ele>
        <time>2012-09-09T08:03:10Z</time>
      </trkpt>
      <trkpt lat="45.58869" lon="6.61766">
        <ele>2449.3999023438</ele>
        <time>2012-09-09T08:03:16Z</time>
      </trkpt>
      <trkpt lat="45.58872" lon="6.61765">
        <ele>2449.3999023438</ele>
        <time>2012-09-09T08:03:19Z</time>
      </trkpt>
      <trkpt lat="45.58878" lon="6.61763">
        <ele>2450.3999023438</ele>
        <time>2012-09-09T08:03:24Z</time>
      </trkpt>
      <trkpt lat="45.58884" lon="6.6176">
        <ele>2451.3999023438</ele>
        <time>2012-09-09T08:03:29Z</time>
      </trkpt>
      <trkpt lat="45.5889" lon="6.61754">
        <ele>2451.3999023438</ele>
        <time>2012-09-09T08:03:35Z</time>
      </trkpt>
      <trkpt lat="45.5889" lon="6.61754">
        <ele>2452.6000976562</ele>
        <time>2012-09-09T08:03:40Z</time>
      </trkpt>
      <trkpt lat="45.5889" lon="6.61752">
        <ele>2452.6000976562</ele>
        <time>2012-09-09T08:03:53Z</time>
      </trkpt>
      <trkpt lat="45.5889" lon="6.61753">
        <ele>2453.6000976562</ele>
        <time>2012-09-09T08:03:58Z</time>
      </trkpt>
      <trkpt lat="45.5889" lon="6.61752">
        <ele>2453.6000976562</ele>
        <time>2012-09-09T08:04:07Z</time>
      </trkpt>
      <trkpt lat="45.58893" lon="6.61745">
        <ele>2454.6000976562</ele>
        <time>2012-09-09T08:04:13Z</time>
      </trkpt>
      <trkpt lat="45.58896" lon="6.61735">
        <ele>2455.8000488281</ele>
        <time>2012-09-09T08:04:19Z</time>
      </trkpt>
      <trkpt lat="45.58899" lon="6.61727">
        <ele>2458.1999511719</ele>
        <time>2012-09-09T08:04:26Z</time>
      </trkpt>
      <trkpt lat="45.58901" lon="6.61723">
        <ele>2459.1999511719</ele>
        <time>2012-09-09T08:04:29Z</time>
      </trkpt>
      <trkpt lat="45.58901" lon="6.61722">
        <ele>2460.6000976562</ele>
        <time>2012-09-09T08:04:31Z</time>
      </trkpt>
      <trkpt lat="45.58903" lon="6.61717">
        <ele>2460.6000976562</ele>
        <time>2012-09-09T08:04:35Z</time>
      </trkpt>
      <trkpt lat="45.58906" lon="6.61709">
        <ele>2462.6000976562</ele>
        <time>2012-09-09T08:04:41Z</time>
      </trkpt>
      <trkpt lat="45.58907" lon="6.61705">
        <ele>2463.8000488281</ele>
        <time>2012-09-09T08:04:44Z</time>
      </trkpt>
      <trkpt lat="45.58913" lon="6.61702">
        <ele>2465</ele>
        <time>2012-09-09T08:04:49Z</time>
      </trkpt>
      <trkpt lat="45.58915" lon="6.617">
        <ele>2466</ele>
        <time>2012-09-09T08:04:52Z</time>
      </trkpt>
      <trkpt lat="45.58917" lon="6.61699">
        <ele>2466</ele>
        <time>2012-09-09T08:04:55Z</time>
      </trkpt>
      <trkpt lat="45.58921" lon="6.61691">
        <ele>2468.1999511719</ele>
        <time>2012-09-09T08:05:01Z</time>
      </trkpt>
      <trkpt lat="45.58923" lon="6.61685">
        <ele>2469.1999511719</ele>
        <time>2012-09-09T08:05:06Z</time>
      </trkpt>
      <trkpt lat="45.58924" lon="6.61678">
        <ele>2470.3999023438</ele>
        <time>2012-09-09T08:05:11Z</time>
      </trkpt>
      <trkpt lat="45.58924" lon="6.6167">
        <ele>2471.3999023438</ele>
        <time>2012-09-09T08:05:16Z</time>
      </trkpt>
      <trkpt lat="45.58926" lon="6.61662">
        <ele>2472.6000976562</ele>
        <time>2012-09-09T08:05:21Z</time>
      </trkpt>
      <trkpt lat="45.58927" lon="6.61656">
        <ele>2473.6000976562</ele>
        <time>2012-09-09T08:05:26Z</time>
      </trkpt>
      <trkpt lat="45.58927" lon="6.61651">
        <ele>2475.8000488281</ele>
        <time>2012-09-09T08:05:31Z</time>
      </trkpt>
      <trkpt lat="45.58928" lon="6.61647">
        <ele>2476.8000488281</ele>
        <time>2012-09-09T08:05:35Z</time>
      </trkpt>
      <trkpt lat="45.58928" lon="6.61643">
        <ele>2477.8000488281</ele>
        <time>2012-09-09T08:05:39Z</time>
      </trkpt>
      <trkpt lat="45.58928" lon="6.61638">
        <ele>2480</ele>
        <time>2012-09-09T08:05:44Z</time>
      </trkpt>
      <trkpt lat="45.58928" lon="6.61636">
        <ele>2481</ele>
        <time>2012-09-09T08:05:48Z</time>
      </trkpt>
      <trkpt lat="45.58928" lon="6.6163">
        <ele>2482.1999511719</ele>
        <time>2012-09-09T08:05:52Z</time>
      </trkpt>
      <trkpt lat="45.58928" lon="6.61625">
        <ele>2484.3999023438</ele>
        <time>2012-09-09T08:05:58Z</time>
      </trkpt>
      <trkpt lat="45.58928" lon="6.6162">
        <ele>2485.6000976562</ele>
        <time>2012-09-09T08:06:02Z</time>
      </trkpt>
      <trkpt lat="45.58932" lon="6.61614">
        <ele>2487.6000976562</ele>
        <time>2012-09-09T08:06:09Z</time>
      </trkpt>
      <trkpt lat="45.58933" lon="6.61612">
        <ele>2487.6000976562</ele>
        <time>2012-09-09T08:06:11Z</time>
      </trkpt>
      <trkpt lat="45.58934" lon="6.61608">
        <ele>2488.8000488281</ele>
        <time>2012-09-09T08:06:15Z</time>
      </trkpt>
      <trkpt lat="45.58936" lon="6.61605">
        <ele>2489.8000488281</ele>
        <time>2012-09-09T08:06:20Z</time>
      </trkpt>
      <trkpt lat="45.5894" lon="6.61601">
        <ele>2491.8000488281</ele>
        <time>2012-09-09T08:06:26Z</time>
      </trkpt>
      <trkpt lat="45.58942" lon="6.616">
        <ele>2492.8000488281</ele>
        <time>2012-09-09T08:06:29Z</time>
      </trkpt>
      <trkpt lat="45.58945" lon="6.61598">
        <ele>2494</ele>
        <time>2012-09-09T08:06:35Z</time>
      </trkpt>
      <trkpt lat="45.58947" lon="6.61597">
        <ele>2495</ele>
        <time>2012-09-09T08:06:42Z</time>
      </trkpt>
      <trkpt lat="45.58955" lon="6.61594">
        <ele>2495</ele>
        <time>2012-09-09T08:06:48Z</time>
      </trkpt>
      <trkpt lat="45.58961" lon="6.61592">
        <ele>2490.8000488281</ele>
        <time>2012-09-09T08:06:53Z</time>
      </trkpt>
      <trkpt lat="45.58964" lon="6.61591">
        <ele>2489.6000976562</ele>
        <time>2012-09-09T08:06:55Z</time>
      </trkpt>
      <trkpt lat="45.58971" lon="6.61588">
        <ele>2487.3999023438</ele>
        <time>2012-09-09T08:06:59Z</time>
      </trkpt>
      <trkpt lat="45.5898" lon="6.61582">
        <ele>2486.1999511719</ele>
        <time>2012-09-09T08:07:04Z</time>
      </trkpt>
      <trkpt lat="45.58985" lon="6.6158">
        <ele>2485.1999511719</ele>
        <time>2012-09-09T08:07:09Z</time>
      </trkpt>
      <trkpt lat="45.58989" lon="6.61579">
        <ele>2483</ele>
        <time>2012-09-09T08:07:12Z</time>
      </trkpt>
      <trkpt lat="45.58996" lon="6.61577">
        <ele>2481.8000488281</ele>
        <time>2012-09-09T08:07:16Z</time>
      </trkpt>
      <trkpt lat="45.59002" lon="6.61574">
        <ele>2479.6000976562</ele>
        <time>2012-09-09T08:07:19Z</time>
      </trkpt>
      <trkpt lat="45.59017" lon="6.61569">
        <ele>2478.3999023438</ele>
        <time>2012-09-09T08:07:26Z</time>
      </trkpt>
      <trkpt lat="45.59022" lon="6.61569">
        <ele>2477.3999023438</ele>
        <time>2012-09-09T08:07:30Z</time>
      </trkpt>
      <trkpt lat="45.59027" lon="6.61569">
        <ele>2476.1999511719</ele>
        <time>2012-09-09T08:07:33Z</time>
      </trkpt>
      <trkpt lat="45.59034" lon="6.61566">
        <ele>2474</ele>
        <time>2012-09-09T08:07:37Z</time>
      </trkpt>
      <trkpt lat="45.59039" lon="6.61562">
        <ele>2473</ele>
        <time>2012-09-09T08:07:40Z</time>
      </trkpt>
      <trkpt lat="45.59043" lon="6.6156">
        <ele>2471.8000488281</ele>
        <time>2012-09-09T08:07:42Z</time>
      </trkpt>
      <trkpt lat="45.59063" lon="6.61552">
        <ele>2470.6000976562</ele>
        <time>2012-09-09T08:07:51Z</time>
      </trkpt>
      <trkpt lat="45.59077" lon="6.61546">
        <ele>2470.6000976562</ele>
        <time>2012-09-09T08:08:02Z</time>
      </trkpt>
      <trkpt lat="45.59081" lon="6.61545">
        <ele>2473.8000488281</ele>
        <time>2012-09-09T08:08:06Z</time>
      </trkpt>
      <trkpt lat="45.59086" lon="6.61543">
        <ele>2475</ele>
        <time>2012-09-09T08:08:11Z</time>
      </trkpt>
      <trkpt lat="45.59094" lon="6.61541">
        <ele>2476</ele>
        <time>2012-09-09T08:08:17Z</time>
      </trkpt>
      <trkpt lat="45.591" lon="6.61538">
        <ele>2477</ele>
        <time>2012-09-09T08:08:23Z</time>
      </trkpt>
      <trkpt lat="45.59109" lon="6.61535">
        <ele>2478</ele>
        <time>2012-09-09T08:08:31Z</time>
      </trkpt>
      <trkpt lat="45.59114" lon="6.61534">
        <ele>2479</ele>
        <time>2012-09-09T08:08:35Z</time>
      </trkpt>
      <trkpt lat="45.59126" lon="6.61531">
        <ele>2480.1999511719</ele>
        <time>2012-09-09T08:08:44Z</time>
      </trkpt>
      <trkpt lat="45.59135" lon="6.61531">
        <ele>2480.1999511719</ele>
        <time>2012-09-09T08:08:51Z</time>
      </trkpt>
      <trkpt lat="45.59141" lon="6.61532">
        <ele>2481.3999023438</ele>
        <time>2012-09-09T08:08:57Z</time>
      </trkpt>
      <trkpt lat="45.59147" lon="6.61532">
        <ele>2483.3999023438</ele>
        <time>2012-09-09T08:09:02Z</time>
      </trkpt>
      <trkpt lat="45.59149" lon="6.61532">
        <ele>2484.3999023438</ele>
        <time>2012-09-09T08:09:05Z</time>
      </trkpt>
      <trkpt lat="45.59152" lon="6.61532">
        <ele>2484.3999023438</ele>
        <time>2012-09-09T08:09:08Z</time>
      </trkpt>
      <trkpt lat="45.59157" lon="6.61532">
        <ele>2486.6000976562</ele>
        <time>2012-09-09T08:09:14Z</time>
      </trkpt>
      <trkpt lat="45.59162" lon="6.61532">
        <ele>2487.6000976562</ele>
        <time>2012-09-09T08:09:20Z</time>
      </trkpt>
      <trkpt lat="45.59167" lon="6.61532">
        <ele>2490</ele>
        <time>2012-09-09T08:09:26Z</time>
      </trkpt>
      <trkpt lat="45.59172" lon="6.61533">
        <ele>2491</ele>
        <time>2012-09-09T08:09:31Z</time>
      </trkpt>
      <trkpt lat="45.59178" lon="6.61532">
        <ele>2491</ele>
        <time>2012-09-09T08:09:40Z</time>
      </trkpt>
      <trkpt lat="45.59183" lon="6.61531">
        <ele>2493.1999511719</ele>
        <time>2012-09-09T08:09:47Z</time>
      </trkpt>
      <trkpt lat="45.59187" lon="6.6153">
        <ele>2495.3999023438</ele>
        <time>2012-09-09T08:09:55Z</time>
      </trkpt>
      <trkpt lat="45.59193" lon="6.61528">
        <ele>2497.3999023438</ele>
        <time>2012-09-09T08:10:05Z</time>
      </trkpt>
      <trkpt lat="45.59197" lon="6.61528">
        <ele>2498.6000976562</ele>
        <time>2012-09-09T08:10:10Z</time>
      </trkpt>
      <trkpt lat="45.59199" lon="6.61527">
        <ele>2500.6000976562</ele>
        <time>2012-09-09T08:10:13Z</time>
      </trkpt>
      <trkpt lat="45.59203" lon="6.61524">
        <ele>2500.6000976562</ele>
        <time>2012-09-09T08:10:19Z</time>
      </trkpt>
      <trkpt lat="45.59205" lon="6.61524">
        <ele>2502</ele>
        <time>2012-09-09T08:10:23Z</time>
      </trkpt>
      <trkpt lat="45.59212" lon="6.61523">
        <ele>2504.3999023438</ele>
        <time>2012-09-09T08:10:33Z</time>
      </trkpt>
      <trkpt lat="45.59216" lon="6.61522">
        <ele>2505.6000976562</ele>
        <time>2012-09-09T08:10:39Z</time>
      </trkpt>
      <trkpt lat="45.5922" lon="6.6152">
        <ele>2506.6000976562</ele>
        <time>2012-09-09T08:10:45Z</time>
      </trkpt>
      <trkpt lat="45.59225" lon="6.61517">
        <ele>2507.6000976562</ele>
        <time>2012-09-09T08:10:51Z</time>
      </trkpt>
      <trkpt lat="45.59233" lon="6.61515">
        <ele>2508.8000488281</ele>
        <time>2012-09-09T08:10:58Z</time>
      </trkpt>
      <trkpt lat="45.59243" lon="6.61511">
        <ele>2510.8000488281</ele>
        <time>2012-09-09T08:11:07Z</time>
      </trkpt>
      <trkpt lat="45.59246" lon="6.61511">
        <ele>2511.8000488281</ele>
        <time>2012-09-09T08:11:10Z</time>
      </trkpt>
      <trkpt lat="45.5925" lon="6.61509">
        <ele>2513</ele>
        <time>2012-09-09T08:11:15Z</time>
      </trkpt>
      <trkpt lat="45.59253" lon="6.61508">
        <ele>2514</ele>
        <time>2012-09-09T08:11:19Z</time>
      </trkpt>
      <trkpt lat="45.59255" lon="6.61507">
        <ele>2515.1999511719</ele>
        <time>2012-09-09T08:11:21Z</time>
      </trkpt>
      <trkpt lat="45.59259" lon="6.61506">
        <ele>2516.1999511719</ele>
        <time>2012-09-09T08:11:26Z</time>
      </trkpt>
      <trkpt lat="45.59273" lon="6.61508">
        <ele>2517.1999511719</ele>
        <time>2012-09-09T08:11:39Z</time>
      </trkpt>
      <trkpt lat="45.5928" lon="6.6151">
        <ele>2518.1999511719</ele>
        <time>2012-09-09T08:11:45Z</time>
      </trkpt>
      <trkpt lat="45.59285" lon="6.61511">
        <ele>2519.3999023438</ele>
        <time>2012-09-09T08:11:51Z</time>
      </trkpt>
      <trkpt lat="45.5929" lon="6.61512">
        <ele>2520.3999023438</ele>
        <time>2012-09-09T08:11:56Z</time>
      </trkpt>
      <trkpt lat="45.59293" lon="6.61512">
        <ele>2522.6000976562</ele>
        <time>2012-09-09T08:12:00Z</time>
      </trkpt>
      <trkpt lat="45.59298" lon="6.61513">
        <ele>2523.8000488281</ele>
        <time>2012-09-09T08:12:05Z</time>
      </trkpt>
      <trkpt lat="45.59304" lon="6.61513">
        <ele>2524.8000488281</ele>
        <time>2012-09-09T08:12:10Z</time>
      </trkpt>
      <trkpt lat="45.59312" lon="6.61512">
        <ele>2524.8000488281</ele>
        <time>2012-09-09T08:12:17Z</time>
      </trkpt>
      <trkpt lat="45.59318" lon="6.6151">
        <ele>2526</ele>
        <time>2012-09-09T08:12:22Z</time>
      </trkpt>
      <trkpt lat="45.59326" lon="6.61508">
        <ele>2526</ele>
        <time>2012-09-09T08:12:28Z</time>
      </trkpt>
      <trkpt lat="45.59332" lon="6.61505">
        <ele>2527</ele>
        <time>2012-09-09T08:12:33Z</time>
      </trkpt>
      <trkpt lat="45.59338" lon="6.61501">
        <ele>2528</ele>
        <time>2012-09-09T08:12:38Z</time>
      </trkpt>
      <trkpt lat="45.5934" lon="6.615">
        <ele>2528</ele>
        <time>2012-09-09T08:12:40Z</time>
      </trkpt>
      <trkpt lat="45.59343" lon="6.615">
        <ele>2529</ele>
        <time>2012-09-09T08:12:44Z</time>
      </trkpt>
      <trkpt lat="45.59348" lon="6.61501">
        <ele>2530.1999511719</ele>
        <time>2012-09-09T08:12:49Z</time>
      </trkpt>
      <trkpt lat="45.59351" lon="6.61502">
        <ele>2532.3999023438</ele>
        <time>2012-09-09T08:12:54Z</time>
      </trkpt>
      <trkpt lat="45.59355" lon="6.61503">
        <ele>2533.3999023438</ele>
        <time>2012-09-09T08:13:03Z</time>
      </trkpt>
      <trkpt lat="45.5936" lon="6.61504">
        <ele>2534.3999023438</ele>
        <time>2012-09-09T08:13:08Z</time>
      </trkpt>
      <trkpt lat="45.59365" lon="6.61505">
        <ele>2535.3999023438</ele>
        <time>2012-09-09T08:13:14Z</time>
      </trkpt>
      <trkpt lat="45.59373" lon="6.61508">
        <ele>2536.3999023438</ele>
        <time>2012-09-09T08:13:25Z</time>
      </trkpt>
      <trkpt lat="45.59381" lon="6.6151">
        <ele>2537.6000976562</ele>
        <time>2012-09-09T08:13:32Z</time>
      </trkpt>
      <trkpt lat="45.59385" lon="6.6151">
        <ele>2538.8000488281</ele>
        <time>2012-09-09T08:13:35Z</time>
      </trkpt>
      <trkpt lat="45.59389" lon="6.61512">
        <ele>2539.8000488281</ele>
        <time>2012-09-09T08:13:38Z</time>
      </trkpt>
      <trkpt lat="45.59396" lon="6.61513">
        <ele>2540.8000488281</ele>
        <time>2012-09-09T08:13:43Z</time>
      </trkpt>
      <trkpt lat="45.59402" lon="6.61513">
        <ele>2541.8000488281</ele>
        <time>2012-09-09T08:13:48Z</time>
      </trkpt>
      <trkpt lat="45.59408" lon="6.61514">
        <ele>2544.1999511719</ele>
        <time>2012-09-09T08:13:53Z</time>
      </trkpt>
      <trkpt lat="45.59416" lon="6.61513">
        <ele>2545.1999511719</ele>
        <time>2012-09-09T08:13:59Z</time>
      </trkpt>
      <trkpt lat="45.59419" lon="6.61512">
        <ele>2546.3999023438</ele>
        <time>2012-09-09T08:14:02Z</time>
      </trkpt>
      <trkpt lat="45.59422" lon="6.61511">
        <ele>2547.3999023438</ele>
        <time>2012-09-09T08:14:05Z</time>
      </trkpt>
      <trkpt lat="45.59426" lon="6.61509">
        <ele>2548.6000976562</ele>
        <time>2012-09-09T08:14:09Z</time>
      </trkpt>
      <trkpt lat="45.59431" lon="6.61507">
        <ele>2550.8000488281</ele>
        <time>2012-09-09T08:14:13Z</time>
      </trkpt>
      <trkpt lat="45.59437" lon="6.61508">
        <ele>2551.8000488281</ele>
        <time>2012-09-09T08:14:18Z</time>
      </trkpt>
      <trkpt lat="45.59444" lon="6.61509">
        <ele>2553</ele>
        <time>2012-09-09T08:14:24Z</time>
      </trkpt>
      <trkpt lat="45.59448" lon="6.61509">
        <ele>2554</ele>
        <time>2012-09-09T08:14:28Z</time>
      </trkpt>
      <trkpt lat="45.59452" lon="6.61511">
        <ele>2555.1999511719</ele>
        <time>2012-09-09T08:14:35Z</time>
      </trkpt>
      <trkpt lat="45.59463" lon="6.61512">
        <ele>2555.1999511719</ele>
        <time>2012-09-09T08:14:44Z</time>
      </trkpt>
      <trkpt lat="45.59466" lon="6.61511">
        <ele>2551</ele>
        <time>2012-09-09T08:14:47Z</time>
      </trkpt>
      <trkpt lat="45.59473" lon="6.61507">
        <ele>2548.8000488281</ele>
        <time>2012-09-09T08:14:51Z</time>
      </trkpt>
      <trkpt lat="45.59476" lon="6.61496">
        <ele>2546.3999023438</ele>
        <time>2012-09-09T08:14:56Z</time>
      </trkpt>
      <trkpt lat="45.59474" lon="6.61487">
        <ele>2544.3999023438</ele>
        <time>2012-09-09T08:15:00Z</time>
      </trkpt>
      <trkpt lat="45.59474" lon="6.61482">
        <ele>2543.1999511719</ele>
        <time>2012-09-09T08:15:02Z</time>
      </trkpt>
      <trkpt lat="45.59472" lon="6.61475">
        <ele>2540.8000488281</ele>
        <time>2012-09-09T08:15:05Z</time>
      </trkpt>
      <trkpt lat="45.59472" lon="6.61467">
        <ele>2538.1999511719</ele>
        <time>2012-09-09T08:15:08Z</time>
      </trkpt>
      <trkpt lat="45.59472" lon="6.61459">
        <ele>2536</ele>
        <time>2012-09-09T08:15:11Z</time>
      </trkpt>
      <trkpt lat="45.59472" lon="6.61451">
        <ele>2533.8000488281</ele>
        <time>2012-09-09T08:15:14Z</time>
      </trkpt>
      <trkpt lat="45.5947" lon="6.61445">
        <ele>2532.6000976562</ele>
        <time>2012-09-09T08:15:16Z</time>
      </trkpt>
      <trkpt lat="45.5947" lon="6.61436">
        <ele>2530.3999023438</ele>
        <time>2012-09-09T08:15:19Z</time>
      </trkpt>
      <trkpt lat="45.59469" lon="6.61428">
        <ele>2528</ele>
        <time>2012-09-09T08:15:22Z</time>
      </trkpt>
      <trkpt lat="45.59471" lon="6.61422">
        <ele>2526.8000488281</ele>
        <time>2012-09-09T08:15:25Z</time>
      </trkpt>
      <trkpt lat="45.59471" lon="6.61411">
        <ele>2524.3999023438</ele>
        <time>2012-09-09T08:15:31Z</time>
      </trkpt>
      <trkpt lat="45.59471" lon="6.61404">
        <ele>2522.1999511719</ele>
        <time>2012-09-09T08:15:34Z</time>
      </trkpt>
      <trkpt lat="45.59473" lon="6.61399">
        <ele>2521.1999511719</ele>
        <time>2012-09-09T08:15:36Z</time>
      </trkpt>
      <trkpt lat="45.59474" lon="6.61393">
        <ele>2519</ele>
        <time>2012-09-09T08:15:39Z</time>
      </trkpt>
      <trkpt lat="45.59475" lon="6.61384">
        <ele>2516.3999023438</ele>
        <time>2012-09-09T08:15:44Z</time>
      </trkpt>
      <trkpt lat="45.59476" lon="6.61381">
        <ele>2515.3999023438</ele>
        <time>2012-09-09T08:15:47Z</time>
      </trkpt>
      <trkpt lat="45.59477" lon="6.61375">
        <ele>2513</ele>
        <time>2012-09-09T08:15:51Z</time>
      </trkpt>
      <trkpt lat="45.59477" lon="6.61372">
        <ele>2511.8000488281</ele>
        <time>2012-09-09T08:15:53Z</time>
      </trkpt>
      <trkpt lat="45.59476" lon="6.61367">
        <ele>2509.8000488281</ele>
        <time>2012-09-09T08:15:57Z</time>
      </trkpt>
      <trkpt lat="45.59475" lon="6.61362">
        <ele>2508.6000976562</ele>
        <time>2012-09-09T08:15:59Z</time>
      </trkpt>
      <trkpt lat="45.59473" lon="6.61358">
        <ele>2506.1999511719</ele>
        <time>2012-09-09T08:16:01Z</time>
      </trkpt>
      <trkpt lat="45.59473" lon="6.61351">
        <ele>2504</ele>
        <time>2012-09-09T08:16:05Z</time>
      </trkpt>
      <trkpt lat="45.59473" lon="6.61346">
        <ele>2501.8000488281</ele>
        <time>2012-09-09T08:16:08Z</time>
      </trkpt>
      <trkpt lat="45.59474" lon="6.61342">
        <ele>2500.8000488281</ele>
        <time>2012-09-09T08:16:11Z</time>
      </trkpt>
      <trkpt lat="45.59475" lon="6.61339">
        <ele>2499.6000976562</ele>
        <time>2012-09-09T08:16:13Z</time>
      </trkpt>
      <trkpt lat="45.59475" lon="6.61336">
        <ele>2497.3999023438</ele>
        <time>2012-09-09T08:16:15Z</time>
      </trkpt>
      <trkpt lat="45.59476" lon="6.61332">
        <ele>2496.3999023438</ele>
        <time>2012-09-09T08:16:18Z</time>
      </trkpt>
      <trkpt lat="45.59476" lon="6.61329">
        <ele>2495.1999511719</ele>
        <time>2012-09-09T08:16:20Z</time>
      </trkpt>
      <trkpt lat="45.59476" lon="6.61325">
        <ele>2493</ele>
        <time>2012-09-09T08:16:23Z</time>
      </trkpt>
      <trkpt lat="45.59475" lon="6.6132">
        <ele>2492</ele>
        <time>2012-09-09T08:16:26Z</time>
      </trkpt>
      <trkpt lat="45.59475" lon="6.61316">
        <ele>2490</ele>
        <time>2012-09-09T08:16:29Z</time>
      </trkpt>
      <trkpt lat="45.59475" lon="6.61308">
        <ele>2487.8000488281</ele>
        <time>2012-09-09T08:16:33Z</time>
      </trkpt>
      <trkpt lat="45.59475" lon="6.61296">
        <ele>2485.8000488281</ele>
        <time>2012-09-09T08:16:37Z</time>
      </trkpt>
      <trkpt lat="45.59482" lon="6.6128">
        <ele>2484.6000976562</ele>
        <time>2012-09-09T08:16:43Z</time>
      </trkpt>
      <trkpt lat="45.59487" lon="6.61271">
        <ele>2482.3999023438</ele>
        <time>2012-09-09T08:16:48Z</time>
      </trkpt>
      <trkpt lat="45.59489" lon="6.61266">
        <ele>2481.3999023438</ele>
        <time>2012-09-09T08:16:51Z</time>
      </trkpt>
      <trkpt lat="45.59491" lon="6.61263">
        <ele>2480.1999511719</ele>
        <time>2012-09-09T08:16:53Z</time>
      </trkpt>
      <trkpt lat="45.59492" lon="6.61261">
        <ele>2479.1999511719</ele>
        <time>2012-09-09T08:16:56Z</time>
      </trkpt>
      <trkpt lat="45.59494" lon="6.61256">
        <ele>2478</ele>
        <time>2012-09-09T08:17:00Z</time>
      </trkpt>
      <trkpt lat="45.59495" lon="6.61252">
        <ele>2475.6000976562</ele>
        <time>2012-09-09T08:17:04Z</time>
      </trkpt>
      <trkpt lat="45.59496" lon="6.61247">
        <ele>2474.3999023438</ele>
        <time>2012-09-09T08:17:07Z</time>
      </trkpt>
      <trkpt lat="45.59498" lon="6.61241">
        <ele>2472.1999511719</ele>
        <time>2012-09-09T08:17:10Z</time>
      </trkpt>
      <trkpt lat="45.59502" lon="6.61232">
        <ele>2471.1999511719</ele>
        <time>2012-09-09T08:17:14Z</time>
      </trkpt>
      <trkpt lat="45.59503" lon="6.61229">
        <ele>2469</ele>
        <time>2012-09-09T08:17:17Z</time>
      </trkpt>
      <trkpt lat="45.59506" lon="6.61223">
        <ele>2467.8000488281</ele>
        <time>2012-09-09T08:17:22Z</time>
      </trkpt>
      <trkpt lat="45.59507" lon="6.6122">
        <ele>2465.3999023438</ele>
        <time>2012-09-09T08:17:25Z</time>
      </trkpt>
      <trkpt lat="45.59509" lon="6.61213">
        <ele>2463.1999511719</ele>
        <time>2012-09-09T08:17:30Z</time>
      </trkpt>
      <trkpt lat="45.5951" lon="6.6121">
        <ele>2462.1999511719</ele>
        <time>2012-09-09T08:17:32Z</time>
      </trkpt>
      <trkpt lat="45.59514" lon="6.61205">
        <ele>2460</ele>
        <time>2012-09-09T08:17:37Z</time>
      </trkpt>
      <trkpt lat="45.59516" lon="6.612">
        <ele>2457.8000488281</ele>
        <time>2012-09-09T08:17:42Z</time>
      </trkpt>
      <trkpt lat="45.59517" lon="6.61197">
        <ele>2456.8000488281</ele>
        <time>2012-09-09T08:17:44Z</time>
      </trkpt>
      <trkpt lat="45.59521" lon="6.6119">
        <ele>2454.3999023438</ele>
        <time>2012-09-09T08:17:48Z</time>
      </trkpt>
      <trkpt lat="45.59531" lon="6.61183">
        <ele>2453.3999023438</ele>
        <time>2012-09-09T08:17:53Z</time>
      </trkpt>
      <trkpt lat="45.59549" lon="6.61163">
        <ele>2453.3999023438</ele>
        <time>2012-09-09T08:18:04Z</time>
      </trkpt>
      <trkpt lat="45.59555" lon="6.61156">
        <ele>2451</ele>
        <time>2012-09-09T08:18:08Z</time>
      </trkpt>
      <trkpt lat="45.59559" lon="6.61149">
        <ele>2448.8000488281</ele>
        <time>2012-09-09T08:18:14Z</time>
      </trkpt>
      <trkpt lat="45.5956" lon="6.61145">
        <ele>2446.6000976562</ele>
        <time>2012-09-09T08:18:17Z</time>
      </trkpt>
      <trkpt lat="45.59562" lon="6.61139">
        <ele>2444.3999023438</ele>
        <time>2012-09-09T08:18:22Z</time>
      </trkpt>
      <trkpt lat="45.59564" lon="6.61134">
        <ele>2442.1999511719</ele>
        <time>2012-09-09T08:18:27Z</time>
      </trkpt>
      <trkpt lat="45.59564" lon="6.61131">
        <ele>2441</ele>
        <time>2012-09-09T08:18:29Z</time>
      </trkpt>
      <trkpt lat="45.59566" lon="6.61127">
        <ele>2439.8000488281</ele>
        <time>2012-09-09T08:18:32Z</time>
      </trkpt>
      <trkpt lat="45.59567" lon="6.61125">
        <ele>2438.8000488281</ele>
        <time>2012-09-09T08:18:34Z</time>
      </trkpt>
      <trkpt lat="45.59569" lon="6.61121">
        <ele>2436.6000976562</ele>
        <time>2012-09-09T08:18:37Z</time>
      </trkpt>
      <trkpt lat="45.59574" lon="6.61115">
        <ele>2436.6000976562</ele>
        <time>2012-09-09T08:18:43Z</time>
      </trkpt>
      <trkpt lat="45.59579" lon="6.61109">
        <ele>2435.6000976562</ele>
        <time>2012-09-09T08:18:49Z</time>
      </trkpt>
      <trkpt lat="45.59584" lon="6.61104">
        <ele>2435.6000976562</ele>
        <time>2012-09-09T08:18:52Z</time>
      </trkpt>
      <trkpt lat="45.59589" lon="6.61095">
        <ele>2434.6000976562</ele>
        <time>2012-09-09T08:18:58Z</time>
      </trkpt>
      <trkpt lat="45.59591" lon="6.61088">
        <ele>2432.1999511719</ele>
        <time>2012-09-09T08:19:03Z</time>
      </trkpt>
      <trkpt lat="45.59592" lon="6.61085">
        <ele>2431</ele>
        <time>2012-09-09T08:19:05Z</time>
      </trkpt>
      <trkpt lat="45.59595" lon="6.61082">
        <ele>2430</ele>
        <time>2012-09-09T08:19:09Z</time>
      </trkpt>
      <trkpt lat="45.59597" lon="6.6108">
        <ele>2427.3999023438</ele>
        <time>2012-09-09T08:19:11Z</time>
      </trkpt>
      <trkpt lat="45.59598" lon="6.61079">
        <ele>2427.3999023438</ele>
        <time>2012-09-09T08:19:14Z</time>
      </trkpt>
      <trkpt lat="45.59597" lon="6.61077">
        <ele>2426</ele>
        <time>2012-09-09T08:19:16Z</time>
      </trkpt>
      <trkpt lat="45.596" lon="6.61072">
        <ele>2423.8000488281</ele>
        <time>2012-09-09T08:19:20Z</time>
      </trkpt>
      <trkpt lat="45.59602" lon="6.6107">
        <ele>2422.8000488281</ele>
        <time>2012-09-09T08:19:23Z</time>
      </trkpt>
      <trkpt lat="45.59608" lon="6.61069">
        <ele>2420.6000976562</ele>
        <time>2012-09-09T08:19:28Z</time>
      </trkpt>
      <trkpt lat="45.59611" lon="6.61071">
        <ele>2419.3999023438</ele>
        <time>2012-09-09T08:19:33Z</time>
      </trkpt>
      <trkpt lat="45.59611" lon="6.61066">
        <ele>2417.3999023438</ele>
        <time>2012-09-09T08:19:36Z</time>
      </trkpt>
      <trkpt lat="45.59615" lon="6.61051">
        <ele>2415.3999023438</ele>
        <time>2012-09-09T08:19:42Z</time>
      </trkpt>
      <trkpt lat="45.59623" lon="6.61042">
        <ele>2414.1999511719</ele>
        <time>2012-09-09T08:19:46Z</time>
      </trkpt>
      <trkpt lat="45.59632" lon="6.61029">
        <ele>2412</ele>
        <time>2012-09-09T08:19:52Z</time>
      </trkpt>
      <trkpt lat="45.59638" lon="6.61022">
        <ele>2411</ele>
        <time>2012-09-09T08:19:57Z</time>
      </trkpt>
      <trkpt lat="45.59639" lon="6.61018">
        <ele>2410</ele>
        <time>2012-09-09T08:20:00Z</time>
      </trkpt>
      <trkpt lat="45.59643" lon="6.61012">
        <ele>2409</ele>
        <time>2012-09-09T08:20:03Z</time>
      </trkpt>
      <trkpt lat="45.59645" lon="6.61009">
        <ele>2408</ele>
        <time>2012-09-09T08:20:05Z</time>
      </trkpt>
      <trkpt lat="45.59651" lon="6.61003">
        <ele>2406.6000976562</ele>
        <time>2012-09-09T08:20:09Z</time>
      </trkpt>
      <trkpt lat="45.59664" lon="6.60986">
        <ele>2406.6000976562</ele>
        <time>2012-09-09T08:20:19Z</time>
      </trkpt>
      <trkpt lat="45.59665" lon="6.6098">
        <ele>2406.6000976562</ele>
        <time>2012-09-09T08:20:22Z</time>
      </trkpt>
      <trkpt lat="45.59671" lon="6.60975">
        <ele>2406.6000976562</ele>
        <time>2012-09-09T08:20:28Z</time>
      </trkpt>
      <trkpt lat="45.59677" lon="6.60967">
        <ele>2408.8000488281</ele>
        <time>2012-09-09T08:20:34Z</time>
      </trkpt>
      <trkpt lat="45.59679" lon="6.60963">
        <ele>2408.8000488281</ele>
        <time>2012-09-09T08:20:39Z</time>
      </trkpt>
      <trkpt lat="45.5968" lon="6.60956">
        <ele>2408.8000488281</ele>
        <time>2012-09-09T08:20:51Z</time>
      </trkpt>
      <trkpt lat="45.59692" lon="6.60936">
        <ele>2408.8000488281</ele>
        <time>2012-09-09T08:21:04Z</time>
      </trkpt>
      <trkpt lat="45.59698" lon="6.60927">
        <ele>2409.8000488281</ele>
        <time>2012-09-09T08:21:11Z</time>
      </trkpt>
      <trkpt lat="45.59702" lon="6.60923">
        <ele>2411</ele>
        <time>2012-09-09T08:21:15Z</time>
      </trkpt>
      <trkpt lat="45.59705" lon="6.60915">
        <ele>2412.1999511719</ele>
        <time>2012-09-09T08:21:20Z</time>
      </trkpt>
      <trkpt lat="45.59709" lon="6.60909">
        <ele>2413.1999511719</ele>
        <time>2012-09-09T08:21:24Z</time>
      </trkpt>
      <trkpt lat="45.59719" lon="6.60882">
        <ele>2413.1999511719</ele>
        <time>2012-09-09T08:21:34Z</time>
      </trkpt>
      <trkpt lat="45.5972" lon="6.60874">
        <ele>2413.1999511719</ele>
        <time>2012-09-09T08:21:39Z</time>
      </trkpt>
      <trkpt lat="45.59722" lon="6.6085">
        <ele>2413.1999511719</ele>
        <time>2012-09-09T08:21:48Z</time>
      </trkpt>
      <trkpt lat="45.59725" lon="6.60842">
        <ele>2413.1999511719</ele>
        <time>2012-09-09T08:21:53Z</time>
      </trkpt>
      <trkpt lat="45.59729" lon="6.60835">
        <ele>2411.1999511719</ele>
        <time>2012-09-09T08:21:57Z</time>
      </trkpt>
      <trkpt lat="45.59732" lon="6.60832">
        <ele>2411.1999511719</ele>
        <time>2012-09-09T08:22:03Z</time>
      </trkpt>
      <trkpt lat="45.59733" lon="6.60833">
        <ele>2411.1999511719</ele>
        <time>2012-09-09T08:22:08Z</time>
      </trkpt>
      <trkpt lat="45.59733" lon="6.60832">
        <ele>2411.1999511719</ele>
        <time>2012-09-09T08:22:18Z</time>
      </trkpt>
      <trkpt lat="45.59732" lon="6.60817">
        <ele>2411.1999511719</ele>
        <time>2012-09-09T08:22:26Z</time>
      </trkpt>
      <trkpt lat="45.59733" lon="6.60808">
        <ele>2411.1999511719</ele>
        <time>2012-09-09T08:22:33Z</time>
      </trkpt>
      <trkpt lat="45.59735" lon="6.60801">
        <ele>2411.1999511719</ele>
        <time>2012-09-09T08:22:38Z</time>
      </trkpt>
      <trkpt lat="45.59739" lon="6.60787">
        <ele>2411.1999511719</ele>
        <time>2012-09-09T08:22:45Z</time>
      </trkpt>
      <trkpt lat="45.59738" lon="6.60779">
        <ele>2411.1999511719</ele>
        <time>2012-09-09T08:22:50Z</time>
      </trkpt>
      <trkpt lat="45.5974" lon="6.60767">
        <ele>2411.1999511719</ele>
        <time>2012-09-09T08:22:58Z</time>
      </trkpt>
      <trkpt lat="45.5974" lon="6.60759">
        <ele>2411.1999511719</ele>
        <time>2012-09-09T08:23:03Z</time>
      </trkpt>
      <trkpt lat="45.59739" lon="6.60752">
        <ele>2411.1999511719</ele>
        <time>2012-09-09T08:23:08Z</time>
      </trkpt>
      <trkpt lat="45.59737" lon="6.60745">
        <ele>2411.1999511719</ele>
        <time>2012-09-09T08:23:13Z</time>
      </trkpt>
      <trkpt lat="45.59737" lon="6.60726">
        <ele>2411.1999511719</ele>
        <time>2012-09-09T08:23:23Z</time>
      </trkpt>
      <trkpt lat="45.59736" lon="6.60713">
        <ele>2411.1999511719</ele>
        <time>2012-09-09T08:23:30Z</time>
      </trkpt>
      <trkpt lat="45.59741" lon="6.60692">
        <ele>2411.1999511719</ele>
        <time>2012-09-09T08:23:41Z</time>
      </trkpt>
      <trkpt lat="45.59742" lon="6.60684">
        <ele>2409</ele>
        <time>2012-09-09T08:23:46Z</time>
      </trkpt>
      <trkpt lat="45.59747" lon="6.60677">
        <ele>2409</ele>
        <time>2012-09-09T08:23:52Z</time>
      </trkpt>
      <trkpt lat="45.59748" lon="6.60673">
        <ele>2407.8000488281</ele>
        <time>2012-09-09T08:23:55Z</time>
      </trkpt>
      <trkpt lat="45.5976" lon="6.60659">
        <ele>2407.8000488281</ele>
        <time>2012-09-09T08:24:09Z</time>
      </trkpt>
      <trkpt lat="45.59764" lon="6.60657">
        <ele>2406.6000976562</ele>
        <time>2012-09-09T08:24:13Z</time>
      </trkpt>
      <trkpt lat="45.59767" lon="6.60652">
        <ele>2406.6000976562</ele>
        <time>2012-09-09T08:24:18Z</time>
      </trkpt>
      <trkpt lat="45.5978" lon="6.60637">
        <ele>2405.6000976562</ele>
        <time>2012-09-09T08:24:29Z</time>
      </trkpt>
      <trkpt lat="45.598" lon="6.60627">
        <ele>2405.6000976562</ele>
        <time>2012-09-09T08:24:39Z</time>
      </trkpt>
      <trkpt lat="45.59812" lon="6.60628">
        <ele>2404.6000976562</ele>
        <time>2012-09-09T08:24:46Z</time>
      </trkpt>
      <trkpt lat="45.59817" lon="6.60628">
        <ele>2402.3999023438</ele>
        <time>2012-09-09T08:24:49Z</time>
      </trkpt>
      <trkpt lat="45.59821" lon="6.60628">
        <ele>2401</ele>
        <time>2012-09-09T08:24:52Z</time>
      </trkpt>
      <trkpt lat="45.59824" lon="6.60628">
        <ele>2398.8000488281</ele>
        <time>2012-09-09T08:24:54Z</time>
      </trkpt>
      <trkpt lat="45.5983" lon="6.60627">
        <ele>2397.8000488281</ele>
        <time>2012-09-09T08:24:57Z</time>
      </trkpt>
      <trkpt lat="45.59835" lon="6.60625">
        <ele>2395.6000976562</ele>
        <time>2012-09-09T08:25:00Z</time>
      </trkpt>
      <trkpt lat="45.5984" lon="6.60624">
        <ele>2394.3999023438</ele>
        <time>2012-09-09T08:25:04Z</time>
      </trkpt>
      <trkpt lat="45.59845" lon="6.6062">
        <ele>2391.8000488281</ele>
        <time>2012-09-09T08:25:07Z</time>
      </trkpt>
      <trkpt lat="45.59849" lon="6.60617">
        <ele>2390.8000488281</ele>
        <time>2012-09-09T08:25:10Z</time>
      </trkpt>
      <trkpt lat="45.59855" lon="6.60612">
        <ele>2388.6000976562</ele>
        <time>2012-09-09T08:25:13Z</time>
      </trkpt>
      <trkpt lat="45.59862" lon="6.60608">
        <ele>2386.3999023438</ele>
        <time>2012-09-09T08:25:17Z</time>
      </trkpt>
      <trkpt lat="45.59869" lon="6.60604">
        <ele>2384</ele>
        <time>2012-09-09T08:25:21Z</time>
      </trkpt>
      <trkpt lat="45.59877" lon="6.60602">
        <ele>2381.8000488281</ele>
        <time>2012-09-09T08:25:25Z</time>
      </trkpt>
      <trkpt lat="45.59886" lon="6.60595">
        <ele>2379.6000976562</ele>
        <time>2012-09-09T08:25:31Z</time>
      </trkpt>
      <trkpt lat="45.59889" lon="6.60593">
        <ele>2378.6000976562</ele>
        <time>2012-09-09T08:25:33Z</time>
      </trkpt>
      <trkpt lat="45.59892" lon="6.60591">
        <ele>2377.6000976562</ele>
        <time>2012-09-09T08:25:36Z</time>
      </trkpt>
      <trkpt lat="45.59896" lon="6.60588">
        <ele>2375.1999511719</ele>
        <time>2012-09-09T08:25:40Z</time>
      </trkpt>
      <trkpt lat="45.59897" lon="6.60588">
        <ele>2373.8000488281</ele>
        <time>2012-09-09T08:25:42Z</time>
      </trkpt>
      <trkpt lat="45.599" lon="6.60584">
        <ele>2372.8000488281</ele>
        <time>2012-09-09T08:25:45Z</time>
      </trkpt>
      <trkpt lat="45.59906" lon="6.60575">
        <ele>2371.6000976562</ele>
        <time>2012-09-09T08:25:51Z</time>
      </trkpt>
      <trkpt lat="45.59913" lon="6.60568">
        <ele>2371.6000976562</ele>
        <time>2012-09-09T08:25:55Z</time>
      </trkpt>
      <trkpt lat="45.59918" lon="6.60561">
        <ele>2371.6000976562</ele>
        <time>2012-09-09T08:25:59Z</time>
      </trkpt>
      <trkpt lat="45.59926" lon="6.60552">
        <ele>2371.6000976562</ele>
        <time>2012-09-09T08:26:06Z</time>
      </trkpt>
      <trkpt lat="45.59928" lon="6.6055">
        <ele>2371.6000976562</ele>
        <time>2012-09-09T08:26:08Z</time>
      </trkpt>
      <trkpt lat="45.59936" lon="6.60543">
        <ele>2371.6000976562</ele>
        <time>2012-09-09T08:26:13Z</time>
      </trkpt>
      <trkpt lat="45.59949" lon="6.60524">
        <ele>2371.6000976562</ele>
        <time>2012-09-09T08:26:24Z</time>
      </trkpt>
      <trkpt lat="45.59967" lon="6.60515">
        <ele>2371.6000976562</ele>
        <time>2012-09-09T08:26:35Z</time>
      </trkpt>
      <trkpt lat="45.59989" lon="6.605">
        <ele>2371.6000976562</ele>
        <time>2012-09-09T08:26:46Z</time>
      </trkpt>
      <trkpt lat="45.60001" lon="6.60496">
        <ele>2371.6000976562</ele>
        <time>2012-09-09T08:26:54Z</time>
      </trkpt>
      <trkpt lat="45.60009" lon="6.60499">
        <ele>2371.6000976562</ele>
        <time>2012-09-09T08:26:58Z</time>
      </trkpt>
      <trkpt lat="45.60014" lon="6.60501">
        <ele>2371.6000976562</ele>
        <time>2012-09-09T08:27:03Z</time>
      </trkpt>
      <trkpt lat="45.60022" lon="6.60498">
        <ele>2371.6000976562</ele>
        <time>2012-09-09T08:27:10Z</time>
      </trkpt>
      <trkpt lat="45.60027" lon="6.60499">
        <ele>2371.6000976562</ele>
        <time>2012-09-09T08:27:18Z</time>
      </trkpt>
      <trkpt lat="45.60031" lon="6.60498">
        <ele>2374.8000488281</ele>
        <time>2012-09-09T08:27:23Z</time>
      </trkpt>
      <trkpt lat="45.60037" lon="6.60495">
        <ele>2377</ele>
        <time>2012-09-09T08:27:30Z</time>
      </trkpt>
      <trkpt lat="45.60041" lon="6.60492">
        <ele>2378.1999511719</ele>
        <time>2012-09-09T08:27:34Z</time>
      </trkpt>
      <trkpt lat="45.60044" lon="6.60491">
        <ele>2379.1999511719</ele>
        <time>2012-09-09T08:27:38Z</time>
      </trkpt>
      <trkpt lat="45.60046" lon="6.60488">
        <ele>2380.3999023438</ele>
        <time>2012-09-09T08:27:42Z</time>
      </trkpt>
      <trkpt lat="45.6005" lon="6.60484">
        <ele>2380.3999023438</ele>
        <time>2012-09-09T08:27:46Z</time>
      </trkpt>
      <trkpt lat="45.60052" lon="6.60481">
        <ele>2381.6000976562</ele>
        <time>2012-09-09T08:27:48Z</time>
      </trkpt>
      <trkpt lat="45.60056" lon="6.60475">
        <ele>2382.8000488281</ele>
        <time>2012-09-09T08:27:54Z</time>
      </trkpt>
      <trkpt lat="45.60059" lon="6.60467">
        <ele>2384</ele>
        <time>2012-09-09T08:28:00Z</time>
      </trkpt>
      <trkpt lat="45.60063" lon="6.6046">
        <ele>2385</ele>
        <time>2012-09-09T08:28:06Z</time>
      </trkpt>
      <trkpt lat="45.60067" lon="6.60458">
        <ele>2386</ele>
        <time>2012-09-09T08:28:10Z</time>
      </trkpt>
      <trkpt lat="45.60073" lon="6.6046">
        <ele>2387.1999511719</ele>
        <time>2012-09-09T08:28:16Z</time>
      </trkpt>
      <trkpt lat="45.60083" lon="6.60457">
        <ele>2388.1999511719</ele>
        <time>2012-09-09T08:28:26Z</time>
      </trkpt>
      <trkpt lat="45.60098" lon="6.60451">
        <ele>2388.1999511719</ele>
        <time>2012-09-09T08:28:38Z</time>
      </trkpt>
      <trkpt lat="45.601" lon="6.60453">
        <ele>2388.1999511719</ele>
        <time>2012-09-09T08:28:40Z</time>
      </trkpt>
      <trkpt lat="45.60101" lon="6.6046">
        <ele>2389.1999511719</ele>
        <time>2012-09-09T08:28:44Z</time>
      </trkpt>
      <trkpt lat="45.60106" lon="6.60472">
        <ele>2390.1999511719</ele>
        <time>2012-09-09T08:28:52Z</time>
      </trkpt>
      <trkpt lat="45.60112" lon="6.60479">
        <ele>2390.1999511719</ele>
        <time>2012-09-09T08:28:59Z</time>
      </trkpt>
      <trkpt lat="45.60119" lon="6.60484">
        <ele>2390.1999511719</ele>
        <time>2012-09-09T08:29:05Z</time>
      </trkpt>
      <trkpt lat="45.60123" lon="6.60486">
        <ele>2390.1999511719</ele>
        <time>2012-09-09T08:29:08Z</time>
      </trkpt>
      <trkpt lat="45.60127" lon="6.60494">
        <ele>2390.1999511719</ele>
        <time>2012-09-09T08:29:13Z</time>
      </trkpt>
      <trkpt lat="45.60132" lon="6.60501">
        <ele>2391.3999023438</ele>
        <time>2012-09-09T08:29:18Z</time>
      </trkpt>
      <trkpt lat="45.60135" lon="6.60502">
        <ele>2392.3999023438</ele>
        <time>2012-09-09T08:29:20Z</time>
      </trkpt>
      <trkpt lat="45.60142" lon="6.60509">
        <ele>2392.3999023438</ele>
        <time>2012-09-09T08:29:27Z</time>
      </trkpt>
      <trkpt lat="45.60154" lon="6.60515">
        <ele>2392.3999023438</ele>
        <time>2012-09-09T08:29:37Z</time>
      </trkpt>
      <trkpt lat="45.60161" lon="6.60532">
        <ele>2393.3999023438</ele>
        <time>2012-09-09T08:29:48Z</time>
      </trkpt>
      <trkpt lat="45.60162" lon="6.6054">
        <ele>2394.3999023438</ele>
        <time>2012-09-09T08:29:53Z</time>
      </trkpt>
      <trkpt lat="45.60168" lon="6.60549">
        <ele>2394.3999023438</ele>
        <time>2012-09-09T08:29:59Z</time>
      </trkpt>
      <trkpt lat="45.60175" lon="6.60558">
        <ele>2395.6000976562</ele>
        <time>2012-09-09T08:30:06Z</time>
      </trkpt>
      <trkpt lat="45.60182" lon="6.60572">
        <ele>2396.8000488281</ele>
        <time>2012-09-09T08:30:14Z</time>
      </trkpt>
      <trkpt lat="45.60182" lon="6.60579">
        <ele>2398</ele>
        <time>2012-09-09T08:30:18Z</time>
      </trkpt>
      <trkpt lat="45.60185" lon="6.60592">
        <ele>2399.1999511719</ele>
        <time>2012-09-09T08:30:27Z</time>
      </trkpt>
      <trkpt lat="45.60191" lon="6.60594">
        <ele>2399.1999511719</ele>
        <time>2012-09-09T08:30:33Z</time>
      </trkpt>
      <trkpt lat="45.60195" lon="6.60593">
        <ele>2400.1999511719</ele>
        <time>2012-09-09T08:30:37Z</time>
      </trkpt>
      <trkpt lat="45.60203" lon="6.60585">
        <ele>2400.1999511719</ele>
        <time>2012-09-09T08:30:43Z</time>
      </trkpt>
      <trkpt lat="45.60224" lon="6.6057">
        <ele>2400.1999511719</ele>
        <time>2012-09-09T08:30:53Z</time>
      </trkpt>
      <trkpt lat="45.6023" lon="6.60563">
        <ele>2400.1999511719</ele>
        <time>2012-09-09T08:30:58Z</time>
      </trkpt>
      <trkpt lat="45.60233" lon="6.60552">
        <ele>2397.1999511719</ele>
        <time>2012-09-09T08:31:04Z</time>
      </trkpt>
      <trkpt lat="45.60235" lon="6.60547">
        <ele>2396</ele>
        <time>2012-09-09T08:31:06Z</time>
      </trkpt>
      <trkpt lat="45.60236" lon="6.60541">
        <ele>2396</ele>
        <time>2012-09-09T08:31:09Z</time>
      </trkpt>
      <trkpt lat="45.60237" lon="6.60537">
        <ele>2395</ele>
        <time>2012-09-09T08:31:11Z</time>
      </trkpt>
      <trkpt lat="45.60239" lon="6.6053">
        <ele>2394</ele>
        <time>2012-09-09T08:31:14Z</time>
      </trkpt>
      <trkpt lat="45.60242" lon="6.60523">
        <ele>2393</ele>
        <time>2012-09-09T08:31:17Z</time>
      </trkpt>
      <trkpt lat="45.60253" lon="6.60524">
        <ele>2392</ele>
        <time>2012-09-09T08:31:22Z</time>
      </trkpt>
      <trkpt lat="45.60266" lon="6.60526">
        <ele>2390.8000488281</ele>
        <time>2012-09-09T08:31:28Z</time>
      </trkpt>
      <trkpt lat="45.60281" lon="6.60529">
        <ele>2390.8000488281</ele>
        <time>2012-09-09T08:31:34Z</time>
      </trkpt>
      <trkpt lat="45.60294" lon="6.60526">
        <ele>2388.1999511719</ele>
        <time>2012-09-09T08:31:40Z</time>
      </trkpt>
      <trkpt lat="45.60299" lon="6.60525">
        <ele>2388.1999511719</ele>
        <time>2012-09-09T08:31:42Z</time>
      </trkpt>
      <trkpt lat="45.60306" lon="6.60527">
        <ele>2387</ele>
        <time>2012-09-09T08:31:45Z</time>
      </trkpt>
      <trkpt lat="45.60318" lon="6.60535">
        <ele>2385.8000488281</ele>
        <time>2012-09-09T08:31:51Z</time>
      </trkpt>
      <trkpt lat="45.60323" lon="6.60536">
        <ele>2383.6000976562</ele>
        <time>2012-09-09T08:31:53Z</time>
      </trkpt>
      <trkpt lat="45.60332" lon="6.60538">
        <ele>2382.6000976562</ele>
        <time>2012-09-09T08:31:57Z</time>
      </trkpt>
      <trkpt lat="45.60346" lon="6.60543">
        <ele>2382.6000976562</ele>
        <time>2012-09-09T08:32:03Z</time>
      </trkpt>
      <trkpt lat="45.60353" lon="6.60552">
        <ele>2382.6000976562</ele>
        <time>2012-09-09T08:32:08Z</time>
      </trkpt>
      <trkpt lat="45.6037" lon="6.60562">
        <ele>2380.3999023438</ele>
        <time>2012-09-09T08:32:16Z</time>
      </trkpt>
      <trkpt lat="45.60383" lon="6.60573">
        <ele>2378.1999511719</ele>
        <time>2012-09-09T08:32:22Z</time>
      </trkpt>
      <trkpt lat="45.6039" lon="6.60581">
        <ele>2376</ele>
        <time>2012-09-09T08:32:25Z</time>
      </trkpt>
      <trkpt lat="45.60397" lon="6.60589">
        <ele>2373.6000976562</ele>
        <time>2012-09-09T08:32:28Z</time>
      </trkpt>
      <trkpt lat="45.60401" lon="6.60594">
        <ele>2372.6000976562</ele>
        <time>2012-09-09T08:32:30Z</time>
      </trkpt>
      <trkpt lat="45.60408" lon="6.60601">
        <ele>2371.3999023438</ele>
        <time>2012-09-09T08:32:33Z</time>
      </trkpt>
      <trkpt lat="45.60418" lon="6.60613">
        <ele>2369</ele>
        <time>2012-09-09T08:32:38Z</time>
      </trkpt>
      <trkpt lat="45.60434" lon="6.60634">
        <ele>2369</ele>
        <time>2012-09-09T08:32:47Z</time>
      </trkpt>
      <trkpt lat="45.60442" lon="6.60639">
        <ele>2365.6000976562</ele>
        <time>2012-09-09T08:32:51Z</time>
      </trkpt>
      <trkpt lat="45.60448" lon="6.60645">
        <ele>2363.3999023438</ele>
        <time>2012-09-09T08:32:55Z</time>
      </trkpt>
      <trkpt lat="45.60452" lon="6.60649">
        <ele>2362.3999023438</ele>
        <time>2012-09-09T08:32:58Z</time>
      </trkpt>
      <trkpt lat="45.60455" lon="6.6065">
        <ele>2360.1999511719</ele>
        <time>2012-09-09T08:33:01Z</time>
      </trkpt>
      <trkpt lat="45.6046" lon="6.60653">
        <ele>2358</ele>
        <time>2012-09-09T08:33:04Z</time>
      </trkpt>
      <trkpt lat="45.60463" lon="6.60656">
        <ele>2357</ele>
        <time>2012-09-09T08:33:07Z</time>
      </trkpt>
      <trkpt lat="45.60466" lon="6.60661">
        <ele>2354.8000488281</ele>
        <time>2012-09-09T08:33:11Z</time>
      </trkpt>
      <trkpt lat="45.60468" lon="6.60664">
        <ele>2353.8000488281</ele>
        <time>2012-09-09T08:33:14Z</time>
      </trkpt>
      <trkpt lat="45.60471" lon="6.60667">
        <ele>2351.6000976562</ele>
        <time>2012-09-09T08:33:18Z</time>
      </trkpt>
      <trkpt lat="45.60472" lon="6.6067">
        <ele>2350.3999023438</ele>
        <time>2012-09-09T08:33:20Z</time>
      </trkpt>
      <trkpt lat="45.60473" lon="6.60671">
        <ele>2349.3999023438</ele>
        <time>2012-09-09T08:33:22Z</time>
      </trkpt>
      <trkpt lat="45.60476" lon="6.60673">
        <ele>2349.3999023438</ele>
        <time>2012-09-09T08:33:25Z</time>
      </trkpt>
      <trkpt lat="45.60479" lon="6.60677">
        <ele>2346.1999511719</ele>
        <time>2012-09-09T08:33:28Z</time>
      </trkpt>
      <trkpt lat="45.60482" lon="6.6068">
        <ele>2345.1999511719</ele>
        <time>2012-09-09T08:33:32Z</time>
      </trkpt>
      <trkpt lat="45.60483" lon="6.60684">
        <ele>2344</ele>
        <time>2012-09-09T08:33:35Z</time>
      </trkpt>
      <trkpt lat="45.60485" lon="6.60687">
        <ele>2341.8000488281</ele>
        <time>2012-09-09T08:33:39Z</time>
      </trkpt>
      <trkpt lat="45.60488" lon="6.60686">
        <ele>2340.6000976562</ele>
        <time>2012-09-09T08:33:42Z</time>
      </trkpt>
      <trkpt lat="45.60491" lon="6.60688">
        <ele>2339.6000976562</ele>
        <time>2012-09-09T08:33:45Z</time>
      </trkpt>
      <trkpt lat="45.60494" lon="6.60692">
        <ele>2338.3999023438</ele>
        <time>2012-09-09T08:33:48Z</time>
      </trkpt>
      <trkpt lat="45.60496" lon="6.60693">
        <ele>2337.1999511719</ele>
        <time>2012-09-09T08:33:51Z</time>
      </trkpt>
      <trkpt lat="45.60498" lon="6.60695">
        <ele>2336.1999511719</ele>
        <time>2012-09-09T08:33:53Z</time>
      </trkpt>
      <trkpt lat="45.60501" lon="6.60696">
        <ele>2335.1999511719</ele>
        <time>2012-09-09T08:33:57Z</time>
      </trkpt>
      <trkpt lat="45.60506" lon="6.60699">
        <ele>2332.8000488281</ele>
        <time>2012-09-09T08:34:01Z</time>
      </trkpt>
      <trkpt lat="45.60511" lon="6.60702">
        <ele>2331.6000976562</ele>
        <time>2012-09-09T08:34:03Z</time>
      </trkpt>
      <trkpt lat="45.60516" lon="6.60707">
        <ele>2329.6000976562</ele>
        <time>2012-09-09T08:34:06Z</time>
      </trkpt>
      <trkpt lat="45.60518" lon="6.60709">
        <ele>2328.3999023438</ele>
        <time>2012-09-09T08:34:08Z</time>
      </trkpt>
      <trkpt lat="45.60524" lon="6.60713">
        <ele>2327.3999023438</ele>
        <time>2012-09-09T08:34:11Z</time>
      </trkpt>
      <trkpt lat="45.6053" lon="6.60721">
        <ele>2325.1999511719</ele>
        <time>2012-09-09T08:34:14Z</time>
      </trkpt>
      <trkpt lat="45.60534" lon="6.60728">
        <ele>2324.1999511719</ele>
        <time>2012-09-09T08:34:17Z</time>
      </trkpt>
      <trkpt lat="45.60539" lon="6.60734">
        <ele>2323.1999511719</ele>
        <time>2012-09-09T08:34:20Z</time>
      </trkpt>
      <trkpt lat="45.60547" lon="6.60743">
        <ele>2320.1999511719</ele>
        <time>2012-09-09T08:34:24Z</time>
      </trkpt>
      <trkpt lat="45.60553" lon="6.6075">
        <ele>2319.1999511719</ele>
        <time>2012-09-09T08:34:27Z</time>
      </trkpt>
      <trkpt lat="45.60553" lon="6.60761">
        <ele>2318</ele>
        <time>2012-09-09T08:34:30Z</time>
      </trkpt>
      <trkpt lat="45.60558" lon="6.60778">
        <ele>2316.3999023438</ele>
        <time>2012-09-09T08:34:35Z</time>
      </trkpt>
      <trkpt lat="45.6056" lon="6.60792">
        <ele>2316.3999023438</ele>
        <time>2012-09-09T08:34:39Z</time>
      </trkpt>
      <trkpt lat="45.60558" lon="6.60808">
        <ele>2316.3999023438</ele>
        <time>2012-09-09T08:34:44Z</time>
      </trkpt>
      <trkpt lat="45.60562" lon="6.60843">
        <ele>2316.3999023438</ele>
        <time>2012-09-09T08:34:55Z</time>
      </trkpt>
      <trkpt lat="45.60566" lon="6.60861">
        <ele>2315.1999511719</ele>
        <time>2012-09-09T08:35:01Z</time>
      </trkpt>
      <trkpt lat="45.60571" lon="6.60872">
        <ele>2314</ele>
        <time>2012-09-09T08:35:06Z</time>
      </trkpt>
      <trkpt lat="45.60578" lon="6.60884">
        <ele>2312.6000976562</ele>
        <time>2012-09-09T08:35:11Z</time>
      </trkpt>
      <trkpt lat="45.60583" lon="6.60898">
        <ele>2311.6000976562</ele>
        <time>2012-09-09T08:35:16Z</time>
      </trkpt>
      <trkpt lat="45.6059" lon="6.60911">
        <ele>2310.3999023438</ele>
        <time>2012-09-09T08:35:21Z</time>
      </trkpt>
      <trkpt lat="45.60597" lon="6.60923">
        <ele>2308.1999511719</ele>
        <time>2012-09-09T08:35:26Z</time>
      </trkpt>
      <trkpt lat="45.60603" lon="6.60932">
        <ele>2307.1999511719</ele>
        <time>2012-09-09T08:35:30Z</time>
      </trkpt>
      <trkpt lat="45.60609" lon="6.6094">
        <ele>2306</ele>
        <time>2012-09-09T08:35:34Z</time>
      </trkpt>
      <trkpt lat="45.60617" lon="6.60947">
        <ele>2305</ele>
        <time>2012-09-09T08:35:38Z</time>
      </trkpt>
      <trkpt lat="45.60629" lon="6.60958">
        <ele>2303.6000976562</ele>
        <time>2012-09-09T08:35:44Z</time>
      </trkpt>
      <trkpt lat="45.60638" lon="6.6097">
        <ele>2302.6000976562</ele>
        <time>2012-09-09T08:35:49Z</time>
      </trkpt>
      <trkpt lat="45.60639" lon="6.60976">
        <ele>2300</ele>
        <time>2012-09-09T08:35:51Z</time>
      </trkpt>
      <trkpt lat="45.60642" lon="6.60986">
        <ele>2299</ele>
        <time>2012-09-09T08:35:54Z</time>
      </trkpt>
      <trkpt lat="45.60646" lon="6.60999">
        <ele>2296.8000488281</ele>
        <time>2012-09-09T08:35:58Z</time>
      </trkpt>
      <trkpt lat="45.60654" lon="6.61016">
        <ele>2295.6000976562</ele>
        <time>2012-09-09T08:36:04Z</time>
      </trkpt>
      <trkpt lat="45.60658" lon="6.61026">
        <ele>2294.6000976562</ele>
        <time>2012-09-09T08:36:08Z</time>
      </trkpt>
      <trkpt lat="45.60663" lon="6.61038">
        <ele>2292.3999023438</ele>
        <time>2012-09-09T08:36:13Z</time>
      </trkpt>
      <trkpt lat="45.60667" lon="6.61049">
        <ele>2291.1999511719</ele>
        <time>2012-09-09T08:36:17Z</time>
      </trkpt>
      <trkpt lat="45.60671" lon="6.61064">
        <ele>2288.8000488281</ele>
        <time>2012-09-09T08:36:22Z</time>
      </trkpt>
      <trkpt lat="45.60685" lon="6.61079">
        <ele>2286.8000488281</ele>
        <time>2012-09-09T08:36:30Z</time>
      </trkpt>
      <trkpt lat="45.60691" lon="6.61086">
        <ele>2285.8000488281</ele>
        <time>2012-09-09T08:36:34Z</time>
      </trkpt>
      <trkpt lat="45.60699" lon="6.61091">
        <ele>2284.6000976562</ele>
        <time>2012-09-09T08:36:38Z</time>
      </trkpt>
      <trkpt lat="45.60702" lon="6.61094">
        <ele>2282.6000976562</ele>
        <time>2012-09-09T08:36:41Z</time>
      </trkpt>
      <trkpt lat="45.60714" lon="6.61108">
        <ele>2280.3999023438</ele>
        <time>2012-09-09T08:36:48Z</time>
      </trkpt>
      <trkpt lat="45.60718" lon="6.61111">
        <ele>2279.3999023438</ele>
        <time>2012-09-09T08:36:50Z</time>
      </trkpt>
      <trkpt lat="45.60726" lon="6.6112">
        <ele>2277.1999511719</ele>
        <time>2012-09-09T08:36:55Z</time>
      </trkpt>
      <trkpt lat="45.60743" lon="6.61131">
        <ele>2274.8000488281</ele>
        <time>2012-09-09T08:37:04Z</time>
      </trkpt>
      <trkpt lat="45.60748" lon="6.61135">
        <ele>2274.8000488281</ele>
        <time>2012-09-09T08:37:07Z</time>
      </trkpt>
      <trkpt lat="45.60755" lon="6.61138">
        <ele>2273.8000488281</ele>
        <time>2012-09-09T08:37:10Z</time>
      </trkpt>
      <trkpt lat="45.60759" lon="6.6114">
        <ele>2272.3999023438</ele>
        <time>2012-09-09T08:37:12Z</time>
      </trkpt>
      <trkpt lat="45.60769" lon="6.61143">
        <ele>2269.8000488281</ele>
        <time>2012-09-09T08:37:17Z</time>
      </trkpt>
      <trkpt lat="45.60781" lon="6.61146">
        <ele>2267.3999023438</ele>
        <time>2012-09-09T08:37:22Z</time>
      </trkpt>
      <trkpt lat="45.60793" lon="6.61149">
        <ele>2265.1999511719</ele>
        <time>2012-09-09T08:37:27Z</time>
      </trkpt>
      <trkpt lat="45.60806" lon="6.61153">
        <ele>2263.1999511719</ele>
        <time>2012-09-09T08:37:33Z</time>
      </trkpt>
      <trkpt lat="45.60809" lon="6.61155">
        <ele>2262.1999511719</ele>
        <time>2012-09-09T08:37:35Z</time>
      </trkpt>
      <trkpt lat="45.60816" lon="6.61158">
        <ele>2260</ele>
        <time>2012-09-09T08:37:39Z</time>
      </trkpt>
      <trkpt lat="45.6082" lon="6.61158">
        <ele>2258.6000976562</ele>
        <time>2012-09-09T08:37:41Z</time>
      </trkpt>
      <trkpt lat="45.60827" lon="6.61157">
        <ele>2257.3999023438</ele>
        <time>2012-09-09T08:37:45Z</time>
      </trkpt>
      <trkpt lat="45.60836" lon="6.61158">
        <ele>2254.8000488281</ele>
        <time>2012-09-09T08:37:49Z</time>
      </trkpt>
      <trkpt lat="45.60843" lon="6.61149">
        <ele>2253.8000488281</ele>
        <time>2012-09-09T08:37:53Z</time>
      </trkpt>
      <trkpt lat="45.60851" lon="6.61158">
        <ele>2252.6000976562</ele>
        <time>2012-09-09T08:37:58Z</time>
      </trkpt>
      <trkpt lat="45.60855" lon="6.61161">
        <ele>2251.6000976562</ele>
        <time>2012-09-09T08:38:00Z</time>
      </trkpt>
      <trkpt lat="45.60864" lon="6.61167">
        <ele>2249.1999511719</ele>
        <time>2012-09-09T08:38:06Z</time>
      </trkpt>
      <trkpt lat="45.60869" lon="6.61168">
        <ele>2247.1999511719</ele>
        <time>2012-09-09T08:38:09Z</time>
      </trkpt>
      <trkpt lat="45.60875" lon="6.61169">
        <ele>2246</ele>
        <time>2012-09-09T08:38:12Z</time>
      </trkpt>
      <trkpt lat="45.60881" lon="6.61173">
        <ele>2243.6000976562</ele>
        <time>2012-09-09T08:38:16Z</time>
      </trkpt>
      <trkpt lat="45.60886" lon="6.61175">
        <ele>2241.1999511719</ele>
        <time>2012-09-09T08:38:19Z</time>
      </trkpt>
      <trkpt lat="45.60893" lon="6.6118">
        <ele>2239.1999511719</ele>
        <time>2012-09-09T08:38:23Z</time>
      </trkpt>
      <trkpt lat="45.60894" lon="6.61178">
        <ele>2239.1999511719</ele>
        <time>2012-09-09T08:38:26Z</time>
      </trkpt>
      <trkpt lat="45.60895" lon="6.61173">
        <ele>2237.1999511719</ele>
        <time>2012-09-09T08:38:28Z</time>
      </trkpt>
      <trkpt lat="45.60899" lon="6.61163">
        <ele>2236</ele>
        <time>2012-09-09T08:38:32Z</time>
      </trkpt>
      <trkpt lat="45.60902" lon="6.61155">
        <ele>2235</ele>
        <time>2012-09-09T08:38:35Z</time>
      </trkpt>
      <trkpt lat="45.60906" lon="6.6115">
        <ele>2234</ele>
        <time>2012-09-09T08:38:38Z</time>
      </trkpt>
      <trkpt lat="45.60906" lon="6.61143">
        <ele>2232.8000488281</ele>
        <time>2012-09-09T08:38:41Z</time>
      </trkpt>
      <trkpt lat="45.60907" lon="6.61136">
        <ele>2230.3999023438</ele>
        <time>2012-09-09T08:38:44Z</time>
      </trkpt>
      <trkpt lat="45.60906" lon="6.61126">
        <ele>2228</ele>
        <time>2012-09-09T08:38:48Z</time>
      </trkpt>
      <trkpt lat="45.60908" lon="6.61118">
        <ele>2226.8000488281</ele>
        <time>2012-09-09T08:38:52Z</time>
      </trkpt>
      <trkpt lat="45.60909" lon="6.61108">
        <ele>2224.3999023438</ele>
        <time>2012-09-09T08:38:56Z</time>
      </trkpt>
      <trkpt lat="45.6091" lon="6.61096">
        <ele>2222.1999511719</ele>
        <time>2012-09-09T08:39:01Z</time>
      </trkpt>
      <trkpt lat="45.60913" lon="6.6109">
        <ele>2220</ele>
        <time>2012-09-09T08:39:03Z</time>
      </trkpt>
      <trkpt lat="45.60919" lon="6.61084">
        <ele>2218.8000488281</ele>
        <time>2012-09-09T08:39:06Z</time>
      </trkpt>
      <trkpt lat="45.60931" lon="6.61073">
        <ele>2217.6000976562</ele>
        <time>2012-09-09T08:39:13Z</time>
      </trkpt>
      <trkpt lat="45.60932" lon="6.61073">
        <ele>2217.6000976562</ele>
        <time>2012-09-09T08:39:22Z</time>
      </trkpt>
      <trkpt lat="45.60933" lon="6.61073">
        <ele>2217.6000976562</ele>
        <time>2012-09-09T08:39:33Z</time>
      </trkpt>
      <trkpt lat="45.60934" lon="6.61065">
        <ele>2216.6000976562</ele>
        <time>2012-09-09T08:39:44Z</time>
      </trkpt>
      <trkpt lat="45.60934" lon="6.61054">
        <ele>2215.3999023438</ele>
        <time>2012-09-09T08:39:48Z</time>
      </trkpt>
      <trkpt lat="45.60937" lon="6.61029">
        <ele>2214.3999023438</ele>
        <time>2012-09-09T08:39:54Z</time>
      </trkpt>
      <trkpt lat="45.60945" lon="6.61012">
        <ele>2213.1999511719</ele>
        <time>2012-09-09T08:39:59Z</time>
      </trkpt>
      <trkpt lat="45.60952" lon="6.60997">
        <ele>2212.1999511719</ele>
        <time>2012-09-09T08:40:03Z</time>
      </trkpt>
      <trkpt lat="45.60963" lon="6.60991">
        <ele>2211</ele>
        <time>2012-09-09T08:40:07Z</time>
      </trkpt>
      <trkpt lat="45.60972" lon="6.60984">
        <ele>2209.8000488281</ele>
        <time>2012-09-09T08:40:11Z</time>
      </trkpt>
      <trkpt lat="45.6098" lon="6.6098">
        <ele>2208.8000488281</ele>
        <time>2012-09-09T08:40:14Z</time>
      </trkpt>
      <trkpt lat="45.6099" lon="6.60976">
        <ele>2207.8000488281</ele>
        <time>2012-09-09T08:40:19Z</time>
      </trkpt>
      <trkpt lat="45.60993" lon="6.60972">
        <ele>2205.6000976562</ele>
        <time>2012-09-09T08:40:22Z</time>
      </trkpt>
      <trkpt lat="45.60997" lon="6.60967">
        <ele>2204.1999511719</ele>
        <time>2012-09-09T08:40:25Z</time>
      </trkpt>
      <trkpt lat="45.61005" lon="6.60964">
        <ele>2201.6000976562</ele>
        <time>2012-09-09T08:40:29Z</time>
      </trkpt>
      <trkpt lat="45.61012" lon="6.6096">
        <ele>2200.6000976562</ele>
        <time>2012-09-09T08:40:33Z</time>
      </trkpt>
      <trkpt lat="45.61018" lon="6.60955">
        <ele>2199.3999023438</ele>
        <time>2012-09-09T08:40:36Z</time>
      </trkpt>
      <trkpt lat="45.61023" lon="6.60949">
        <ele>2197.1999511719</ele>
        <time>2012-09-09T08:40:40Z</time>
      </trkpt>
      <trkpt lat="45.61029" lon="6.60942">
        <ele>2195</ele>
        <time>2012-09-09T08:40:44Z</time>
      </trkpt>
      <trkpt lat="45.61031" lon="6.60937">
        <ele>2192.3999023438</ele>
        <time>2012-09-09T08:40:46Z</time>
      </trkpt>
      <trkpt lat="45.61036" lon="6.60931">
        <ele>2191.3999023438</ele>
        <time>2012-09-09T08:40:49Z</time>
      </trkpt>
      <trkpt lat="45.61043" lon="6.60923">
        <ele>2188.6000976562</ele>
        <time>2012-09-09T08:40:53Z</time>
      </trkpt>
      <trkpt lat="45.61045" lon="6.60918">
        <ele>2187.6000976562</ele>
        <time>2012-09-09T08:40:55Z</time>
      </trkpt>
      <trkpt lat="45.61048" lon="6.60907">
        <ele>2186.6000976562</ele>
        <time>2012-09-09T08:41:00Z</time>
      </trkpt>
      <trkpt lat="45.61049" lon="6.60901">
        <ele>2184.3999023438</ele>
        <time>2012-09-09T08:41:03Z</time>
      </trkpt>
      <trkpt lat="45.61051" lon="6.60897">
        <ele>2183</ele>
        <time>2012-09-09T08:41:06Z</time>
      </trkpt>
      <trkpt lat="45.61053" lon="6.60896">
        <ele>2180.6000976562</ele>
        <time>2012-09-09T08:41:08Z</time>
      </trkpt>
      <trkpt lat="45.6106" lon="6.60891">
        <ele>2178.1999511719</ele>
        <time>2012-09-09T08:41:12Z</time>
      </trkpt>
      <trkpt lat="45.61065" lon="6.60885">
        <ele>2176.1999511719</ele>
        <time>2012-09-09T08:41:16Z</time>
      </trkpt>
      <trkpt lat="45.6107" lon="6.60879">
        <ele>2176.1999511719</ele>
        <time>2012-09-09T08:41:21Z</time>
      </trkpt>
      <trkpt lat="45.61072" lon="6.60876">
        <ele>2174</ele>
        <time>2012-09-09T08:41:23Z</time>
      </trkpt>
      <trkpt lat="45.61077" lon="6.60868">
        <ele>2173</ele>
        <time>2012-09-09T08:41:27Z</time>
      </trkpt>
      <trkpt lat="45.61081" lon="6.60861">
        <ele>2170.8000488281</ele>
        <time>2012-09-09T08:41:30Z</time>
      </trkpt>
      <trkpt lat="45.61082" lon="6.60856">
        <ele>2170.8000488281</ele>
        <time>2012-09-09T08:41:32Z</time>
      </trkpt>
      <trkpt lat="45.6108" lon="6.60852">
        <ele>2168.6000976562</ele>
        <time>2012-09-09T08:41:35Z</time>
      </trkpt>
      <trkpt lat="45.6108" lon="6.60851">
        <ele>2167.3999023438</ele>
        <time>2012-09-09T08:41:37Z</time>
      </trkpt>
      <trkpt lat="45.61076" lon="6.60843">
        <ele>2166</ele>
        <time>2012-09-09T08:41:41Z</time>
      </trkpt>
      <trkpt lat="45.61068" lon="6.60831">
        <ele>2165</ele>
        <time>2012-09-09T08:41:45Z</time>
      </trkpt>
      <trkpt lat="45.61065" lon="6.60817">
        <ele>2164</ele>
        <time>2012-09-09T08:41:49Z</time>
      </trkpt>
      <trkpt lat="45.61072" lon="6.60797">
        <ele>2161.6000976562</ele>
        <time>2012-09-09T08:41:55Z</time>
      </trkpt>
      <trkpt lat="45.61079" lon="6.60788">
        <ele>2160.1999511719</ele>
        <time>2012-09-09T08:41:58Z</time>
      </trkpt>
      <trkpt lat="45.61089" lon="6.60772">
        <ele>2158.1999511719</ele>
        <time>2012-09-09T08:42:03Z</time>
      </trkpt>
      <trkpt lat="45.61107" lon="6.60759">
        <ele>2156.6000976562</ele>
        <time>2012-09-09T08:42:10Z</time>
      </trkpt>
      <trkpt lat="45.61114" lon="6.60753">
        <ele>2155.6000976562</ele>
        <time>2012-09-09T08:42:13Z</time>
      </trkpt>
      <trkpt lat="45.61118" lon="6.60746">
        <ele>2155.6000976562</ele>
        <time>2012-09-09T08:42:15Z</time>
      </trkpt>
      <trkpt lat="45.61122" lon="6.6073">
        <ele>2153</ele>
        <time>2012-09-09T08:42:19Z</time>
      </trkpt>
      <trkpt lat="45.61131" lon="6.60717">
        <ele>2152</ele>
        <time>2012-09-09T08:42:24Z</time>
      </trkpt>
      <trkpt lat="45.61142" lon="6.60712">
        <ele>2149.3999023438</ele>
        <time>2012-09-09T08:42:28Z</time>
      </trkpt>
      <trkpt lat="45.61157" lon="6.60695">
        <ele>2149.3999023438</ele>
        <time>2012-09-09T08:42:35Z</time>
      </trkpt>
      <trkpt lat="45.61157" lon="6.6068">
        <ele>2148.1999511719</ele>
        <time>2012-09-09T08:42:38Z</time>
      </trkpt>
      <trkpt lat="45.61155" lon="6.60663">
        <ele>2147.1999511719</ele>
        <time>2012-09-09T08:42:42Z</time>
      </trkpt>
      <trkpt lat="45.61153" lon="6.60639">
        <ele>2145.8000488281</ele>
        <time>2012-09-09T08:42:47Z</time>
      </trkpt>
      <trkpt lat="45.6116" lon="6.60627">
        <ele>2144.6000976562</ele>
        <time>2012-09-09T08:42:50Z</time>
      </trkpt>
      <trkpt lat="45.61177" lon="6.60592">
        <ele>2142.3999023438</ele>
        <time>2012-09-09T08:42:59Z</time>
      </trkpt>
      <trkpt lat="45.61191" lon="6.60581">
        <ele>2142.3999023438</ele>
        <time>2012-09-09T08:43:04Z</time>
      </trkpt>
      <trkpt lat="45.61205" lon="6.60587">
        <ele>2140.1999511719</ele>
        <time>2012-09-09T08:43:08Z</time>
      </trkpt>
      <trkpt lat="45.61219" lon="6.60592">
        <ele>2139</ele>
        <time>2012-09-09T08:43:13Z</time>
      </trkpt>
      <trkpt lat="45.61228" lon="6.60583">
        <ele>2138</ele>
        <time>2012-09-09T08:43:17Z</time>
      </trkpt>
      <trkpt lat="45.61234" lon="6.60563">
        <ele>2136.8000488281</ele>
        <time>2012-09-09T08:43:22Z</time>
      </trkpt>
      <trkpt lat="45.61241" lon="6.60535">
        <ele>2134.8000488281</ele>
        <time>2012-09-09T08:43:29Z</time>
      </trkpt>
      <trkpt lat="45.61249" lon="6.60503">
        <ele>2133.8000488281</ele>
        <time>2012-09-09T08:43:37Z</time>
      </trkpt>
      <trkpt lat="45.61265" lon="6.60475">
        <ele>2133.8000488281</ele>
        <time>2012-09-09T08:43:46Z</time>
      </trkpt>
      <trkpt lat="45.61297" lon="6.60482">
        <ele>2133.8000488281</ele>
        <time>2012-09-09T08:43:57Z</time>
      </trkpt>
      <trkpt lat="45.61311" lon="6.60482">
        <ele>2131.3999023438</ele>
        <time>2012-09-09T08:44:02Z</time>
      </trkpt>
      <trkpt lat="45.61319" lon="6.60468">
        <ele>2131.3999023438</ele>
        <time>2012-09-09T08:44:07Z</time>
      </trkpt>
      <trkpt lat="45.61338" lon="6.60438">
        <ele>2131.3999023438</ele>
        <time>2012-09-09T08:44:18Z</time>
      </trkpt>
      <trkpt lat="45.61365" lon="6.60436">
        <ele>2131.3999023438</ele>
        <time>2012-09-09T08:44:28Z</time>
      </trkpt>
      <trkpt lat="45.61393" lon="6.60403">
        <ele>2131.3999023438</ele>
        <time>2012-09-09T08:44:41Z</time>
      </trkpt>
      <trkpt lat="45.61418" lon="6.60384">
        <ele>2130.3999023438</ele>
        <time>2012-09-09T08:44:51Z</time>
      </trkpt>
      <trkpt lat="45.61439" lon="6.60373">
        <ele>2129.1999511719</ele>
        <time>2012-09-09T08:44:59Z</time>
      </trkpt>
      <trkpt lat="45.61472" lon="6.60374">
        <ele>2127.8000488281</ele>
        <time>2012-09-09T08:45:10Z</time>
      </trkpt>
      <trkpt lat="45.6149" lon="6.60376">
        <ele>2126.6000976562</ele>
        <time>2012-09-09T08:45:16Z</time>
      </trkpt>
      <trkpt lat="45.61499" lon="6.60377">
        <ele>2124.6000976562</ele>
        <time>2012-09-09T08:45:19Z</time>
      </trkpt>
      <trkpt lat="45.61514" lon="6.60382">
        <ele>2123.6000976562</ele>
        <time>2012-09-09T08:45:24Z</time>
      </trkpt>
      <trkpt lat="45.61528" lon="6.60387">
        <ele>2122.3999023438</ele>
        <time>2012-09-09T08:45:29Z</time>
      </trkpt>
      <trkpt lat="45.61543" lon="6.60391">
        <ele>2120.3999023438</ele>
        <time>2012-09-09T08:45:34Z</time>
      </trkpt>
      <trkpt lat="45.61561" lon="6.60389">
        <ele>2117.8000488281</ele>
        <time>2012-09-09T08:45:40Z</time>
      </trkpt>
      <trkpt lat="45.61577" lon="6.60387">
        <ele>2115.3999023438</ele>
        <time>2012-09-09T08:45:45Z</time>
      </trkpt>
      <trkpt lat="45.616" lon="6.60385">
        <ele>2113</ele>
        <time>2012-09-09T08:45:53Z</time>
      </trkpt>
      <trkpt lat="45.61615" lon="6.60382">
        <ele>2112</ele>
        <time>2012-09-09T08:45:58Z</time>
      </trkpt>
      <trkpt lat="45.61628" lon="6.6037">
        <ele>2110.8000488281</ele>
        <time>2012-09-09T08:46:03Z</time>
      </trkpt>
      <trkpt lat="45.61641" lon="6.6036">
        <ele>2109.6000976562</ele>
        <time>2012-09-09T08:46:08Z</time>
      </trkpt>
      <trkpt lat="45.61665" lon="6.60342">
        <ele>2108.6000976562</ele>
        <time>2012-09-09T08:46:17Z</time>
      </trkpt>
      <trkpt lat="45.61686" lon="6.60334">
        <ele>2108.6000976562</ele>
        <time>2012-09-09T08:46:25Z</time>
      </trkpt>
      <trkpt lat="45.61691" lon="6.60335">
        <ele>2108.6000976562</ele>
        <time>2012-09-09T08:46:31Z</time>
      </trkpt>
      <trkpt lat="45.61694" lon="6.60332">
        <ele>2108.6000976562</ele>
        <time>2012-09-09T08:46:46Z</time>
      </trkpt>
      <trkpt lat="45.61716" lon="6.60318">
        <ele>2108.6000976562</ele>
        <time>2012-09-09T08:46:58Z</time>
      </trkpt>
      <trkpt lat="45.61739" lon="6.60312">
        <ele>2108.6000976562</ele>
        <time>2012-09-09T08:47:12Z</time>
      </trkpt>
      <trkpt lat="45.61748" lon="6.60311">
        <ele>2108.6000976562</ele>
        <time>2012-09-09T08:47:19Z</time>
      </trkpt>
      <trkpt lat="45.61761" lon="6.60314">
        <ele>2111.6000976562</ele>
        <time>2012-09-09T08:47:31Z</time>
      </trkpt>
      <trkpt lat="45.61763" lon="6.60315">
        <ele>2111.6000976562</ele>
        <time>2012-09-09T08:47:34Z</time>
      </trkpt>
      <trkpt lat="45.61771" lon="6.60317">
        <ele>2112.8000488281</ele>
        <time>2012-09-09T08:47:42Z</time>
      </trkpt>
      <trkpt lat="45.61775" lon="6.60316">
        <ele>2114</ele>
        <time>2012-09-09T08:47:47Z</time>
      </trkpt>
      <trkpt lat="45.6178" lon="6.60317">
        <ele>2116</ele>
        <time>2012-09-09T08:47:52Z</time>
      </trkpt>
      <trkpt lat="45.61788" lon="6.60318">
        <ele>2117</ele>
        <time>2012-09-09T08:47:59Z</time>
      </trkpt>
      <trkpt lat="45.61802" lon="6.60324">
        <ele>2117</ele>
        <time>2012-09-09T08:48:10Z</time>
      </trkpt>
      <trkpt lat="45.61811" lon="6.60327">
        <ele>2119.1999511719</ele>
        <time>2012-09-09T08:48:18Z</time>
      </trkpt>
      <trkpt lat="45.61824" lon="6.60332">
        <ele>2120.1999511719</ele>
        <time>2012-09-09T08:48:29Z</time>
      </trkpt>
      <trkpt lat="45.61834" lon="6.60336">
        <ele>2121.3999023438</ele>
        <time>2012-09-09T08:48:37Z</time>
      </trkpt>
      <trkpt lat="45.61839" lon="6.60336">
        <ele>2122.3999023438</ele>
        <time>2012-09-09T08:48:42Z</time>
      </trkpt>
      <trkpt lat="45.61848" lon="6.60335">
        <ele>2123.3999023438</ele>
        <time>2012-09-09T08:48:49Z</time>
      </trkpt>
      <trkpt lat="45.61854" lon="6.60335">
        <ele>2123.3999023438</ele>
        <time>2012-09-09T08:48:54Z</time>
      </trkpt>
      <trkpt lat="45.61856" lon="6.60336">
        <ele>2124.6000976562</ele>
        <time>2012-09-09T08:48:56Z</time>
      </trkpt>
      <trkpt lat="45.6186" lon="6.60339">
        <ele>2124.6000976562</ele>
        <time>2012-09-09T08:48:59Z</time>
      </trkpt>
      <trkpt lat="45.61867" lon="6.60343">
        <ele>2125.8000488281</ele>
        <time>2012-09-09T08:49:06Z</time>
      </trkpt>
      <trkpt lat="45.61871" lon="6.60343">
        <ele>2126.8000488281</ele>
        <time>2012-09-09T08:49:10Z</time>
      </trkpt>
      <trkpt lat="45.61877" lon="6.60341">
        <ele>2128.1999511719</ele>
        <time>2012-09-09T08:49:16Z</time>
      </trkpt>
      <trkpt lat="45.61882" lon="6.6034">
        <ele>2129.1999511719</ele>
        <time>2012-09-09T08:49:20Z</time>
      </trkpt>
      <trkpt lat="45.61889" lon="6.60341">
        <ele>2130.1999511719</ele>
        <time>2012-09-09T08:49:26Z</time>
      </trkpt>
      <trkpt lat="45.61891" lon="6.60345">
        <ele>2131.1999511719</ele>
        <time>2012-09-09T08:49:29Z</time>
      </trkpt>
      <trkpt lat="45.619" lon="6.60352">
        <ele>2132.1999511719</ele>
        <time>2012-09-09T08:49:38Z</time>
      </trkpt>
      <trkpt lat="45.61906" lon="6.60355">
        <ele>2133.3999023438</ele>
        <time>2012-09-09T08:49:44Z</time>
      </trkpt>
      <trkpt lat="45.61911" lon="6.60357">
        <ele>2135.3999023438</ele>
        <time>2012-09-09T08:49:49Z</time>
      </trkpt>
      <trkpt lat="45.61914" lon="6.60358">
        <ele>2136.6000976562</ele>
        <time>2012-09-09T08:49:52Z</time>
      </trkpt>
      <trkpt lat="45.6192" lon="6.60361">
        <ele>2137.6000976562</ele>
        <time>2012-09-09T08:49:58Z</time>
      </trkpt>
      <trkpt lat="45.61922" lon="6.60367">
        <ele>2138.6000976562</ele>
        <time>2012-09-09T08:50:03Z</time>
      </trkpt>
      <trkpt lat="45.61923" lon="6.60371">
        <ele>2139.6000976562</ele>
        <time>2012-09-09T08:50:07Z</time>
      </trkpt>
      <trkpt lat="45.61924" lon="6.60378">
        <ele>2140.8000488281</ele>
        <time>2012-09-09T08:50:12Z</time>
      </trkpt>
      <trkpt lat="45.61925" lon="6.60382">
        <ele>2142</ele>
        <time>2012-09-09T08:50:14Z</time>
      </trkpt>
      <trkpt lat="45.61929" lon="6.604">
        <ele>2142</ele>
        <time>2012-09-09T08:50:25Z</time>
      </trkpt>
      <trkpt lat="45.61936" lon="6.60423">
        <ele>2142</ele>
        <time>2012-09-09T08:50:38Z</time>
      </trkpt>
      <trkpt lat="45.61937" lon="6.60432">
        <ele>2142</ele>
        <time>2012-09-09T08:50:44Z</time>
      </trkpt>
      <trkpt lat="45.61937" lon="6.60438">
        <ele>2143</ele>
        <time>2012-09-09T08:50:49Z</time>
      </trkpt>
      <trkpt lat="45.61939" lon="6.60444">
        <ele>2143</ele>
        <time>2012-09-09T08:50:53Z</time>
      </trkpt>
      <trkpt lat="45.61938" lon="6.6045">
        <ele>2145.1999511719</ele>
        <time>2012-09-09T08:50:58Z</time>
      </trkpt>
      <trkpt lat="45.61938" lon="6.60457">
        <ele>2146.3999023438</ele>
        <time>2012-09-09T08:51:04Z</time>
      </trkpt>
      <trkpt lat="45.61939" lon="6.60462">
        <ele>2147.3999023438</ele>
        <time>2012-09-09T08:51:08Z</time>
      </trkpt>
      <trkpt lat="45.61942" lon="6.60466">
        <ele>2148.3999023438</ele>
        <time>2012-09-09T08:51:14Z</time>
      </trkpt>
      <trkpt lat="45.61945" lon="6.60469">
        <ele>2150.8000488281</ele>
        <time>2012-09-09T08:51:19Z</time>
      </trkpt>
      <trkpt lat="45.61947" lon="6.60472">
        <ele>2151.8000488281</ele>
        <time>2012-09-09T08:51:24Z</time>
      </trkpt>
      <trkpt lat="45.61948" lon="6.60475">
        <ele>2153</ele>
        <time>2012-09-09T08:51:28Z</time>
      </trkpt>
      <trkpt lat="45.61951" lon="6.60479">
        <ele>2154</ele>
        <time>2012-09-09T08:51:33Z</time>
      </trkpt>
      <trkpt lat="45.61952" lon="6.60482">
        <ele>2155</ele>
        <time>2012-09-09T08:51:37Z</time>
      </trkpt>
      <trkpt lat="45.61956" lon="6.6049">
        <ele>2156</ele>
        <time>2012-09-09T08:51:46Z</time>
      </trkpt>
      <trkpt lat="45.61958" lon="6.60494">
        <ele>2157.1999511719</ele>
        <time>2012-09-09T08:51:49Z</time>
      </trkpt>
      <trkpt lat="45.61959" lon="6.60497">
        <ele>2158.1999511719</ele>
        <time>2012-09-09T08:51:52Z</time>
      </trkpt>
      <trkpt lat="45.61962" lon="6.60498">
        <ele>2158.1999511719</ele>
        <time>2012-09-09T08:51:55Z</time>
      </trkpt>
      <trkpt lat="45.61966" lon="6.60501">
        <ele>2159.3999023438</ele>
        <time>2012-09-09T08:51:59Z</time>
      </trkpt>
      <trkpt lat="45.61972" lon="6.60509">
        <ele>2159.3999023438</ele>
        <time>2012-09-09T08:52:06Z</time>
      </trkpt>
      <trkpt lat="45.61975" lon="6.60514">
        <ele>2159.3999023438</ele>
        <time>2012-09-09T08:52:25Z</time>
      </trkpt>
      <trkpt lat="45.61979" lon="6.60519">
        <ele>2160.3999023438</ele>
        <time>2012-09-09T08:52:30Z</time>
      </trkpt>
      <trkpt lat="45.61987" lon="6.60527">
        <ele>2161.6000976562</ele>
        <time>2012-09-09T08:52:38Z</time>
      </trkpt>
      <trkpt lat="45.6199" lon="6.60528">
        <ele>2162.6000976562</ele>
        <time>2012-09-09T08:52:42Z</time>
      </trkpt>
      <trkpt lat="45.61996" lon="6.6053">
        <ele>2162.6000976562</ele>
        <time>2012-09-09T08:52:48Z</time>
      </trkpt>
      <trkpt lat="45.62" lon="6.60533">
        <ele>2163.8000488281</ele>
        <time>2012-09-09T08:52:53Z</time>
      </trkpt>
      <trkpt lat="45.62004" lon="6.60535">
        <ele>2165.8000488281</ele>
        <time>2012-09-09T08:52:57Z</time>
      </trkpt>
      <trkpt lat="45.6201" lon="6.60541">
        <ele>2165.8000488281</ele>
        <time>2012-09-09T08:53:04Z</time>
      </trkpt>
      <trkpt lat="45.62013" lon="6.60541">
        <ele>2167</ele>
        <time>2012-09-09T08:53:07Z</time>
      </trkpt>
      <trkpt lat="45.62018" lon="6.60544">
        <ele>2168</ele>
        <time>2012-09-09T08:53:11Z</time>
      </trkpt>
      <trkpt lat="45.6202" lon="6.60546">
        <ele>2168</ele>
        <time>2012-09-09T08:53:14Z</time>
      </trkpt>
      <trkpt lat="45.62023" lon="6.60549">
        <ele>2169</ele>
        <time>2012-09-09T08:53:17Z</time>
      </trkpt>
      <trkpt lat="45.62028" lon="6.60552">
        <ele>2170.1999511719</ele>
        <time>2012-09-09T08:53:22Z</time>
      </trkpt>
      <trkpt lat="45.6203" lon="6.60556">
        <ele>2171.1999511719</ele>
        <time>2012-09-09T08:53:25Z</time>
      </trkpt>
      <trkpt lat="45.62033" lon="6.60558">
        <ele>2172.1999511719</ele>
        <time>2012-09-09T08:53:29Z</time>
      </trkpt>
      <trkpt lat="45.62037" lon="6.60565">
        <ele>2173.1999511719</ele>
        <time>2012-09-09T08:53:36Z</time>
      </trkpt>
      <trkpt lat="45.62042" lon="6.6057">
        <ele>2174.3999023438</ele>
        <time>2012-09-09T08:53:43Z</time>
      </trkpt>
      <trkpt lat="45.62048" lon="6.60576">
        <ele>2175.3999023438</ele>
        <time>2012-09-09T08:53:51Z</time>
      </trkpt>
      <trkpt lat="45.62052" lon="6.60581">
        <ele>2175.3999023438</ele>
        <time>2012-09-09T08:53:56Z</time>
      </trkpt>
      <trkpt lat="45.62056" lon="6.60586">
        <ele>2176.3999023438</ele>
        <time>2012-09-09T08:54:01Z</time>
      </trkpt>
      <trkpt lat="45.6206" lon="6.60591">
        <ele>2177.3999023438</ele>
        <time>2012-09-09T08:54:06Z</time>
      </trkpt>
      <trkpt lat="45.62067" lon="6.606">
        <ele>2178.3999023438</ele>
        <time>2012-09-09T08:54:13Z</time>
      </trkpt>
      <trkpt lat="45.62072" lon="6.60607">
        <ele>2179.3999023438</ele>
        <time>2012-09-09T08:54:19Z</time>
      </trkpt>
      <trkpt lat="45.62077" lon="6.60612">
        <ele>2180.3999023438</ele>
        <time>2012-09-09T08:54:25Z</time>
      </trkpt>
      <trkpt lat="45.62085" lon="6.60622">
        <ele>2181.6000976562</ele>
        <time>2012-09-09T08:54:33Z</time>
      </trkpt>
      <trkpt lat="45.62094" lon="6.6063">
        <ele>2181.6000976562</ele>
        <time>2012-09-09T08:54:38Z</time>
      </trkpt>
      <trkpt lat="45.62114" lon="6.60649">
        <ele>2182.6000976562</ele>
        <time>2012-09-09T08:54:49Z</time>
      </trkpt>
      <trkpt lat="45.62128" lon="6.60658">
        <ele>2183.6000976562</ele>
        <time>2012-09-09T08:54:56Z</time>
      </trkpt>
      <trkpt lat="45.62141" lon="6.60658">
        <ele>2184.6000976562</ele>
        <time>2012-09-09T08:55:05Z</time>
      </trkpt>
      <trkpt lat="45.62146" lon="6.60659">
        <ele>2185.8000488281</ele>
        <time>2012-09-09T08:55:10Z</time>
      </trkpt>
      <trkpt lat="45.62154" lon="6.60662">
        <ele>2186.8000488281</ele>
        <time>2012-09-09T08:55:18Z</time>
      </trkpt>
      <trkpt lat="45.62158" lon="6.60662">
        <ele>2187.8000488281</ele>
        <time>2012-09-09T08:55:22Z</time>
      </trkpt>
      <trkpt lat="45.62161" lon="6.60662">
        <ele>2188.8000488281</ele>
        <time>2012-09-09T08:55:25Z</time>
      </trkpt>
      <trkpt lat="45.62165" lon="6.60664">
        <ele>2190</ele>
        <time>2012-09-09T08:55:30Z</time>
      </trkpt>
      <trkpt lat="45.62169" lon="6.60666">
        <ele>2191.1999511719</ele>
        <time>2012-09-09T08:55:36Z</time>
      </trkpt>
      <trkpt lat="45.62172" lon="6.60667">
        <ele>2191.1999511719</ele>
        <time>2012-09-09T08:55:41Z</time>
      </trkpt>
      <trkpt lat="45.62176" lon="6.60669">
        <ele>2193.1999511719</ele>
        <time>2012-09-09T08:55:47Z</time>
      </trkpt>
      <trkpt lat="45.62179" lon="6.60672">
        <ele>2194.1999511719</ele>
        <time>2012-09-09T08:55:51Z</time>
      </trkpt>
      <trkpt lat="45.62182" lon="6.60674">
        <ele>2195.1999511719</ele>
        <time>2012-09-09T08:55:57Z</time>
      </trkpt>
      <trkpt lat="45.62184" lon="6.60673">
        <ele>2195.1999511719</ele>
        <time>2012-09-09T08:56:01Z</time>
      </trkpt>
      <trkpt lat="45.6219" lon="6.60677">
        <ele>2196.3999023438</ele>
        <time>2012-09-09T08:56:07Z</time>
      </trkpt>
      <trkpt lat="45.62194" lon="6.60684">
        <ele>2196.3999023438</ele>
        <time>2012-09-09T08:56:12Z</time>
      </trkpt>
      <trkpt lat="45.62198" lon="6.6069">
        <ele>2197.3999023438</ele>
        <time>2012-09-09T08:56:17Z</time>
      </trkpt>
      <trkpt lat="45.62202" lon="6.60701">
        <ele>2198.3999023438</ele>
        <time>2012-09-09T08:56:24Z</time>
      </trkpt>
      <trkpt lat="45.62206" lon="6.60714">
        <ele>2199.3999023438</ele>
        <time>2012-09-09T08:56:32Z</time>
      </trkpt>
      <trkpt lat="45.62211" lon="6.60725">
        <ele>2199.3999023438</ele>
        <time>2012-09-09T08:56:39Z</time>
      </trkpt>
      <trkpt lat="45.62216" lon="6.60736">
        <ele>2200.3999023438</ele>
        <time>2012-09-09T08:56:46Z</time>
      </trkpt>
      <trkpt lat="45.62219" lon="6.60748">
        <ele>2201.6000976562</ele>
        <time>2012-09-09T08:56:53Z</time>
      </trkpt>
      <trkpt lat="45.62221" lon="6.6076">
        <ele>2202.6000976562</ele>
        <time>2012-09-09T08:57:01Z</time>
      </trkpt>
      <trkpt lat="45.62223" lon="6.60772">
        <ele>2202.6000976562</ele>
        <time>2012-09-09T08:57:07Z</time>
      </trkpt>
      <trkpt lat="45.62223" lon="6.60781">
        <ele>2202.6000976562</ele>
        <time>2012-09-09T08:57:12Z</time>
      </trkpt>
      <trkpt lat="45.62226" lon="6.60792">
        <ele>2203.6000976562</ele>
        <time>2012-09-09T08:57:19Z</time>
      </trkpt>
      <trkpt lat="45.62229" lon="6.60797">
        <ele>2204.8000488281</ele>
        <time>2012-09-09T08:57:24Z</time>
      </trkpt>
      <trkpt lat="45.6223" lon="6.60799">
        <ele>2206</ele>
        <time>2012-09-09T08:57:26Z</time>
      </trkpt>
      <trkpt lat="45.62234" lon="6.60803">
        <ele>2207.1999511719</ele>
        <time>2012-09-09T08:57:31Z</time>
      </trkpt>
      <trkpt lat="45.62237" lon="6.60807">
        <ele>2207.1999511719</ele>
        <time>2012-09-09T08:57:35Z</time>
      </trkpt>
      <trkpt lat="45.62237" lon="6.60813">
        <ele>2208.1999511719</ele>
        <time>2012-09-09T08:57:38Z</time>
      </trkpt>
      <trkpt lat="45.62235" lon="6.60818">
        <ele>2208.1999511719</ele>
        <time>2012-09-09T08:57:42Z</time>
      </trkpt>
      <trkpt lat="45.62234" lon="6.60829">
        <ele>2209.1999511719</ele>
        <time>2012-09-09T08:57:49Z</time>
      </trkpt>
      <trkpt lat="45.62236" lon="6.60833">
        <ele>2210.3999023438</ele>
        <time>2012-09-09T08:57:53Z</time>
      </trkpt>
      <trkpt lat="45.62238" lon="6.60836">
        <ele>2211.3999023438</ele>
        <time>2012-09-09T08:57:56Z</time>
      </trkpt>
      <trkpt lat="45.62239" lon="6.6084">
        <ele>2212.6000976562</ele>
        <time>2012-09-09T08:57:59Z</time>
      </trkpt>
      <trkpt lat="45.62242" lon="6.6084">
        <ele>2213.6000976562</ele>
        <time>2012-09-09T08:58:04Z</time>
      </trkpt>
      <trkpt lat="45.62245" lon="6.60838">
        <ele>2213.6000976562</ele>
        <time>2012-09-09T08:58:07Z</time>
      </trkpt>
      <trkpt lat="45.62247" lon="6.60837">
        <ele>2215</ele>
        <time>2012-09-09T08:58:09Z</time>
      </trkpt>
      <trkpt lat="45.62251" lon="6.60836">
        <ele>2216.1999511719</ele>
        <time>2012-09-09T08:58:13Z</time>
      </trkpt>
      <trkpt lat="45.62254" lon="6.60838">
        <ele>2218.3999023438</ele>
        <time>2012-09-09T08:58:19Z</time>
      </trkpt>
      <trkpt lat="45.62254" lon="6.60843">
        <ele>2219.3999023438</ele>
        <time>2012-09-09T08:58:24Z</time>
      </trkpt>
      <trkpt lat="45.62253" lon="6.60846">
        <ele>2220.3999023438</ele>
        <time>2012-09-09T08:58:28Z</time>
      </trkpt>
      <trkpt lat="45.62255" lon="6.6085">
        <ele>2221.6000976562</ele>
        <time>2012-09-09T08:58:33Z</time>
      </trkpt>
      <trkpt lat="45.62254" lon="6.60854">
        <ele>2222.6000976562</ele>
        <time>2012-09-09T08:58:38Z</time>
      </trkpt>
      <trkpt lat="45.62253" lon="6.60858">
        <ele>2223.6000976562</ele>
        <time>2012-09-09T08:58:42Z</time>
      </trkpt>
      <trkpt lat="45.62257" lon="6.60863">
        <ele>2224.8000488281</ele>
        <time>2012-09-09T08:58:50Z</time>
      </trkpt>
      <trkpt lat="45.62265" lon="6.60865">
        <ele>2226.8000488281</ele>
        <time>2012-09-09T08:58:59Z</time>
      </trkpt>
      <trkpt lat="45.6227" lon="6.60867">
        <ele>2228</ele>
        <time>2012-09-09T08:59:04Z</time>
      </trkpt>
      <trkpt lat="45.62276" lon="6.6087">
        <ele>2229</ele>
        <time>2012-09-09T08:59:10Z</time>
      </trkpt>
      <trkpt lat="45.6228" lon="6.60874">
        <ele>2230.1999511719</ele>
        <time>2012-09-09T08:59:15Z</time>
      </trkpt>
      <trkpt lat="45.62283" lon="6.60876">
        <ele>2231.1999511719</ele>
        <time>2012-09-09T08:59:19Z</time>
      </trkpt>
      <trkpt lat="45.62286" lon="6.60879">
        <ele>2232.1999511719</ele>
        <time>2012-09-09T08:59:24Z</time>
      </trkpt>
      <trkpt lat="45.62289" lon="6.60882">
        <ele>2233.3999023438</ele>
        <time>2012-09-09T08:59:28Z</time>
      </trkpt>
      <trkpt lat="45.62292" lon="6.60888">
        <ele>2234.3999023438</ele>
        <time>2012-09-09T08:59:33Z</time>
      </trkpt>
      <trkpt lat="45.62293" lon="6.60893">
        <ele>2235.6000976562</ele>
        <time>2012-09-09T08:59:38Z</time>
      </trkpt>
      <trkpt lat="45.62294" lon="6.60895">
        <ele>2235.6000976562</ele>
        <time>2012-09-09T08:59:40Z</time>
      </trkpt>
      <trkpt lat="45.62296" lon="6.60898">
        <ele>2236.6000976562</ele>
        <time>2012-09-09T08:59:44Z</time>
      </trkpt>
      <trkpt lat="45.62301" lon="6.60907">
        <ele>2236.6000976562</ele>
        <time>2012-09-09T08:59:50Z</time>
      </trkpt>
      <trkpt lat="45.62304" lon="6.60911">
        <ele>2237.6000976562</ele>
        <time>2012-09-09T08:59:55Z</time>
      </trkpt>
      <trkpt lat="45.62313" lon="6.60912">
        <ele>2237.6000976562</ele>
        <time>2012-09-09T09:00:01Z</time>
      </trkpt>
      <trkpt lat="45.62318" lon="6.60913">
        <ele>2238.6000976562</ele>
        <time>2012-09-09T09:00:06Z</time>
      </trkpt>
      <trkpt lat="45.62321" lon="6.60915">
        <ele>2239.8000488281</ele>
        <time>2012-09-09T09:00:10Z</time>
      </trkpt>
      <trkpt lat="45.62331" lon="6.60922">
        <ele>2239.8000488281</ele>
        <time>2012-09-09T09:00:19Z</time>
      </trkpt>
      <trkpt lat="45.62341" lon="6.60925">
        <ele>2240.8000488281</ele>
        <time>2012-09-09T09:00:27Z</time>
      </trkpt>
      <trkpt lat="45.62348" lon="6.60929">
        <ele>2240.8000488281</ele>
        <time>2012-09-09T09:00:32Z</time>
      </trkpt>
      <trkpt lat="45.62355" lon="6.60935">
        <ele>2240.8000488281</ele>
        <time>2012-09-09T09:00:38Z</time>
      </trkpt>
      <trkpt lat="45.62362" lon="6.6094">
        <ele>2240.8000488281</ele>
        <time>2012-09-09T09:00:44Z</time>
      </trkpt>
      <trkpt lat="45.62368" lon="6.6095">
        <ele>2240.8000488281</ele>
        <time>2012-09-09T09:00:52Z</time>
      </trkpt>
      <trkpt lat="45.6237" lon="6.60955">
        <ele>2242</ele>
        <time>2012-09-09T09:00:56Z</time>
      </trkpt>
      <trkpt lat="45.62376" lon="6.60963">
        <ele>2244</ele>
        <time>2012-09-09T09:01:04Z</time>
      </trkpt>
      <trkpt lat="45.62378" lon="6.60964">
        <ele>2244</ele>
        <time>2012-09-09T09:01:07Z</time>
      </trkpt>
      <trkpt lat="45.6238" lon="6.60965">
        <ele>2245</ele>
        <time>2012-09-09T09:01:09Z</time>
      </trkpt>
      <trkpt lat="45.62385" lon="6.60969">
        <ele>2247.1999511719</ele>
        <time>2012-09-09T09:01:15Z</time>
      </trkpt>
      <trkpt lat="45.62386" lon="6.6097">
        <ele>2248.1999511719</ele>
        <time>2012-09-09T09:01:18Z</time>
      </trkpt>
      <trkpt lat="45.62389" lon="6.60971">
        <ele>2248.1999511719</ele>
        <time>2012-09-09T09:01:21Z</time>
      </trkpt>
      <trkpt lat="45.62396" lon="6.60976">
        <ele>2248.1999511719</ele>
        <time>2012-09-09T09:01:28Z</time>
      </trkpt>
      <trkpt lat="45.624" lon="6.60979">
        <ele>2248.1999511719</ele>
        <time>2012-09-09T09:01:32Z</time>
      </trkpt>
      <trkpt lat="45.62409" lon="6.60981">
        <ele>2248.1999511719</ele>
        <time>2012-09-09T09:01:41Z</time>
      </trkpt>
      <trkpt lat="45.62422" lon="6.60996">
        <ele>2248.1999511719</ele>
        <time>2012-09-09T09:01:54Z</time>
      </trkpt>
      <trkpt lat="45.62425" lon="6.60996">
        <ele>2248.1999511719</ele>
        <time>2012-09-09T09:01:59Z</time>
      </trkpt>
      <trkpt lat="45.62426" lon="6.60995">
        <ele>2250.1999511719</ele>
        <time>2012-09-09T09:02:04Z</time>
      </trkpt>
      <trkpt lat="45.6243" lon="6.60995">
        <ele>2252.3999023438</ele>
        <time>2012-09-09T09:02:13Z</time>
      </trkpt>
      <trkpt lat="45.62435" lon="6.60997">
        <ele>2252.3999023438</ele>
        <time>2012-09-09T09:02:19Z</time>
      </trkpt>
      <trkpt lat="45.62441" lon="6.60999">
        <ele>2253.3999023438</ele>
        <time>2012-09-09T09:02:25Z</time>
      </trkpt>
      <trkpt lat="45.62444" lon="6.61">
        <ele>2254.6000976562</ele>
        <time>2012-09-09T09:02:29Z</time>
      </trkpt>
      <trkpt lat="45.62445" lon="6.61001">
        <ele>2255.6000976562</ele>
        <time>2012-09-09T09:02:31Z</time>
      </trkpt>
      <trkpt lat="45.6245" lon="6.61004">
        <ele>2256.6000976562</ele>
        <time>2012-09-09T09:02:39Z</time>
      </trkpt>
      <trkpt lat="45.62451" lon="6.61004">
        <ele>2257.8000488281</ele>
        <time>2012-09-09T09:02:42Z</time>
      </trkpt>
      <trkpt lat="45.62453" lon="6.61003">
        <ele>2259.8000488281</ele>
        <time>2012-09-09T09:02:53Z</time>
      </trkpt>
      <trkpt lat="45.62455" lon="6.61004">
        <ele>2260.8000488281</ele>
        <time>2012-09-09T09:02:57Z</time>
      </trkpt>
      <trkpt lat="45.62458" lon="6.61004">
        <ele>2261.8000488281</ele>
        <time>2012-09-09T09:03:03Z</time>
      </trkpt>
      <trkpt lat="45.62459" lon="6.61004">
        <ele>2263</ele>
        <time>2012-09-09T09:03:06Z</time>
      </trkpt>
      <trkpt lat="45.62462" lon="6.61006">
        <ele>2264</ele>
        <time>2012-09-09T09:03:10Z</time>
      </trkpt>
      <trkpt lat="45.62463" lon="6.61011">
        <ele>2264</ele>
        <time>2012-09-09T09:03:19Z</time>
      </trkpt>
      <trkpt lat="45.6247" lon="6.61013">
        <ele>2265</ele>
        <time>2012-09-09T09:03:25Z</time>
      </trkpt>
      <trkpt lat="45.62486" lon="6.61011">
        <ele>2265</ele>
        <time>2012-09-09T09:03:40Z</time>
      </trkpt>
      <trkpt lat="45.62508" lon="6.61011">
        <ele>2265</ele>
        <time>2012-09-09T09:03:50Z</time>
      </trkpt>
      <trkpt lat="45.62533" lon="6.61021">
        <ele>2265</ele>
        <time>2012-09-09T09:04:01Z</time>
      </trkpt>
      <trkpt lat="45.62545" lon="6.61028">
        <ele>2262</ele>
        <time>2012-09-09T09:04:06Z</time>
      </trkpt>
      <trkpt lat="45.6255" lon="6.6103">
        <ele>2261</ele>
        <time>2012-09-09T09:04:08Z</time>
      </trkpt>
      <trkpt lat="45.62558" lon="6.61037">
        <ele>2261</ele>
        <time>2012-09-09T09:04:12Z</time>
      </trkpt>
      <trkpt lat="45.62587" lon="6.61053">
        <ele>2261</ele>
        <time>2012-09-09T09:04:25Z</time>
      </trkpt>
      <trkpt lat="45.6261" lon="6.61067">
        <ele>2259.8000488281</ele>
        <time>2012-09-09T09:04:35Z</time>
      </trkpt>
      <trkpt lat="45.62627" lon="6.61084">
        <ele>2258.3999023438</ele>
        <time>2012-09-09T09:04:43Z</time>
      </trkpt>
      <trkpt lat="45.62644" lon="6.61091">
        <ele>2258.3999023438</ele>
        <time>2012-09-09T09:04:50Z</time>
      </trkpt>
      <trkpt lat="45.62661" lon="6.61101">
        <ele>2257.3999023438</ele>
        <time>2012-09-09T09:04:57Z</time>
      </trkpt>
      <trkpt lat="45.62679" lon="6.61123">
        <ele>2257.3999023438</ele>
        <time>2012-09-09T09:05:08Z</time>
      </trkpt>
      <trkpt lat="45.62681" lon="6.61127">
        <ele>2257.3999023438</ele>
        <time>2012-09-09T09:05:10Z</time>
      </trkpt>
      <trkpt lat="45.62697" lon="6.61137">
        <ele>2260.3999023438</ele>
        <time>2012-09-09T09:05:18Z</time>
      </trkpt>
      <trkpt lat="45.62717" lon="6.61143">
        <ele>2260.3999023438</ele>
        <time>2012-09-09T09:05:26Z</time>
      </trkpt>
      <trkpt lat="45.62734" lon="6.61163">
        <ele>2260.3999023438</ele>
        <time>2012-09-09T09:05:34Z</time>
      </trkpt>
      <trkpt lat="45.62739" lon="6.61176">
        <ele>2257.1999511719</ele>
        <time>2012-09-09T09:05:38Z</time>
      </trkpt>
      <trkpt lat="45.62749" lon="6.61204">
        <ele>2257.1999511719</ele>
        <time>2012-09-09T09:05:48Z</time>
      </trkpt>
      <trkpt lat="45.62761" lon="6.61215">
        <ele>2257.1999511719</ele>
        <time>2012-09-09T09:05:54Z</time>
      </trkpt>
      <trkpt lat="45.62769" lon="6.61225">
        <ele>2257.1999511719</ele>
        <time>2012-09-09T09:05:59Z</time>
      </trkpt>
      <trkpt lat="45.62766" lon="6.61235">
        <ele>2257.1999511719</ele>
        <time>2012-09-09T09:06:03Z</time>
      </trkpt>
      <trkpt lat="45.62757" lon="6.61271">
        <ele>2257.1999511719</ele>
        <time>2012-09-09T09:06:14Z</time>
      </trkpt>
      <trkpt lat="45.62753" lon="6.61283">
        <ele>2256.1999511719</ele>
        <time>2012-09-09T09:06:18Z</time>
      </trkpt>
      <trkpt lat="45.62748" lon="6.61294">
        <ele>2255.1999511719</ele>
        <time>2012-09-09T09:06:21Z</time>
      </trkpt>
      <trkpt lat="45.62743" lon="6.6132">
        <ele>2255.1999511719</ele>
        <time>2012-09-09T09:06:29Z</time>
      </trkpt>
      <trkpt lat="45.62743" lon="6.6134">
        <ele>2255.1999511719</ele>
        <time>2012-09-09T09:06:37Z</time>
      </trkpt>
      <trkpt lat="45.62736" lon="6.61358">
        <ele>2255.1999511719</ele>
        <time>2012-09-09T09:06:44Z</time>
      </trkpt>
      <trkpt lat="45.62734" lon="6.6137">
        <ele>2255.1999511719</ele>
        <time>2012-09-09T09:06:49Z</time>
      </trkpt>
      <trkpt lat="45.62731" lon="6.61378">
        <ele>2255.1999511719</ele>
        <time>2012-09-09T09:06:54Z</time>
      </trkpt>
      <trkpt lat="45.62724" lon="6.61399">
        <ele>2258.1999511719</ele>
        <time>2012-09-09T09:07:07Z</time>
      </trkpt>
      <trkpt lat="45.62718" lon="6.61408">
        <ele>2259.1999511719</ele>
        <time>2012-09-09T09:07:13Z</time>
      </trkpt>
      <trkpt lat="45.62712" lon="6.61417">
        <ele>2260.3999023438</ele>
        <time>2012-09-09T09:07:20Z</time>
      </trkpt>
      <trkpt lat="45.62701" lon="6.6143">
        <ele>2260.3999023438</ele>
        <time>2012-09-09T09:07:30Z</time>
      </trkpt>
      <trkpt lat="45.62695" lon="6.6144">
        <ele>2261.3999023438</ele>
        <time>2012-09-09T09:07:37Z</time>
      </trkpt>
      <trkpt lat="45.6269" lon="6.61453">
        <ele>2262.6000976562</ele>
        <time>2012-09-09T09:07:45Z</time>
      </trkpt>
      <trkpt lat="45.62682" lon="6.61472">
        <ele>2262.6000976562</ele>
        <time>2012-09-09T09:07:53Z</time>
      </trkpt>
      <trkpt lat="45.62666" lon="6.61506">
        <ele>2259.3999023438</ele>
        <time>2012-09-09T09:08:03Z</time>
      </trkpt>
      <trkpt lat="45.62649" lon="6.61525">
        <ele>2259.3999023438</ele>
        <time>2012-09-09T09:08:12Z</time>
      </trkpt>
      <trkpt lat="45.62629" lon="6.61534">
        <ele>2258.1999511719</ele>
        <time>2012-09-09T09:08:21Z</time>
      </trkpt>
      <trkpt lat="45.6262" lon="6.61536">
        <ele>2257</ele>
        <time>2012-09-09T09:08:24Z</time>
      </trkpt>
      <trkpt lat="45.62603" lon="6.61539">
        <ele>2257</ele>
        <time>2012-09-09T09:08:31Z</time>
      </trkpt>
      <trkpt lat="45.62586" lon="6.6154">
        <ele>2257</ele>
        <time>2012-09-09T09:08:42Z</time>
      </trkpt>
      <trkpt lat="45.62581" lon="6.61548">
        <ele>2257</ele>
        <time>2012-09-09T09:08:48Z</time>
      </trkpt>
      <trkpt lat="45.62569" lon="6.61563">
        <ele>2255.8000488281</ele>
        <time>2012-09-09T09:08:56Z</time>
      </trkpt>
      <trkpt lat="45.62568" lon="6.61569">
        <ele>2254.8000488281</ele>
        <time>2012-09-09T09:08:59Z</time>
      </trkpt>
      <trkpt lat="45.62567" lon="6.61573">
        <ele>2253.6000976562</ele>
        <time>2012-09-09T09:09:01Z</time>
      </trkpt>
      <trkpt lat="45.62567" lon="6.61584">
        <ele>2251.1999511719</ele>
        <time>2012-09-09T09:09:05Z</time>
      </trkpt>
      <trkpt lat="45.62558" lon="6.616">
        <ele>2250</ele>
        <time>2012-09-09T09:09:10Z</time>
      </trkpt>
      <trkpt lat="45.62543" lon="6.61623">
        <ele>2250</ele>
        <time>2012-09-09T09:09:19Z</time>
      </trkpt>
      <trkpt lat="45.62537" lon="6.61637">
        <ele>2247.8000488281</ele>
        <time>2012-09-09T09:09:24Z</time>
      </trkpt>
      <trkpt lat="45.6253" lon="6.61651">
        <ele>2247.8000488281</ele>
        <time>2012-09-09T09:09:30Z</time>
      </trkpt>
      <trkpt lat="45.62525" lon="6.61657">
        <ele>2245.6000976562</ele>
        <time>2012-09-09T09:09:35Z</time>
      </trkpt>
      <trkpt lat="45.62523" lon="6.61666">
        <ele>2244.3999023438</ele>
        <time>2012-09-09T09:09:38Z</time>
      </trkpt>
      <trkpt lat="45.62519" lon="6.61673">
        <ele>2243.3999023438</ele>
        <time>2012-09-09T09:09:41Z</time>
      </trkpt>
      <trkpt lat="45.62517" lon="6.61682">
        <ele>2243.3999023438</ele>
        <time>2012-09-09T09:09:47Z</time>
      </trkpt>
      <trkpt lat="45.62512" lon="6.61691">
        <ele>2243.3999023438</ele>
        <time>2012-09-09T09:09:54Z</time>
      </trkpt>
      <trkpt lat="45.62507" lon="6.61697">
        <ele>2241.1999511719</ele>
        <time>2012-09-09T09:09:58Z</time>
      </trkpt>
      <trkpt lat="45.62506" lon="6.61699">
        <ele>2240</ele>
        <time>2012-09-09T09:10:01Z</time>
      </trkpt>
      <trkpt lat="45.62507" lon="6.61707">
        <ele>2239</ele>
        <time>2012-09-09T09:10:04Z</time>
      </trkpt>
      <trkpt lat="45.62506" lon="6.61714">
        <ele>2238</ele>
        <time>2012-09-09T09:10:08Z</time>
      </trkpt>
      <trkpt lat="45.62501" lon="6.61714">
        <ele>2238</ele>
        <time>2012-09-09T09:10:12Z</time>
      </trkpt>
      <trkpt lat="45.62497" lon="6.61715">
        <ele>2236.8000488281</ele>
        <time>2012-09-09T09:10:15Z</time>
      </trkpt>
      <trkpt lat="45.62491" lon="6.61714">
        <ele>2235.6000976562</ele>
        <time>2012-09-09T09:10:19Z</time>
      </trkpt>
      <trkpt lat="45.62482" lon="6.61716">
        <ele>2233.1999511719</ele>
        <time>2012-09-09T09:10:24Z</time>
      </trkpt>
      <trkpt lat="45.62479" lon="6.61715">
        <ele>2231.8000488281</ele>
        <time>2012-09-09T09:10:26Z</time>
      </trkpt>
      <trkpt lat="45.62474" lon="6.61716">
        <ele>2230.6000976562</ele>
        <time>2012-09-09T09:10:29Z</time>
      </trkpt>
      <trkpt lat="45.62468" lon="6.61719">
        <ele>2228.1999511719</ele>
        <time>2012-09-09T09:10:33Z</time>
      </trkpt>
      <trkpt lat="45.62461" lon="6.61722">
        <ele>2226</ele>
        <time>2012-09-09T09:10:38Z</time>
      </trkpt>
      <trkpt lat="45.62455" lon="6.61727">
        <ele>2224.8000488281</ele>
        <time>2012-09-09T09:10:42Z</time>
      </trkpt>
      <trkpt lat="45.62451" lon="6.61731">
        <ele>2222.6000976562</ele>
        <time>2012-09-09T09:10:45Z</time>
      </trkpt>
      <trkpt lat="45.62445" lon="6.61735">
        <ele>2221.6000976562</ele>
        <time>2012-09-09T09:10:48Z</time>
      </trkpt>
      <trkpt lat="45.62443" lon="6.61737">
        <ele>2220.3999023438</ele>
        <time>2012-09-09T09:10:50Z</time>
      </trkpt>
      <trkpt lat="45.62441" lon="6.61739">
        <ele>2219.3999023438</ele>
        <time>2012-09-09T09:10:54Z</time>
      </trkpt>
      <trkpt lat="45.62438" lon="6.61741">
        <ele>2218.1999511719</ele>
        <time>2012-09-09T09:10:57Z</time>
      </trkpt>
      <trkpt lat="45.62433" lon="6.61746">
        <ele>2217</ele>
        <time>2012-09-09T09:11:02Z</time>
      </trkpt>
      <trkpt lat="45.62425" lon="6.61753">
        <ele>2216</ele>
        <time>2012-09-09T09:11:09Z</time>
      </trkpt>
      <trkpt lat="45.6242" lon="6.61759">
        <ele>2213.8000488281</ele>
        <time>2012-09-09T09:11:14Z</time>
      </trkpt>
      <trkpt lat="45.62418" lon="6.61765">
        <ele>2212.8000488281</ele>
        <time>2012-09-09T09:11:18Z</time>
      </trkpt>
      <trkpt lat="45.62412" lon="6.61794">
        <ele>2211.8000488281</ele>
        <time>2012-09-09T09:11:29Z</time>
      </trkpt>
      <trkpt lat="45.62403" lon="6.61801">
        <ele>2210.6000976562</ele>
        <time>2012-09-09T09:11:34Z</time>
      </trkpt>
      <trkpt lat="45.62391" lon="6.61803">
        <ele>2209.6000976562</ele>
        <time>2012-09-09T09:11:39Z</time>
      </trkpt>
      <trkpt lat="45.62386" lon="6.6181">
        <ele>2207.3999023438</ele>
        <time>2012-09-09T09:11:43Z</time>
      </trkpt>
      <trkpt lat="45.62379" lon="6.61821">
        <ele>2204.6000976562</ele>
        <time>2012-09-09T09:11:48Z</time>
      </trkpt>
      <trkpt lat="45.62373" lon="6.61828">
        <ele>2203.6000976562</ele>
        <time>2012-09-09T09:11:52Z</time>
      </trkpt>
      <trkpt lat="45.62368" lon="6.61834">
        <ele>2202.3999023438</ele>
        <time>2012-09-09T09:11:56Z</time>
      </trkpt>
      <trkpt lat="45.62362" lon="6.61845">
        <ele>2201.1999511719</ele>
        <time>2012-09-09T09:12:01Z</time>
      </trkpt>
      <trkpt lat="45.62352" lon="6.61881">
        <ele>2200.1999511719</ele>
        <time>2012-09-09T09:12:12Z</time>
      </trkpt>
      <trkpt lat="45.62356" lon="6.61902">
        <ele>2200.1999511719</ele>
        <time>2012-09-09T09:12:19Z</time>
      </trkpt>
      <trkpt lat="45.62371" lon="6.61916">
        <ele>2200.1999511719</ele>
        <time>2012-09-09T09:12:33Z</time>
      </trkpt>
      <trkpt lat="45.62375" lon="6.61917">
        <ele>2200.1999511719</ele>
        <time>2012-09-09T09:12:49Z</time>
      </trkpt>
      <trkpt lat="45.62376" lon="6.61915">
        <ele>2200.1999511719</ele>
        <time>2012-09-09T09:13:06Z</time>
      </trkpt>
      <trkpt lat="45.62376" lon="6.61915">
        <ele>2200.1999511719</ele>
        <time>2012-09-09T09:13:12Z</time>
      </trkpt>
      <trkpt lat="45.62382" lon="6.61918">
        <ele>2199</ele>
        <time>2012-09-09T09:13:21Z</time>
      </trkpt>
      <trkpt lat="45.62384" lon="6.61924">
        <ele>2199</ele>
        <time>2012-09-09T09:13:24Z</time>
      </trkpt>
      <trkpt lat="45.62384" lon="6.61934">
        <ele>2196.8000488281</ele>
        <time>2012-09-09T09:13:28Z</time>
      </trkpt>
      <trkpt lat="45.6238" lon="6.61944">
        <ele>2196.8000488281</ele>
        <time>2012-09-09T09:13:32Z</time>
      </trkpt>
      <trkpt lat="45.62374" lon="6.61949">
        <ele>2195.8000488281</ele>
        <time>2012-09-09T09:13:35Z</time>
      </trkpt>
      <trkpt lat="45.62369" lon="6.61951">
        <ele>2193.6000976562</ele>
        <time>2012-09-09T09:13:38Z</time>
      </trkpt>
      <trkpt lat="45.62362" lon="6.61954">
        <ele>2191.3999023438</ele>
        <time>2012-09-09T09:13:42Z</time>
      </trkpt>
      <trkpt lat="45.62355" lon="6.61961">
        <ele>2190.1999511719</ele>
        <time>2012-09-09T09:13:46Z</time>
      </trkpt>
      <trkpt lat="45.6235" lon="6.61965">
        <ele>2187.8000488281</ele>
        <time>2012-09-09T09:13:50Z</time>
      </trkpt>
      <trkpt lat="45.62346" lon="6.61967">
        <ele>2185.3999023438</ele>
        <time>2012-09-09T09:13:52Z</time>
      </trkpt>
      <trkpt lat="45.62337" lon="6.61979">
        <ele>2184.1999511719</ele>
        <time>2012-09-09T09:13:58Z</time>
      </trkpt>
      <trkpt lat="45.6233" lon="6.61991">
        <ele>2182</ele>
        <time>2012-09-09T09:14:02Z</time>
      </trkpt>
      <trkpt lat="45.62324" lon="6.61998">
        <ele>2180.8000488281</ele>
        <time>2012-09-09T09:14:05Z</time>
      </trkpt>
      <trkpt lat="45.62316" lon="6.62012">
        <ele>2178.6000976562</ele>
        <time>2012-09-09T09:14:10Z</time>
      </trkpt>
      <trkpt lat="45.62314" lon="6.62016">
        <ele>2177.6000976562</ele>
        <time>2012-09-09T09:14:12Z</time>
      </trkpt>
      <trkpt lat="45.62313" lon="6.62029">
        <ele>2176.1999511719</ele>
        <time>2012-09-09T09:14:16Z</time>
      </trkpt>
      <trkpt lat="45.62312" lon="6.62037">
        <ele>2174</ele>
        <time>2012-09-09T09:14:19Z</time>
      </trkpt>
      <trkpt lat="45.62307" lon="6.62037">
        <ele>2173</ele>
        <time>2012-09-09T09:14:22Z</time>
      </trkpt>
      <trkpt lat="45.62299" lon="6.62029">
        <ele>2170.6000976562</ele>
        <time>2012-09-09T09:14:27Z</time>
      </trkpt>
      <trkpt lat="45.62293" lon="6.62029">
        <ele>2170.6000976562</ele>
        <time>2012-09-09T09:14:30Z</time>
      </trkpt>
      <trkpt lat="45.62289" lon="6.62023">
        <ele>2168.1999511719</ele>
        <time>2012-09-09T09:14:33Z</time>
      </trkpt>
      <trkpt lat="45.62285" lon="6.62017">
        <ele>2166.8000488281</ele>
        <time>2012-09-09T09:14:36Z</time>
      </trkpt>
      <trkpt lat="45.62281" lon="6.62007">
        <ele>2165.3999023438</ele>
        <time>2012-09-09T09:14:40Z</time>
      </trkpt>
      <trkpt lat="45.62282" lon="6.62004">
        <ele>2165.3999023438</ele>
        <time>2012-09-09T09:14:43Z</time>
      </trkpt>
      <trkpt lat="45.62281" lon="6.61993">
        <ele>2162.6000976562</ele>
        <time>2012-09-09T09:14:47Z</time>
      </trkpt>
      <trkpt lat="45.62282" lon="6.61989">
        <ele>2161.6000976562</ele>
        <time>2012-09-09T09:14:49Z</time>
      </trkpt>
      <trkpt lat="45.62279" lon="6.61985">
        <ele>2160.6000976562</ele>
        <time>2012-09-09T09:14:54Z</time>
      </trkpt>
      <trkpt lat="45.62276" lon="6.61989">
        <ele>2159.3999023438</ele>
        <time>2012-09-09T09:14:56Z</time>
      </trkpt>
      <trkpt lat="45.62271" lon="6.61992">
        <ele>2158</ele>
        <time>2012-09-09T09:14:59Z</time>
      </trkpt>
      <trkpt lat="45.62262" lon="6.61998">
        <ele>2155.8000488281</ele>
        <time>2012-09-09T09:15:03Z</time>
      </trkpt>
      <trkpt lat="45.62258" lon="6.62004">
        <ele>2153.8000488281</ele>
        <time>2012-09-09T09:15:06Z</time>
      </trkpt>
      <trkpt lat="45.62252" lon="6.62005">
        <ele>2152.1999511719</ele>
        <time>2012-09-09T09:15:09Z</time>
      </trkpt>
      <trkpt lat="45.62252" lon="6.61997">
        <ele>2151.1999511719</ele>
        <time>2012-09-09T09:15:12Z</time>
      </trkpt>
      <trkpt lat="45.62249" lon="6.61992">
        <ele>2149.8000488281</ele>
        <time>2012-09-09T09:15:16Z</time>
      </trkpt>
      <trkpt lat="45.62245" lon="6.61992">
        <ele>2147.6000976562</ele>
        <time>2012-09-09T09:15:18Z</time>
      </trkpt>
      <trkpt lat="45.6224" lon="6.62007">
        <ele>2145.3999023438</ele>
        <time>2012-09-09T09:15:24Z</time>
      </trkpt>
      <trkpt lat="45.62235" lon="6.62011">
        <ele>2144.3999023438</ele>
        <time>2012-09-09T09:15:27Z</time>
      </trkpt>
      <trkpt lat="45.62225" lon="6.62014">
        <ele>2143.1999511719</ele>
        <time>2012-09-09T09:15:31Z</time>
      </trkpt>
      <trkpt lat="45.6222" lon="6.62012">
        <ele>2141.8000488281</ele>
        <time>2012-09-09T09:15:34Z</time>
      </trkpt>
      <trkpt lat="45.62213" lon="6.62012">
        <ele>2139.3999023438</ele>
        <time>2012-09-09T09:15:38Z</time>
      </trkpt>
      <trkpt lat="45.62209" lon="6.62011">
        <ele>2138.3999023438</ele>
        <time>2012-09-09T09:15:40Z</time>
      </trkpt>
      <trkpt lat="45.62202" lon="6.62008">
        <ele>2136</ele>
        <time>2012-09-09T09:15:45Z</time>
      </trkpt>
      <trkpt lat="45.62198" lon="6.6201">
        <ele>2133.6000976562</ele>
        <time>2012-09-09T09:15:48Z</time>
      </trkpt>
      <trkpt lat="45.62194" lon="6.62007">
        <ele>2132.3999023438</ele>
        <time>2012-09-09T09:15:51Z</time>
      </trkpt>
      <trkpt lat="45.62194" lon="6.62">
        <ele>2130</ele>
        <time>2012-09-09T09:15:54Z</time>
      </trkpt>
      <trkpt lat="45.62189" lon="6.61998">
        <ele>2128.8000488281</ele>
        <time>2012-09-09T09:15:58Z</time>
      </trkpt>
      <trkpt lat="45.62188" lon="6.62003">
        <ele>2127.8000488281</ele>
        <time>2012-09-09T09:16:00Z</time>
      </trkpt>
      <trkpt lat="45.62186" lon="6.62009">
        <ele>2126.6000976562</ele>
        <time>2012-09-09T09:16:03Z</time>
      </trkpt>
      <trkpt lat="45.62181" lon="6.62005">
        <ele>2125.6000976562</ele>
        <time>2012-09-09T09:16:07Z</time>
      </trkpt>
      <trkpt lat="45.62179" lon="6.61999">
        <ele>2123.3999023438</ele>
        <time>2012-09-09T09:16:10Z</time>
      </trkpt>
      <trkpt lat="45.62178" lon="6.61995">
        <ele>2122.1999511719</ele>
        <time>2012-09-09T09:16:12Z</time>
      </trkpt>
      <trkpt lat="45.62174" lon="6.61996">
        <ele>2122.1999511719</ele>
        <time>2012-09-09T09:16:15Z</time>
      </trkpt>
      <trkpt lat="45.62172" lon="6.62003">
        <ele>2120.1999511719</ele>
        <time>2012-09-09T09:16:18Z</time>
      </trkpt>
      <trkpt lat="45.62168" lon="6.62001">
        <ele>2119</ele>
        <time>2012-09-09T09:16:21Z</time>
      </trkpt>
      <trkpt lat="45.62165" lon="6.61996">
        <ele>2116.6000976562</ele>
        <time>2012-09-09T09:16:24Z</time>
      </trkpt>
      <trkpt lat="45.62163" lon="6.61991">
        <ele>2115.6000976562</ele>
        <time>2012-09-09T09:16:29Z</time>
      </trkpt>
      <trkpt lat="45.62159" lon="6.61995">
        <ele>2114.3999023438</ele>
        <time>2012-09-09T09:16:31Z</time>
      </trkpt>
      <trkpt lat="45.62156" lon="6.61999">
        <ele>2113.3999023438</ele>
        <time>2012-09-09T09:16:34Z</time>
      </trkpt>
      <trkpt lat="45.62155" lon="6.61992">
        <ele>2112.1999511719</ele>
        <time>2012-09-09T09:16:37Z</time>
      </trkpt>
      <trkpt lat="45.62151" lon="6.61994">
        <ele>2110.8000488281</ele>
        <time>2012-09-09T09:16:41Z</time>
      </trkpt>
      <trkpt lat="45.62147" lon="6.61997">
        <ele>2108.6000976562</ele>
        <time>2012-09-09T09:16:45Z</time>
      </trkpt>
      <trkpt lat="45.62145" lon="6.61991">
        <ele>2107.3999023438</ele>
        <time>2012-09-09T09:16:48Z</time>
      </trkpt>
      <trkpt lat="45.62147" lon="6.61983">
        <ele>2106.1999511719</ele>
        <time>2012-09-09T09:16:51Z</time>
      </trkpt>
      <trkpt lat="45.62141" lon="6.61987">
        <ele>2104.1999511719</ele>
        <time>2012-09-09T09:16:59Z</time>
      </trkpt>
      <trkpt lat="45.62139" lon="6.61991">
        <ele>2103.1999511719</ele>
        <time>2012-09-09T09:17:02Z</time>
      </trkpt>
      <trkpt lat="45.62134" lon="6.61989">
        <ele>2102</ele>
        <time>2012-09-09T09:17:05Z</time>
      </trkpt>
      <trkpt lat="45.62132" lon="6.61985">
        <ele>2100.8000488281</ele>
        <time>2012-09-09T09:17:07Z</time>
      </trkpt>
      <trkpt lat="45.62131" lon="6.61977">
        <ele>2099.6000976562</ele>
        <time>2012-09-09T09:17:10Z</time>
      </trkpt>
      <trkpt lat="45.62133" lon="6.61972">
        <ele>2098.3999023438</ele>
        <time>2012-09-09T09:17:12Z</time>
      </trkpt>
      <trkpt lat="45.62129" lon="6.61971">
        <ele>2097.1999511719</ele>
        <time>2012-09-09T09:17:15Z</time>
      </trkpt>
      <trkpt lat="45.62125" lon="6.61973">
        <ele>2096.1999511719</ele>
        <time>2012-09-09T09:17:17Z</time>
      </trkpt>
      <trkpt lat="45.62121" lon="6.61977">
        <ele>2095.1999511719</ele>
        <time>2012-09-09T09:17:20Z</time>
      </trkpt>
      <trkpt lat="45.62116" lon="6.61984">
        <ele>2092.8000488281</ele>
        <time>2012-09-09T09:17:24Z</time>
      </trkpt>
      <trkpt lat="45.62112" lon="6.61981">
        <ele>2091.6000976562</ele>
        <time>2012-09-09T09:17:27Z</time>
      </trkpt>
      <trkpt lat="45.62111" lon="6.61969">
        <ele>2089.6000976562</ele>
        <time>2012-09-09T09:17:32Z</time>
      </trkpt>
      <trkpt lat="45.62111" lon="6.61964">
        <ele>2089.6000976562</ele>
        <time>2012-09-09T09:17:34Z</time>
      </trkpt>
      <trkpt lat="45.62112" lon="6.6196">
        <ele>2087.3999023438</ele>
        <time>2012-09-09T09:17:37Z</time>
      </trkpt>
      <trkpt lat="45.62106" lon="6.6196">
        <ele>2086</ele>
        <time>2012-09-09T09:17:42Z</time>
      </trkpt>
      <trkpt lat="45.62107" lon="6.61955">
        <ele>2084.8000488281</ele>
        <time>2012-09-09T09:17:44Z</time>
      </trkpt>
      <trkpt lat="45.62104" lon="6.61954">
        <ele>2083.8000488281</ele>
        <time>2012-09-09T09:17:47Z</time>
      </trkpt>
      <trkpt lat="45.62096" lon="6.61963">
        <ele>2082.8000488281</ele>
        <time>2012-09-09T09:17:52Z</time>
      </trkpt>
      <trkpt lat="45.62088" lon="6.61969">
        <ele>2082.8000488281</ele>
        <time>2012-09-09T09:17:58Z</time>
      </trkpt>
      <trkpt lat="45.62089" lon="6.61964">
        <ele>2080.6000976562</ele>
        <time>2012-09-09T09:18:00Z</time>
      </trkpt>
      <trkpt lat="45.62089" lon="6.6196">
        <ele>2079.3999023438</ele>
        <time>2012-09-09T09:18:02Z</time>
      </trkpt>
      <trkpt lat="45.62085" lon="6.61959">
        <ele>2077.1999511719</ele>
        <time>2012-09-09T09:18:05Z</time>
      </trkpt>
      <trkpt lat="45.62086" lon="6.61955">
        <ele>2075</ele>
        <time>2012-09-09T09:18:07Z</time>
      </trkpt>
      <trkpt lat="45.62085" lon="6.6195">
        <ele>2073.8000488281</ele>
        <time>2012-09-09T09:18:12Z</time>
      </trkpt>
      <trkpt lat="45.62077" lon="6.61955">
        <ele>2070.6000976562</ele>
        <time>2012-09-09T09:18:17Z</time>
      </trkpt>
      <trkpt lat="45.62073" lon="6.61961">
        <ele>2069.6000976562</ele>
        <time>2012-09-09T09:18:22Z</time>
      </trkpt>
      <trkpt lat="45.62072" lon="6.61953">
        <ele>2067.3999023438</ele>
        <time>2012-09-09T09:18:26Z</time>
      </trkpt>
      <trkpt lat="45.62069" lon="6.61955">
        <ele>2066.1999511719</ele>
        <time>2012-09-09T09:18:29Z</time>
      </trkpt>
      <trkpt lat="45.62065" lon="6.61956">
        <ele>2065</ele>
        <time>2012-09-09T09:18:33Z</time>
      </trkpt>
      <trkpt lat="45.62066" lon="6.6195">
        <ele>2064</ele>
        <time>2012-09-09T09:18:35Z</time>
      </trkpt>
      <trkpt lat="45.62066" lon="6.61942">
        <ele>2061.8000488281</ele>
        <time>2012-09-09T09:18:40Z</time>
      </trkpt>
      <trkpt lat="45.62059" lon="6.61948">
        <ele>2060.6000976562</ele>
        <time>2012-09-09T09:18:44Z</time>
      </trkpt>
      <trkpt lat="45.62056" lon="6.61951">
        <ele>2059.6000976562</ele>
        <time>2012-09-09T09:18:46Z</time>
      </trkpt>
      <trkpt lat="45.62053" lon="6.61954">
        <ele>2058.3999023438</ele>
        <time>2012-09-09T09:18:49Z</time>
      </trkpt>
      <trkpt lat="45.62048" lon="6.61948">
        <ele>2056.1999511719</ele>
        <time>2012-09-09T09:18:56Z</time>
      </trkpt>
      <trkpt lat="45.62047" lon="6.61946">
        <ele>2056.1999511719</ele>
        <time>2012-09-09T09:18:58Z</time>
      </trkpt>
      <trkpt lat="45.62042" lon="6.61947">
        <ele>2055.1999511719</ele>
        <time>2012-09-09T09:19:01Z</time>
      </trkpt>
      <trkpt lat="45.6204" lon="6.61952">
        <ele>2052.8000488281</ele>
        <time>2012-09-09T09:19:04Z</time>
      </trkpt>
      <trkpt lat="45.62038" lon="6.61961">
        <ele>2050.6000976562</ele>
        <time>2012-09-09T09:19:08Z</time>
      </trkpt>
      <trkpt lat="45.62037" lon="6.6197">
        <ele>2049.3999023438</ele>
        <time>2012-09-09T09:19:12Z</time>
      </trkpt>
      <trkpt lat="45.62033" lon="6.61976">
        <ele>2047.1999511719</ele>
        <time>2012-09-09T09:19:16Z</time>
      </trkpt>
      <trkpt lat="45.62031" lon="6.61976">
        <ele>2045.1999511719</ele>
        <time>2012-09-09T09:19:19Z</time>
      </trkpt>
      <trkpt lat="45.62028" lon="6.61981">
        <ele>2044</ele>
        <time>2012-09-09T09:19:22Z</time>
      </trkpt>
      <trkpt lat="45.62026" lon="6.61987">
        <ele>2042.8000488281</ele>
        <time>2012-09-09T09:19:25Z</time>
      </trkpt>
      <trkpt lat="45.62024" lon="6.6199">
        <ele>2041.8000488281</ele>
        <time>2012-09-09T09:19:27Z</time>
      </trkpt>
      <trkpt lat="45.62021" lon="6.61985">
        <ele>2039.5999755859</ele>
        <time>2012-09-09T09:19:30Z</time>
      </trkpt>
      <trkpt lat="45.62015" lon="6.61983">
        <ele>2038.4000244141</ele>
        <time>2012-09-09T09:19:35Z</time>
      </trkpt>
      <trkpt lat="45.62012" lon="6.61991">
        <ele>2035.8000488281</ele>
        <time>2012-09-09T09:19:39Z</time>
      </trkpt>
      <trkpt lat="45.62011" lon="6.61995">
        <ele>2034.5999755859</ele>
        <time>2012-09-09T09:19:41Z</time>
      </trkpt>
      <trkpt lat="45.62006" lon="6.61997">
        <ele>2032.5999755859</ele>
        <time>2012-09-09T09:19:45Z</time>
      </trkpt>
      <trkpt lat="45.62002" lon="6.61989">
        <ele>2030.1999511719</ele>
        <time>2012-09-09T09:19:50Z</time>
      </trkpt>
      <trkpt lat="45.61997" lon="6.61986">
        <ele>2029</ele>
        <time>2012-09-09T09:19:54Z</time>
      </trkpt>
      <trkpt lat="45.61997" lon="6.61981">
        <ele>2027.5999755859</ele>
        <time>2012-09-09T09:19:56Z</time>
      </trkpt>
      <trkpt lat="45.61996" lon="6.61977">
        <ele>2025.5999755859</ele>
        <time>2012-09-09T09:19:58Z</time>
      </trkpt>
      <trkpt lat="45.61995" lon="6.61973">
        <ele>2025.5999755859</ele>
        <time>2012-09-09T09:20:00Z</time>
      </trkpt>
      <trkpt lat="45.6199" lon="6.61967">
        <ele>2023.4000244141</ele>
        <time>2012-09-09T09:20:04Z</time>
      </trkpt>
      <trkpt lat="45.61987" lon="6.61965">
        <ele>2021.4000244141</ele>
        <time>2012-09-09T09:20:07Z</time>
      </trkpt>
      <trkpt lat="45.61982" lon="6.61963">
        <ele>2020.4000244141</ele>
        <time>2012-09-09T09:20:10Z</time>
      </trkpt>
      <trkpt lat="45.61976" lon="6.61959">
        <ele>2019.1999511719</ele>
        <time>2012-09-09T09:20:13Z</time>
      </trkpt>
      <trkpt lat="45.61969" lon="6.61955">
        <ele>2017</ele>
        <time>2012-09-09T09:20:17Z</time>
      </trkpt>
      <trkpt lat="45.61967" lon="6.61951">
        <ele>2015</ele>
        <time>2012-09-09T09:20:19Z</time>
      </trkpt>
      <trkpt lat="45.61958" lon="6.61944">
        <ele>2012.4000244141</ele>
        <time>2012-09-09T09:20:26Z</time>
      </trkpt>
      <trkpt lat="45.61955" lon="6.61942">
        <ele>2010.4000244141</ele>
        <time>2012-09-09T09:20:28Z</time>
      </trkpt>
      <trkpt lat="45.61951" lon="6.6194">
        <ele>2009.4000244141</ele>
        <time>2012-09-09T09:20:30Z</time>
      </trkpt>
      <trkpt lat="45.61948" lon="6.61934">
        <ele>2007</ele>
        <time>2012-09-09T09:20:33Z</time>
      </trkpt>
      <trkpt lat="45.61944" lon="6.61931">
        <ele>2006</ele>
        <time>2012-09-09T09:20:36Z</time>
      </trkpt>
      <trkpt lat="45.6194" lon="6.61927">
        <ele>2004</ele>
        <time>2012-09-09T09:20:39Z</time>
      </trkpt>
      <trkpt lat="45.61934" lon="6.6192">
        <ele>2001.5999755859</ele>
        <time>2012-09-09T09:20:44Z</time>
      </trkpt>
      <trkpt lat="45.6193" lon="6.61914">
        <ele>2000.5999755859</ele>
        <time>2012-09-09T09:20:47Z</time>
      </trkpt>
      <trkpt lat="45.61925" lon="6.61908">
        <ele>1998.4000244141</ele>
        <time>2012-09-09T09:20:50Z</time>
      </trkpt>
      <trkpt lat="45.61919" lon="6.61901">
        <ele>1997.1999511719</ele>
        <time>2012-09-09T09:20:54Z</time>
      </trkpt>
      <trkpt lat="45.61919" lon="6.61897">
        <ele>1996</ele>
        <time>2012-09-09T09:20:57Z</time>
      </trkpt>
      <trkpt lat="45.61916" lon="6.61889">
        <ele>1996</ele>
        <time>2012-09-09T09:21:02Z</time>
      </trkpt>
      <trkpt lat="45.61907" lon="6.61873">
        <ele>1995</ele>
        <time>2012-09-09T09:21:08Z</time>
      </trkpt>
      <trkpt lat="45.61901" lon="6.6186">
        <ele>1993.5999755859</ele>
        <time>2012-09-09T09:21:13Z</time>
      </trkpt>
      <trkpt lat="45.61898" lon="6.61846">
        <ele>1991.5999755859</ele>
        <time>2012-09-09T09:21:18Z</time>
      </trkpt>
      <trkpt lat="45.61896" lon="6.61842">
        <ele>1989.4000244141</ele>
        <time>2012-09-09T09:21:20Z</time>
      </trkpt>
      <trkpt lat="45.6189" lon="6.61833">
        <ele>1987</ele>
        <time>2012-09-09T09:21:25Z</time>
      </trkpt>
      <trkpt lat="45.61886" lon="6.61832">
        <ele>1985</ele>
        <time>2012-09-09T09:21:28Z</time>
      </trkpt>
      <trkpt lat="45.61881" lon="6.61832">
        <ele>1983.8000488281</ele>
        <time>2012-09-09T09:21:31Z</time>
      </trkpt>
      <trkpt lat="45.61874" lon="6.61835">
        <ele>1981.5999755859</ele>
        <time>2012-09-09T09:21:36Z</time>
      </trkpt>
      <trkpt lat="45.61866" lon="6.61838">
        <ele>1979.1999511719</ele>
        <time>2012-09-09T09:21:41Z</time>
      </trkpt>
      <trkpt lat="45.61863" lon="6.61835">
        <ele>1978.1999511719</ele>
        <time>2012-09-09T09:21:44Z</time>
      </trkpt>
      <trkpt lat="45.61853" lon="6.61835">
        <ele>1976.8000488281</ele>
        <time>2012-09-09T09:21:48Z</time>
      </trkpt>
      <trkpt lat="45.61837" lon="6.61842">
        <ele>1975.8000488281</ele>
        <time>2012-09-09T09:21:54Z</time>
      </trkpt>
      <trkpt lat="45.61826" lon="6.61846">
        <ele>1974.5999755859</ele>
        <time>2012-09-09T09:21:58Z</time>
      </trkpt>
      <trkpt lat="45.61817" lon="6.61852">
        <ele>1972.4000244141</ele>
        <time>2012-09-09T09:22:02Z</time>
      </trkpt>
      <trkpt lat="45.61803" lon="6.61854">
        <ele>1971</ele>
        <time>2012-09-09T09:22:08Z</time>
      </trkpt>
      <trkpt lat="45.61798" lon="6.61854">
        <ele>1968.5999755859</ele>
        <time>2012-09-09T09:22:10Z</time>
      </trkpt>
      <trkpt lat="45.61787" lon="6.61852">
        <ele>1967.1999511719</ele>
        <time>2012-09-09T09:22:14Z</time>
      </trkpt>
      <trkpt lat="45.61774" lon="6.61848">
        <ele>1966.1999511719</ele>
        <time>2012-09-09T09:22:19Z</time>
      </trkpt>
      <trkpt lat="45.61761" lon="6.61848">
        <ele>1964</ele>
        <time>2012-09-09T09:22:24Z</time>
      </trkpt>
      <trkpt lat="45.61748" lon="6.61855">
        <ele>1961.8000488281</ele>
        <time>2012-09-09T09:22:29Z</time>
      </trkpt>
      <trkpt lat="45.61734" lon="6.61861">
        <ele>1960.5999755859</ele>
        <time>2012-09-09T09:22:34Z</time>
      </trkpt>
      <trkpt lat="45.61721" lon="6.61863">
        <ele>1958.1999511719</ele>
        <time>2012-09-09T09:22:39Z</time>
      </trkpt>
      <trkpt lat="45.61707" lon="6.61862">
        <ele>1957.1999511719</ele>
        <time>2012-09-09T09:22:44Z</time>
      </trkpt>
      <trkpt lat="45.61706" lon="6.61862">
        <ele>1956.1999511719</ele>
        <time>2012-09-09T09:22:47Z</time>
      </trkpt>
      <trkpt lat="45.617" lon="6.61859">
        <ele>1956.1999511719</ele>
        <time>2012-09-09T09:22:58Z</time>
      </trkpt>
      <trkpt lat="45.61681" lon="6.61853">
        <ele>1955</ele>
        <time>2012-09-09T09:23:05Z</time>
      </trkpt>
      <trkpt lat="45.61669" lon="6.61851">
        <ele>1954</ele>
        <time>2012-09-09T09:23:10Z</time>
      </trkpt>
      <trkpt lat="45.61652" lon="6.61845">
        <ele>1953</ele>
        <time>2012-09-09T09:23:17Z</time>
      </trkpt>
      <trkpt lat="45.61637" lon="6.61835">
        <ele>1951.8000488281</ele>
        <time>2012-09-09T09:23:23Z</time>
      </trkpt>
      <trkpt lat="45.61627" lon="6.61822">
        <ele>1949.5999755859</ele>
        <time>2012-09-09T09:23:29Z</time>
      </trkpt>
      <trkpt lat="45.61623" lon="6.61829">
        <ele>1949.5999755859</ele>
        <time>2012-09-09T09:23:32Z</time>
      </trkpt>
      <trkpt lat="45.61608" lon="6.61822">
        <ele>1949.5999755859</ele>
        <time>2012-09-09T09:23:39Z</time>
      </trkpt>
      <trkpt lat="45.61597" lon="6.61821">
        <ele>1949.5999755859</ele>
        <time>2012-09-09T09:23:44Z</time>
      </trkpt>
      <trkpt lat="45.61584" lon="6.6182">
        <ele>1949.5999755859</ele>
        <time>2012-09-09T09:23:52Z</time>
      </trkpt>
      <trkpt lat="45.61584" lon="6.6182">
        <ele>1949.5999755859</ele>
        <time>2012-09-09T09:24:07Z</time>
      </trkpt>
      <trkpt lat="45.61585" lon="6.6182">
        <ele>1949.5999755859</ele>
        <time>2012-09-09T09:24:25Z</time>
      </trkpt>
      <trkpt lat="45.61584" lon="6.61816">
        <ele>1949.5999755859</ele>
        <time>2012-09-09T09:24:33Z</time>
      </trkpt>
      <trkpt lat="45.61589" lon="6.61812">
        <ele>1949.5999755859</ele>
        <time>2012-09-09T09:24:39Z</time>
      </trkpt>
      <trkpt lat="45.61597" lon="6.61803">
        <ele>1949.5999755859</ele>
        <time>2012-09-09T09:24:46Z</time>
      </trkpt>
      <trkpt lat="45.61613" lon="6.61785">
        <ele>1949.5999755859</ele>
        <time>2012-09-09T09:25:02Z</time>
      </trkpt>
      <trkpt lat="45.61619" lon="6.61769">
        <ele>1954</ele>
        <time>2012-09-09T09:25:13Z</time>
      </trkpt>
      <trkpt lat="45.6162" lon="6.61759">
        <ele>1955.1999511719</ele>
        <time>2012-09-09T09:25:19Z</time>
      </trkpt>
      <trkpt lat="45.61619" lon="6.61749">
        <ele>1956.1999511719</ele>
        <time>2012-09-09T09:25:25Z</time>
      </trkpt>
      <trkpt lat="45.61619" lon="6.61744">
        <ele>1956.1999511719</ele>
        <time>2012-09-09T09:25:28Z</time>
      </trkpt>
      <trkpt lat="45.61619" lon="6.61741">
        <ele>1957.1999511719</ele>
        <time>2012-09-09T09:25:31Z</time>
      </trkpt>
      <trkpt lat="45.6162" lon="6.61735">
        <ele>1957.1999511719</ele>
        <time>2012-09-09T09:25:34Z</time>
      </trkpt>
      <trkpt lat="45.61621" lon="6.6173">
        <ele>1958.4000244141</ele>
        <time>2012-09-09T09:25:37Z</time>
      </trkpt>
      <trkpt lat="45.61621" lon="6.61725">
        <ele>1959.4000244141</ele>
        <time>2012-09-09T09:25:40Z</time>
      </trkpt>
      <trkpt lat="45.6162" lon="6.61708">
        <ele>1960.4000244141</ele>
        <time>2012-09-09T09:25:49Z</time>
      </trkpt>
      <trkpt lat="45.6162" lon="6.61701">
        <ele>1960.4000244141</ele>
        <time>2012-09-09T09:25:53Z</time>
      </trkpt>
      <trkpt lat="45.61623" lon="6.61692">
        <ele>1961.4000244141</ele>
        <time>2012-09-09T09:25:59Z</time>
      </trkpt>
      <trkpt lat="45.61626" lon="6.61678">
        <ele>1962.4000244141</ele>
        <time>2012-09-09T09:26:06Z</time>
      </trkpt>
      <trkpt lat="45.61629" lon="6.61659">
        <ele>1963.4000244141</ele>
        <time>2012-09-09T09:26:16Z</time>
      </trkpt>
      <trkpt lat="45.61631" lon="6.61649">
        <ele>1964.5999755859</ele>
        <time>2012-09-09T09:26:22Z</time>
      </trkpt>
      <trkpt lat="45.61633" lon="6.61643">
        <ele>1965.5999755859</ele>
        <time>2012-09-09T09:26:27Z</time>
      </trkpt>
      <trkpt lat="45.61635" lon="6.61636">
        <ele>1966.8000488281</ele>
        <time>2012-09-09T09:26:32Z</time>
      </trkpt>
      <trkpt lat="45.61638" lon="6.61628">
        <ele>1968</ele>
        <time>2012-09-09T09:26:37Z</time>
      </trkpt>
      <trkpt lat="45.6164" lon="6.61621">
        <ele>1968</ele>
        <time>2012-09-09T09:26:41Z</time>
      </trkpt>
      <trkpt lat="45.61641" lon="6.61612">
        <ele>1970.1999511719</ele>
        <time>2012-09-09T09:26:48Z</time>
      </trkpt>
      <trkpt lat="45.61641" lon="6.61609">
        <ele>1970.1999511719</ele>
        <time>2012-09-09T09:26:51Z</time>
      </trkpt>
      <trkpt lat="45.61643" lon="6.61606">
        <ele>1970.1999511719</ele>
        <time>2012-09-09T09:27:01Z</time>
      </trkpt>
      <trkpt lat="45.61645" lon="6.61602">
        <ele>1971.1999511719</ele>
        <time>2012-09-09T09:27:09Z</time>
      </trkpt>
      <trkpt lat="45.61647" lon="6.61597">
        <ele>1972.1999511719</ele>
        <time>2012-09-09T09:27:14Z</time>
      </trkpt>
      <trkpt lat="45.61647" lon="6.61587">
        <ele>1973.8000488281</ele>
        <time>2012-09-09T09:27:25Z</time>
      </trkpt>
      <trkpt lat="45.61647" lon="6.61581">
        <ele>1974.8000488281</ele>
        <time>2012-09-09T09:27:29Z</time>
      </trkpt>
      <trkpt lat="45.6165" lon="6.61567">
        <ele>1975.8000488281</ele>
        <time>2012-09-09T09:27:37Z</time>
      </trkpt>
      <trkpt lat="45.61651" lon="6.61562">
        <ele>1975.8000488281</ele>
        <time>2012-09-09T09:27:40Z</time>
      </trkpt>
      <trkpt lat="45.61657" lon="6.61551">
        <ele>1976.8000488281</ele>
        <time>2012-09-09T09:27:48Z</time>
      </trkpt>
      <trkpt lat="45.61664" lon="6.61537">
        <ele>1976.8000488281</ele>
        <time>2012-09-09T09:27:57Z</time>
      </trkpt>
      <trkpt lat="45.61671" lon="6.61527">
        <ele>1978</ele>
        <time>2012-09-09T09:28:04Z</time>
      </trkpt>
      <trkpt lat="45.61675" lon="6.61517">
        <ele>1980.1999511719</ele>
        <time>2012-09-09T09:28:11Z</time>
      </trkpt>
      <trkpt lat="45.61674" lon="6.61505">
        <ele>1980.1999511719</ele>
        <time>2012-09-09T09:28:17Z</time>
      </trkpt>
      <trkpt lat="45.61677" lon="6.61497">
        <ele>1980.1999511719</ele>
        <time>2012-09-09T09:28:23Z</time>
      </trkpt>
      <trkpt lat="45.61685" lon="6.61501">
        <ele>1981.1999511719</ele>
        <time>2012-09-09T09:28:29Z</time>
      </trkpt>
      <trkpt lat="45.61696" lon="6.615">
        <ele>1981.1999511719</ele>
        <time>2012-09-09T09:28:38Z</time>
      </trkpt>
      <trkpt lat="45.617" lon="6.61497">
        <ele>1983.4000244141</ele>
        <time>2012-09-09T09:28:42Z</time>
      </trkpt>
      <trkpt lat="45.61701" lon="6.61492">
        <ele>1983.4000244141</ele>
        <time>2012-09-09T09:28:45Z</time>
      </trkpt>
      <trkpt lat="45.61706" lon="6.61484">
        <ele>1984.4000244141</ele>
        <time>2012-09-09T09:28:51Z</time>
      </trkpt>
      <trkpt lat="45.61713" lon="6.61476">
        <ele>1986.5999755859</ele>
        <time>2012-09-09T09:28:58Z</time>
      </trkpt>
      <trkpt lat="45.61713" lon="6.61467">
        <ele>1987.5999755859</ele>
        <time>2012-09-09T09:29:05Z</time>
      </trkpt>
      <trkpt lat="45.61706" lon="6.61467">
        <ele>1988.8000488281</ele>
        <time>2012-09-09T09:29:11Z</time>
      </trkpt>
      <trkpt lat="45.61695" lon="6.61467">
        <ele>1989.8000488281</ele>
        <time>2012-09-09T09:29:20Z</time>
      </trkpt>
      <trkpt lat="45.6168" lon="6.61463">
        <ele>1990.8000488281</ele>
        <time>2012-09-09T09:29:32Z</time>
      </trkpt>
      <trkpt lat="45.61676" lon="6.6146">
        <ele>1990.8000488281</ele>
        <time>2012-09-09T09:29:35Z</time>
      </trkpt>
      <trkpt lat="45.6168" lon="6.61453">
        <ele>1992</ele>
        <time>2012-09-09T09:29:42Z</time>
      </trkpt>
      <trkpt lat="45.61684" lon="6.61452">
        <ele>1993</ele>
        <time>2012-09-09T09:29:45Z</time>
      </trkpt>
      <trkpt lat="45.61692" lon="6.6145">
        <ele>1993</ele>
        <time>2012-09-09T09:29:51Z</time>
      </trkpt>
      <trkpt lat="45.61694" lon="6.61447">
        <ele>1994</ele>
        <time>2012-09-09T09:29:54Z</time>
      </trkpt>
      <trkpt lat="45.61694" lon="6.61444">
        <ele>1995</ele>
        <time>2012-09-09T09:29:57Z</time>
      </trkpt>
      <trkpt lat="45.6169" lon="6.61442">
        <ele>1996</ele>
        <time>2012-09-09T09:30:01Z</time>
      </trkpt>
      <trkpt lat="45.61682" lon="6.61438">
        <ele>1997.1999511719</ele>
        <time>2012-09-09T09:30:08Z</time>
      </trkpt>
      <trkpt lat="45.61672" lon="6.61428">
        <ele>1997.1999511719</ele>
        <time>2012-09-09T09:30:18Z</time>
      </trkpt>
      <trkpt lat="45.61666" lon="6.61421">
        <ele>1998.1999511719</ele>
        <time>2012-09-09T09:30:24Z</time>
      </trkpt>
      <trkpt lat="45.61667" lon="6.61415">
        <ele>1999.1999511719</ele>
        <time>2012-09-09T09:30:27Z</time>
      </trkpt>
      <trkpt lat="45.61671" lon="6.61415">
        <ele>2000.1999511719</ele>
        <time>2012-09-09T09:30:30Z</time>
      </trkpt>
      <trkpt lat="45.61676" lon="6.61416">
        <ele>2001.4000244141</ele>
        <time>2012-09-09T09:30:35Z</time>
      </trkpt>
      <trkpt lat="45.61679" lon="6.61415">
        <ele>2002.4000244141</ele>
        <time>2012-09-09T09:30:39Z</time>
      </trkpt>
      <trkpt lat="45.61679" lon="6.61413">
        <ele>2002.4000244141</ele>
        <time>2012-09-09T09:30:41Z</time>
      </trkpt>
      <trkpt lat="45.61674" lon="6.61409">
        <ele>2003.4000244141</ele>
        <time>2012-09-09T09:30:47Z</time>
      </trkpt>
      <trkpt lat="45.61669" lon="6.61403">
        <ele>2003.4000244141</ele>
        <time>2012-09-09T09:30:52Z</time>
      </trkpt>
      <trkpt lat="45.61666" lon="6.61398">
        <ele>2004.5999755859</ele>
        <time>2012-09-09T09:30:56Z</time>
      </trkpt>
      <trkpt lat="45.61668" lon="6.61393">
        <ele>2005.8000488281</ele>
        <time>2012-09-09T09:30:59Z</time>
      </trkpt>
      <trkpt lat="45.61673" lon="6.61394">
        <ele>2006.8000488281</ele>
        <time>2012-09-09T09:31:04Z</time>
      </trkpt>
      <trkpt lat="45.61676" lon="6.61395">
        <ele>2006.8000488281</ele>
        <time>2012-09-09T09:31:07Z</time>
      </trkpt>
      <trkpt lat="45.61678" lon="6.61395">
        <ele>2007.8000488281</ele>
        <time>2012-09-09T09:31:09Z</time>
      </trkpt>
      <trkpt lat="45.61683" lon="6.61394">
        <ele>2009</ele>
        <time>2012-09-09T09:31:14Z</time>
      </trkpt>
      <trkpt lat="45.61688" lon="6.61394">
        <ele>2010</ele>
        <time>2012-09-09T09:31:19Z</time>
      </trkpt>
      <trkpt lat="45.61693" lon="6.61392">
        <ele>2010</ele>
        <time>2012-09-09T09:31:24Z</time>
      </trkpt>
      <trkpt lat="45.61697" lon="6.6139">
        <ele>2010</ele>
        <time>2012-09-09T09:31:28Z</time>
      </trkpt>
      <trkpt lat="45.61702" lon="6.61382">
        <ele>2011.1999511719</ele>
        <time>2012-09-09T09:31:34Z</time>
      </trkpt>
      <trkpt lat="45.61705" lon="6.61375">
        <ele>2012.1999511719</ele>
        <time>2012-09-09T09:31:40Z</time>
      </trkpt>
      <trkpt lat="45.61707" lon="6.6137">
        <ele>2013.4000244141</ele>
        <time>2012-09-09T09:31:43Z</time>
      </trkpt>
      <trkpt lat="45.61708" lon="6.61364">
        <ele>2013.4000244141</ele>
        <time>2012-09-09T09:31:47Z</time>
      </trkpt>
      <trkpt lat="45.61709" lon="6.61359">
        <ele>2014.4000244141</ele>
        <time>2012-09-09T09:31:50Z</time>
      </trkpt>
      <trkpt lat="45.61712" lon="6.6134">
        <ele>2014.4000244141</ele>
        <time>2012-09-09T09:32:02Z</time>
      </trkpt>
      <trkpt lat="45.61713" lon="6.61339">
        <ele>2014.4000244141</ele>
        <time>2012-09-09T09:32:08Z</time>
      </trkpt>
      <trkpt lat="45.61716" lon="6.61334">
        <ele>2015.4000244141</ele>
        <time>2012-09-09T09:32:16Z</time>
      </trkpt>
      <trkpt lat="45.6172" lon="6.61328">
        <ele>2016.4000244141</ele>
        <time>2012-09-09T09:32:20Z</time>
      </trkpt>
      <trkpt lat="45.61723" lon="6.61321">
        <ele>2016.4000244141</ele>
        <time>2012-09-09T09:32:26Z</time>
      </trkpt>
      <trkpt lat="45.61727" lon="6.61314">
        <ele>2017.5999755859</ele>
        <time>2012-09-09T09:32:31Z</time>
      </trkpt>
      <trkpt lat="45.61732" lon="6.61306">
        <ele>2018.5999755859</ele>
        <time>2012-09-09T09:32:38Z</time>
      </trkpt>
      <trkpt lat="45.61733" lon="6.61297">
        <ele>2019.5999755859</ele>
        <time>2012-09-09T09:32:43Z</time>
      </trkpt>
      <trkpt lat="45.61735" lon="6.61291">
        <ele>2020.8000488281</ele>
        <time>2012-09-09T09:32:47Z</time>
      </trkpt>
      <trkpt lat="45.61735" lon="6.61281">
        <ele>2021.8000488281</ele>
        <time>2012-09-09T09:32:53Z</time>
      </trkpt>
      <trkpt lat="45.61737" lon="6.6127">
        <ele>2022.8000488281</ele>
        <time>2012-09-09T09:32:59Z</time>
      </trkpt>
      <trkpt lat="45.61739" lon="6.61258">
        <ele>2023.8000488281</ele>
        <time>2012-09-09T09:33:07Z</time>
      </trkpt>
      <trkpt lat="45.6174" lon="6.61259">
        <ele>2023.8000488281</ele>
        <time>2012-09-09T09:33:09Z</time>
      </trkpt>
      <trkpt lat="45.61742" lon="6.61252">
        <ele>2023.8000488281</ele>
        <time>2012-09-09T09:33:14Z</time>
      </trkpt>
      <trkpt lat="45.61745" lon="6.61236">
        <ele>2024.8000488281</ele>
        <time>2012-09-09T09:33:22Z</time>
      </trkpt>
      <trkpt lat="45.61746" lon="6.61229">
        <ele>2026</ele>
        <time>2012-09-09T09:33:26Z</time>
      </trkpt>
      <trkpt lat="45.61746" lon="6.61221">
        <ele>2027</ele>
        <time>2012-09-09T09:33:30Z</time>
      </trkpt>
      <trkpt lat="45.61746" lon="6.61209">
        <ele>2028.1999511719</ele>
        <time>2012-09-09T09:33:36Z</time>
      </trkpt>
      <trkpt lat="45.61745" lon="6.61198">
        <ele>2029.1999511719</ele>
        <time>2012-09-09T09:33:42Z</time>
      </trkpt>
      <trkpt lat="45.61744" lon="6.6119">
        <ele>2029.1999511719</ele>
        <time>2012-09-09T09:33:47Z</time>
      </trkpt>
      <trkpt lat="45.61744" lon="6.61187">
        <ele>2030.4000244141</ele>
        <time>2012-09-09T09:33:49Z</time>
      </trkpt>
      <trkpt lat="45.61744" lon="6.61172">
        <ele>2030.4000244141</ele>
        <time>2012-09-09T09:33:57Z</time>
      </trkpt>
      <trkpt lat="45.61745" lon="6.61168">
        <ele>2031.4000244141</ele>
        <time>2012-09-09T09:34:00Z</time>
      </trkpt>
      <trkpt lat="45.61747" lon="6.61157">
        <ele>2032.4000244141</ele>
        <time>2012-09-09T09:34:05Z</time>
      </trkpt>
      <trkpt lat="45.6175" lon="6.61152">
        <ele>2033.4000244141</ele>
        <time>2012-09-09T09:34:09Z</time>
      </trkpt>
      <trkpt lat="45.61753" lon="6.61146">
        <ele>2033.4000244141</ele>
        <time>2012-09-09T09:34:14Z</time>
      </trkpt>
      <trkpt lat="45.61758" lon="6.61133">
        <ele>2035.5999755859</ele>
        <time>2012-09-09T09:34:22Z</time>
      </trkpt>
      <trkpt lat="45.61761" lon="6.61121">
        <ele>2036.5999755859</ele>
        <time>2012-09-09T09:34:29Z</time>
      </trkpt>
      <trkpt lat="45.61764" lon="6.611">
        <ele>2036.5999755859</ele>
        <time>2012-09-09T09:34:40Z</time>
      </trkpt>
      <trkpt lat="45.61764" lon="6.61084">
        <ele>2037.5999755859</ele>
        <time>2012-09-09T09:34:49Z</time>
      </trkpt>
      <trkpt lat="45.61762" lon="6.61068">
        <ele>2038.5999755859</ele>
        <time>2012-09-09T09:34:58Z</time>
      </trkpt>
      <trkpt lat="45.61761" lon="6.61054">
        <ele>2039.8000488281</ele>
        <time>2012-09-09T09:35:05Z</time>
      </trkpt>
      <trkpt lat="45.61754" lon="6.61017">
        <ele>2039.8000488281</ele>
        <time>2012-09-09T09:35:24Z</time>
      </trkpt>
      <trkpt lat="45.61749" lon="6.60998">
        <ele>2040.8000488281</ele>
        <time>2012-09-09T09:35:35Z</time>
      </trkpt>
      <trkpt lat="45.61751" lon="6.60977">
        <ele>2041.8000488281</ele>
        <time>2012-09-09T09:35:46Z</time>
      </trkpt>
      <trkpt lat="45.61749" lon="6.60968">
        <ele>2043</ele>
        <time>2012-09-09T09:35:52Z</time>
      </trkpt>
      <trkpt lat="45.61748" lon="6.60946">
        <ele>2044</ele>
        <time>2012-09-09T09:36:04Z</time>
      </trkpt>
      <trkpt lat="45.61756" lon="6.60932">
        <ele>2045</ele>
        <time>2012-09-09T09:36:14Z</time>
      </trkpt>
      <trkpt lat="45.6176" lon="6.60927">
        <ele>2047.1999511719</ele>
        <time>2012-09-09T09:36:19Z</time>
      </trkpt>
      <trkpt lat="45.61764" lon="6.6092">
        <ele>2048.1999511719</ele>
        <time>2012-09-09T09:36:25Z</time>
      </trkpt>
      <trkpt lat="45.61766" lon="6.60916">
        <ele>2049.3999023438</ele>
        <time>2012-09-09T09:36:28Z</time>
      </trkpt>
      <trkpt lat="45.61772" lon="6.60905">
        <ele>2050.3999023438</ele>
        <time>2012-09-09T09:36:37Z</time>
      </trkpt>
      <trkpt lat="45.61776" lon="6.60901">
        <ele>2051.3999023438</ele>
        <time>2012-09-09T09:36:41Z</time>
      </trkpt>
      <trkpt lat="45.61781" lon="6.60897">
        <ele>2052.6000976562</ele>
        <time>2012-09-09T09:36:47Z</time>
      </trkpt>
      <trkpt lat="45.6179" lon="6.60885">
        <ele>2053.6000976562</ele>
        <time>2012-09-09T09:36:57Z</time>
      </trkpt>
      <trkpt lat="45.61795" lon="6.60879">
        <ele>2054.6000976562</ele>
        <time>2012-09-09T09:37:03Z</time>
      </trkpt>
      <trkpt lat="45.61805" lon="6.60863">
        <ele>2055.8000488281</ele>
        <time>2012-09-09T09:37:15Z</time>
      </trkpt>
      <trkpt lat="45.61809" lon="6.60855">
        <ele>2055.8000488281</ele>
        <time>2012-09-09T09:37:21Z</time>
      </trkpt>
      <trkpt lat="45.61812" lon="6.60846">
        <ele>2056.8000488281</ele>
        <time>2012-09-09T09:37:27Z</time>
      </trkpt>
      <trkpt lat="45.61814" lon="6.60839">
        <ele>2058</ele>
        <time>2012-09-09T09:37:32Z</time>
      </trkpt>
      <trkpt lat="45.61819" lon="6.60827">
        <ele>2059</ele>
        <time>2012-09-09T09:37:39Z</time>
      </trkpt>
      <trkpt lat="45.61825" lon="6.60815">
        <ele>2059</ele>
        <time>2012-09-09T09:37:47Z</time>
      </trkpt>
      <trkpt lat="45.61829" lon="6.60807">
        <ele>2060.1999511719</ele>
        <time>2012-09-09T09:37:53Z</time>
      </trkpt>
      <trkpt lat="45.61823" lon="6.60807">
        <ele>2061.1999511719</ele>
        <time>2012-09-09T09:37:58Z</time>
      </trkpt>
      <trkpt lat="45.61814" lon="6.6081">
        <ele>2062.1999511719</ele>
        <time>2012-09-09T09:38:05Z</time>
      </trkpt>
      <trkpt lat="45.61804" lon="6.60813">
        <ele>2063.3999023438</ele>
        <time>2012-09-09T09:38:13Z</time>
      </trkpt>
      <trkpt lat="45.61794" lon="6.60809">
        <ele>2064.3999023438</ele>
        <time>2012-09-09T09:38:21Z</time>
      </trkpt>
      <trkpt lat="45.6178" lon="6.60794">
        <ele>2066.6000976562</ele>
        <time>2012-09-09T09:38:35Z</time>
      </trkpt>
      <trkpt lat="45.61771" lon="6.6079">
        <ele>2066.6000976562</ele>
        <time>2012-09-09T09:38:43Z</time>
      </trkpt>
      <trkpt lat="45.61766" lon="6.6079">
        <ele>2067.6000976562</ele>
        <time>2012-09-09T09:38:47Z</time>
      </trkpt>
      <trkpt lat="45.6176" lon="6.60789">
        <ele>2068.6000976562</ele>
        <time>2012-09-09T09:38:52Z</time>
      </trkpt>
      <trkpt lat="45.61751" lon="6.60789">
        <ele>2069.8000488281</ele>
        <time>2012-09-09T09:38:59Z</time>
      </trkpt>
      <trkpt lat="45.61736" lon="6.60787">
        <ele>2069.8000488281</ele>
        <time>2012-09-09T09:39:10Z</time>
      </trkpt>
      <trkpt lat="45.6173" lon="6.60788">
        <ele>2070.8000488281</ele>
        <time>2012-09-09T09:39:15Z</time>
      </trkpt>
      <trkpt lat="45.6172" lon="6.608">
        <ele>2071.8000488281</ele>
        <time>2012-09-09T09:39:25Z</time>
      </trkpt>
      <trkpt lat="45.61713" lon="6.60805">
        <ele>2072.8000488281</ele>
        <time>2012-09-09T09:39:31Z</time>
      </trkpt>
      <trkpt lat="45.6169" lon="6.60803">
        <ele>2072.8000488281</ele>
        <time>2012-09-09T09:39:41Z</time>
      </trkpt>
      <trkpt lat="45.61671" lon="6.60811">
        <ele>2073.8000488281</ele>
        <time>2012-09-09T09:39:50Z</time>
      </trkpt>
      <trkpt lat="45.61656" lon="6.60816">
        <ele>2073.8000488281</ele>
        <time>2012-09-09T09:39:57Z</time>
      </trkpt>
      <trkpt lat="45.61634" lon="6.60827">
        <ele>2073.8000488281</ele>
        <time>2012-09-09T09:40:07Z</time>
      </trkpt>
      <trkpt lat="45.61618" lon="6.60831">
        <ele>2076</ele>
        <time>2012-09-09T09:40:14Z</time>
      </trkpt>
      <trkpt lat="45.61604" lon="6.60824">
        <ele>2077.1999511719</ele>
        <time>2012-09-09T09:40:21Z</time>
      </trkpt>
      <trkpt lat="45.61589" lon="6.60803">
        <ele>2077.1999511719</ele>
        <time>2012-09-09T09:40:30Z</time>
      </trkpt>
      <trkpt lat="45.61581" lon="6.6079">
        <ele>2078.1999511719</ele>
        <time>2012-09-09T09:40:35Z</time>
      </trkpt>
      <trkpt lat="45.61559" lon="6.60768">
        <ele>2078.1999511719</ele>
        <time>2012-09-09T09:40:46Z</time>
      </trkpt>
      <trkpt lat="45.61533" lon="6.60753">
        <ele>2079.3999023438</ele>
        <time>2012-09-09T09:40:58Z</time>
      </trkpt>
      <trkpt lat="45.61523" lon="6.60746">
        <ele>2080.3999023438</ele>
        <time>2012-09-09T09:41:03Z</time>
      </trkpt>
      <trkpt lat="45.61503" lon="6.60739">
        <ele>2080.3999023438</ele>
        <time>2012-09-09T09:41:12Z</time>
      </trkpt>
      <trkpt lat="45.61484" lon="6.60753">
        <ele>2081.3999023438</ele>
        <time>2012-09-09T09:41:21Z</time>
      </trkpt>
      <trkpt lat="45.61477" lon="6.60758">
        <ele>2081.3999023438</ele>
        <time>2012-09-09T09:41:26Z</time>
      </trkpt>
      <trkpt lat="45.61455" lon="6.60761">
        <ele>2081.3999023438</ele>
        <time>2012-09-09T09:41:38Z</time>
      </trkpt>
      <trkpt lat="45.61433" lon="6.60784">
        <ele>2081.3999023438</ele>
        <time>2012-09-09T09:41:49Z</time>
      </trkpt>
      <trkpt lat="45.61422" lon="6.60782">
        <ele>2082.6000976562</ele>
        <time>2012-09-09T09:41:54Z</time>
      </trkpt>
      <trkpt lat="45.61419" lon="6.60774">
        <ele>2082.6000976562</ele>
        <time>2012-09-09T09:41:58Z</time>
      </trkpt>
      <trkpt lat="45.61415" lon="6.60771">
        <ele>2082.6000976562</ele>
        <time>2012-09-09T09:42:16Z</time>
      </trkpt>
      <trkpt lat="45.61409" lon="6.60769">
        <ele>2082.6000976562</ele>
        <time>2012-09-09T09:42:21Z</time>
      </trkpt>
      <trkpt lat="45.614" lon="6.60765">
        <ele>2082.6000976562</ele>
        <time>2012-09-09T09:42:28Z</time>
      </trkpt>
      <trkpt lat="45.61389" lon="6.60765">
        <ele>2079.3999023438</ele>
        <time>2012-09-09T09:42:34Z</time>
      </trkpt>
      <trkpt lat="45.6137" lon="6.60783">
        <ele>2079.3999023438</ele>
        <time>2012-09-09T09:42:44Z</time>
      </trkpt>
      <trkpt lat="45.61366" lon="6.60786">
        <ele>2082.3999023438</ele>
        <time>2012-09-09T09:42:48Z</time>
      </trkpt>
      <trkpt lat="45.61356" lon="6.60791">
        <ele>2082.3999023438</ele>
        <time>2012-09-09T09:42:56Z</time>
      </trkpt>
      <trkpt lat="45.6135" lon="6.60793">
        <ele>2082.3999023438</ele>
        <time>2012-09-09T09:43:01Z</time>
      </trkpt>
      <trkpt lat="45.61337" lon="6.60804">
        <ele>2082.3999023438</ele>
        <time>2012-09-09T09:43:12Z</time>
      </trkpt>
      <trkpt lat="45.61332" lon="6.60818">
        <ele>2082.3999023438</ele>
        <time>2012-09-09T09:43:21Z</time>
      </trkpt>
      <trkpt lat="45.61329" lon="6.60828">
        <ele>2082.3999023438</ele>
        <time>2012-09-09T09:43:26Z</time>
      </trkpt>
      <trkpt lat="45.61324" lon="6.60835">
        <ele>2082.3999023438</ele>
        <time>2012-09-09T09:43:33Z</time>
      </trkpt>
      <trkpt lat="45.61317" lon="6.60832">
        <ele>2082.3999023438</ele>
        <time>2012-09-09T09:43:38Z</time>
      </trkpt>
      <trkpt lat="45.61313" lon="6.60838">
        <ele>2082.3999023438</ele>
        <time>2012-09-09T09:43:46Z</time>
      </trkpt>
      <trkpt lat="45.61312" lon="6.60846">
        <ele>2082.3999023438</ele>
        <time>2012-09-09T09:43:53Z</time>
      </trkpt>
      <trkpt lat="45.61311" lon="6.6085">
        <ele>2083.6000976562</ele>
        <time>2012-09-09T09:43:56Z</time>
      </trkpt>
      <trkpt lat="45.6131" lon="6.60854">
        <ele>2084.6000976562</ele>
        <time>2012-09-09T09:44:01Z</time>
      </trkpt>
      <trkpt lat="45.61309" lon="6.60859">
        <ele>2086.8000488281</ele>
        <time>2012-09-09T09:44:07Z</time>
      </trkpt>
      <trkpt lat="45.61307" lon="6.60864">
        <ele>2088</ele>
        <time>2012-09-09T09:44:12Z</time>
      </trkpt>
      <trkpt lat="45.61305" lon="6.6086">
        <ele>2089</ele>
        <time>2012-09-09T09:44:17Z</time>
      </trkpt>
      <trkpt lat="45.61302" lon="6.60856">
        <ele>2090</ele>
        <time>2012-09-09T09:44:21Z</time>
      </trkpt>
      <trkpt lat="45.613" lon="6.60853">
        <ele>2091</ele>
        <time>2012-09-09T09:44:25Z</time>
      </trkpt>
      <trkpt lat="45.61299" lon="6.6085">
        <ele>2092</ele>
        <time>2012-09-09T09:44:28Z</time>
      </trkpt>
      <trkpt lat="45.61297" lon="6.60845">
        <ele>2093</ele>
        <time>2012-09-09T09:44:34Z</time>
      </trkpt>
      <trkpt lat="45.61296" lon="6.60844">
        <ele>2094.1999511719</ele>
        <time>2012-09-09T09:44:37Z</time>
      </trkpt>
      <trkpt lat="45.61293" lon="6.60842">
        <ele>2095.1999511719</ele>
        <time>2012-09-09T09:44:42Z</time>
      </trkpt>
      <trkpt lat="45.6129" lon="6.60839">
        <ele>2096.1999511719</ele>
        <time>2012-09-09T09:44:46Z</time>
      </trkpt>
      <trkpt lat="45.61288" lon="6.60837">
        <ele>2097.3999023438</ele>
        <time>2012-09-09T09:44:51Z</time>
      </trkpt>
      <trkpt lat="45.61288" lon="6.6083">
        <ele>2098.3999023438</ele>
        <time>2012-09-09T09:44:57Z</time>
      </trkpt>
      <trkpt lat="45.61287" lon="6.60829">
        <ele>2098.3999023438</ele>
        <time>2012-09-09T09:44:59Z</time>
      </trkpt>
      <trkpt lat="45.61285" lon="6.60824">
        <ele>2099.3999023438</ele>
        <time>2012-09-09T09:45:04Z</time>
      </trkpt>
      <trkpt lat="45.61283" lon="6.60822">
        <ele>2100.6000976562</ele>
        <time>2012-09-09T09:45:07Z</time>
      </trkpt>
      <trkpt lat="45.61276" lon="6.60822">
        <ele>2102.8000488281</ele>
        <time>2012-09-09T09:45:16Z</time>
      </trkpt>
      <trkpt lat="45.61273" lon="6.60819">
        <ele>2104</ele>
        <time>2012-09-09T09:45:21Z</time>
      </trkpt>
      <trkpt lat="45.61269" lon="6.60817">
        <ele>2105.1999511719</ele>
        <time>2012-09-09T09:45:27Z</time>
      </trkpt>
      <trkpt lat="45.61263" lon="6.60816">
        <ele>2107.3999023438</ele>
        <time>2012-09-09T09:45:36Z</time>
      </trkpt>
      <trkpt lat="45.61261" lon="6.60815">
        <ele>2108.3999023438</ele>
        <time>2012-09-09T09:45:40Z</time>
      </trkpt>
      <trkpt lat="45.61257" lon="6.60814">
        <ele>2109.8000488281</ele>
        <time>2012-09-09T09:45:46Z</time>
      </trkpt>
      <trkpt lat="45.61254" lon="6.60813">
        <ele>2110.8000488281</ele>
        <time>2012-09-09T09:45:51Z</time>
      </trkpt>
      <trkpt lat="45.61251" lon="6.60813">
        <ele>2110.8000488281</ele>
        <time>2012-09-09T09:45:56Z</time>
      </trkpt>
      <trkpt lat="45.61251" lon="6.60819">
        <ele>2111.8000488281</ele>
        <time>2012-09-09T09:46:01Z</time>
      </trkpt>
      <trkpt lat="45.61253" lon="6.60824">
        <ele>2113</ele>
        <time>2012-09-09T09:46:05Z</time>
      </trkpt>
      <trkpt lat="45.61254" lon="6.60836">
        <ele>2115.1999511719</ele>
        <time>2012-09-09T09:46:15Z</time>
      </trkpt>
      <trkpt lat="45.61255" lon="6.60841">
        <ele>2116.3999023438</ele>
        <time>2012-09-09T09:46:22Z</time>
      </trkpt>
      <trkpt lat="45.61255" lon="6.60846">
        <ele>2117.3999023438</ele>
        <time>2012-09-09T09:46:27Z</time>
      </trkpt>
      <trkpt lat="45.61249" lon="6.60844">
        <ele>2118.3999023438</ele>
        <time>2012-09-09T09:46:34Z</time>
      </trkpt>
      <trkpt lat="45.61244" lon="6.60841">
        <ele>2119.6000976562</ele>
        <time>2012-09-09T09:46:41Z</time>
      </trkpt>
      <trkpt lat="45.6124" lon="6.6084">
        <ele>2120.6000976562</ele>
        <time>2012-09-09T09:46:46Z</time>
      </trkpt>
      <trkpt lat="45.61235" lon="6.60839">
        <ele>2121.6000976562</ele>
        <time>2012-09-09T09:46:51Z</time>
      </trkpt>
      <trkpt lat="45.61231" lon="6.60841">
        <ele>2122.8000488281</ele>
        <time>2012-09-09T09:46:56Z</time>
      </trkpt>
      <trkpt lat="45.6123" lon="6.60847">
        <ele>2123.8000488281</ele>
        <time>2012-09-09T09:47:02Z</time>
      </trkpt>
      <trkpt lat="45.61232" lon="6.60857">
        <ele>2123.8000488281</ele>
        <time>2012-09-09T09:47:09Z</time>
      </trkpt>
      <trkpt lat="45.61235" lon="6.60867">
        <ele>2124.8000488281</ele>
        <time>2012-09-09T09:47:15Z</time>
      </trkpt>
      <trkpt lat="45.61235" lon="6.60876">
        <ele>2125.8000488281</ele>
        <time>2012-09-09T09:47:21Z</time>
      </trkpt>
      <trkpt lat="45.61233" lon="6.60881">
        <ele>2125.8000488281</ele>
        <time>2012-09-09T09:47:25Z</time>
      </trkpt>
      <trkpt lat="45.61231" lon="6.60884">
        <ele>2127.1999511719</ele>
        <time>2012-09-09T09:47:28Z</time>
      </trkpt>
      <trkpt lat="45.61229" lon="6.60888">
        <ele>2128.1999511719</ele>
        <time>2012-09-09T09:47:32Z</time>
      </trkpt>
      <trkpt lat="45.61226" lon="6.60893">
        <ele>2129.1999511719</ele>
        <time>2012-09-09T09:47:38Z</time>
      </trkpt>
      <trkpt lat="45.61222" lon="6.609">
        <ele>2130.1999511719</ele>
        <time>2012-09-09T09:47:44Z</time>
      </trkpt>
      <trkpt lat="45.61221" lon="6.60902">
        <ele>2130.1999511719</ele>
        <time>2012-09-09T09:47:46Z</time>
      </trkpt>
      <trkpt lat="45.61217" lon="6.60905">
        <ele>2130.1999511719</ele>
        <time>2012-09-09T09:47:50Z</time>
      </trkpt>
      <trkpt lat="45.61213" lon="6.60901">
        <ele>2131.1999511719</ele>
        <time>2012-09-09T09:47:55Z</time>
      </trkpt>
      <trkpt lat="45.61209" lon="6.60898">
        <ele>2132.8000488281</ele>
        <time>2012-09-09T09:48:00Z</time>
      </trkpt>
      <trkpt lat="45.61207" lon="6.60896">
        <ele>2133.8000488281</ele>
        <time>2012-09-09T09:48:03Z</time>
      </trkpt>
      <trkpt lat="45.61202" lon="6.6089">
        <ele>2135</ele>
        <time>2012-09-09T09:48:09Z</time>
      </trkpt>
      <trkpt lat="45.61199" lon="6.60888">
        <ele>2135</ele>
        <time>2012-09-09T09:48:13Z</time>
      </trkpt>
      <trkpt lat="45.61196" lon="6.60887">
        <ele>2136</ele>
        <time>2012-09-09T09:48:15Z</time>
      </trkpt>
      <trkpt lat="45.61195" lon="6.60886">
        <ele>2136</ele>
        <time>2012-09-09T09:48:17Z</time>
      </trkpt>
      <trkpt lat="45.6119" lon="6.60884">
        <ele>2137.1999511719</ele>
        <time>2012-09-09T09:48:23Z</time>
      </trkpt>
      <trkpt lat="45.61185" lon="6.60883">
        <ele>2138.3999023438</ele>
        <time>2012-09-09T09:48:28Z</time>
      </trkpt>
      <trkpt lat="45.61177" lon="6.60881">
        <ele>2139.3999023438</ele>
        <time>2012-09-09T09:48:37Z</time>
      </trkpt>
      <trkpt lat="45.61174" lon="6.60883">
        <ele>2140.8000488281</ele>
        <time>2012-09-09T09:48:42Z</time>
      </trkpt>
      <trkpt lat="45.61166" lon="6.60885">
        <ele>2141.8000488281</ele>
        <time>2012-09-09T09:48:51Z</time>
      </trkpt>
      <trkpt lat="45.61168" lon="6.60888">
        <ele>2143.6000976562</ele>
        <time>2012-09-09T09:48:54Z</time>
      </trkpt>
      <trkpt lat="45.61169" lon="6.60896">
        <ele>2143.6000976562</ele>
        <time>2012-09-09T09:49:00Z</time>
      </trkpt>
      <trkpt lat="45.61171" lon="6.609">
        <ele>2144.6000976562</ele>
        <time>2012-09-09T09:49:03Z</time>
      </trkpt>
      <trkpt lat="45.61173" lon="6.60907">
        <ele>2145.6000976562</ele>
        <time>2012-09-09T09:49:10Z</time>
      </trkpt>
      <trkpt lat="45.61175" lon="6.60914">
        <ele>2146.6000976562</ele>
        <time>2012-09-09T09:49:15Z</time>
      </trkpt>
      <trkpt lat="45.61176" lon="6.60918">
        <ele>2147.6000976562</ele>
        <time>2012-09-09T09:49:18Z</time>
      </trkpt>
      <trkpt lat="45.61174" lon="6.60923">
        <ele>2148.6000976562</ele>
        <time>2012-09-09T09:49:24Z</time>
      </trkpt>
      <trkpt lat="45.61172" lon="6.60925">
        <ele>2148.6000976562</ele>
        <time>2012-09-09T09:49:27Z</time>
      </trkpt>
      <trkpt lat="45.61167" lon="6.60925">
        <ele>2149.8000488281</ele>
        <time>2012-09-09T09:49:32Z</time>
      </trkpt>
      <trkpt lat="45.61163" lon="6.60924">
        <ele>2150.8000488281</ele>
        <time>2012-09-09T09:49:38Z</time>
      </trkpt>
      <trkpt lat="45.61159" lon="6.60925">
        <ele>2151.8000488281</ele>
        <time>2012-09-09T09:49:42Z</time>
      </trkpt>
      <trkpt lat="45.61153" lon="6.60925">
        <ele>2154</ele>
        <time>2012-09-09T09:49:48Z</time>
      </trkpt>
      <trkpt lat="45.61148" lon="6.60924">
        <ele>2155</ele>
        <time>2012-09-09T09:49:53Z</time>
      </trkpt>
      <trkpt lat="45.61143" lon="6.60924">
        <ele>2156.1999511719</ele>
        <time>2012-09-09T09:49:58Z</time>
      </trkpt>
      <trkpt lat="45.61139" lon="6.60926">
        <ele>2157.3999023438</ele>
        <time>2012-09-09T09:50:04Z</time>
      </trkpt>
      <trkpt lat="45.61141" lon="6.60938">
        <ele>2158.3999023438</ele>
        <time>2012-09-09T09:50:12Z</time>
      </trkpt>
      <trkpt lat="45.6114" lon="6.6095">
        <ele>2158.3999023438</ele>
        <time>2012-09-09T09:50:19Z</time>
      </trkpt>
      <trkpt lat="45.61132" lon="6.60959">
        <ele>2159.6000976562</ele>
        <time>2012-09-09T09:50:28Z</time>
      </trkpt>
      <trkpt lat="45.61125" lon="6.60966">
        <ele>2160.8000488281</ele>
        <time>2012-09-09T09:50:36Z</time>
      </trkpt>
      <trkpt lat="45.61119" lon="6.60971">
        <ele>2161.8000488281</ele>
        <time>2012-09-09T09:50:43Z</time>
      </trkpt>
      <trkpt lat="45.61111" lon="6.60974">
        <ele>2164</ele>
        <time>2012-09-09T09:50:51Z</time>
      </trkpt>
      <trkpt lat="45.61101" lon="6.60972">
        <ele>2165</ele>
        <time>2012-09-09T09:51:01Z</time>
      </trkpt>
      <trkpt lat="45.61089" lon="6.60966">
        <ele>2166</ele>
        <time>2012-09-09T09:51:14Z</time>
      </trkpt>
      <trkpt lat="45.61082" lon="6.60959">
        <ele>2168.1999511719</ele>
        <time>2012-09-09T09:51:22Z</time>
      </trkpt>
      <trkpt lat="45.61076" lon="6.60955">
        <ele>2169.1999511719</ele>
        <time>2012-09-09T09:51:28Z</time>
      </trkpt>
      <trkpt lat="45.61069" lon="6.60947">
        <ele>2170.1999511719</ele>
        <time>2012-09-09T09:51:36Z</time>
      </trkpt>
      <trkpt lat="45.61065" lon="6.60942">
        <ele>2170.1999511719</ele>
        <time>2012-09-09T09:51:41Z</time>
      </trkpt>
      <trkpt lat="45.6106" lon="6.60941">
        <ele>2171.1999511719</ele>
        <time>2012-09-09T09:51:47Z</time>
      </trkpt>
      <trkpt lat="45.61056" lon="6.60947">
        <ele>2171.1999511719</ele>
        <time>2012-09-09T09:51:53Z</time>
      </trkpt>
      <trkpt lat="45.61054" lon="6.60952">
        <ele>2171.1999511719</ele>
        <time>2012-09-09T09:51:57Z</time>
      </trkpt>
      <trkpt lat="45.61052" lon="6.60955">
        <ele>2173.3999023438</ele>
        <time>2012-09-09T09:52:01Z</time>
      </trkpt>
      <trkpt lat="45.61047" lon="6.60957">
        <ele>2174.3999023438</ele>
        <time>2012-09-09T09:52:07Z</time>
      </trkpt>
      <trkpt lat="45.61045" lon="6.60959">
        <ele>2175.3999023438</ele>
        <time>2012-09-09T09:52:12Z</time>
      </trkpt>
      <trkpt lat="45.6104" lon="6.60962">
        <ele>2176.3999023438</ele>
        <time>2012-09-09T09:52:18Z</time>
      </trkpt>
      <trkpt lat="45.61036" lon="6.60963">
        <ele>2177.6000976562</ele>
        <time>2012-09-09T09:52:23Z</time>
      </trkpt>
      <trkpt lat="45.61031" lon="6.60964">
        <ele>2179.6000976562</ele>
        <time>2012-09-09T09:52:29Z</time>
      </trkpt>
      <trkpt lat="45.61028" lon="6.60966">
        <ele>2180.6000976562</ele>
        <time>2012-09-09T09:52:34Z</time>
      </trkpt>
      <trkpt lat="45.61025" lon="6.6097">
        <ele>2181.8000488281</ele>
        <time>2012-09-09T09:52:40Z</time>
      </trkpt>
      <trkpt lat="45.6102" lon="6.60973">
        <ele>2182.8000488281</ele>
        <time>2012-09-09T09:52:46Z</time>
      </trkpt>
      <trkpt lat="45.61017" lon="6.60977">
        <ele>2183.8000488281</ele>
        <time>2012-09-09T09:52:51Z</time>
      </trkpt>
      <trkpt lat="45.61014" lon="6.6098">
        <ele>2184.8000488281</ele>
        <time>2012-09-09T09:52:56Z</time>
      </trkpt>
      <trkpt lat="45.6101" lon="6.60983">
        <ele>2185.8000488281</ele>
        <time>2012-09-09T09:53:01Z</time>
      </trkpt>
      <trkpt lat="45.61008" lon="6.60985">
        <ele>2186.8000488281</ele>
        <time>2012-09-09T09:53:04Z</time>
      </trkpt>
      <trkpt lat="45.61004" lon="6.60987">
        <ele>2187.8000488281</ele>
        <time>2012-09-09T09:53:09Z</time>
      </trkpt>
      <trkpt lat="45.60998" lon="6.6099">
        <ele>2187.8000488281</ele>
        <time>2012-09-09T09:53:15Z</time>
      </trkpt>
      <trkpt lat="45.60995" lon="6.60992">
        <ele>2190.1999511719</ele>
        <time>2012-09-09T09:53:20Z</time>
      </trkpt>
      <trkpt lat="45.60989" lon="6.60993">
        <ele>2191.1999511719</ele>
        <time>2012-09-09T09:53:27Z</time>
      </trkpt>
      <trkpt lat="45.60985" lon="6.60995">
        <ele>2192.1999511719</ele>
        <time>2012-09-09T09:53:31Z</time>
      </trkpt>
      <trkpt lat="45.6098" lon="6.60996">
        <ele>2192.1999511719</ele>
        <time>2012-09-09T09:53:36Z</time>
      </trkpt>
      <trkpt lat="45.60978" lon="6.60997">
        <ele>2193.6000976562</ele>
        <time>2012-09-09T09:53:39Z</time>
      </trkpt>
      <trkpt lat="45.60974" lon="6.61001">
        <ele>2194.6000976562</ele>
        <time>2012-09-09T09:53:44Z</time>
      </trkpt>
      <trkpt lat="45.60969" lon="6.61005">
        <ele>2194.6000976562</ele>
        <time>2012-09-09T09:53:49Z</time>
      </trkpt>
      <trkpt lat="45.60964" lon="6.6101">
        <ele>2195.6000976562</ele>
        <time>2012-09-09T09:53:54Z</time>
      </trkpt>
      <trkpt lat="45.60956" lon="6.61015">
        <ele>2196.6000976562</ele>
        <time>2012-09-09T09:54:04Z</time>
      </trkpt>
      <trkpt lat="45.60955" lon="6.61016">
        <ele>2197.6000976562</ele>
        <time>2012-09-09T09:54:06Z</time>
      </trkpt>
      <trkpt lat="45.60949" lon="6.61023">
        <ele>2198.8000488281</ele>
        <time>2012-09-09T09:54:13Z</time>
      </trkpt>
      <trkpt lat="45.60946" lon="6.61027">
        <ele>2199.8000488281</ele>
        <time>2012-09-09T09:54:18Z</time>
      </trkpt>
      <trkpt lat="45.60941" lon="6.6104">
        <ele>2200.8000488281</ele>
        <time>2012-09-09T09:54:28Z</time>
      </trkpt>
      <trkpt lat="45.6094" lon="6.61048">
        <ele>2200.8000488281</ele>
        <time>2012-09-09T09:54:33Z</time>
      </trkpt>
      <trkpt lat="45.60935" lon="6.61068">
        <ele>2200.8000488281</ele>
        <time>2012-09-09T09:54:48Z</time>
      </trkpt>
      <trkpt lat="45.60937" lon="6.61073">
        <ele>2201.8000488281</ele>
        <time>2012-09-09T09:54:54Z</time>
      </trkpt>
      <trkpt lat="45.60936" lon="6.61073">
        <ele>2203</ele>
        <time>2012-09-09T09:55:05Z</time>
      </trkpt>
      <trkpt lat="45.60936" lon="6.61076">
        <ele>2203</ele>
        <time>2012-09-09T09:55:18Z</time>
      </trkpt>
      <trkpt lat="45.60937" lon="6.61089">
        <ele>2203</ele>
        <time>2012-09-09T09:55:32Z</time>
      </trkpt>
      <trkpt lat="45.60937" lon="6.61099">
        <ele>2204</ele>
        <time>2012-09-09T09:55:38Z</time>
      </trkpt>
      <trkpt lat="45.60937" lon="6.61111">
        <ele>2205</ele>
        <time>2012-09-09T09:55:45Z</time>
      </trkpt>
      <trkpt lat="45.60939" lon="6.61128">
        <ele>2205</ele>
        <time>2012-09-09T09:55:54Z</time>
      </trkpt>
      <trkpt lat="45.60942" lon="6.61151">
        <ele>2205</ele>
        <time>2012-09-09T09:56:06Z</time>
      </trkpt>
      <trkpt lat="45.60943" lon="6.61168">
        <ele>2206</ele>
        <time>2012-09-09T09:56:16Z</time>
      </trkpt>
      <trkpt lat="45.60944" lon="6.61172">
        <ele>2206</ele>
        <time>2012-09-09T09:56:18Z</time>
      </trkpt>
      <trkpt lat="45.60947" lon="6.61177">
        <ele>2207.1999511719</ele>
        <time>2012-09-09T09:56:22Z</time>
      </trkpt>
      <trkpt lat="45.60948" lon="6.61186">
        <ele>2207.1999511719</ele>
        <time>2012-09-09T09:56:27Z</time>
      </trkpt>
      <trkpt lat="45.60949" lon="6.6119">
        <ele>2208.1999511719</ele>
        <time>2012-09-09T09:56:30Z</time>
      </trkpt>
      <trkpt lat="45.6095" lon="6.61201">
        <ele>2209.3999023438</ele>
        <time>2012-09-09T09:56:36Z</time>
      </trkpt>
      <trkpt lat="45.60951" lon="6.61204">
        <ele>2209.3999023438</ele>
        <time>2012-09-09T09:56:38Z</time>
      </trkpt>
      <trkpt lat="45.60948" lon="6.6121">
        <ele>2210.3999023438</ele>
        <time>2012-09-09T09:56:43Z</time>
      </trkpt>
      <trkpt lat="45.60946" lon="6.61211">
        <ele>2211.3999023438</ele>
        <time>2012-09-09T09:56:45Z</time>
      </trkpt>
      <trkpt lat="45.60941" lon="6.61216">
        <ele>2211.3999023438</ele>
        <time>2012-09-09T09:56:52Z</time>
      </trkpt>
      <trkpt lat="45.60939" lon="6.61221">
        <ele>2212.6000976562</ele>
        <time>2012-09-09T09:56:55Z</time>
      </trkpt>
      <trkpt lat="45.60937" lon="6.61225">
        <ele>2213.6000976562</ele>
        <time>2012-09-09T09:56:58Z</time>
      </trkpt>
      <trkpt lat="45.60935" lon="6.61233">
        <ele>2213.6000976562</ele>
        <time>2012-09-09T09:57:04Z</time>
      </trkpt>
      <trkpt lat="45.60932" lon="6.61237">
        <ele>2214.6000976562</ele>
        <time>2012-09-09T09:57:08Z</time>
      </trkpt>
      <trkpt lat="45.60923" lon="6.61245">
        <ele>2214.6000976562</ele>
        <time>2012-09-09T09:57:17Z</time>
      </trkpt>
      <trkpt lat="45.60916" lon="6.61246">
        <ele>2215.8000488281</ele>
        <time>2012-09-09T09:57:23Z</time>
      </trkpt>
      <trkpt lat="45.60908" lon="6.61251">
        <ele>2216.8000488281</ele>
        <time>2012-09-09T09:57:32Z</time>
      </trkpt>
      <trkpt lat="45.60901" lon="6.61257">
        <ele>2216.8000488281</ele>
        <time>2012-09-09T09:57:40Z</time>
      </trkpt>
      <trkpt lat="45.60891" lon="6.61263">
        <ele>2219.1999511719</ele>
        <time>2012-09-09T09:57:50Z</time>
      </trkpt>
      <trkpt lat="45.60878" lon="6.61267">
        <ele>2221.1999511719</ele>
        <time>2012-09-09T09:58:03Z</time>
      </trkpt>
      <trkpt lat="45.60873" lon="6.61269">
        <ele>2222.1999511719</ele>
        <time>2012-09-09T09:58:08Z</time>
      </trkpt>
      <trkpt lat="45.60869" lon="6.61272">
        <ele>2222.1999511719</ele>
        <time>2012-09-09T09:58:13Z</time>
      </trkpt>
      <trkpt lat="45.60864" lon="6.61275">
        <ele>2223.3999023438</ele>
        <time>2012-09-09T09:58:18Z</time>
      </trkpt>
      <trkpt lat="45.60862" lon="6.61275">
        <ele>2224.3999023438</ele>
        <time>2012-09-09T09:58:21Z</time>
      </trkpt>
      <trkpt lat="45.60857" lon="6.61276">
        <ele>2225.6000976562</ele>
        <time>2012-09-09T09:58:26Z</time>
      </trkpt>
      <trkpt lat="45.60852" lon="6.61277">
        <ele>2226.6000976562</ele>
        <time>2012-09-09T09:58:31Z</time>
      </trkpt>
      <trkpt lat="45.60843" lon="6.61279">
        <ele>2228.8000488281</ele>
        <time>2012-09-09T09:58:41Z</time>
      </trkpt>
      <trkpt lat="45.60839" lon="6.61279">
        <ele>2230</ele>
        <time>2012-09-09T09:58:46Z</time>
      </trkpt>
      <trkpt lat="45.60834" lon="6.61278">
        <ele>2232</ele>
        <time>2012-09-09T09:58:53Z</time>
      </trkpt>
      <trkpt lat="45.60828" lon="6.61277">
        <ele>2233</ele>
        <time>2012-09-09T09:58:59Z</time>
      </trkpt>
      <trkpt lat="45.60826" lon="6.61275">
        <ele>2234</ele>
        <time>2012-09-09T09:59:02Z</time>
      </trkpt>
      <trkpt lat="45.60822" lon="6.61274">
        <ele>2235.1999511719</ele>
        <time>2012-09-09T09:59:08Z</time>
      </trkpt>
      <trkpt lat="45.6082" lon="6.61273">
        <ele>2236.1999511719</ele>
        <time>2012-09-09T09:59:11Z</time>
      </trkpt>
      <trkpt lat="45.60816" lon="6.61271">
        <ele>2237.1999511719</ele>
        <time>2012-09-09T09:59:17Z</time>
      </trkpt>
      <trkpt lat="45.60812" lon="6.61269">
        <ele>2238.1999511719</ele>
        <time>2012-09-09T09:59:23Z</time>
      </trkpt>
      <trkpt lat="45.60809" lon="6.61267">
        <ele>2239.3999023438</ele>
        <time>2012-09-09T09:59:28Z</time>
      </trkpt>
      <trkpt lat="45.60806" lon="6.61267">
        <ele>2240.3999023438</ele>
        <time>2012-09-09T09:59:32Z</time>
      </trkpt>
      <trkpt lat="45.60803" lon="6.61267">
        <ele>2241.8000488281</ele>
        <time>2012-09-09T09:59:36Z</time>
      </trkpt>
      <trkpt lat="45.60798" lon="6.61265">
        <ele>2242.8000488281</ele>
        <time>2012-09-09T09:59:43Z</time>
      </trkpt>
      <trkpt lat="45.60792" lon="6.61264">
        <ele>2243.8000488281</ele>
        <time>2012-09-09T09:59:49Z</time>
      </trkpt>
      <trkpt lat="45.60787" lon="6.61264">
        <ele>2244.8000488281</ele>
        <time>2012-09-09T09:59:55Z</time>
      </trkpt>
      <trkpt lat="45.60783" lon="6.61262">
        <ele>2245.8000488281</ele>
        <time>2012-09-09T09:59:59Z</time>
      </trkpt>
      <trkpt lat="45.60782" lon="6.61263">
        <ele>2245.8000488281</ele>
        <time>2012-09-09T10:00:01Z</time>
      </trkpt>
      <trkpt lat="45.60776" lon="6.61263">
        <ele>2247</ele>
        <time>2012-09-09T10:00:07Z</time>
      </trkpt>
      <trkpt lat="45.60773" lon="6.61263">
        <ele>2248</ele>
        <time>2012-09-09T10:00:10Z</time>
      </trkpt>
      <trkpt lat="45.60767" lon="6.61262">
        <ele>2249</ele>
        <time>2012-09-09T10:00:16Z</time>
      </trkpt>
      <trkpt lat="45.60756" lon="6.6126">
        <ele>2249</ele>
        <time>2012-09-09T10:00:25Z</time>
      </trkpt>
      <trkpt lat="45.60749" lon="6.61257">
        <ele>2250</ele>
        <time>2012-09-09T10:00:31Z</time>
      </trkpt>
      <trkpt lat="45.60736" lon="6.6125">
        <ele>2252</ele>
        <time>2012-09-09T10:00:43Z</time>
      </trkpt>
      <trkpt lat="45.60734" lon="6.61241">
        <ele>2253</ele>
        <time>2012-09-09T10:00:52Z</time>
      </trkpt>
      <trkpt lat="45.60735" lon="6.6124">
        <ele>2253</ele>
        <time>2012-09-09T10:00:54Z</time>
      </trkpt>
      <trkpt lat="45.60735" lon="6.61239">
        <ele>2253</ele>
        <time>2012-09-09T10:01:03Z</time>
      </trkpt>
      <trkpt lat="45.60729" lon="6.6124">
        <ele>2253</ele>
        <time>2012-09-09T10:01:21Z</time>
      </trkpt>
      <trkpt lat="45.60725" lon="6.6124">
        <ele>2254</ele>
        <time>2012-09-09T10:01:25Z</time>
      </trkpt>
      <trkpt lat="45.60718" lon="6.61238">
        <ele>2254</ele>
        <time>2012-09-09T10:01:33Z</time>
      </trkpt>
      <trkpt lat="45.60716" lon="6.61237">
        <ele>2255.1999511719</ele>
        <time>2012-09-09T10:01:35Z</time>
      </trkpt>
      <trkpt lat="45.60707" lon="6.61233">
        <ele>2255.1999511719</ele>
        <time>2012-09-09T10:01:44Z</time>
      </trkpt>
      <trkpt lat="45.60691" lon="6.61225">
        <ele>2255.1999511719</ele>
        <time>2012-09-09T10:01:57Z</time>
      </trkpt>
      <trkpt lat="45.60685" lon="6.61217">
        <ele>2255.1999511719</ele>
        <time>2012-09-09T10:02:03Z</time>
      </trkpt>
      <trkpt lat="45.60675" lon="6.61211">
        <ele>2255.1999511719</ele>
        <time>2012-09-09T10:02:11Z</time>
      </trkpt>
      <trkpt lat="45.60669" lon="6.61208">
        <ele>2255.1999511719</ele>
        <time>2012-09-09T10:02:16Z</time>
      </trkpt>
      <trkpt lat="45.6065" lon="6.61212">
        <ele>2252.1999511719</ele>
        <time>2012-09-09T10:02:23Z</time>
      </trkpt>
      <trkpt lat="45.60636" lon="6.61219">
        <ele>2251.1999511719</ele>
        <time>2012-09-09T10:02:29Z</time>
      </trkpt>
      <trkpt lat="45.60629" lon="6.61222">
        <ele>2250</ele>
        <time>2012-09-09T10:02:33Z</time>
      </trkpt>
      <trkpt lat="45.60624" lon="6.61226">
        <ele>2248.8000488281</ele>
        <time>2012-09-09T10:02:36Z</time>
      </trkpt>
      <trkpt lat="45.60615" lon="6.61232">
        <ele>2246.1999511719</ele>
        <time>2012-09-09T10:02:39Z</time>
      </trkpt>
      <trkpt lat="45.60604" lon="6.61237">
        <ele>2243.8000488281</ele>
        <time>2012-09-09T10:02:43Z</time>
      </trkpt>
      <trkpt lat="45.60595" lon="6.61244">
        <ele>2241.1999511719</ele>
        <time>2012-09-09T10:02:47Z</time>
      </trkpt>
      <trkpt lat="45.60588" lon="6.6125">
        <ele>2239.1999511719</ele>
        <time>2012-09-09T10:02:51Z</time>
      </trkpt>
      <trkpt lat="45.60583" lon="6.61254">
        <ele>2238.1999511719</ele>
        <time>2012-09-09T10:02:53Z</time>
      </trkpt>
      <trkpt lat="45.60574" lon="6.61258">
        <ele>2237</ele>
        <time>2012-09-09T10:02:57Z</time>
      </trkpt>
      <trkpt lat="45.60562" lon="6.61256">
        <ele>2234.6000976562</ele>
        <time>2012-09-09T10:03:02Z</time>
      </trkpt>
      <trkpt lat="45.60557" lon="6.61255">
        <ele>2233.1999511719</ele>
        <time>2012-09-09T10:03:04Z</time>
      </trkpt>
      <trkpt lat="45.60541" lon="6.61252">
        <ele>2232</ele>
        <time>2012-09-09T10:03:11Z</time>
      </trkpt>
      <trkpt lat="45.60524" lon="6.61247">
        <ele>2230.8000488281</ele>
        <time>2012-09-09T10:03:19Z</time>
      </trkpt>
      <trkpt lat="45.60518" lon="6.61245">
        <ele>2229.8000488281</ele>
        <time>2012-09-09T10:03:22Z</time>
      </trkpt>
      <trkpt lat="45.60508" lon="6.61244">
        <ele>2227.6000976562</ele>
        <time>2012-09-09T10:03:26Z</time>
      </trkpt>
      <trkpt lat="45.60503" lon="6.61242">
        <ele>2226.6000976562</ele>
        <time>2012-09-09T10:03:28Z</time>
      </trkpt>
      <trkpt lat="45.60489" lon="6.61239">
        <ele>2224.3999023438</ele>
        <time>2012-09-09T10:03:34Z</time>
      </trkpt>
      <trkpt lat="45.6048" lon="6.61238">
        <ele>2223.3999023438</ele>
        <time>2012-09-09T10:03:38Z</time>
      </trkpt>
      <trkpt lat="45.60472" lon="6.61239">
        <ele>2222.3999023438</ele>
        <time>2012-09-09T10:03:42Z</time>
      </trkpt>
      <trkpt lat="45.60462" lon="6.61241">
        <ele>2220.1999511719</ele>
        <time>2012-09-09T10:03:46Z</time>
      </trkpt>
      <trkpt lat="45.60458" lon="6.61242">
        <ele>2219</ele>
        <time>2012-09-09T10:03:48Z</time>
      </trkpt>
      <trkpt lat="45.60446" lon="6.61242">
        <ele>2216.3999023438</ele>
        <time>2012-09-09T10:03:53Z</time>
      </trkpt>
      <trkpt lat="45.60434" lon="6.61239">
        <ele>2215.3999023438</ele>
        <time>2012-09-09T10:03:58Z</time>
      </trkpt>
      <trkpt lat="45.60427" lon="6.61234">
        <ele>2214.3999023438</ele>
        <time>2012-09-09T10:04:01Z</time>
      </trkpt>
      <trkpt lat="45.60414" lon="6.61227">
        <ele>2213.1999511719</ele>
        <time>2012-09-09T10:04:07Z</time>
      </trkpt>
      <trkpt lat="45.60404" lon="6.61225">
        <ele>2212</ele>
        <time>2012-09-09T10:04:12Z</time>
      </trkpt>
      <trkpt lat="45.60396" lon="6.61228">
        <ele>2210.6000976562</ele>
        <time>2012-09-09T10:04:16Z</time>
      </trkpt>
      <trkpt lat="45.60392" lon="6.61226">
        <ele>2210.6000976562</ele>
        <time>2012-09-09T10:04:19Z</time>
      </trkpt>
      <trkpt lat="45.60387" lon="6.61227">
        <ele>2210.6000976562</ele>
        <time>2012-09-09T10:04:26Z</time>
      </trkpt>
      <trkpt lat="45.60376" lon="6.61228">
        <ele>2210.6000976562</ele>
        <time>2012-09-09T10:04:36Z</time>
      </trkpt>
      <trkpt lat="45.6037" lon="6.61231">
        <ele>2210.6000976562</ele>
        <time>2012-09-09T10:04:42Z</time>
      </trkpt>
      <trkpt lat="45.60362" lon="6.61233">
        <ele>2210.6000976562</ele>
        <time>2012-09-09T10:04:49Z</time>
      </trkpt>
      <trkpt lat="45.60358" lon="6.61232">
        <ele>2210.6000976562</ele>
        <time>2012-09-09T10:04:53Z</time>
      </trkpt>
      <trkpt lat="45.6035" lon="6.61234">
        <ele>2210.6000976562</ele>
        <time>2012-09-09T10:05:00Z</time>
      </trkpt>
      <trkpt lat="45.60343" lon="6.61234">
        <ele>2209.6000976562</ele>
        <time>2012-09-09T10:05:11Z</time>
      </trkpt>
      <trkpt lat="45.6033" lon="6.61235">
        <ele>2209.6000976562</ele>
        <time>2012-09-09T10:05:21Z</time>
      </trkpt>
      <trkpt lat="45.60327" lon="6.61237">
        <ele>2208.6000976562</ele>
        <time>2012-09-09T10:05:23Z</time>
      </trkpt>
      <trkpt lat="45.60323" lon="6.61239">
        <ele>2207.3999023438</ele>
        <time>2012-09-09T10:05:26Z</time>
      </trkpt>
      <trkpt lat="45.60317" lon="6.61245">
        <ele>2206.1999511719</ele>
        <time>2012-09-09T10:05:31Z</time>
      </trkpt>
      <trkpt lat="45.60313" lon="6.61251">
        <ele>2205.1999511719</ele>
        <time>2012-09-09T10:05:35Z</time>
      </trkpt>
      <trkpt lat="45.60311" lon="6.61256">
        <ele>2204.1999511719</ele>
        <time>2012-09-09T10:05:39Z</time>
      </trkpt>
      <trkpt lat="45.60308" lon="6.61259">
        <ele>2203.1999511719</ele>
        <time>2012-09-09T10:05:42Z</time>
      </trkpt>
      <trkpt lat="45.60305" lon="6.61263">
        <ele>2201.8000488281</ele>
        <time>2012-09-09T10:05:46Z</time>
      </trkpt>
      <trkpt lat="45.603" lon="6.61266">
        <ele>2201.8000488281</ele>
        <time>2012-09-09T10:05:51Z</time>
      </trkpt>
      <trkpt lat="45.60296" lon="6.61268">
        <ele>2200.8000488281</ele>
        <time>2012-09-09T10:05:56Z</time>
      </trkpt>
      <trkpt lat="45.60294" lon="6.61271">
        <ele>2198.6000976562</ele>
        <time>2012-09-09T10:05:58Z</time>
      </trkpt>
      <trkpt lat="45.60289" lon="6.61279">
        <ele>2196.1999511719</ele>
        <time>2012-09-09T10:06:03Z</time>
      </trkpt>
      <trkpt lat="45.60288" lon="6.61283">
        <ele>2195.1999511719</ele>
        <time>2012-09-09T10:06:05Z</time>
      </trkpt>
      <trkpt lat="45.60284" lon="6.6129">
        <ele>2192.8000488281</ele>
        <time>2012-09-09T10:06:09Z</time>
      </trkpt>
      <trkpt lat="45.60282" lon="6.61295">
        <ele>2191.8000488281</ele>
        <time>2012-09-09T10:06:11Z</time>
      </trkpt>
      <trkpt lat="45.60279" lon="6.61303">
        <ele>2190.8000488281</ele>
        <time>2012-09-09T10:06:16Z</time>
      </trkpt>
      <trkpt lat="45.60277" lon="6.61306">
        <ele>2189.8000488281</ele>
        <time>2012-09-09T10:06:21Z</time>
      </trkpt>
      <trkpt lat="45.60276" lon="6.6131">
        <ele>2188.6000976562</ele>
        <time>2012-09-09T10:06:23Z</time>
      </trkpt>
      <trkpt lat="45.60269" lon="6.61319">
        <ele>2188.6000976562</ele>
        <time>2012-09-09T10:06:29Z</time>
      </trkpt>
      <trkpt lat="45.6026" lon="6.61331">
        <ele>2188.6000976562</ele>
        <time>2012-09-09T10:06:34Z</time>
      </trkpt>
      <trkpt lat="45.6026" lon="6.61345">
        <ele>2187.3999023438</ele>
        <time>2012-09-09T10:06:38Z</time>
      </trkpt>
      <trkpt lat="45.6026" lon="6.61363">
        <ele>2186.1999511719</ele>
        <time>2012-09-09T10:06:43Z</time>
      </trkpt>
      <trkpt lat="45.60257" lon="6.61387">
        <ele>2185</ele>
        <time>2012-09-09T10:06:50Z</time>
      </trkpt>
      <trkpt lat="45.60251" lon="6.6142">
        <ele>2184</ele>
        <time>2012-09-09T10:07:00Z</time>
      </trkpt>
      <trkpt lat="45.60252" lon="6.61429">
        <ele>2182.8000488281</ele>
        <time>2012-09-09T10:07:03Z</time>
      </trkpt>
      <trkpt lat="45.60256" lon="6.61448">
        <ele>2180.3999023438</ele>
        <time>2012-09-09T10:07:09Z</time>
      </trkpt>
      <trkpt lat="45.60258" lon="6.61454">
        <ele>2179.1999511719</ele>
        <time>2012-09-09T10:07:11Z</time>
      </trkpt>
      <trkpt lat="45.60263" lon="6.61465">
        <ele>2177</ele>
        <time>2012-09-09T10:07:15Z</time>
      </trkpt>
      <trkpt lat="45.60269" lon="6.61481">
        <ele>2176</ele>
        <time>2012-09-09T10:07:20Z</time>
      </trkpt>
      <trkpt lat="45.60271" lon="6.61492">
        <ele>2174.6000976562</ele>
        <time>2012-09-09T10:07:23Z</time>
      </trkpt>
      <trkpt lat="45.60272" lon="6.61501">
        <ele>2173.1999511719</ele>
        <time>2012-09-09T10:07:26Z</time>
      </trkpt>
      <trkpt lat="45.60272" lon="6.61513">
        <ele>2171</ele>
        <time>2012-09-09T10:07:30Z</time>
      </trkpt>
      <trkpt lat="45.60276" lon="6.61525">
        <ele>2170</ele>
        <time>2012-09-09T10:07:34Z</time>
      </trkpt>
      <trkpt lat="45.6028" lon="6.61538">
        <ele>2167.8000488281</ele>
        <time>2012-09-09T10:07:39Z</time>
      </trkpt>
      <trkpt lat="45.60281" lon="6.61543">
        <ele>2166.6000976562</ele>
        <time>2012-09-09T10:07:41Z</time>
      </trkpt>
      <trkpt lat="45.60282" lon="6.61554">
        <ele>2164.3999023438</ele>
        <time>2012-09-09T10:07:46Z</time>
      </trkpt>
      <trkpt lat="45.60282" lon="6.61563">
        <ele>2162.1999511719</ele>
        <time>2012-09-09T10:07:50Z</time>
      </trkpt>
      <trkpt lat="45.60282" lon="6.61567">
        <ele>2161</ele>
        <time>2012-09-09T10:07:52Z</time>
      </trkpt>
      <trkpt lat="45.60283" lon="6.61576">
        <ele>2158.6000976562</ele>
        <time>2012-09-09T10:07:56Z</time>
      </trkpt>
      <trkpt lat="45.60282" lon="6.61581">
        <ele>2157.6000976562</ele>
        <time>2012-09-09T10:07:59Z</time>
      </trkpt>
      <trkpt lat="45.60282" lon="6.61585">
        <ele>2156.6000976562</ele>
        <time>2012-09-09T10:08:01Z</time>
      </trkpt>
      <trkpt lat="45.60281" lon="6.61589">
        <ele>2155.3999023438</ele>
        <time>2012-09-09T10:08:03Z</time>
      </trkpt>
      <trkpt lat="45.60279" lon="6.61598">
        <ele>2153.1999511719</ele>
        <time>2012-09-09T10:08:07Z</time>
      </trkpt>
      <trkpt lat="45.60279" lon="6.61611">
        <ele>2151.1999511719</ele>
        <time>2012-09-09T10:08:12Z</time>
      </trkpt>
      <trkpt lat="45.60278" lon="6.61625">
        <ele>2148.8000488281</ele>
        <time>2012-09-09T10:08:17Z</time>
      </trkpt>
      <trkpt lat="45.60276" lon="6.6164">
        <ele>2146.1999511719</ele>
        <time>2012-09-09T10:08:23Z</time>
      </trkpt>
      <trkpt lat="45.60276" lon="6.61644">
        <ele>2145</ele>
        <time>2012-09-09T10:08:25Z</time>
      </trkpt>
      <trkpt lat="45.60276" lon="6.61652">
        <ele>2144</ele>
        <time>2012-09-09T10:08:28Z</time>
      </trkpt>
      <trkpt lat="45.60273" lon="6.61662">
        <ele>2143</ele>
        <time>2012-09-09T10:08:31Z</time>
      </trkpt>
      <trkpt lat="45.60269" lon="6.61675">
        <ele>2140.6000976562</ele>
        <time>2012-09-09T10:08:36Z</time>
      </trkpt>
      <trkpt lat="45.60267" lon="6.61691">
        <ele>2139.3999023438</ele>
        <time>2012-09-09T10:08:42Z</time>
      </trkpt>
      <trkpt lat="45.60267" lon="6.61703">
        <ele>2137.3999023438</ele>
        <time>2012-09-09T10:08:46Z</time>
      </trkpt>
      <trkpt lat="45.60267" lon="6.61711">
        <ele>2136.3999023438</ele>
        <time>2012-09-09T10:08:49Z</time>
      </trkpt>
      <trkpt lat="45.60265" lon="6.61725">
        <ele>2135.3999023438</ele>
        <time>2012-09-09T10:08:54Z</time>
      </trkpt>
      <trkpt lat="45.60265" lon="6.61735">
        <ele>2133.1999511719</ele>
        <time>2012-09-09T10:08:58Z</time>
      </trkpt>
      <trkpt lat="45.60265" lon="6.6174">
        <ele>2131</ele>
        <time>2012-09-09T10:09:00Z</time>
      </trkpt>
      <trkpt lat="45.60265" lon="6.61751">
        <ele>2129.8000488281</ele>
        <time>2012-09-09T10:09:04Z</time>
      </trkpt>
      <trkpt lat="45.60267" lon="6.61759">
        <ele>2127.8000488281</ele>
        <time>2012-09-09T10:09:07Z</time>
      </trkpt>
      <trkpt lat="45.60267" lon="6.61771">
        <ele>2126.6000976562</ele>
        <time>2012-09-09T10:09:12Z</time>
      </trkpt>
      <trkpt lat="45.60267" lon="6.61776">
        <ele>2125.3999023438</ele>
        <time>2012-09-09T10:09:15Z</time>
      </trkpt>
      <trkpt lat="45.60266" lon="6.61783">
        <ele>2124.3999023438</ele>
        <time>2012-09-09T10:09:19Z</time>
      </trkpt>
      <trkpt lat="45.60266" lon="6.61787">
        <ele>2123.1999511719</ele>
        <time>2012-09-09T10:09:22Z</time>
      </trkpt>
      <trkpt lat="45.60268" lon="6.61798">
        <ele>2122.1999511719</ele>
        <time>2012-09-09T10:09:26Z</time>
      </trkpt>
      <trkpt lat="45.60268" lon="6.61806">
        <ele>2120</ele>
        <time>2012-09-09T10:09:30Z</time>
      </trkpt>
      <trkpt lat="45.60269" lon="6.61814">
        <ele>2118.8000488281</ele>
        <time>2012-09-09T10:09:34Z</time>
      </trkpt>
      <trkpt lat="45.60268" lon="6.6182">
        <ele>2116.8000488281</ele>
        <time>2012-09-09T10:09:37Z</time>
      </trkpt>
      <trkpt lat="45.60267" lon="6.61826">
        <ele>2115.8000488281</ele>
        <time>2012-09-09T10:09:40Z</time>
      </trkpt>
      <trkpt lat="45.60266" lon="6.61828">
        <ele>2114.3999023438</ele>
        <time>2012-09-09T10:09:42Z</time>
      </trkpt>
      <trkpt lat="45.60266" lon="6.61835">
        <ele>2112.1999511719</ele>
        <time>2012-09-09T10:09:45Z</time>
      </trkpt>
      <trkpt lat="45.60266" lon="6.61842">
        <ele>2111.1999511719</ele>
        <time>2012-09-09T10:09:48Z</time>
      </trkpt>
      <trkpt lat="45.60266" lon="6.61847">
        <ele>2109</ele>
        <time>2012-09-09T10:09:51Z</time>
      </trkpt>
      <trkpt lat="45.60265" lon="6.61858">
        <ele>2106.8000488281</ele>
        <time>2012-09-09T10:09:56Z</time>
      </trkpt>
      <trkpt lat="45.60259" lon="6.6186">
        <ele>2106.8000488281</ele>
        <time>2012-09-09T10:09:59Z</time>
      </trkpt>
      <trkpt lat="45.6025" lon="6.61859">
        <ele>2104.3999023438</ele>
        <time>2012-09-09T10:10:03Z</time>
      </trkpt>
      <trkpt lat="45.60244" lon="6.61858">
        <ele>2103.3999023438</ele>
        <time>2012-09-09T10:10:06Z</time>
      </trkpt>
      <trkpt lat="45.60238" lon="6.61861">
        <ele>2102.1999511719</ele>
        <time>2012-09-09T10:10:09Z</time>
      </trkpt>
      <trkpt lat="45.60232" lon="6.61866">
        <ele>2101.1999511719</ele>
        <time>2012-09-09T10:10:14Z</time>
      </trkpt>
      <trkpt lat="45.60228" lon="6.61869">
        <ele>2101.1999511719</ele>
        <time>2012-09-09T10:10:17Z</time>
      </trkpt>
      <trkpt lat="45.60223" lon="6.61872">
        <ele>2101.1999511719</ele>
        <time>2012-09-09T10:10:22Z</time>
      </trkpt>
      <trkpt lat="45.60213" lon="6.6188">
        <ele>2101.1999511719</ele>
        <time>2012-09-09T10:10:30Z</time>
      </trkpt>
      <trkpt lat="45.60203" lon="6.61887">
        <ele>2104.1999511719</ele>
        <time>2012-09-09T10:10:39Z</time>
      </trkpt>
      <trkpt lat="45.60192" lon="6.61892">
        <ele>2105.3999023438</ele>
        <time>2012-09-09T10:10:48Z</time>
      </trkpt>
      <trkpt lat="45.60187" lon="6.61901">
        <ele>2105.3999023438</ele>
        <time>2012-09-09T10:10:55Z</time>
      </trkpt>
      <trkpt lat="45.60183" lon="6.6191">
        <ele>2106.3999023438</ele>
        <time>2012-09-09T10:11:01Z</time>
      </trkpt>
      <trkpt lat="45.60175" lon="6.6193">
        <ele>2106.3999023438</ele>
        <time>2012-09-09T10:11:12Z</time>
      </trkpt>
      <trkpt lat="45.6017" lon="6.61944">
        <ele>2106.3999023438</ele>
        <time>2012-09-09T10:11:20Z</time>
      </trkpt>
      <trkpt lat="45.60168" lon="6.61944">
        <ele>2106.3999023438</ele>
        <time>2012-09-09T10:11:30Z</time>
      </trkpt>
      <trkpt lat="45.60163" lon="6.61956">
        <ele>2106.3999023438</ele>
        <time>2012-09-09T10:11:41Z</time>
      </trkpt>
      <trkpt lat="45.60159" lon="6.61967">
        <ele>2106.3999023438</ele>
        <time>2012-09-09T10:11:48Z</time>
      </trkpt>
      <trkpt lat="45.60153" lon="6.61979">
        <ele>2106.3999023438</ele>
        <time>2012-09-09T10:11:56Z</time>
      </trkpt>
      <trkpt lat="45.60149" lon="6.61988">
        <ele>2106.3999023438</ele>
        <time>2012-09-09T10:12:02Z</time>
      </trkpt>
      <trkpt lat="45.60139" lon="6.62011">
        <ele>2107.6000976562</ele>
        <time>2012-09-09T10:12:17Z</time>
      </trkpt>
      <trkpt lat="45.60134" lon="6.62033">
        <ele>2107.6000976562</ele>
        <time>2012-09-09T10:12:28Z</time>
      </trkpt>
      <trkpt lat="45.60128" lon="6.62057">
        <ele>2107.6000976562</ele>
        <time>2012-09-09T10:12:40Z</time>
      </trkpt>
      <trkpt lat="45.60119" lon="6.62074">
        <ele>2107.6000976562</ele>
        <time>2012-09-09T10:12:51Z</time>
      </trkpt>
      <trkpt lat="45.60115" lon="6.62081">
        <ele>2107.6000976562</ele>
        <time>2012-09-09T10:12:56Z</time>
      </trkpt>
      <trkpt lat="45.60109" lon="6.62094">
        <ele>2107.6000976562</ele>
        <time>2012-09-09T10:13:05Z</time>
      </trkpt>
      <trkpt lat="45.60108" lon="6.62102">
        <ele>2107.6000976562</ele>
        <time>2012-09-09T10:13:10Z</time>
      </trkpt>
      <trkpt lat="45.60101" lon="6.6211">
        <ele>2107.6000976562</ele>
        <time>2012-09-09T10:13:19Z</time>
      </trkpt>
      <trkpt lat="45.60098" lon="6.62116">
        <ele>2108.8000488281</ele>
        <time>2012-09-09T10:13:23Z</time>
      </trkpt>
      <trkpt lat="45.60097" lon="6.62125">
        <ele>2108.8000488281</ele>
        <time>2012-09-09T10:13:28Z</time>
      </trkpt>
      <trkpt lat="45.60095" lon="6.62132">
        <ele>2108.8000488281</ele>
        <time>2012-09-09T10:13:32Z</time>
      </trkpt>
      <trkpt lat="45.60092" lon="6.62144">
        <ele>2109.8000488281</ele>
        <time>2012-09-09T10:13:41Z</time>
      </trkpt>
      <trkpt lat="45.60091" lon="6.62152">
        <ele>2109.8000488281</ele>
        <time>2012-09-09T10:13:46Z</time>
      </trkpt>
      <trkpt lat="45.60092" lon="6.62159">
        <ele>2110.8000488281</ele>
        <time>2012-09-09T10:13:51Z</time>
      </trkpt>
      <trkpt lat="45.60091" lon="6.62166">
        <ele>2112</ele>
        <time>2012-09-09T10:13:55Z</time>
      </trkpt>
      <trkpt lat="45.60091" lon="6.62175">
        <ele>2113</ele>
        <time>2012-09-09T10:14:01Z</time>
      </trkpt>
      <trkpt lat="45.60093" lon="6.62189">
        <ele>2115</ele>
        <time>2012-09-09T10:14:11Z</time>
      </trkpt>
      <trkpt lat="45.60094" lon="6.62197">
        <ele>2117.1999511719</ele>
        <time>2012-09-09T10:14:18Z</time>
      </trkpt>
      <trkpt lat="45.60095" lon="6.6221">
        <ele>2119.1999511719</ele>
        <time>2012-09-09T10:14:30Z</time>
      </trkpt>
      <trkpt lat="45.60099" lon="6.62224">
        <ele>2120.3999023438</ele>
        <time>2012-09-09T10:14:41Z</time>
      </trkpt>
      <trkpt lat="45.60101" lon="6.62239">
        <ele>2122.3999023438</ele>
        <time>2012-09-09T10:14:52Z</time>
      </trkpt>
      <trkpt lat="45.60102" lon="6.62247">
        <ele>2124.6000976562</ele>
        <time>2012-09-09T10:14:58Z</time>
      </trkpt>
      <trkpt lat="45.601" lon="6.62255">
        <ele>2126.8000488281</ele>
        <time>2012-09-09T10:15:08Z</time>
      </trkpt>
      <trkpt lat="45.601" lon="6.62265">
        <ele>2129</ele>
        <time>2012-09-09T10:15:20Z</time>
      </trkpt>
      <trkpt lat="45.60104" lon="6.62276">
        <ele>2132</ele>
        <time>2012-09-09T10:15:30Z</time>
      </trkpt>
      <trkpt lat="45.60104" lon="6.62286">
        <ele>2133</ele>
        <time>2012-09-09T10:15:41Z</time>
      </trkpt>
      <trkpt lat="45.60103" lon="6.62293">
        <ele>2135.1999511719</ele>
        <time>2012-09-09T10:16:02Z</time>
      </trkpt>
      <trkpt lat="45.60101" lon="6.623">
        <ele>2137.3999023438</ele>
        <time>2012-09-09T10:16:13Z</time>
      </trkpt>
      <trkpt lat="45.60101" lon="6.62307">
        <ele>2139.3999023438</ele>
        <time>2012-09-09T10:16:28Z</time>
      </trkpt>
      <trkpt lat="45.60099" lon="6.62315">
        <ele>2141.6000976562</ele>
        <time>2012-09-09T10:16:38Z</time>
      </trkpt>
      <trkpt lat="45.60098" lon="6.62329">
        <ele>2143.6000976562</ele>
        <time>2012-09-09T10:16:53Z</time>
      </trkpt>
      <trkpt lat="45.601" lon="6.62339">
        <ele>2144.8000488281</ele>
        <time>2012-09-09T10:17:04Z</time>
      </trkpt>
      <trkpt lat="45.60104" lon="6.62349">
        <ele>2146.8000488281</ele>
        <time>2012-09-09T10:17:15Z</time>
      </trkpt>
      <trkpt lat="45.60112" lon="6.62367">
        <ele>2147.8000488281</ele>
        <time>2012-09-09T10:17:30Z</time>
      </trkpt>
      <trkpt lat="45.60116" lon="6.62376">
        <ele>2151</ele>
        <time>2012-09-09T10:17:41Z</time>
      </trkpt>
      <trkpt lat="45.60122" lon="6.62384">
        <ele>2154.1999511719</ele>
        <time>2012-09-09T10:17:59Z</time>
      </trkpt>
      <trkpt lat="45.60126" lon="6.62391">
        <ele>2156.1999511719</ele>
        <time>2012-09-09T10:18:09Z</time>
      </trkpt>
      <trkpt lat="45.60127" lon="6.62401">
        <ele>2157.3999023438</ele>
        <time>2012-09-09T10:18:20Z</time>
      </trkpt>
      <trkpt lat="45.60127" lon="6.62402">
        <ele>2158.6000976562</ele>
        <time>2012-09-09T10:18:44Z</time>
      </trkpt>
      <trkpt lat="45.60127" lon="6.62415">
        <ele>2155.3999023438</ele>
        <time>2012-09-09T10:19:02Z</time>
      </trkpt>
      <trkpt lat="45.60124" lon="6.62426">
        <ele>2152</ele>
        <time>2012-09-09T10:19:09Z</time>
      </trkpt>
      <trkpt lat="45.60123" lon="6.62431">
        <ele>2150.8000488281</ele>
        <time>2012-09-09T10:19:15Z</time>
      </trkpt>
      <trkpt lat="45.6013" lon="6.62435">
        <ele>2148.8000488281</ele>
        <time>2012-09-09T10:19:20Z</time>
      </trkpt>
      <trkpt lat="45.60144" lon="6.6244">
        <ele>2145.3999023438</ele>
        <time>2012-09-09T10:19:29Z</time>
      </trkpt>
      <trkpt lat="45.60154" lon="6.62443">
        <ele>2141.8000488281</ele>
        <time>2012-09-09T10:19:34Z</time>
      </trkpt>
      <trkpt lat="45.60151" lon="6.62454">
        <ele>2138.6000976562</ele>
        <time>2012-09-09T10:19:41Z</time>
      </trkpt>
      <trkpt lat="45.60146" lon="6.62463">
        <ele>2135.1999511719</ele>
        <time>2012-09-09T10:19:46Z</time>
      </trkpt>
      <trkpt lat="45.60138" lon="6.62476">
        <ele>2132.8000488281</ele>
        <time>2012-09-09T10:19:53Z</time>
      </trkpt>
      <trkpt lat="45.60133" lon="6.62492">
        <ele>2129.6000976562</ele>
        <time>2012-09-09T10:20:00Z</time>
      </trkpt>
      <trkpt lat="45.60131" lon="6.62502">
        <ele>2128.6000976562</ele>
        <time>2012-09-09T10:20:07Z</time>
      </trkpt>
      <trkpt lat="45.60132" lon="6.62512">
        <ele>2126.1999511719</ele>
        <time>2012-09-09T10:20:14Z</time>
      </trkpt>
      <trkpt lat="45.60134" lon="6.62523">
        <ele>2124</ele>
        <time>2012-09-09T10:20:19Z</time>
      </trkpt>
      <trkpt lat="45.60143" lon="6.62529">
        <ele>2121.8000488281</ele>
        <time>2012-09-09T10:20:25Z</time>
      </trkpt>
      <trkpt lat="45.60144" lon="6.6254">
        <ele>2118.3999023438</ele>
        <time>2012-09-09T10:20:31Z</time>
      </trkpt>
      <trkpt lat="45.60132" lon="6.6255">
        <ele>2115.1999511719</ele>
        <time>2012-09-09T10:20:38Z</time>
      </trkpt>
      <trkpt lat="45.60118" lon="6.62555">
        <ele>2113</ele>
        <time>2012-09-09T10:20:45Z</time>
      </trkpt>
      <trkpt lat="45.60107" lon="6.6256">
        <ele>2109.3999023438</ele>
        <time>2012-09-09T10:20:52Z</time>
      </trkpt>
      <trkpt lat="45.60097" lon="6.62571">
        <ele>2105.1999511719</ele>
        <time>2012-09-09T10:21:00Z</time>
      </trkpt>
      <trkpt lat="45.60076" lon="6.62585">
        <ele>2100.6000976562</ele>
        <time>2012-09-09T10:21:12Z</time>
      </trkpt>
      <trkpt lat="45.6006" lon="6.62594">
        <ele>2095.8000488281</ele>
        <time>2012-09-09T10:21:20Z</time>
      </trkpt>
      <trkpt lat="45.60046" lon="6.62596">
        <ele>2091</ele>
        <time>2012-09-09T10:21:28Z</time>
      </trkpt>
      <trkpt lat="45.60036" lon="6.62598">
        <ele>2087.6000976562</ele>
        <time>2012-09-09T10:21:35Z</time>
      </trkpt>
      <trkpt lat="45.6003" lon="6.62594">
        <ele>2085.1999511719</ele>
        <time>2012-09-09T10:21:47Z</time>
      </trkpt>
      <trkpt lat="45.60023" lon="6.62597">
        <ele>2082</ele>
        <time>2012-09-09T10:21:57Z</time>
      </trkpt>
      <trkpt lat="45.60016" lon="6.62595">
        <ele>2078.8000488281</ele>
        <time>2012-09-09T10:22:02Z</time>
      </trkpt>
      <trkpt lat="45.59999" lon="6.62593">
        <ele>2075.3999023438</ele>
        <time>2012-09-09T10:22:12Z</time>
      </trkpt>
      <trkpt lat="45.59979" lon="6.62591">
        <ele>2072</ele>
        <time>2012-09-09T10:22:22Z</time>
      </trkpt>
      <trkpt lat="45.59961" lon="6.6258">
        <ele>2068.6000976562</ele>
        <time>2012-09-09T10:22:32Z</time>
      </trkpt>
      <trkpt lat="45.5995" lon="6.62568">
        <ele>2065.3999023438</ele>
        <time>2012-09-09T10:22:40Z</time>
      </trkpt>
      <trkpt lat="45.59945" lon="6.62576">
        <ele>2062.3999023438</ele>
        <time>2012-09-09T10:22:45Z</time>
      </trkpt>
      <trkpt lat="45.59934" lon="6.62591">
        <ele>2057.8000488281</ele>
        <time>2012-09-09T10:22:54Z</time>
      </trkpt>
      <trkpt lat="45.59923" lon="6.62606">
        <ele>2054.6000976562</ele>
        <time>2012-09-09T10:23:02Z</time>
      </trkpt>
      <trkpt lat="45.59909" lon="6.62611">
        <ele>2051.1999511719</ele>
        <time>2012-09-09T10:23:09Z</time>
      </trkpt>
      <trkpt lat="45.59894" lon="6.62622">
        <ele>2047.8000488281</ele>
        <time>2012-09-09T10:23:18Z</time>
      </trkpt>
      <trkpt lat="45.59866" lon="6.62643">
        <ele>2045.4000244141</ele>
        <time>2012-09-09T10:23:30Z</time>
      </trkpt>
      <trkpt lat="45.59838" lon="6.62675">
        <ele>2044</ele>
        <time>2012-09-09T10:23:45Z</time>
      </trkpt>
      <trkpt lat="45.59829" lon="6.62707">
        <ele>2044</ele>
        <time>2012-09-09T10:23:57Z</time>
      </trkpt>
      <trkpt lat="45.59813" lon="6.62746">
        <ele>2042</ele>
        <time>2012-09-09T10:24:11Z</time>
      </trkpt>
      <trkpt lat="45.59799" lon="6.62765">
        <ele>2039.5999755859</ele>
        <time>2012-09-09T10:24:19Z</time>
      </trkpt>
      <trkpt lat="45.59781" lon="6.62789">
        <ele>2036.5999755859</ele>
        <time>2012-09-09T10:24:29Z</time>
      </trkpt>
      <trkpt lat="45.59765" lon="6.62839">
        <ele>2034</ele>
        <time>2012-09-09T10:24:45Z</time>
      </trkpt>
      <trkpt lat="45.59746" lon="6.62862">
        <ele>2031.8000488281</ele>
        <time>2012-09-09T10:24:56Z</time>
      </trkpt>
      <trkpt lat="45.59738" lon="6.62872">
        <ele>2029.8000488281</ele>
        <time>2012-09-09T10:25:06Z</time>
      </trkpt>
      <trkpt lat="45.59725" lon="6.62884">
        <ele>2027.5999755859</ele>
        <time>2012-09-09T10:25:14Z</time>
      </trkpt>
      <trkpt lat="45.5971" lon="6.62902">
        <ele>2026.4000244141</ele>
        <time>2012-09-09T10:25:28Z</time>
      </trkpt>
      <trkpt lat="45.59702" lon="6.62918">
        <ele>2026.4000244141</ele>
        <time>2012-09-09T10:25:40Z</time>
      </trkpt>
      <trkpt lat="45.59697" lon="6.62935">
        <ele>2024.1999511719</ele>
        <time>2012-09-09T10:25:51Z</time>
      </trkpt>
      <trkpt lat="45.59697" lon="6.62942">
        <ele>2023</ele>
        <time>2012-09-09T10:26:05Z</time>
      </trkpt>
      <trkpt lat="45.59692" lon="6.62964">
        <ele>2023</ele>
        <time>2012-09-09T10:26:20Z</time>
      </trkpt>
      <trkpt lat="45.59688" lon="6.62991">
        <ele>2023</ele>
        <time>2012-09-09T10:26:34Z</time>
      </trkpt>
      <trkpt lat="45.59677" lon="6.63026">
        <ele>2023</ele>
        <time>2012-09-09T10:26:54Z</time>
      </trkpt>
      <trkpt lat="45.59671" lon="6.63052">
        <ele>2023</ele>
        <time>2012-09-09T10:27:11Z</time>
      </trkpt>
      <trkpt lat="45.59668" lon="6.6306">
        <ele>2027.1999511719</ele>
        <time>2012-09-09T10:27:17Z</time>
      </trkpt>
      <trkpt lat="45.59658" lon="6.63089">
        <ele>2027.1999511719</ele>
        <time>2012-09-09T10:27:35Z</time>
      </trkpt>
      <trkpt lat="45.59651" lon="6.631">
        <ele>2028.1999511719</ele>
        <time>2012-09-09T10:27:44Z</time>
      </trkpt>
      <trkpt lat="45.59651" lon="6.63114">
        <ele>2029.1999511719</ele>
        <time>2012-09-09T10:27:54Z</time>
      </trkpt>
      <trkpt lat="45.59644" lon="6.63132">
        <ele>2030.4000244141</ele>
        <time>2012-09-09T10:28:07Z</time>
      </trkpt>
      <trkpt lat="45.59638" lon="6.63143">
        <ele>2032.5999755859</ele>
        <time>2012-09-09T10:28:15Z</time>
      </trkpt>
      <trkpt lat="45.5963" lon="6.63155">
        <ele>2033.8000488281</ele>
        <time>2012-09-09T10:28:27Z</time>
      </trkpt>
      <trkpt lat="45.59619" lon="6.63166">
        <ele>2034.8000488281</ele>
        <time>2012-09-09T10:28:39Z</time>
      </trkpt>
      <trkpt lat="45.59612" lon="6.63177">
        <ele>2037</ele>
        <time>2012-09-09T10:28:48Z</time>
      </trkpt>
      <trkpt lat="45.59608" lon="6.63185">
        <ele>2038</ele>
        <time>2012-09-09T10:28:55Z</time>
      </trkpt>
      <trkpt lat="45.59599" lon="6.63202">
        <ele>2039</ele>
        <time>2012-09-09T10:29:07Z</time>
      </trkpt>
      <trkpt lat="45.59593" lon="6.63215">
        <ele>2040.1999511719</ele>
        <time>2012-09-09T10:29:16Z</time>
      </trkpt>
      <trkpt lat="45.59587" lon="6.63223">
        <ele>2042.1999511719</ele>
        <time>2012-09-09T10:29:25Z</time>
      </trkpt>
      <trkpt lat="45.59582" lon="6.63233">
        <ele>2044.4000244141</ele>
        <time>2012-09-09T10:29:36Z</time>
      </trkpt>
      <trkpt lat="45.59576" lon="6.63239">
        <ele>2046.4000244141</ele>
        <time>2012-09-09T10:29:44Z</time>
      </trkpt>
      <trkpt lat="45.59568" lon="6.63242">
        <ele>2048.6000976562</ele>
        <time>2012-09-09T10:29:53Z</time>
      </trkpt>
      <trkpt lat="45.59561" lon="6.63243">
        <ele>2049.6000976562</ele>
        <time>2012-09-09T10:30:01Z</time>
      </trkpt>
      <trkpt lat="45.59556" lon="6.63246">
        <ele>2049.6000976562</ele>
        <time>2012-09-09T10:30:15Z</time>
      </trkpt>
      <trkpt lat="45.59543" lon="6.63257">
        <ele>2051.6000976562</ele>
        <time>2012-09-09T10:30:34Z</time>
      </trkpt>
      <trkpt lat="45.59531" lon="6.63264">
        <ele>2053.8000488281</ele>
        <time>2012-09-09T10:30:46Z</time>
      </trkpt>
      <trkpt lat="45.59523" lon="6.6327">
        <ele>2053.8000488281</ele>
        <time>2012-09-09T10:30:55Z</time>
      </trkpt>
      <trkpt lat="45.59496" lon="6.63278">
        <ele>2049.6000976562</ele>
        <time>2012-09-09T10:31:08Z</time>
      </trkpt>
      <trkpt lat="45.59483" lon="6.633">
        <ele>2047.4000244141</ele>
        <time>2012-09-09T10:31:17Z</time>
      </trkpt>
      <trkpt lat="45.59472" lon="6.6331">
        <ele>2044</ele>
        <time>2012-09-09T10:31:23Z</time>
      </trkpt>
      <trkpt lat="45.59466" lon="6.63322">
        <ele>2040.5999755859</ele>
        <time>2012-09-09T10:31:33Z</time>
      </trkpt>
      <trkpt lat="45.59464" lon="6.63332">
        <ele>2037.4000244141</ele>
        <time>2012-09-09T10:31:39Z</time>
      </trkpt>
      <trkpt lat="45.59462" lon="6.63342">
        <ele>2035</ele>
        <time>2012-09-09T10:31:45Z</time>
      </trkpt>
      <trkpt lat="45.5945" lon="6.63345">
        <ele>2032.8000488281</ele>
        <time>2012-09-09T10:31:51Z</time>
      </trkpt>
      <trkpt lat="45.59427" lon="6.63361">
        <ele>2030.5999755859</ele>
        <time>2012-09-09T10:32:03Z</time>
      </trkpt>
      <trkpt lat="45.59398" lon="6.63384">
        <ele>2030.5999755859</ele>
        <time>2012-09-09T10:32:19Z</time>
      </trkpt>
      <trkpt lat="45.59364" lon="6.63389">
        <ele>2028.1999511719</ele>
        <time>2012-09-09T10:32:35Z</time>
      </trkpt>
      <trkpt lat="45.59333" lon="6.63383">
        <ele>2024.8000488281</ele>
        <time>2012-09-09T10:32:48Z</time>
      </trkpt>
      <trkpt lat="45.59306" lon="6.63368">
        <ele>2023.5999755859</ele>
        <time>2012-09-09T10:33:04Z</time>
      </trkpt>
      <trkpt lat="45.59298" lon="6.63359">
        <ele>2020.4000244141</ele>
        <time>2012-09-09T10:33:10Z</time>
      </trkpt>
      <trkpt lat="45.59285" lon="6.63339">
        <ele>2016.8000488281</ele>
        <time>2012-09-09T10:33:20Z</time>
      </trkpt>
      <trkpt lat="45.59278" lon="6.63319">
        <ele>2014.5999755859</ele>
        <time>2012-09-09T10:33:29Z</time>
      </trkpt>
      <trkpt lat="45.59271" lon="6.63294">
        <ele>2012.1999511719</ele>
        <time>2012-09-09T10:33:37Z</time>
      </trkpt>
      <trkpt lat="45.59259" lon="6.63271">
        <ele>2010</ele>
        <time>2012-09-09T10:33:46Z</time>
      </trkpt>
      <trkpt lat="45.59255" lon="6.63263">
        <ele>2009</ele>
        <time>2012-09-09T10:34:02Z</time>
      </trkpt>
      <trkpt lat="45.59246" lon="6.63241">
        <ele>2005.8000488281</ele>
        <time>2012-09-09T10:34:13Z</time>
      </trkpt>
      <trkpt lat="45.5924" lon="6.63229">
        <ele>2004.5999755859</ele>
        <time>2012-09-09T10:34:19Z</time>
      </trkpt>
      <trkpt lat="45.59212" lon="6.6318">
        <ele>2003.4000244141</ele>
        <time>2012-09-09T10:34:41Z</time>
      </trkpt>
      <trkpt lat="45.59201" lon="6.63153">
        <ele>2001.4000244141</ele>
        <time>2012-09-09T10:34:53Z</time>
      </trkpt>
      <trkpt lat="45.59186" lon="6.63129">
        <ele>1999.1999511719</ele>
        <time>2012-09-09T10:35:04Z</time>
      </trkpt>
      <trkpt lat="45.59162" lon="6.631">
        <ele>1995.5999755859</ele>
        <time>2012-09-09T10:35:20Z</time>
      </trkpt>
      <trkpt lat="45.59145" lon="6.63068">
        <ele>1991.5999755859</ele>
        <time>2012-09-09T10:35:33Z</time>
      </trkpt>
      <trkpt lat="45.59124" lon="6.63042">
        <ele>1989.1999511719</ele>
        <time>2012-09-09T10:35:47Z</time>
      </trkpt>
      <trkpt lat="45.59122" lon="6.63056">
        <ele>1987.1999511719</ele>
        <time>2012-09-09T10:35:53Z</time>
      </trkpt>
      <trkpt lat="45.59121" lon="6.63073">
        <ele>1983.5999755859</ele>
        <time>2012-09-09T10:36:00Z</time>
      </trkpt>
      <trkpt lat="45.59123" lon="6.63093">
        <ele>1981.1999511719</ele>
        <time>2012-09-09T10:36:07Z</time>
      </trkpt>
      <trkpt lat="45.59124" lon="6.63113">
        <ele>1977.5999755859</ele>
        <time>2012-09-09T10:36:15Z</time>
      </trkpt>
      <trkpt lat="45.59123" lon="6.63139">
        <ele>1974.4000244141</ele>
        <time>2012-09-09T10:36:25Z</time>
      </trkpt>
      <trkpt lat="45.59133" lon="6.63159">
        <ele>1971</ele>
        <time>2012-09-09T10:36:33Z</time>
      </trkpt>
      <trkpt lat="45.59137" lon="6.63177">
        <ele>1968.4000244141</ele>
        <time>2012-09-09T10:36:40Z</time>
      </trkpt>
      <trkpt lat="45.59143" lon="6.63207">
        <ele>1966.1999511719</ele>
        <time>2012-09-09T10:36:51Z</time>
      </trkpt>
      <trkpt lat="45.59153" lon="6.63236">
        <ele>1963</ele>
        <time>2012-09-09T10:37:04Z</time>
      </trkpt>
      <trkpt lat="45.59144" lon="6.63249">
        <ele>1959.4000244141</ele>
        <time>2012-09-09T10:37:12Z</time>
      </trkpt>
      <trkpt lat="45.59133" lon="6.63249">
        <ele>1957</ele>
        <time>2012-09-09T10:37:19Z</time>
      </trkpt>
      <trkpt lat="45.59117" lon="6.63237">
        <ele>1953.5999755859</ele>
        <time>2012-09-09T10:37:29Z</time>
      </trkpt>
      <trkpt lat="45.59103" lon="6.63222">
        <ele>1950.4000244141</ele>
        <time>2012-09-09T10:37:40Z</time>
      </trkpt>
      <trkpt lat="45.59093" lon="6.63218">
        <ele>1948.1999511719</ele>
        <time>2012-09-09T10:37:49Z</time>
      </trkpt>
      <trkpt lat="45.59084" lon="6.63209">
        <ele>1946</ele>
        <time>2012-09-09T10:37:56Z</time>
      </trkpt>
      <trkpt lat="45.59072" lon="6.63206">
        <ele>1943.5999755859</ele>
        <time>2012-09-09T10:38:04Z</time>
      </trkpt>
      <trkpt lat="45.59056" lon="6.63209">
        <ele>1941.5999755859</ele>
        <time>2012-09-09T10:38:14Z</time>
      </trkpt>
      <trkpt lat="45.59043" lon="6.63227">
        <ele>1939.4000244141</ele>
        <time>2012-09-09T10:38:27Z</time>
      </trkpt>
      <trkpt lat="45.59019" lon="6.63244">
        <ele>1938</ele>
        <time>2012-09-09T10:38:43Z</time>
      </trkpt>
      <trkpt lat="45.59008" lon="6.63253">
        <ele>1937</ele>
        <time>2012-09-09T10:38:54Z</time>
      </trkpt>
      <trkpt lat="45.59003" lon="6.63267">
        <ele>1936</ele>
        <time>2012-09-09T10:39:03Z</time>
      </trkpt>
      <trkpt lat="45.58988" lon="6.63277">
        <ele>1936</ele>
        <time>2012-09-09T10:39:17Z</time>
      </trkpt>
      <trkpt lat="45.58981" lon="6.63284">
        <ele>1935</ele>
        <time>2012-09-09T10:39:23Z</time>
      </trkpt>
      <trkpt lat="45.58976" lon="6.63299">
        <ele>1933.8000488281</ele>
        <time>2012-09-09T10:39:31Z</time>
      </trkpt>
      <trkpt lat="45.58967" lon="6.63325">
        <ele>1931.5999755859</ele>
        <time>2012-09-09T10:39:45Z</time>
      </trkpt>
      <trkpt lat="45.58953" lon="6.6334">
        <ele>1934.5999755859</ele>
        <time>2012-09-09T10:39:59Z</time>
      </trkpt>
      <trkpt lat="45.58923" lon="6.63352">
        <ele>1934.5999755859</ele>
        <time>2012-09-09T10:40:18Z</time>
      </trkpt>
      <trkpt lat="45.58907" lon="6.63333">
        <ele>1931.4000244141</ele>
        <time>2012-09-09T10:40:28Z</time>
      </trkpt>
      <trkpt lat="45.58886" lon="6.63326">
        <ele>1930.4000244141</ele>
        <time>2012-09-09T10:40:42Z</time>
      </trkpt>
      <trkpt lat="45.58873" lon="6.63342">
        <ele>1930.4000244141</ele>
        <time>2012-09-09T10:40:56Z</time>
      </trkpt>
      <trkpt lat="45.58866" lon="6.63358">
        <ele>1928.1999511719</ele>
        <time>2012-09-09T10:41:06Z</time>
      </trkpt>
      <trkpt lat="45.58853" lon="6.63376">
        <ele>1927.1999511719</ele>
        <time>2012-09-09T10:41:19Z</time>
      </trkpt>
      <trkpt lat="45.58846" lon="6.63396">
        <ele>1930.1999511719</ele>
        <time>2012-09-09T10:41:33Z</time>
      </trkpt>
      <trkpt lat="45.58839" lon="6.63415">
        <ele>1931.1999511719</ele>
        <time>2012-09-09T10:41:46Z</time>
      </trkpt>
      <trkpt lat="45.58828" lon="6.63414">
        <ele>1932.1999511719</ele>
        <time>2012-09-09T10:41:56Z</time>
      </trkpt>
      <trkpt lat="45.58813" lon="6.63411">
        <ele>1933.1999511719</ele>
        <time>2012-09-09T10:42:09Z</time>
      </trkpt>
      <trkpt lat="45.58796" lon="6.63417">
        <ele>1933.1999511719</ele>
        <time>2012-09-09T10:42:25Z</time>
      </trkpt>
      <trkpt lat="45.58784" lon="6.63436">
        <ele>1933.1999511719</ele>
        <time>2012-09-09T10:42:39Z</time>
      </trkpt>
      <trkpt lat="45.58778" lon="6.63456">
        <ele>1933.1999511719</ele>
        <time>2012-09-09T10:42:52Z</time>
      </trkpt>
      <trkpt lat="45.58764" lon="6.63495">
        <ele>1933.1999511719</ele>
        <time>2012-09-09T10:43:17Z</time>
      </trkpt>
      <trkpt lat="45.58759" lon="6.63507">
        <ele>1934.1999511719</ele>
        <time>2012-09-09T10:43:28Z</time>
      </trkpt>
      <trkpt lat="45.58754" lon="6.63517">
        <ele>1936.1999511719</ele>
        <time>2012-09-09T10:43:36Z</time>
      </trkpt>
      <trkpt lat="45.5875" lon="6.63538">
        <ele>1937.5999755859</ele>
        <time>2012-09-09T10:43:49Z</time>
      </trkpt>
      <trkpt lat="45.58745" lon="6.63552">
        <ele>1938.5999755859</ele>
        <time>2012-09-09T10:44:00Z</time>
      </trkpt>
      <trkpt lat="45.5874" lon="6.63561">
        <ele>1939.5999755859</ele>
        <time>2012-09-09T10:44:08Z</time>
      </trkpt>
      <trkpt lat="45.58735" lon="6.63574">
        <ele>1940.5999755859</ele>
        <time>2012-09-09T10:44:18Z</time>
      </trkpt>
      <trkpt lat="45.58732" lon="6.6358">
        <ele>1942.8000488281</ele>
        <time>2012-09-09T10:44:25Z</time>
      </trkpt>
      <trkpt lat="45.58727" lon="6.63598">
        <ele>1943.8000488281</ele>
        <time>2012-09-09T10:44:40Z</time>
      </trkpt>
      <trkpt lat="45.58723" lon="6.63606">
        <ele>1946</ele>
        <time>2012-09-09T10:44:47Z</time>
      </trkpt>
      <trkpt lat="45.58716" lon="6.63618">
        <ele>1948.1999511719</ele>
        <time>2012-09-09T10:45:02Z</time>
      </trkpt>
      <trkpt lat="45.58712" lon="6.63624">
        <ele>1950.4000244141</ele>
        <time>2012-09-09T10:45:09Z</time>
      </trkpt>
      <trkpt lat="45.58706" lon="6.63625">
        <ele>1952.5999755859</ele>
        <time>2012-09-09T10:45:17Z</time>
      </trkpt>
      <trkpt lat="45.58701" lon="6.63627">
        <ele>1954.5999755859</ele>
        <time>2012-09-09T10:45:26Z</time>
      </trkpt>
      <trkpt lat="45.58698" lon="6.63638">
        <ele>1955.8000488281</ele>
        <time>2012-09-09T10:45:37Z</time>
      </trkpt>
      <trkpt lat="45.58703" lon="6.63668">
        <ele>1957</ele>
        <time>2012-09-09T10:45:56Z</time>
      </trkpt>
      <trkpt lat="45.58709" lon="6.63684">
        <ele>1958</ele>
        <time>2012-09-09T10:46:07Z</time>
      </trkpt>
      <trkpt lat="45.5871" lon="6.63715">
        <ele>1958</ele>
        <time>2012-09-09T10:46:25Z</time>
      </trkpt>
      <trkpt lat="45.58702" lon="6.63734">
        <ele>1958</ele>
        <time>2012-09-09T10:46:40Z</time>
      </trkpt>
      <trkpt lat="45.58692" lon="6.63747">
        <ele>1958</ele>
        <time>2012-09-09T10:46:52Z</time>
      </trkpt>
      <trkpt lat="45.58673" lon="6.63765">
        <ele>1958</ele>
        <time>2012-09-09T10:47:13Z</time>
      </trkpt>
      <trkpt lat="45.58669" lon="6.6377">
        <ele>1959.1999511719</ele>
        <time>2012-09-09T10:47:32Z</time>
      </trkpt>
      <trkpt lat="45.5867" lon="6.63772">
        <ele>1959.1999511719</ele>
        <time>2012-09-09T10:48:08Z</time>
      </trkpt>
      <trkpt lat="45.58662" lon="6.63796">
        <ele>1959.1999511719</ele>
        <time>2012-09-09T10:48:29Z</time>
      </trkpt>
      <trkpt lat="45.58665" lon="6.63818">
        <ele>1953.8000488281</ele>
        <time>2012-09-09T10:48:38Z</time>
      </trkpt>
      <trkpt lat="45.5867" lon="6.63832">
        <ele>1950.4000244141</ele>
        <time>2012-09-09T10:48:44Z</time>
      </trkpt>
      <trkpt lat="45.58672" lon="6.63851">
        <ele>1948.1999511719</ele>
        <time>2012-09-09T10:48:51Z</time>
      </trkpt>
      <trkpt lat="45.58673" lon="6.63866">
        <ele>1944.5999755859</ele>
        <time>2012-09-09T10:48:57Z</time>
      </trkpt>
      <trkpt lat="45.58675" lon="6.63884">
        <ele>1941.4000244141</ele>
        <time>2012-09-09T10:49:04Z</time>
      </trkpt>
      <trkpt lat="45.58675" lon="6.639">
        <ele>1938.1999511719</ele>
        <time>2012-09-09T10:49:10Z</time>
      </trkpt>
      <trkpt lat="45.58671" lon="6.63918">
        <ele>1935.8000488281</ele>
        <time>2012-09-09T10:49:17Z</time>
      </trkpt>
      <trkpt lat="45.58675" lon="6.63917">
        <ele>1933.5999755859</ele>
        <time>2012-09-09T10:49:23Z</time>
      </trkpt>
      <trkpt lat="45.58689" lon="6.63905">
        <ele>1930</ele>
        <time>2012-09-09T10:49:32Z</time>
      </trkpt>
      <trkpt lat="45.58699" lon="6.6391">
        <ele>1926.4000244141</ele>
        <time>2012-09-09T10:49:42Z</time>
      </trkpt>
      <trkpt lat="45.58696" lon="6.63922">
        <ele>1924.4000244141</ele>
        <time>2012-09-09T10:49:47Z</time>
      </trkpt>
      <trkpt lat="45.5869" lon="6.63949">
        <ele>1920.4000244141</ele>
        <time>2012-09-09T10:49:57Z</time>
      </trkpt>
      <trkpt lat="45.58694" lon="6.63966">
        <ele>1918.4000244141</ele>
        <time>2012-09-09T10:50:04Z</time>
      </trkpt>
      <trkpt lat="45.587" lon="6.6396">
        <ele>1915</ele>
        <time>2012-09-09T10:50:10Z</time>
      </trkpt>
      <trkpt lat="45.58708" lon="6.63959">
        <ele>1912.8000488281</ele>
        <time>2012-09-09T10:50:14Z</time>
      </trkpt>
      <trkpt lat="45.58718" lon="6.6396">
        <ele>1908.4000244141</ele>
        <time>2012-09-09T10:50:22Z</time>
      </trkpt>
      <trkpt lat="45.58727" lon="6.63954">
        <ele>1905</ele>
        <time>2012-09-09T10:50:29Z</time>
      </trkpt>
      <trkpt lat="45.58739" lon="6.63946">
        <ele>1901.5999755859</ele>
        <time>2012-09-09T10:50:37Z</time>
      </trkpt>
      <trkpt lat="45.58747" lon="6.63952">
        <ele>1898.4000244141</ele>
        <time>2012-09-09T10:50:46Z</time>
      </trkpt>
      <trkpt lat="45.58749" lon="6.63965">
        <ele>1895.1999511719</ele>
        <time>2012-09-09T10:50:52Z</time>
      </trkpt>
      <trkpt lat="45.58754" lon="6.63983">
        <ele>1890.4000244141</ele>
        <time>2012-09-09T10:51:02Z</time>
      </trkpt>
      <trkpt lat="45.58765" lon="6.63976">
        <ele>1888.1999511719</ele>
        <time>2012-09-09T10:51:08Z</time>
      </trkpt>
      <trkpt lat="45.58779" lon="6.63959">
        <ele>1886</ele>
        <time>2012-09-09T10:51:17Z</time>
      </trkpt>
      <trkpt lat="45.58787" lon="6.63948">
        <ele>1882.8000488281</ele>
        <time>2012-09-09T10:51:23Z</time>
      </trkpt>
      <trkpt lat="45.58797" lon="6.63931">
        <ele>1880.5999755859</ele>
        <time>2012-09-09T10:51:31Z</time>
      </trkpt>
      <trkpt lat="45.58812" lon="6.63902">
        <ele>1876.1999511719</ele>
        <time>2012-09-09T10:51:45Z</time>
      </trkpt>
      <trkpt lat="45.58814" lon="6.63917">
        <ele>1872.8000488281</ele>
        <time>2012-09-09T10:51:53Z</time>
      </trkpt>
      <trkpt lat="45.58815" lon="6.63935">
        <ele>1869.4000244141</ele>
        <time>2012-09-09T10:52:01Z</time>
      </trkpt>
      <trkpt lat="45.58819" lon="6.63952">
        <ele>1867.1999511719</ele>
        <time>2012-09-09T10:52:08Z</time>
      </trkpt>
      <trkpt lat="45.58823" lon="6.63966">
        <ele>1864.1999511719</ele>
        <time>2012-09-09T10:52:14Z</time>
      </trkpt>
      <trkpt lat="45.58826" lon="6.63984">
        <ele>1860.8000488281</ele>
        <time>2012-09-09T10:52:22Z</time>
      </trkpt>
      <trkpt lat="45.5883" lon="6.63999">
        <ele>1857.4000244141</ele>
        <time>2012-09-09T10:52:29Z</time>
      </trkpt>
      <trkpt lat="45.58834" lon="6.6401">
        <ele>1855.1999511719</ele>
        <time>2012-09-09T10:52:36Z</time>
      </trkpt>
      <trkpt lat="45.58836" lon="6.64017">
        <ele>1852</ele>
        <time>2012-09-09T10:52:44Z</time>
      </trkpt>
      <trkpt lat="45.58848" lon="6.64">
        <ele>1850.8000488281</ele>
        <time>2012-09-09T10:52:52Z</time>
      </trkpt>
      <trkpt lat="45.58858" lon="6.63983">
        <ele>1849.5999755859</ele>
        <time>2012-09-09T10:53:02Z</time>
      </trkpt>
      <trkpt lat="45.58862" lon="6.6396">
        <ele>1847.4000244141</ele>
        <time>2012-09-09T10:53:14Z</time>
      </trkpt>
      <trkpt lat="45.58868" lon="6.63959">
        <ele>1846.4000244141</ele>
        <time>2012-09-09T10:53:20Z</time>
      </trkpt>
      <trkpt lat="45.58876" lon="6.6395">
        <ele>1844.1999511719</ele>
        <time>2012-09-09T10:53:28Z</time>
      </trkpt>
      <trkpt lat="45.58883" lon="6.63954">
        <ele>1841</ele>
        <time>2012-09-09T10:53:33Z</time>
      </trkpt>
      <trkpt lat="45.58887" lon="6.63981">
        <ele>1837.4000244141</ele>
        <time>2012-09-09T10:53:42Z</time>
      </trkpt>
      <trkpt lat="45.58886" lon="6.64017">
        <ele>1833.5999755859</ele>
        <time>2012-09-09T10:53:55Z</time>
      </trkpt>
      <trkpt lat="45.58885" lon="6.64045">
        <ele>1831.1999511719</ele>
        <time>2012-09-09T10:54:05Z</time>
      </trkpt>
      <trkpt lat="45.5889" lon="6.6408">
        <ele>1827.4000244141</ele>
        <time>2012-09-09T10:54:17Z</time>
      </trkpt>
      <trkpt lat="45.5889" lon="6.641">
        <ele>1823.8000488281</ele>
        <time>2012-09-09T10:54:24Z</time>
      </trkpt>
      <trkpt lat="45.58889" lon="6.64131">
        <ele>1820.4000244141</ele>
        <time>2012-09-09T10:54:35Z</time>
      </trkpt>
      <trkpt lat="45.58901" lon="6.64114">
        <ele>1817.1999511719</ele>
        <time>2012-09-09T10:54:44Z</time>
      </trkpt>
      <trkpt lat="45.58921" lon="6.64088">
        <ele>1814</ele>
        <time>2012-09-09T10:54:56Z</time>
      </trkpt>
      <trkpt lat="45.58926" lon="6.64104">
        <ele>1811.4000244141</ele>
        <time>2012-09-09T10:55:02Z</time>
      </trkpt>
      <trkpt lat="45.58929" lon="6.64129">
        <ele>1808</ele>
        <time>2012-09-09T10:55:11Z</time>
      </trkpt>
      <trkpt lat="45.58935" lon="6.6416">
        <ele>1803.5999755859</ele>
        <time>2012-09-09T10:55:22Z</time>
      </trkpt>
      <trkpt lat="45.58943" lon="6.6419">
        <ele>1800.4000244141</ele>
        <time>2012-09-09T10:55:32Z</time>
      </trkpt>
      <trkpt lat="45.58943" lon="6.64215">
        <ele>1797</ele>
        <time>2012-09-09T10:55:40Z</time>
      </trkpt>
      <trkpt lat="45.58939" lon="6.64239">
        <ele>1793.8000488281</ele>
        <time>2012-09-09T10:55:48Z</time>
      </trkpt>
      <trkpt lat="45.58932" lon="6.64267">
        <ele>1790.1999511719</ele>
        <time>2012-09-09T10:55:59Z</time>
      </trkpt>
      <trkpt lat="45.58925" lon="6.64286">
        <ele>1787</ele>
        <time>2012-09-09T10:56:06Z</time>
      </trkpt>
      <trkpt lat="45.58915" lon="6.64307">
        <ele>1783.5999755859</ele>
        <time>2012-09-09T10:56:15Z</time>
      </trkpt>
      <trkpt lat="45.58904" lon="6.64323">
        <ele>1780.5999755859</ele>
        <time>2012-09-09T10:56:23Z</time>
      </trkpt>
      <trkpt lat="45.58898" lon="6.64331">
        <ele>1779.4000244141</ele>
        <time>2012-09-09T10:56:31Z</time>
      </trkpt>
      <trkpt lat="45.58895" lon="6.64334">
        <ele>1778.4000244141</ele>
        <time>2012-09-09T10:56:41Z</time>
      </trkpt>
      <trkpt lat="45.58876" lon="6.64338">
        <ele>1775.1999511719</ele>
        <time>2012-09-09T10:56:50Z</time>
      </trkpt>
      <trkpt lat="45.58855" lon="6.64336">
        <ele>1772.8000488281</ele>
        <time>2012-09-09T10:57:00Z</time>
      </trkpt>
      <trkpt lat="45.58821" lon="6.64345">
        <ele>1769.1999511719</ele>
        <time>2012-09-09T10:57:14Z</time>
      </trkpt>
      <trkpt lat="45.58803" lon="6.64348">
        <ele>1767</ele>
        <time>2012-09-09T10:57:22Z</time>
      </trkpt>
      <trkpt lat="45.58776" lon="6.6436">
        <ele>1763.4000244141</ele>
        <time>2012-09-09T10:57:34Z</time>
      </trkpt>
      <trkpt lat="45.58749" lon="6.64373">
        <ele>1761</ele>
        <time>2012-09-09T10:57:46Z</time>
      </trkpt>
      <trkpt lat="45.58732" lon="6.64382">
        <ele>1758.4000244141</ele>
        <time>2012-09-09T10:57:55Z</time>
      </trkpt>
      <trkpt lat="45.58718" lon="6.64389">
        <ele>1757.4000244141</ele>
        <time>2012-09-09T10:58:03Z</time>
      </trkpt>
      <trkpt lat="45.58703" lon="6.64399">
        <ele>1755.1999511719</ele>
        <time>2012-09-09T10:58:10Z</time>
      </trkpt>
      <trkpt lat="45.58684" lon="6.64411">
        <ele>1753</ele>
        <time>2012-09-09T10:58:20Z</time>
      </trkpt>
      <trkpt lat="45.58665" lon="6.64417">
        <ele>1750.8000488281</ele>
        <time>2012-09-09T10:58:28Z</time>
      </trkpt>
      <trkpt lat="45.58641" lon="6.64426">
        <ele>1748.1999511719</ele>
        <time>2012-09-09T10:58:39Z</time>
      </trkpt>
      <trkpt lat="45.58616" lon="6.64442">
        <ele>1747.1999511719</ele>
        <time>2012-09-09T10:59:01Z</time>
      </trkpt>
      <trkpt lat="45.58602" lon="6.64445">
        <ele>1747.1999511719</ele>
        <time>2012-09-09T10:59:13Z</time>
      </trkpt>
      <trkpt lat="45.58581" lon="6.64451">
        <ele>1750.4000244141</ele>
        <time>2012-09-09T10:59:33Z</time>
      </trkpt>
      <trkpt lat="45.58562" lon="6.64456">
        <ele>1752.4000244141</ele>
        <time>2012-09-09T10:59:50Z</time>
      </trkpt>
      <trkpt lat="45.58542" lon="6.64463">
        <ele>1754.5999755859</ele>
        <time>2012-09-09T11:00:07Z</time>
      </trkpt>
      <trkpt lat="45.5852" lon="6.64464">
        <ele>1754.5999755859</ele>
        <time>2012-09-09T11:00:23Z</time>
      </trkpt>
      <trkpt lat="45.58493" lon="6.64459">
        <ele>1754.5999755859</ele>
        <time>2012-09-09T11:00:43Z</time>
      </trkpt>
      <trkpt lat="45.58468" lon="6.64454">
        <ele>1756.8000488281</ele>
        <time>2012-09-09T11:01:04Z</time>
      </trkpt>
      <trkpt lat="45.58454" lon="6.64459">
        <ele>1753.5999755859</ele>
        <time>2012-09-09T11:01:13Z</time>
      </trkpt>
      <trkpt lat="45.58456" lon="6.6447">
        <ele>1751.1999511719</ele>
        <time>2012-09-09T11:01:19Z</time>
      </trkpt>
      <trkpt lat="45.58462" lon="6.64481">
        <ele>1749</ele>
        <time>2012-09-09T11:01:26Z</time>
      </trkpt>
      <trkpt lat="45.58455" lon="6.64488">
        <ele>1745.8000488281</ele>
        <time>2012-09-09T11:01:32Z</time>
      </trkpt>
      <trkpt lat="45.58461" lon="6.645">
        <ele>1742.4000244141</ele>
        <time>2012-09-09T11:01:40Z</time>
      </trkpt>
      <trkpt lat="45.58467" lon="6.64513">
        <ele>1739.1999511719</ele>
        <time>2012-09-09T11:01:47Z</time>
      </trkpt>
      <trkpt lat="45.5848" lon="6.64524">
        <ele>1735.4000244141</ele>
        <time>2012-09-09T11:01:57Z</time>
      </trkpt>
      <trkpt lat="45.58484" lon="6.6454">
        <ele>1732.1999511719</ele>
        <time>2012-09-09T11:02:05Z</time>
      </trkpt>
      <trkpt lat="45.58483" lon="6.64554">
        <ele>1727.8000488281</ele>
        <time>2012-09-09T11:02:14Z</time>
      </trkpt>
      <trkpt lat="45.58475" lon="6.64558">
        <ele>1725.5999755859</ele>
        <time>2012-09-09T11:02:21Z</time>
      </trkpt>
      <trkpt lat="45.5846" lon="6.6456">
        <ele>1724.5999755859</ele>
        <time>2012-09-09T11:02:32Z</time>
      </trkpt>
      <trkpt lat="45.58446" lon="6.64564">
        <ele>1721.1999511719</ele>
        <time>2012-09-09T11:02:42Z</time>
      </trkpt>
      <trkpt lat="45.58433" lon="6.6456">
        <ele>1719.1999511719</ele>
        <time>2012-09-09T11:02:54Z</time>
      </trkpt>
      <trkpt lat="45.58433" lon="6.64568">
        <ele>1717</ele>
        <time>2012-09-09T11:02:59Z</time>
      </trkpt>
      <trkpt lat="45.58427" lon="6.64574">
        <ele>1713.8000488281</ele>
        <time>2012-09-09T11:03:07Z</time>
      </trkpt>
      <trkpt lat="45.58427" lon="6.64586">
        <ele>1711.5999755859</ele>
        <time>2012-09-09T11:03:15Z</time>
      </trkpt>
      <trkpt lat="45.58419" lon="6.64591">
        <ele>1709.4000244141</ele>
        <time>2012-09-09T11:03:21Z</time>
      </trkpt>
      <trkpt lat="45.58412" lon="6.64597">
        <ele>1706.1999511719</ele>
        <time>2012-09-09T11:03:27Z</time>
      </trkpt>
      <trkpt lat="45.58403" lon="6.64604">
        <ele>1703</ele>
        <time>2012-09-09T11:03:34Z</time>
      </trkpt>
      <trkpt lat="45.58396" lon="6.64611">
        <ele>1700</ele>
        <time>2012-09-09T11:03:41Z</time>
      </trkpt>
      <trkpt lat="45.58396" lon="6.64619">
        <ele>1696.5999755859</ele>
        <time>2012-09-09T11:03:51Z</time>
      </trkpt>
      <trkpt lat="45.58411" lon="6.64629">
        <ele>1694.5999755859</ele>
        <time>2012-09-09T11:04:01Z</time>
      </trkpt>
      <trkpt lat="45.58431" lon="6.6464">
        <ele>1691.1999511719</ele>
        <time>2012-09-09T11:04:11Z</time>
      </trkpt>
      <trkpt lat="45.5843" lon="6.6465">
        <ele>1689.1999511719</ele>
        <time>2012-09-09T11:04:18Z</time>
      </trkpt>
      <trkpt lat="45.58413" lon="6.64655">
        <ele>1687.1999511719</ele>
        <time>2012-09-09T11:04:26Z</time>
      </trkpt>
      <trkpt lat="45.58393" lon="6.64666">
        <ele>1683</ele>
        <time>2012-09-09T11:04:35Z</time>
      </trkpt>
      <trkpt lat="45.58372" lon="6.64683">
        <ele>1679.5999755859</ele>
        <time>2012-09-09T11:04:46Z</time>
      </trkpt>
      <trkpt lat="45.58355" lon="6.64693">
        <ele>1677.5999755859</ele>
        <time>2012-09-09T11:04:54Z</time>
      </trkpt>
      <trkpt lat="45.5833" lon="6.64698">
        <ele>1672.8000488281</ele>
        <time>2012-09-09T11:05:04Z</time>
      </trkpt>
      <trkpt lat="45.58317" lon="6.64701">
        <ele>1670.5999755859</ele>
        <time>2012-09-09T11:05:10Z</time>
      </trkpt>
      <trkpt lat="45.58304" lon="6.64699">
        <ele>1667.4000244141</ele>
        <time>2012-09-09T11:05:17Z</time>
      </trkpt>
      <trkpt lat="45.58287" lon="6.64699">
        <ele>1665.1999511719</ele>
        <time>2012-09-09T11:05:25Z</time>
      </trkpt>
      <trkpt lat="45.58272" lon="6.647">
        <ele>1660.5999755859</ele>
        <time>2012-09-09T11:05:32Z</time>
      </trkpt>
      <trkpt lat="45.58254" lon="6.64689">
        <ele>1657.1999511719</ele>
        <time>2012-09-09T11:05:40Z</time>
      </trkpt>
      <trkpt lat="45.58239" lon="6.64676">
        <ele>1655</ele>
        <time>2012-09-09T11:05:48Z</time>
      </trkpt>
      <trkpt lat="45.58224" lon="6.64661">
        <ele>1650.4000244141</ele>
        <time>2012-09-09T11:05:56Z</time>
      </trkpt>
      <trkpt lat="45.58205" lon="6.64652">
        <ele>1648</ele>
        <time>2012-09-09T11:06:04Z</time>
      </trkpt>
      <trkpt lat="45.58188" lon="6.64644">
        <ele>1644.8000488281</ele>
        <time>2012-09-09T11:06:12Z</time>
      </trkpt>
      <trkpt lat="45.58173" lon="6.64632">
        <ele>1641.4000244141</ele>
        <time>2012-09-09T11:06:20Z</time>
      </trkpt>
      <trkpt lat="45.58157" lon="6.64624">
        <ele>1638.1999511719</ele>
        <time>2012-09-09T11:06:28Z</time>
      </trkpt>
      <trkpt lat="45.58139" lon="6.64616">
        <ele>1636</ele>
        <time>2012-09-09T11:06:37Z</time>
      </trkpt>
      <trkpt lat="45.58127" lon="6.64609">
        <ele>1633.8000488281</ele>
        <time>2012-09-09T11:06:43Z</time>
      </trkpt>
      <trkpt lat="45.58115" lon="6.646">
        <ele>1630.4000244141</ele>
        <time>2012-09-09T11:06:50Z</time>
      </trkpt>
      <trkpt lat="45.58095" lon="6.64596">
        <ele>1627</ele>
        <time>2012-09-09T11:06:59Z</time>
      </trkpt>
      <trkpt lat="45.58073" lon="6.64583">
        <ele>1623.1999511719</ele>
        <time>2012-09-09T11:07:10Z</time>
      </trkpt>
      <trkpt lat="45.5805" lon="6.64575">
        <ele>1619.8000488281</ele>
        <time>2012-09-09T11:07:21Z</time>
      </trkpt>
      <trkpt lat="45.58033" lon="6.64565">
        <ele>1616.4000244141</ele>
        <time>2012-09-09T11:07:31Z</time>
      </trkpt>
      <trkpt lat="45.58022" lon="6.64561">
        <ele>1615.4000244141</ele>
        <time>2012-09-09T11:07:37Z</time>
      </trkpt>
      <trkpt lat="45.58013" lon="6.64556">
        <ele>1613.4000244141</ele>
        <time>2012-09-09T11:07:57Z</time>
      </trkpt>
      <trkpt lat="45.58012" lon="6.64559">
        <ele>1612.4000244141</ele>
        <time>2012-09-09T11:08:17Z</time>
      </trkpt>
      <trkpt lat="45.58015" lon="6.64558">
        <ele>1611.1999511719</ele>
        <time>2012-09-09T11:08:31Z</time>
      </trkpt>
      <trkpt lat="45.58018" lon="6.64563">
        <ele>1610.1999511719</ele>
        <time>2012-09-09T11:08:46Z</time>
      </trkpt>
      <trkpt lat="45.58029" lon="6.64575">
        <ele>1609.1999511719</ele>
        <time>2012-09-09T11:08:53Z</time>
      </trkpt>
      <trkpt lat="45.58036" lon="6.64588">
        <ele>1605.8000488281</ele>
        <time>2012-09-09T11:08:58Z</time>
      </trkpt>
      <trkpt lat="45.58042" lon="6.64604">
        <ele>1602.5999755859</ele>
        <time>2012-09-09T11:09:06Z</time>
      </trkpt>
      <trkpt lat="45.58047" lon="6.64617">
        <ele>1600.1999511719</ele>
        <time>2012-09-09T11:09:11Z</time>
      </trkpt>
      <trkpt lat="45.58049" lon="6.64629">
        <ele>1597.8000488281</ele>
        <time>2012-09-09T11:09:17Z</time>
      </trkpt>
      <trkpt lat="45.58054" lon="6.64642">
        <ele>1595.4000244141</ele>
        <time>2012-09-09T11:09:34Z</time>
      </trkpt>
      <trkpt lat="45.58059" lon="6.64659">
        <ele>1592.1999511719</ele>
        <time>2012-09-09T11:09:40Z</time>
      </trkpt>
      <trkpt lat="45.58063" lon="6.64677">
        <ele>1589</ele>
        <time>2012-09-09T11:09:49Z</time>
      </trkpt>
      <trkpt lat="45.58069" lon="6.64695">
        <ele>1585.5999755859</ele>
        <time>2012-09-09T11:09:55Z</time>
      </trkpt>
      <trkpt lat="45.58072" lon="6.64715">
        <ele>1583.4000244141</ele>
        <time>2012-09-09T11:10:01Z</time>
      </trkpt>
      <trkpt lat="45.58071" lon="6.64729">
        <ele>1579.5999755859</ele>
        <time>2012-09-09T11:10:07Z</time>
      </trkpt>
      <trkpt lat="45.58059" lon="6.64738">
        <ele>1578.5999755859</ele>
        <time>2012-09-09T11:10:15Z</time>
      </trkpt>
      <trkpt lat="45.58048" lon="6.64747">
        <ele>1573.1999511719</ele>
        <time>2012-09-09T11:10:22Z</time>
      </trkpt>
      <trkpt lat="45.58034" lon="6.64753">
        <ele>1568.4000244141</ele>
        <time>2012-09-09T11:10:30Z</time>
      </trkpt>
      <trkpt lat="45.58028" lon="6.64765">
        <ele>1565</ele>
        <time>2012-09-09T11:10:36Z</time>
      </trkpt>
      <trkpt lat="45.58019" lon="6.64762">
        <ele>1561.8000488281</ele>
        <time>2012-09-09T11:10:42Z</time>
      </trkpt>
      <trkpt lat="45.58007" lon="6.6475">
        <ele>1558.4000244141</ele>
        <time>2012-09-09T11:10:51Z</time>
      </trkpt>
      <trkpt lat="45.57999" lon="6.64748">
        <ele>1555</ele>
        <time>2012-09-09T11:10:56Z</time>
      </trkpt>
      <trkpt lat="45.57979" lon="6.64742">
        <ele>1550.4000244141</ele>
        <time>2012-09-09T11:11:07Z</time>
      </trkpt>
      <trkpt lat="45.57958" lon="6.64742">
        <ele>1545.8000488281</ele>
        <time>2012-09-09T11:11:18Z</time>
      </trkpt>
      <trkpt lat="45.57941" lon="6.64753">
        <ele>1541</ele>
        <time>2012-09-09T11:11:27Z</time>
      </trkpt>
      <trkpt lat="45.57926" lon="6.64756">
        <ele>1537.8000488281</ele>
        <time>2012-09-09T11:11:34Z</time>
      </trkpt>
      <trkpt lat="45.57911" lon="6.64758">
        <ele>1534.1999511719</ele>
        <time>2012-09-09T11:11:41Z</time>
      </trkpt>
      <trkpt lat="45.57899" lon="6.64754">
        <ele>1530.8000488281</ele>
        <time>2012-09-09T11:11:47Z</time>
      </trkpt>
      <trkpt lat="45.57879" lon="6.64756">
        <ele>1525.8000488281</ele>
        <time>2012-09-09T11:11:57Z</time>
      </trkpt>
      <trkpt lat="45.57862" lon="6.6476">
        <ele>1521.4000244141</ele>
        <time>2012-09-09T11:12:06Z</time>
      </trkpt>
      <trkpt lat="45.57852" lon="6.64761">
        <ele>1518</ele>
        <time>2012-09-09T11:12:14Z</time>
      </trkpt>
      <trkpt lat="45.57839" lon="6.64765">
        <ele>1514.8000488281</ele>
        <time>2012-09-09T11:12:22Z</time>
      </trkpt>
      <trkpt lat="45.57827" lon="6.64768">
        <ele>1511</ele>
        <time>2012-09-09T11:12:29Z</time>
      </trkpt>
      <trkpt lat="45.57815" lon="6.64774">
        <ele>1507.4000244141</ele>
        <time>2012-09-09T11:12:36Z</time>
      </trkpt>
      <trkpt lat="45.5781" lon="6.64775">
        <ele>1505.1999511719</ele>
        <time>2012-09-09T11:12:44Z</time>
      </trkpt>
      <trkpt lat="45.57796" lon="6.64783">
        <ele>1502</ele>
        <time>2012-09-09T11:12:52Z</time>
      </trkpt>
      <trkpt lat="45.57783" lon="6.6479">
        <ele>1498.5999755859</ele>
        <time>2012-09-09T11:13:01Z</time>
      </trkpt>
      <trkpt lat="45.57772" lon="6.64803">
        <ele>1494.8000488281</ele>
        <time>2012-09-09T11:13:07Z</time>
      </trkpt>
      <trkpt lat="45.57764" lon="6.64809">
        <ele>1491.8000488281</ele>
        <time>2012-09-09T11:13:13Z</time>
      </trkpt>
      <trkpt lat="45.57756" lon="6.64819">
        <ele>1487</ele>
        <time>2012-09-09T11:13:21Z</time>
      </trkpt>
      <trkpt lat="45.57746" lon="6.64832">
        <ele>1482.8000488281</ele>
        <time>2012-09-09T11:13:29Z</time>
      </trkpt>
      <trkpt lat="45.57735" lon="6.64836">
        <ele>1479.4000244141</ele>
        <time>2012-09-09T11:13:35Z</time>
      </trkpt>
      <trkpt lat="45.57723" lon="6.64836">
        <ele>1476.1999511719</ele>
        <time>2012-09-09T11:13:42Z</time>
      </trkpt>
      <trkpt lat="45.57716" lon="6.64845">
        <ele>1473</ele>
        <time>2012-09-09T11:13:50Z</time>
      </trkpt>
      <trkpt lat="45.57711" lon="6.64856">
        <ele>1469.5999755859</ele>
        <time>2012-09-09T11:13:56Z</time>
      </trkpt>
      <trkpt lat="45.5771" lon="6.64871">
        <ele>1466.4000244141</ele>
        <time>2012-09-09T11:14:05Z</time>
      </trkpt>
      <trkpt lat="45.57712" lon="6.6489">
        <ele>1463</ele>
        <time>2012-09-09T11:14:12Z</time>
      </trkpt>
      <trkpt lat="45.57717" lon="6.64912">
        <ele>1458.5999755859</ele>
        <time>2012-09-09T11:14:21Z</time>
      </trkpt>
      <trkpt lat="45.57726" lon="6.64933">
        <ele>1454.1999511719</ele>
        <time>2012-09-09T11:14:31Z</time>
      </trkpt>
      <trkpt lat="45.57729" lon="6.64946">
        <ele>1451</ele>
        <time>2012-09-09T11:14:37Z</time>
      </trkpt>
      <trkpt lat="45.57732" lon="6.64966">
        <ele>1446.5999755859</ele>
        <time>2012-09-09T11:14:46Z</time>
      </trkpt>
      <trkpt lat="45.57738" lon="6.64989">
        <ele>1443.1999511719</ele>
        <time>2012-09-09T11:14:55Z</time>
      </trkpt>
      <trkpt lat="45.57755" lon="6.65014">
        <ele>1441.1999511719</ele>
        <time>2012-09-09T11:15:06Z</time>
      </trkpt>
      <trkpt lat="45.57758" lon="6.65036">
        <ele>1438</ele>
        <time>2012-09-09T11:15:19Z</time>
      </trkpt>
      <trkpt lat="45.57761" lon="6.65054">
        <ele>1434.4000244141</ele>
        <time>2012-09-09T11:15:28Z</time>
      </trkpt>
      <trkpt lat="45.57779" lon="6.65089">
        <ele>1431.1999511719</ele>
        <time>2012-09-09T11:15:41Z</time>
      </trkpt>
      <trkpt lat="45.5779" lon="6.6511">
        <ele>1428</ele>
        <time>2012-09-09T11:15:49Z</time>
      </trkpt>
      <trkpt lat="45.57798" lon="6.65137">
        <ele>1424.8000488281</ele>
        <time>2012-09-09T11:16:00Z</time>
      </trkpt>
      <trkpt lat="45.57807" lon="6.6516">
        <ele>1420.4000244141</ele>
        <time>2012-09-09T11:16:10Z</time>
      </trkpt>
      <trkpt lat="45.57811" lon="6.65181">
        <ele>1417.1999511719</ele>
        <time>2012-09-09T11:16:18Z</time>
      </trkpt>
      <trkpt lat="45.57832" lon="6.65203">
        <ele>1415</ele>
        <time>2012-09-09T11:16:31Z</time>
      </trkpt>
      <trkpt lat="45.5785" lon="6.65215">
        <ele>1411.4000244141</ele>
        <time>2012-09-09T11:16:41Z</time>
      </trkpt>
      <trkpt lat="45.5785" lon="6.65229">
        <ele>1410.4000244141</ele>
        <time>2012-09-09T11:16:50Z</time>
      </trkpt>
      <trkpt lat="45.57843" lon="6.65234">
        <ele>1408.4000244141</ele>
        <time>2012-09-09T11:17:00Z</time>
      </trkpt>
      <trkpt lat="45.5783" lon="6.65235">
        <ele>1406</ele>
        <time>2012-09-09T11:17:08Z</time>
      </trkpt>
      <trkpt lat="45.5782" lon="6.65245">
        <ele>1403</ele>
        <time>2012-09-09T11:17:15Z</time>
      </trkpt>
      <trkpt lat="45.57816" lon="6.65257">
        <ele>1400.1999511719</ele>
        <time>2012-09-09T11:17:21Z</time>
      </trkpt>
      <trkpt lat="45.57808" lon="6.65268">
        <ele>1396.5999755859</ele>
        <time>2012-09-09T11:17:28Z</time>
      </trkpt>
      <trkpt lat="45.57791" lon="6.65273">
        <ele>1392.4000244141</ele>
        <time>2012-09-09T11:17:38Z</time>
      </trkpt>
      <trkpt lat="45.57776" lon="6.65276">
        <ele>1387.8000488281</ele>
        <time>2012-09-09T11:17:46Z</time>
      </trkpt>
      <trkpt lat="45.57761" lon="6.65281">
        <ele>1384.4000244141</ele>
        <time>2012-09-09T11:17:55Z</time>
      </trkpt>
      <trkpt lat="45.57754" lon="6.65282">
        <ele>1381.1999511719</ele>
        <time>2012-09-09T11:18:04Z</time>
      </trkpt>
      <trkpt lat="45.57748" lon="6.65277">
        <ele>1380</ele>
        <time>2012-09-09T11:18:18Z</time>
      </trkpt>
      <trkpt lat="45.57737" lon="6.65279">
        <ele>1378</ele>
        <time>2012-09-09T11:18:27Z</time>
      </trkpt>
      <trkpt lat="45.57719" lon="6.65281">
        <ele>1374.8000488281</ele>
        <time>2012-09-09T11:18:36Z</time>
      </trkpt>
      <trkpt lat="45.57695" lon="6.65281">
        <ele>1370.4000244141</ele>
        <time>2012-09-09T11:18:48Z</time>
      </trkpt>
      <trkpt lat="45.5768" lon="6.65287">
        <ele>1368.1999511719</ele>
        <time>2012-09-09T11:18:56Z</time>
      </trkpt>
      <trkpt lat="45.57666" lon="6.65291">
        <ele>1365</ele>
        <time>2012-09-09T11:19:04Z</time>
      </trkpt>
      <trkpt lat="45.57655" lon="6.65293">
        <ele>1362.8000488281</ele>
        <time>2012-09-09T11:19:11Z</time>
      </trkpt>
      <trkpt lat="45.57643" lon="6.65297">
        <ele>1359.5999755859</ele>
        <time>2012-09-09T11:19:18Z</time>
      </trkpt>
      <trkpt lat="45.57633" lon="6.65301">
        <ele>1357.4000244141</ele>
        <time>2012-09-09T11:19:24Z</time>
      </trkpt>
      <trkpt lat="45.57626" lon="6.65305">
        <ele>1355.4000244141</ele>
        <time>2012-09-09T11:19:29Z</time>
      </trkpt>
      <trkpt lat="45.57618" lon="6.65313">
        <ele>1353.1999511719</ele>
        <time>2012-09-09T11:19:35Z</time>
      </trkpt>
      <trkpt lat="45.57606" lon="6.65327">
        <ele>1348.5999755859</ele>
        <time>2012-09-09T11:19:44Z</time>
      </trkpt>
      <trkpt lat="45.57595" lon="6.65331">
        <ele>1345</ele>
        <time>2012-09-09T11:19:50Z</time>
      </trkpt>
      <trkpt lat="45.57592" lon="6.65333">
        <ele>1344</ele>
        <time>2012-09-09T11:20:04Z</time>
      </trkpt>
      <trkpt lat="45.57579" lon="6.65337">
        <ele>1341.8000488281</ele>
        <time>2012-09-09T11:20:11Z</time>
      </trkpt>
      <trkpt lat="45.57564" lon="6.65328">
        <ele>1338.4000244141</ele>
        <time>2012-09-09T11:20:19Z</time>
      </trkpt>
      <trkpt lat="45.57546" lon="6.65314">
        <ele>1335.1999511719</ele>
        <time>2012-09-09T11:20:31Z</time>
      </trkpt>
      <trkpt lat="45.57525" lon="6.65296">
        <ele>1333</ele>
        <time>2012-09-09T11:20:43Z</time>
      </trkpt>
      <trkpt lat="45.5751" lon="6.65278">
        <ele>1329.4000244141</ele>
        <time>2012-09-09T11:20:52Z</time>
      </trkpt>
      <trkpt lat="45.57492" lon="6.65254">
        <ele>1327.1999511719</ele>
        <time>2012-09-09T11:21:02Z</time>
      </trkpt>
      <trkpt lat="45.57477" lon="6.65213">
        <ele>1323.4000244141</ele>
        <time>2012-09-09T11:21:15Z</time>
      </trkpt>
      <trkpt lat="45.57454" lon="6.65191">
        <ele>1320.1999511719</ele>
        <time>2012-09-09T11:21:26Z</time>
      </trkpt>
      <trkpt lat="45.57439" lon="6.65154">
        <ele>1316.8000488281</ele>
        <time>2012-09-09T11:21:39Z</time>
      </trkpt>
      <trkpt lat="45.57427" lon="6.65143">
        <ele>1313.4000244141</ele>
        <time>2012-09-09T11:21:46Z</time>
      </trkpt>
      <trkpt lat="45.57407" lon="6.65129">
        <ele>1309.5999755859</ele>
        <time>2012-09-09T11:21:54Z</time>
      </trkpt>
      <trkpt lat="45.57382" lon="6.65104">
        <ele>1304.5999755859</ele>
        <time>2012-09-09T11:22:04Z</time>
      </trkpt>
      <trkpt lat="45.5736" lon="6.65082">
        <ele>1301</ele>
        <time>2012-09-09T11:22:13Z</time>
      </trkpt>
      <trkpt lat="45.57346" lon="6.6506">
        <ele>1297.1999511719</ele>
        <time>2012-09-09T11:22:20Z</time>
      </trkpt>
      <trkpt lat="45.57324" lon="6.65019">
        <ele>1294</ele>
        <time>2012-09-09T11:22:33Z</time>
      </trkpt>
      <trkpt lat="45.57321" lon="6.65029">
        <ele>1291.8000488281</ele>
        <time>2012-09-09T11:22:41Z</time>
      </trkpt>
      <trkpt lat="45.57329" lon="6.65068">
        <ele>1288.5999755859</ele>
        <time>2012-09-09T11:22:52Z</time>
      </trkpt>
      <trkpt lat="45.5734" lon="6.65104">
        <ele>1286.5999755859</ele>
        <time>2012-09-09T11:23:03Z</time>
      </trkpt>
      <trkpt lat="45.57351" lon="6.65148">
        <ele>1283.4000244141</ele>
        <time>2012-09-09T11:23:16Z</time>
      </trkpt>
      <trkpt lat="45.57366" lon="6.65188">
        <ele>1281</ele>
        <time>2012-09-09T11:23:29Z</time>
      </trkpt>
      <trkpt lat="45.57387" lon="6.65229">
        <ele>1279.8000488281</ele>
        <time>2012-09-09T11:23:46Z</time>
      </trkpt>
      <trkpt lat="45.57409" lon="6.65275">
        <ele>1279.8000488281</ele>
        <time>2012-09-09T11:24:05Z</time>
      </trkpt>
      <trkpt lat="45.57431" lon="6.65321">
        <ele>1279.8000488281</ele>
        <time>2012-09-09T11:24:23Z</time>
      </trkpt>
    </trkseg>
  </trk>
</gpx>